<?xml version="1.0" encoding="UTF-8" standalone="no" ?>
<gpx xmlns="http://www.topografix.com/GPX/1/1" xmlns:xsi="http://www.w3.org/2001/XMLSchema-instance" xsi:schemaLocation="http://www.topografix.com/GPX/1/1 http://www.topografix.com/GPX/1/1/gpx.xsd" version="1.1" creator="VisuGPX - https://www.visugpx.com">
  <metadata>
    <name>Parcours du 2021-06-02 10:14</name>
    <desc><![CDATA[Guillaume même équipe qu'hier]]></desc>
  </metadata>
  <trk>
    <name><![CDATA[Parcours du 2021-06-02 10:14]]></name>
    <desc><![CDATA[]]></desc>
    <trkseg>
      <trkpt lat="44.09048" lon="6.96965">
        <ele>1595.7</ele>
        <time>2021-06-02T08:14:13.000Z</time>
      </trkpt>
      <trkpt lat="44.09051" lon="6.9696">
        <ele>1607.6</ele>
        <time>2021-06-02T08:14:22.345Z</time>
      </trkpt>
      <trkpt lat="44.09046" lon="6.96956">
        <ele>1604.8</ele>
        <time>2021-06-02T08:14:40.823Z</time>
      </trkpt>
      <trkpt lat="44.09047" lon="6.96963">
        <ele>1600.7</ele>
        <time>2021-06-02T08:14:50.569Z</time>
      </trkpt>
      <trkpt lat="44.09038" lon="6.96961">
        <ele>1599.5</ele>
        <time>2021-06-02T08:16:03.181Z</time>
      </trkpt>
      <trkpt lat="44.09034" lon="6.96965">
        <ele>1600.5</ele>
        <time>2021-06-02T08:16:06.523Z</time>
      </trkpt>
      <trkpt lat="44.09028" lon="6.96948">
        <ele>1600.4</ele>
        <time>2021-06-02T08:16:11.154Z</time>
      </trkpt>
      <trkpt lat="44.09008" lon="6.96908">
        <ele>1597.8</ele>
        <time>2021-06-02T08:16:15.000Z</time>
      </trkpt>
      <trkpt lat="44.08987" lon="6.96866">
        <ele>1599</ele>
        <time>2021-06-02T08:16:21.000Z</time>
      </trkpt>
      <trkpt lat="44.08977" lon="6.96848">
        <ele>1595.9</ele>
        <time>2021-06-02T08:16:24.000Z</time>
      </trkpt>
      <trkpt lat="44.08967" lon="6.96835">
        <ele>1594.8</ele>
        <time>2021-06-02T08:16:27.000Z</time>
      </trkpt>
      <trkpt lat="44.0896" lon="6.96827">
        <ele>1594.6</ele>
        <time>2021-06-02T08:16:30.000Z</time>
      </trkpt>
      <trkpt lat="44.08952" lon="6.96808">
        <ele>1595.6</ele>
        <time>2021-06-02T08:16:33.661Z</time>
      </trkpt>
      <trkpt lat="44.08949" lon="6.9678">
        <ele>1592.7</ele>
        <time>2021-06-02T08:16:39.000Z</time>
      </trkpt>
      <trkpt lat="44.08942" lon="6.96774">
        <ele>1592.6</ele>
        <time>2021-06-02T08:16:43.169Z</time>
      </trkpt>
      <trkpt lat="44.08929" lon="6.96749">
        <ele>1590.7</ele>
        <time>2021-06-02T08:16:48.000Z</time>
      </trkpt>
      <trkpt lat="44.08918" lon="6.96727">
        <ele>1590.1</ele>
        <time>2021-06-02T08:16:54.000Z</time>
      </trkpt>
      <trkpt lat="44.08909" lon="6.96705">
        <ele>1588.9</ele>
        <time>2021-06-02T08:17:00.000Z</time>
      </trkpt>
      <trkpt lat="44.08907" lon="6.96694">
        <ele>1589.8</ele>
        <time>2021-06-02T08:17:03.000Z</time>
      </trkpt>
      <trkpt lat="44.08905" lon="6.96675">
        <ele>1589.7</ele>
        <time>2021-06-02T08:17:06.766Z</time>
      </trkpt>
      <trkpt lat="44.08906" lon="6.96655">
        <ele>1589.5</ele>
        <time>2021-06-02T08:17:11.193Z</time>
      </trkpt>
      <trkpt lat="44.08908" lon="6.96638">
        <ele>1588.7</ele>
        <time>2021-06-02T08:17:15.225Z</time>
      </trkpt>
      <trkpt lat="44.08912" lon="6.96606">
        <ele>1593.5</ele>
        <time>2021-06-02T08:17:21.000Z</time>
      </trkpt>
      <trkpt lat="44.08912" lon="6.9659">
        <ele>1593.5</ele>
        <time>2021-06-02T08:17:24.184Z</time>
      </trkpt>
      <trkpt lat="44.08909" lon="6.96563">
        <ele>1592.8</ele>
        <time>2021-06-02T08:17:29.180Z</time>
      </trkpt>
      <trkpt lat="44.08905" lon="6.96549">
        <ele>1591.3</ele>
        <time>2021-06-02T08:17:32.245Z</time>
      </trkpt>
      <trkpt lat="44.089" lon="6.96531">
        <ele>1592.9</ele>
        <time>2021-06-02T08:17:36.182Z</time>
      </trkpt>
      <trkpt lat="44.08884" lon="6.96511">
        <ele>1588.6</ele>
        <time>2021-06-02T08:17:40.193Z</time>
      </trkpt>
      <trkpt lat="44.08873" lon="6.96506">
        <ele>1588.8</ele>
        <time>2021-06-02T08:17:43.408Z</time>
      </trkpt>
      <trkpt lat="44.08854" lon="6.96495">
        <ele>1591.4</ele>
        <time>2021-06-02T08:17:48.000Z</time>
      </trkpt>
      <trkpt lat="44.08841" lon="6.96494">
        <ele>1591.4</ele>
        <time>2021-06-02T08:17:51.183Z</time>
      </trkpt>
      <trkpt lat="44.08816" lon="6.96487">
        <ele>1594.1</ele>
        <time>2021-06-02T08:17:55.185Z</time>
      </trkpt>
      <trkpt lat="44.08812" lon="6.96488">
        <ele>1591.5</ele>
        <time>2021-06-02T08:17:58.669Z</time>
      </trkpt>
      <trkpt lat="44.08798" lon="6.96482">
        <ele>1592</ele>
        <time>2021-06-02T08:18:02.036Z</time>
      </trkpt>
      <trkpt lat="44.08784" lon="6.96475">
        <ele>1592.8</ele>
        <time>2021-06-02T08:18:05.360Z</time>
      </trkpt>
      <trkpt lat="44.08768" lon="6.96464">
        <ele>1589.8</ele>
        <time>2021-06-02T08:18:09.181Z</time>
      </trkpt>
      <trkpt lat="44.08753" lon="6.96452">
        <ele>1589.8</ele>
        <time>2021-06-02T08:18:13.137Z</time>
      </trkpt>
      <trkpt lat="44.08742" lon="6.96444">
        <ele>1590.8</ele>
        <time>2021-06-02T08:18:16.195Z</time>
      </trkpt>
      <trkpt lat="44.0871" lon="6.96432">
        <ele>1590.2</ele>
        <time>2021-06-02T08:18:24.000Z</time>
      </trkpt>
      <trkpt lat="44.08695" lon="6.96423">
        <ele>1590.6</ele>
        <time>2021-06-02T08:18:27.000Z</time>
      </trkpt>
      <trkpt lat="44.0867" lon="6.96402">
        <ele>1589.2</ele>
        <time>2021-06-02T08:18:33.000Z</time>
      </trkpt>
      <trkpt lat="44.08658" lon="6.96387">
        <ele>1590.8</ele>
        <time>2021-06-02T08:18:36.000Z</time>
      </trkpt>
      <trkpt lat="44.08647" lon="6.96373">
        <ele>1586</ele>
        <time>2021-06-02T08:18:39.000Z</time>
      </trkpt>
      <trkpt lat="44.0863" lon="6.96354">
        <ele>1586.6</ele>
        <time>2021-06-02T08:18:45.000Z</time>
      </trkpt>
      <trkpt lat="44.08621" lon="6.96335">
        <ele>1584.3</ele>
        <time>2021-06-02T08:18:48.332Z</time>
      </trkpt>
      <trkpt lat="44.08615" lon="6.96345">
        <ele>1585</ele>
        <time>2021-06-02T08:18:52.169Z</time>
      </trkpt>
      <trkpt lat="44.08609" lon="6.96321">
        <ele>1586.4</ele>
        <time>2021-06-02T08:18:55.792Z</time>
      </trkpt>
      <trkpt lat="44.086" lon="6.96282">
        <ele>1592.2</ele>
        <time>2021-06-02T08:19:00.000Z</time>
      </trkpt>
      <trkpt lat="44.08598" lon="6.96236">
        <ele>1590</ele>
        <time>2021-06-02T08:19:06.000Z</time>
      </trkpt>
      <trkpt lat="44.08596" lon="6.96214">
        <ele>1590.5</ele>
        <time>2021-06-02T08:19:09.000Z</time>
      </trkpt>
      <trkpt lat="44.08594" lon="6.96194">
        <ele>1593.5</ele>
        <time>2021-06-02T08:19:12.000Z</time>
      </trkpt>
      <trkpt lat="44.08601" lon="6.96185">
        <ele>1592.4</ele>
        <time>2021-06-02T08:19:15.942Z</time>
      </trkpt>
      <trkpt lat="44.08597" lon="6.96164">
        <ele>1595.8</ele>
        <time>2021-06-02T08:19:19.173Z</time>
      </trkpt>
      <trkpt lat="44.08594" lon="6.96133">
        <ele>1593.5</ele>
        <time>2021-06-02T08:19:24.000Z</time>
      </trkpt>
      <trkpt lat="44.08591" lon="6.96116">
        <ele>1586.8</ele>
        <time>2021-06-02T08:19:27.000Z</time>
      </trkpt>
      <trkpt lat="44.08588" lon="6.96101">
        <ele>1586.8</ele>
        <time>2021-06-02T08:19:30.184Z</time>
      </trkpt>
      <trkpt lat="44.08575" lon="6.96069">
        <ele>1585.7</ele>
        <time>2021-06-02T08:19:36.000Z</time>
      </trkpt>
      <trkpt lat="44.08565" lon="6.9605">
        <ele>1585.1</ele>
        <time>2021-06-02T08:19:39.630Z</time>
      </trkpt>
      <trkpt lat="44.08558" lon="6.9603">
        <ele>1588.4</ele>
        <time>2021-06-02T08:19:43.186Z</time>
      </trkpt>
      <trkpt lat="44.08552" lon="6.95973">
        <ele>1586.4</ele>
        <time>2021-06-02T08:19:48.000Z</time>
      </trkpt>
      <trkpt lat="44.0855" lon="6.95942">
        <ele>1582.7</ele>
        <time>2021-06-02T08:19:51.000Z</time>
      </trkpt>
      <trkpt lat="44.08543" lon="6.95876">
        <ele>1590.3</ele>
        <time>2021-06-02T08:19:57.000Z</time>
      </trkpt>
      <trkpt lat="44.08535" lon="6.95796">
        <ele>1585.8</ele>
        <time>2021-06-02T08:20:03.000Z</time>
      </trkpt>
      <trkpt lat="44.08527" lon="6.95723">
        <ele>1575.7</ele>
        <time>2021-06-02T08:20:09.000Z</time>
      </trkpt>
      <trkpt lat="44.08518" lon="6.95691">
        <ele>1572.6</ele>
        <time>2021-06-02T08:20:12.000Z</time>
      </trkpt>
      <trkpt lat="44.08478" lon="6.95665">
        <ele>1569</ele>
        <time>2021-06-02T08:20:18.000Z</time>
      </trkpt>
      <trkpt lat="44.08451" lon="6.95664">
        <ele>1571.2</ele>
        <time>2021-06-02T08:20:21.000Z</time>
      </trkpt>
      <trkpt lat="44.08427" lon="6.95663">
        <ele>1570.7</ele>
        <time>2021-06-02T08:20:24.000Z</time>
      </trkpt>
      <trkpt lat="44.08384" lon="6.95661">
        <ele>1571.4</ele>
        <time>2021-06-02T08:20:30.000Z</time>
      </trkpt>
      <trkpt lat="44.08344" lon="6.95662">
        <ele>1571</ele>
        <time>2021-06-02T08:20:36.000Z</time>
      </trkpt>
      <trkpt lat="44.08306" lon="6.95644">
        <ele>1566.8</ele>
        <time>2021-06-02T08:20:42.000Z</time>
      </trkpt>
      <trkpt lat="44.08288" lon="6.95638">
        <ele>1566</ele>
        <time>2021-06-02T08:20:45.000Z</time>
      </trkpt>
      <trkpt lat="44.08281" lon="6.95629">
        <ele>1562.9</ele>
        <time>2021-06-02T08:20:51.000Z</time>
      </trkpt>
      <trkpt lat="44.08278" lon="6.95616">
        <ele>1558.6</ele>
        <time>2021-06-02T08:21:00.000Z</time>
      </trkpt>
      <trkpt lat="44.08284" lon="6.95613">
        <ele>1558.5</ele>
        <time>2021-06-02T08:21:03.000Z</time>
      </trkpt>
      <trkpt lat="44.08292" lon="6.95625">
        <ele>1563.8</ele>
        <time>2021-06-02T08:21:09.000Z</time>
      </trkpt>
      <trkpt lat="44.08277" lon="6.95631">
        <ele>1561.7</ele>
        <time>2021-06-02T08:21:15.000Z</time>
      </trkpt>
      <trkpt lat="44.08267" lon="6.95626">
        <ele>1561.4</ele>
        <time>2021-06-02T08:21:18.000Z</time>
      </trkpt>
      <trkpt lat="44.08269" lon="6.95604">
        <ele>1560.7</ele>
        <time>2021-06-02T08:21:24.000Z</time>
      </trkpt>
      <trkpt lat="44.08282" lon="6.95602">
        <ele>1561.3</ele>
        <time>2021-06-02T08:21:30.000Z</time>
      </trkpt>
      <trkpt lat="44.08288" lon="6.95604">
        <ele>1559.8</ele>
        <time>2021-06-02T08:21:33.000Z</time>
      </trkpt>
      <trkpt lat="44.08306" lon="6.95609">
        <ele>1559.7</ele>
        <time>2021-06-02T08:21:39.000Z</time>
      </trkpt>
      <trkpt lat="44.08316" lon="6.95612">
        <ele>1559.4</ele>
        <time>2021-06-02T08:21:42.000Z</time>
      </trkpt>
      <trkpt lat="44.08325" lon="6.95613">
        <ele>1560.1</ele>
        <time>2021-06-02T08:21:45.000Z</time>
      </trkpt>
      <trkpt lat="44.0834" lon="6.95617">
        <ele>1563.2</ele>
        <time>2021-06-02T08:21:51.000Z</time>
      </trkpt>
      <trkpt lat="44.08354" lon="6.95619">
        <ele>1567.8</ele>
        <time>2021-06-02T08:21:57.000Z</time>
      </trkpt>
      <trkpt lat="44.08367" lon="6.95617">
        <ele>1570.6</ele>
        <time>2021-06-02T08:22:03.000Z</time>
      </trkpt>
      <trkpt lat="44.08382" lon="6.95611">
        <ele>1575.1</ele>
        <time>2021-06-02T08:22:09.000Z</time>
      </trkpt>
      <trkpt lat="44.08392" lon="6.95606">
        <ele>1575.1</ele>
        <time>2021-06-02T08:22:12.170Z</time>
      </trkpt>
      <trkpt lat="44.08402" lon="6.95601">
        <ele>1576.3</ele>
        <time>2021-06-02T08:22:15.170Z</time>
      </trkpt>
      <trkpt lat="44.08411" lon="6.95597">
        <ele>1577.6</ele>
        <time>2021-06-02T08:22:18.171Z</time>
      </trkpt>
      <trkpt lat="44.08421" lon="6.95594">
        <ele>1576.3</ele>
        <time>2021-06-02T08:22:21.178Z</time>
      </trkpt>
      <trkpt lat="44.08433" lon="6.95591">
        <ele>1581.9</ele>
        <time>2021-06-02T08:22:25.184Z</time>
      </trkpt>
      <trkpt lat="44.08445" lon="6.9559">
        <ele>1585.6</ele>
        <time>2021-06-02T08:22:28.546Z</time>
      </trkpt>
      <trkpt lat="44.08455" lon="6.9559">
        <ele>1587.1</ele>
        <time>2021-06-02T08:22:31.867Z</time>
      </trkpt>
      <trkpt lat="44.08465" lon="6.95586">
        <ele>1586.2</ele>
        <time>2021-06-02T08:22:35.176Z</time>
      </trkpt>
      <trkpt lat="44.08475" lon="6.95577">
        <ele>1586.4</ele>
        <time>2021-06-02T08:22:39.000Z</time>
      </trkpt>
      <trkpt lat="44.08485" lon="6.9557">
        <ele>1641.1</ele>
        <time>2021-06-02T08:22:45.000Z</time>
      </trkpt>
      <trkpt lat="44.08479" lon="6.95575">
        <ele>1614.3</ele>
        <time>2021-06-02T08:22:54.000Z</time>
      </trkpt>
      <trkpt lat="44.08476" lon="6.95571">
        <ele>1585.2</ele>
        <time>2021-06-02T08:23:18.000Z</time>
      </trkpt>
      <trkpt lat="44.08468" lon="6.95567">
        <ele>1582.7</ele>
        <time>2021-06-02T08:23:25.387Z</time>
      </trkpt>
      <trkpt lat="44.08464" lon="6.95561">
        <ele>1582.7</ele>
        <time>2021-06-02T08:23:28.702Z</time>
      </trkpt>
      <trkpt lat="44.08461" lon="6.95554">
        <ele>1582.3</ele>
        <time>2021-06-02T08:23:32.052Z</time>
      </trkpt>
      <trkpt lat="44.08462" lon="6.95543">
        <ele>1584</ele>
        <time>2021-06-02T08:23:39.000Z</time>
      </trkpt>
      <trkpt lat="44.08463" lon="6.95531">
        <ele>1586.5</ele>
        <time>2021-06-02T08:23:46.908Z</time>
      </trkpt>
      <trkpt lat="44.08457" lon="6.95527">
        <ele>1586.9</ele>
        <time>2021-06-02T08:23:50.190Z</time>
      </trkpt>
      <trkpt lat="44.08449" lon="6.95521">
        <ele>1589.8</ele>
        <time>2021-06-02T08:23:54.180Z</time>
      </trkpt>
      <trkpt lat="44.08441" lon="6.95516">
        <ele>1590.4</ele>
        <time>2021-06-02T08:23:58.163Z</time>
      </trkpt>
      <trkpt lat="44.08434" lon="6.95513">
        <ele>1592.7</ele>
        <time>2021-06-02T08:24:01.264Z</time>
      </trkpt>
      <trkpt lat="44.08427" lon="6.95506">
        <ele>1596.5</ele>
        <time>2021-06-02T08:24:05.043Z</time>
      </trkpt>
      <trkpt lat="44.08421" lon="6.95501">
        <ele>1594.5</ele>
        <time>2021-06-02T08:24:08.187Z</time>
      </trkpt>
      <trkpt lat="44.08413" lon="6.95492">
        <ele>1593.9</ele>
        <time>2021-06-02T08:24:12.038Z</time>
      </trkpt>
      <trkpt lat="44.08407" lon="6.95481">
        <ele>1595.4</ele>
        <time>2021-06-02T08:24:15.166Z</time>
      </trkpt>
      <trkpt lat="44.08401" lon="6.95469">
        <ele>1595.8</ele>
        <time>2021-06-02T08:24:18.217Z</time>
      </trkpt>
      <trkpt lat="44.08393" lon="6.95455">
        <ele>1596.7</ele>
        <time>2021-06-02T08:24:22.172Z</time>
      </trkpt>
      <trkpt lat="44.08385" lon="6.95446">
        <ele>1597.5</ele>
        <time>2021-06-02T08:24:25.468Z</time>
      </trkpt>
      <trkpt lat="44.08378" lon="6.95434">
        <ele>1595.5</ele>
        <time>2021-06-02T08:24:29.145Z</time>
      </trkpt>
      <trkpt lat="44.08375" lon="6.95415">
        <ele>1595.2</ele>
        <time>2021-06-02T08:24:33.171Z</time>
      </trkpt>
      <trkpt lat="44.08377" lon="6.95403">
        <ele>1594.2</ele>
        <time>2021-06-02T08:24:36.181Z</time>
      </trkpt>
      <trkpt lat="44.0838" lon="6.95388">
        <ele>1595.3</ele>
        <time>2021-06-02T08:24:39.786Z</time>
      </trkpt>
      <trkpt lat="44.08381" lon="6.95375">
        <ele>1597.2</ele>
        <time>2021-06-02T08:24:43.182Z</time>
      </trkpt>
      <trkpt lat="44.08379" lon="6.95361">
        <ele>1596.7</ele>
        <time>2021-06-02T08:24:46.631Z</time>
      </trkpt>
      <trkpt lat="44.08375" lon="6.95351">
        <ele>1595.4</ele>
        <time>2021-06-02T08:24:49.942Z</time>
      </trkpt>
      <trkpt lat="44.0837" lon="6.95343">
        <ele>1598.2</ele>
        <time>2021-06-02T08:24:53.028Z</time>
      </trkpt>
      <trkpt lat="44.08364" lon="6.95334">
        <ele>1603</ele>
        <time>2021-06-02T08:24:56.175Z</time>
      </trkpt>
      <trkpt lat="44.08358" lon="6.95328">
        <ele>1602.2</ele>
        <time>2021-06-02T08:24:59.183Z</time>
      </trkpt>
      <trkpt lat="44.08351" lon="6.95325">
        <ele>1600.8</ele>
        <time>2021-06-02T08:25:02.188Z</time>
      </trkpt>
      <trkpt lat="44.08342" lon="6.95321">
        <ele>1599.8</ele>
        <time>2021-06-02T08:25:05.292Z</time>
      </trkpt>
      <trkpt lat="44.08335" lon="6.95317">
        <ele>1600.7</ele>
        <time>2021-06-02T08:25:08.668Z</time>
      </trkpt>
      <trkpt lat="44.0833" lon="6.95313">
        <ele>1605.9</ele>
        <time>2021-06-02T08:25:12.180Z</time>
      </trkpt>
      <trkpt lat="44.08325" lon="6.95309">
        <ele>1608.9</ele>
        <time>2021-06-02T08:25:15.280Z</time>
      </trkpt>
      <trkpt lat="44.08314" lon="6.95308">
        <ele>1610.1</ele>
        <time>2021-06-02T08:25:19.172Z</time>
      </trkpt>
      <trkpt lat="44.08309" lon="6.95308">
        <ele>1608.8</ele>
        <time>2021-06-02T08:25:22.173Z</time>
      </trkpt>
      <trkpt lat="44.08302" lon="6.9531">
        <ele>1610.4</ele>
        <time>2021-06-02T08:25:25.552Z</time>
      </trkpt>
      <trkpt lat="44.08295" lon="6.95315">
        <ele>1610.6</ele>
        <time>2021-06-02T08:25:29.214Z</time>
      </trkpt>
      <trkpt lat="44.08289" lon="6.95321">
        <ele>1611.9</ele>
        <time>2021-06-02T08:25:33.172Z</time>
      </trkpt>
      <trkpt lat="44.08283" lon="6.95324">
        <ele>1615.6</ele>
        <time>2021-06-02T08:25:36.327Z</time>
      </trkpt>
      <trkpt lat="44.08275" lon="6.95331">
        <ele>1617.1</ele>
        <time>2021-06-02T08:25:40.174Z</time>
      </trkpt>
      <trkpt lat="44.0827" lon="6.95338">
        <ele>1617.5</ele>
        <time>2021-06-02T08:25:44.184Z</time>
      </trkpt>
      <trkpt lat="44.08265" lon="6.95344">
        <ele>1621.2</ele>
        <time>2021-06-02T08:25:48.182Z</time>
      </trkpt>
      <trkpt lat="44.08258" lon="6.95349">
        <ele>1623.9</ele>
        <time>2021-06-02T08:25:52.171Z</time>
      </trkpt>
      <trkpt lat="44.08253" lon="6.95351">
        <ele>1624.2</ele>
        <time>2021-06-02T08:25:55.190Z</time>
      </trkpt>
      <trkpt lat="44.08254" lon="6.95341">
        <ele>1624.7</ele>
        <time>2021-06-02T08:25:59.082Z</time>
      </trkpt>
      <trkpt lat="44.08256" lon="6.95333">
        <ele>1624.4</ele>
        <time>2021-06-02T08:26:03.172Z</time>
      </trkpt>
      <trkpt lat="44.08256" lon="6.95327">
        <ele>1627.7</ele>
        <time>2021-06-02T08:26:06.225Z</time>
      </trkpt>
      <trkpt lat="44.08254" lon="6.95317">
        <ele>1627.4</ele>
        <time>2021-06-02T08:26:10.180Z</time>
      </trkpt>
      <trkpt lat="44.08246" lon="6.95312">
        <ele>1626.8</ele>
        <time>2021-06-02T08:26:14.190Z</time>
      </trkpt>
      <trkpt lat="44.08239" lon="6.95303">
        <ele>1628.1</ele>
        <time>2021-06-02T08:26:18.183Z</time>
      </trkpt>
      <trkpt lat="44.08234" lon="6.95295">
        <ele>1628.8</ele>
        <time>2021-06-02T08:26:21.740Z</time>
      </trkpt>
      <trkpt lat="44.08229" lon="6.95288">
        <ele>1632.4</ele>
        <time>2021-06-02T08:26:25.171Z</time>
      </trkpt>
      <trkpt lat="44.08224" lon="6.95278">
        <ele>1630</ele>
        <time>2021-06-02T08:26:28.904Z</time>
      </trkpt>
      <trkpt lat="44.08219" lon="6.9527">
        <ele>1628.3</ele>
        <time>2021-06-02T08:26:32.187Z</time>
      </trkpt>
      <trkpt lat="44.08219" lon="6.95259">
        <ele>1628</ele>
        <time>2021-06-02T08:26:36.174Z</time>
      </trkpt>
      <trkpt lat="44.0822" lon="6.95252">
        <ele>1629.1</ele>
        <time>2021-06-02T08:26:39.180Z</time>
      </trkpt>
      <trkpt lat="44.08223" lon="6.95245">
        <ele>1628.8</ele>
        <time>2021-06-02T08:26:42.191Z</time>
      </trkpt>
      <trkpt lat="44.08228" lon="6.95237">
        <ele>1629.6</ele>
        <time>2021-06-02T08:26:46.186Z</time>
      </trkpt>
      <trkpt lat="44.08234" lon="6.95231">
        <ele>1633.7</ele>
        <time>2021-06-02T08:26:49.289Z</time>
      </trkpt>
      <trkpt lat="44.08238" lon="6.95222">
        <ele>1633.3</ele>
        <time>2021-06-02T08:26:53.176Z</time>
      </trkpt>
      <trkpt lat="44.08241" lon="6.95217">
        <ele>1633.8</ele>
        <time>2021-06-02T08:26:56.182Z</time>
      </trkpt>
      <trkpt lat="44.08243" lon="6.95208">
        <ele>1635.9</ele>
        <time>2021-06-02T08:26:59.183Z</time>
      </trkpt>
      <trkpt lat="44.08247" lon="6.95199">
        <ele>1638.3</ele>
        <time>2021-06-02T08:27:02.189Z</time>
      </trkpt>
      <trkpt lat="44.08252" lon="6.9519">
        <ele>1639.6</ele>
        <time>2021-06-02T08:27:06.183Z</time>
      </trkpt>
      <trkpt lat="44.08255" lon="6.95185">
        <ele>1641.3</ele>
        <time>2021-06-02T08:27:09.242Z</time>
      </trkpt>
      <trkpt lat="44.08258" lon="6.95169">
        <ele>1641.6</ele>
        <time>2021-06-02T08:27:13.191Z</time>
      </trkpt>
      <trkpt lat="44.08262" lon="6.95157">
        <ele>1641.6</ele>
        <time>2021-06-02T08:27:17.161Z</time>
      </trkpt>
      <trkpt lat="44.08265" lon="6.95151">
        <ele>1645.3</ele>
        <time>2021-06-02T08:27:20.304Z</time>
      </trkpt>
      <trkpt lat="44.08275" lon="6.95146">
        <ele>1642.1</ele>
        <time>2021-06-02T08:27:24.181Z</time>
      </trkpt>
      <trkpt lat="44.08282" lon="6.95139">
        <ele>1645.5</ele>
        <time>2021-06-02T08:27:28.192Z</time>
      </trkpt>
      <trkpt lat="44.08288" lon="6.95136">
        <ele>1646.2</ele>
        <time>2021-06-02T08:27:31.989Z</time>
      </trkpt>
      <trkpt lat="44.08293" lon="6.95134">
        <ele>1646</ele>
        <time>2021-06-02T08:27:35.186Z</time>
      </trkpt>
      <trkpt lat="44.08297" lon="6.95127">
        <ele>1646.7</ele>
        <time>2021-06-02T08:27:39.176Z</time>
      </trkpt>
      <trkpt lat="44.083" lon="6.95121">
        <ele>1645.6</ele>
        <time>2021-06-02T08:27:42.176Z</time>
      </trkpt>
      <trkpt lat="44.083" lon="6.95115">
        <ele>1647.1</ele>
        <time>2021-06-02T08:27:45.190Z</time>
      </trkpt>
      <trkpt lat="44.08298" lon="6.95106">
        <ele>1653.8</ele>
        <time>2021-06-02T08:27:49.182Z</time>
      </trkpt>
      <trkpt lat="44.08296" lon="6.95096">
        <ele>1657.8</ele>
        <time>2021-06-02T08:27:52.646Z</time>
      </trkpt>
      <trkpt lat="44.08293" lon="6.9509">
        <ele>1658.4</ele>
        <time>2021-06-02T08:27:55.862Z</time>
      </trkpt>
      <trkpt lat="44.08289" lon="6.95083">
        <ele>1663.6</ele>
        <time>2021-06-02T08:27:59.005Z</time>
      </trkpt>
      <trkpt lat="44.08285" lon="6.95074">
        <ele>1662.9</ele>
        <time>2021-06-02T08:28:02.172Z</time>
      </trkpt>
      <trkpt lat="44.08282" lon="6.95067">
        <ele>1665.9</ele>
        <time>2021-06-02T08:28:05.178Z</time>
      </trkpt>
      <trkpt lat="44.08276" lon="6.95062">
        <ele>1666.5</ele>
        <time>2021-06-02T08:28:08.969Z</time>
      </trkpt>
      <trkpt lat="44.08267" lon="6.95055">
        <ele>1668.4</ele>
        <time>2021-06-02T08:28:12.000Z</time>
      </trkpt>
      <trkpt lat="44.0826" lon="6.9505">
        <ele>1667.6</ele>
        <time>2021-06-02T08:28:15.000Z</time>
      </trkpt>
      <trkpt lat="44.08257" lon="6.95042">
        <ele>1668.3</ele>
        <time>2021-06-02T08:28:18.305Z</time>
      </trkpt>
      <trkpt lat="44.08255" lon="6.95031">
        <ele>1671.6</ele>
        <time>2021-06-02T08:28:22.183Z</time>
      </trkpt>
      <trkpt lat="44.08256" lon="6.95022">
        <ele>1672.3</ele>
        <time>2021-06-02T08:28:25.183Z</time>
      </trkpt>
      <trkpt lat="44.08259" lon="6.95014">
        <ele>1673.4</ele>
        <time>2021-06-02T08:28:28.786Z</time>
      </trkpt>
      <trkpt lat="44.08265" lon="6.9501">
        <ele>1674</ele>
        <time>2021-06-02T08:28:32.186Z</time>
      </trkpt>
      <trkpt lat="44.08273" lon="6.95009">
        <ele>1675.1</ele>
        <time>2021-06-02T08:28:35.227Z</time>
      </trkpt>
      <trkpt lat="44.08282" lon="6.95008">
        <ele>1676.3</ele>
        <time>2021-06-02T08:28:38.961Z</time>
      </trkpt>
      <trkpt lat="44.08287" lon="6.95006">
        <ele>1677.9</ele>
        <time>2021-06-02T08:28:42.180Z</time>
      </trkpt>
      <trkpt lat="44.08291" lon="6.94997">
        <ele>1678.4</ele>
        <time>2021-06-02T08:28:46.189Z</time>
      </trkpt>
      <trkpt lat="44.08296" lon="6.94992">
        <ele>1679.3</ele>
        <time>2021-06-02T08:28:49.440Z</time>
      </trkpt>
      <trkpt lat="44.08304" lon="6.9499">
        <ele>1678.3</ele>
        <time>2021-06-02T08:28:53.175Z</time>
      </trkpt>
      <trkpt lat="44.08309" lon="6.94984">
        <ele>1681.8</ele>
        <time>2021-06-02T08:28:56.189Z</time>
      </trkpt>
      <trkpt lat="44.08314" lon="6.9498">
        <ele>1680.6</ele>
        <time>2021-06-02T08:29:00.188Z</time>
      </trkpt>
      <trkpt lat="44.08319" lon="6.94969">
        <ele>1679.6</ele>
        <time>2021-06-02T08:29:06.251Z</time>
      </trkpt>
      <trkpt lat="44.08322" lon="6.9496">
        <ele>1682.3</ele>
        <time>2021-06-02T08:29:10.170Z</time>
      </trkpt>
      <trkpt lat="44.08328" lon="6.94958">
        <ele>1816.1</ele>
        <time>2021-06-02T08:29:14.183Z</time>
      </trkpt>
      <trkpt lat="44.08334" lon="6.94955">
        <ele>1747.5</ele>
        <time>2021-06-02T08:29:18.183Z</time>
      </trkpt>
      <trkpt lat="44.08341" lon="6.94953">
        <ele>1702.8</ele>
        <time>2021-06-02T08:29:22.484Z</time>
      </trkpt>
      <trkpt lat="44.08345" lon="6.94941">
        <ele>1698.1</ele>
        <time>2021-06-02T08:29:29.085Z</time>
      </trkpt>
      <trkpt lat="44.08347" lon="6.94935">
        <ele>1696.8</ele>
        <time>2021-06-02T08:29:32.184Z</time>
      </trkpt>
      <trkpt lat="44.0835" lon="6.94928">
        <ele>1694.6</ele>
        <time>2021-06-02T08:29:36.178Z</time>
      </trkpt>
      <trkpt lat="44.08356" lon="6.94925">
        <ele>1692.2</ele>
        <time>2021-06-02T08:29:40.172Z</time>
      </trkpt>
      <trkpt lat="44.08361" lon="6.94919">
        <ele>1691.9</ele>
        <time>2021-06-02T08:29:43.202Z</time>
      </trkpt>
      <trkpt lat="44.0836" lon="6.9491">
        <ele>1694.8</ele>
        <time>2021-06-02T08:29:46.869Z</time>
      </trkpt>
      <trkpt lat="44.0836" lon="6.94901">
        <ele>1698</ele>
        <time>2021-06-02T08:29:53.941Z</time>
      </trkpt>
      <trkpt lat="44.08354" lon="6.94902">
        <ele>1700.3</ele>
        <time>2021-06-02T08:30:00.442Z</time>
      </trkpt>
      <trkpt lat="44.08354" lon="6.94895">
        <ele>1706.3</ele>
        <time>2021-06-02T08:30:08.989Z</time>
      </trkpt>
      <trkpt lat="44.08353" lon="6.94885">
        <ele>1705.8</ele>
        <time>2021-06-02T08:30:12.026Z</time>
      </trkpt>
      <trkpt lat="44.08358" lon="6.94874">
        <ele>1706.4</ele>
        <time>2021-06-02T08:30:15.000Z</time>
      </trkpt>
      <trkpt lat="44.08366" lon="6.94866">
        <ele>1708.4</ele>
        <time>2021-06-02T08:30:19.180Z</time>
      </trkpt>
      <trkpt lat="44.08374" lon="6.94862">
        <ele>1709.3</ele>
        <time>2021-06-02T08:30:23.174Z</time>
      </trkpt>
      <trkpt lat="44.08381" lon="6.94857">
        <ele>1709.1</ele>
        <time>2021-06-02T08:30:31.105Z</time>
      </trkpt>
      <trkpt lat="44.08386" lon="6.94849">
        <ele>1710</ele>
        <time>2021-06-02T08:30:37.706Z</time>
      </trkpt>
      <trkpt lat="44.08391" lon="6.94839">
        <ele>1714.3</ele>
        <time>2021-06-02T08:30:44.179Z</time>
      </trkpt>
      <trkpt lat="44.08394" lon="6.94834">
        <ele>1712.8</ele>
        <time>2021-06-02T08:30:47.188Z</time>
      </trkpt>
      <trkpt lat="44.08395" lon="6.94827">
        <ele>1713.8</ele>
        <time>2021-06-02T08:30:51.187Z</time>
      </trkpt>
      <trkpt lat="44.08396" lon="6.9482">
        <ele>1714</ele>
        <time>2021-06-02T08:30:58.222Z</time>
      </trkpt>
      <trkpt lat="44.08395" lon="6.94813">
        <ele>1713.6</ele>
        <time>2021-06-02T08:31:10.182Z</time>
      </trkpt>
      <trkpt lat="44.08411" lon="6.94798">
        <ele>1712</ele>
        <time>2021-06-02T08:31:18.000Z</time>
      </trkpt>
      <trkpt lat="44.08417" lon="6.94804">
        <ele>1712.9</ele>
        <time>2021-06-02T08:31:22.177Z</time>
      </trkpt>
      <trkpt lat="44.08419" lon="6.94795">
        <ele>1715.9</ele>
        <time>2021-06-02T08:31:25.186Z</time>
      </trkpt>
      <trkpt lat="44.08425" lon="6.94782">
        <ele>1717.5</ele>
        <time>2021-06-02T08:31:28.632Z</time>
      </trkpt>
      <trkpt lat="44.08429" lon="6.94771">
        <ele>1719.2</ele>
        <time>2021-06-02T08:31:32.177Z</time>
      </trkpt>
      <trkpt lat="44.08434" lon="6.94759">
        <ele>1720.2</ele>
        <time>2021-06-02T08:31:36.171Z</time>
      </trkpt>
      <trkpt lat="44.08438" lon="6.94749">
        <ele>1720.3</ele>
        <time>2021-06-02T08:31:39.236Z</time>
      </trkpt>
      <trkpt lat="44.0844" lon="6.94739">
        <ele>1721.1</ele>
        <time>2021-06-02T08:31:43.164Z</time>
      </trkpt>
      <trkpt lat="44.08441" lon="6.9473">
        <ele>1721.8</ele>
        <time>2021-06-02T08:31:46.183Z</time>
      </trkpt>
      <trkpt lat="44.08443" lon="6.94721">
        <ele>1722</ele>
        <time>2021-06-02T08:31:49.369Z</time>
      </trkpt>
      <trkpt lat="44.08444" lon="6.94712">
        <ele>1721.7</ele>
        <time>2021-06-02T08:31:53.179Z</time>
      </trkpt>
      <trkpt lat="44.08449" lon="6.94707">
        <ele>1721.7</ele>
        <time>2021-06-02T08:31:56.231Z</time>
      </trkpt>
      <trkpt lat="44.08453" lon="6.947">
        <ele>1719.2</ele>
        <time>2021-06-02T08:31:59.831Z</time>
      </trkpt>
      <trkpt lat="44.08453" lon="6.94689">
        <ele>1725.2</ele>
        <time>2021-06-02T08:32:07.171Z</time>
      </trkpt>
      <trkpt lat="44.08452" lon="6.94682">
        <ele>1726</ele>
        <time>2021-06-02T08:32:10.172Z</time>
      </trkpt>
      <trkpt lat="44.08451" lon="6.94674">
        <ele>1725.9</ele>
        <time>2021-06-02T08:32:13.752Z</time>
      </trkpt>
      <trkpt lat="44.0845" lon="6.94665">
        <ele>1726.6</ele>
        <time>2021-06-02T08:32:17.089Z</time>
      </trkpt>
      <trkpt lat="44.08449" lon="6.94654">
        <ele>1725.6</ele>
        <time>2021-06-02T08:32:21.174Z</time>
      </trkpt>
      <trkpt lat="44.08447" lon="6.94642">
        <ele>1725.7</ele>
        <time>2021-06-02T08:32:25.179Z</time>
      </trkpt>
      <trkpt lat="44.08449" lon="6.94632">
        <ele>1725.9</ele>
        <time>2021-06-02T08:32:28.571Z</time>
      </trkpt>
      <trkpt lat="44.08458" lon="6.94629">
        <ele>1728.4</ele>
        <time>2021-06-02T08:32:32.190Z</time>
      </trkpt>
      <trkpt lat="44.08465" lon="6.94623">
        <ele>1728.8</ele>
        <time>2021-06-02T08:32:35.238Z</time>
      </trkpt>
      <trkpt lat="44.08469" lon="6.94611">
        <ele>1729.6</ele>
        <time>2021-06-02T08:32:38.528Z</time>
      </trkpt>
      <trkpt lat="44.08475" lon="6.94599">
        <ele>1726.7</ele>
        <time>2021-06-02T08:32:41.995Z</time>
      </trkpt>
      <trkpt lat="44.08483" lon="6.94596">
        <ele>1730.1</ele>
        <time>2021-06-02T08:32:45.000Z</time>
      </trkpt>
      <trkpt lat="44.08487" lon="6.94587">
        <ele>1730.1</ele>
        <time>2021-06-02T08:32:48.184Z</time>
      </trkpt>
      <trkpt lat="44.08485" lon="6.94564">
        <ele>1727.7</ele>
        <time>2021-06-02T08:32:52.291Z</time>
      </trkpt>
      <trkpt lat="44.08492" lon="6.94547">
        <ele>1727.2</ele>
        <time>2021-06-02T08:32:55.749Z</time>
      </trkpt>
      <trkpt lat="44.08498" lon="6.94523">
        <ele>1724.8</ele>
        <time>2021-06-02T08:33:00.167Z</time>
      </trkpt>
      <trkpt lat="44.08504" lon="6.94507">
        <ele>1726.9</ele>
        <time>2021-06-02T08:33:03.189Z</time>
      </trkpt>
      <trkpt lat="44.08508" lon="6.94479">
        <ele>1727.8</ele>
        <time>2021-06-02T08:33:07.194Z</time>
      </trkpt>
      <trkpt lat="44.08512" lon="6.94458">
        <ele>1728.5</ele>
        <time>2021-06-02T08:33:10.226Z</time>
      </trkpt>
      <trkpt lat="44.08512" lon="6.94433">
        <ele>1728.9</ele>
        <time>2021-06-02T08:33:14.155Z</time>
      </trkpt>
      <trkpt lat="44.08513" lon="6.94397">
        <ele>1729.2</ele>
        <time>2021-06-02T08:33:18.000Z</time>
      </trkpt>
      <trkpt lat="44.08511" lon="6.94385">
        <ele>1729.8</ele>
        <time>2021-06-02T08:33:22.167Z</time>
      </trkpt>
      <trkpt lat="44.08519" lon="6.94373">
        <ele>1727.5</ele>
        <time>2021-06-02T08:33:25.199Z</time>
      </trkpt>
      <trkpt lat="44.08527" lon="6.94343">
        <ele>1725.1</ele>
        <time>2021-06-02T08:33:32.370Z</time>
      </trkpt>
      <trkpt lat="44.08539" lon="6.94301">
        <ele>1727</ele>
        <time>2021-06-02T08:33:36.000Z</time>
      </trkpt>
      <trkpt lat="44.08542" lon="6.94258">
        <ele>1729.7</ele>
        <time>2021-06-02T08:33:42.000Z</time>
      </trkpt>
      <trkpt lat="44.08541" lon="6.9424">
        <ele>1730</ele>
        <time>2021-06-02T08:33:45.000Z</time>
      </trkpt>
      <trkpt lat="44.08542" lon="6.94215">
        <ele>1728.3</ele>
        <time>2021-06-02T08:33:51.000Z</time>
      </trkpt>
      <trkpt lat="44.08546" lon="6.94202">
        <ele>1728.3</ele>
        <time>2021-06-02T08:33:54.176Z</time>
      </trkpt>
      <trkpt lat="44.08556" lon="6.94194">
        <ele>1728.3</ele>
        <time>2021-06-02T08:33:57.179Z</time>
      </trkpt>
      <trkpt lat="44.08568" lon="6.9418">
        <ele>1724.1</ele>
        <time>2021-06-02T08:34:01.176Z</time>
      </trkpt>
      <trkpt lat="44.08586" lon="6.94158">
        <ele>1722.2</ele>
        <time>2021-06-02T08:34:06.000Z</time>
      </trkpt>
      <trkpt lat="44.08588" lon="6.94146">
        <ele>1722.2</ele>
        <time>2021-06-02T08:34:09.253Z</time>
      </trkpt>
      <trkpt lat="44.08617" lon="6.94125">
        <ele>1719.5</ele>
        <time>2021-06-02T08:34:15.000Z</time>
      </trkpt>
      <trkpt lat="44.08631" lon="6.94108">
        <ele>1720.4</ele>
        <time>2021-06-02T08:34:18.000Z</time>
      </trkpt>
      <trkpt lat="44.08642" lon="6.94088">
        <ele>1717.8</ele>
        <time>2021-06-02T08:34:21.000Z</time>
      </trkpt>
      <trkpt lat="44.08647" lon="6.94064">
        <ele>1715.9</ele>
        <time>2021-06-02T08:34:24.000Z</time>
      </trkpt>
      <trkpt lat="44.08654" lon="6.94025">
        <ele>1712.3</ele>
        <time>2021-06-02T08:34:30.000Z</time>
      </trkpt>
      <trkpt lat="44.08671" lon="6.94016">
        <ele>1710.9</ele>
        <time>2021-06-02T08:34:35.331Z</time>
      </trkpt>
      <trkpt lat="44.08686" lon="6.94013">
        <ele>1709.4</ele>
        <time>2021-06-02T08:34:39.000Z</time>
      </trkpt>
      <trkpt lat="44.08701" lon="6.93993">
        <ele>1704.8</ele>
        <time>2021-06-02T08:34:42.000Z</time>
      </trkpt>
      <trkpt lat="44.08737" lon="6.9394">
        <ele>1700.5</ele>
        <time>2021-06-02T08:34:48.000Z</time>
      </trkpt>
      <trkpt lat="44.08758" lon="6.93912">
        <ele>1695.2</ele>
        <time>2021-06-02T08:34:51.000Z</time>
      </trkpt>
      <trkpt lat="44.088" lon="6.93911">
        <ele>1695.4</ele>
        <time>2021-06-02T08:34:57.000Z</time>
      </trkpt>
      <trkpt lat="44.08804" lon="6.93917">
        <ele>1694.4</ele>
        <time>2021-06-02T08:35:00.000Z</time>
      </trkpt>
      <trkpt lat="44.08814" lon="6.93921">
        <ele>1693.7</ele>
        <time>2021-06-02T08:35:05.946Z</time>
      </trkpt>
      <trkpt lat="44.08825" lon="6.93919">
        <ele>1696.3</ele>
        <time>2021-06-02T08:35:10.246Z</time>
      </trkpt>
      <trkpt lat="44.08854" lon="6.93905">
        <ele>1695.4</ele>
        <time>2021-06-02T08:35:15.000Z</time>
      </trkpt>
      <trkpt lat="44.08883" lon="6.93872">
        <ele>1696.9</ele>
        <time>2021-06-02T08:35:21.000Z</time>
      </trkpt>
      <trkpt lat="44.08907" lon="6.93837">
        <ele>1693.6</ele>
        <time>2021-06-02T08:35:27.000Z</time>
      </trkpt>
      <trkpt lat="44.08939" lon="6.93821">
        <ele>1690.2</ele>
        <time>2021-06-02T08:35:33.000Z</time>
      </trkpt>
      <trkpt lat="44.08955" lon="6.93836">
        <ele>1691.9</ele>
        <time>2021-06-02T08:35:36.000Z</time>
      </trkpt>
      <trkpt lat="44.08974" lon="6.93843">
        <ele>1691.3</ele>
        <time>2021-06-02T08:35:42.000Z</time>
      </trkpt>
      <trkpt lat="44.08987" lon="6.9382">
        <ele>1693.7</ele>
        <time>2021-06-02T08:35:48.000Z</time>
      </trkpt>
      <trkpt lat="44.08981" lon="6.9383">
        <ele>1693.8</ele>
        <time>2021-06-02T08:35:52.191Z</time>
      </trkpt>
      <trkpt lat="44.08994" lon="6.93813">
        <ele>1690.2</ele>
        <time>2021-06-02T08:35:55.325Z</time>
      </trkpt>
      <trkpt lat="44.09015" lon="6.93779">
        <ele>1690.4</ele>
        <time>2021-06-02T08:36:00.000Z</time>
      </trkpt>
      <trkpt lat="44.09024" lon="6.93766">
        <ele>1689.2</ele>
        <time>2021-06-02T08:36:03.227Z</time>
      </trkpt>
      <trkpt lat="44.09039" lon="6.93748">
        <ele>1690.1</ele>
        <time>2021-06-02T08:36:09.000Z</time>
      </trkpt>
      <trkpt lat="44.09052" lon="6.93726">
        <ele>1689.4</ele>
        <time>2021-06-02T08:36:15.000Z</time>
      </trkpt>
      <trkpt lat="44.09066" lon="6.93709">
        <ele>1691.4</ele>
        <time>2021-06-02T08:36:21.000Z</time>
      </trkpt>
      <trkpt lat="44.09084" lon="6.93691">
        <ele>1695.1</ele>
        <time>2021-06-02T08:36:27.000Z</time>
      </trkpt>
      <trkpt lat="44.09092" lon="6.93679">
        <ele>1697</ele>
        <time>2021-06-02T08:36:30.000Z</time>
      </trkpt>
      <trkpt lat="44.09099" lon="6.93669">
        <ele>1697</ele>
        <time>2021-06-02T08:36:33.190Z</time>
      </trkpt>
      <trkpt lat="44.09109" lon="6.93652">
        <ele>1700</ele>
        <time>2021-06-02T08:36:37.201Z</time>
      </trkpt>
      <trkpt lat="44.09118" lon="6.93633">
        <ele>1699</ele>
        <time>2021-06-02T08:36:41.193Z</time>
      </trkpt>
      <trkpt lat="44.09128" lon="6.93615">
        <ele>1699.7</ele>
        <time>2021-06-02T08:36:45.193Z</time>
      </trkpt>
      <trkpt lat="44.0914" lon="6.93602">
        <ele>1699.9</ele>
        <time>2021-06-02T08:36:49.181Z</time>
      </trkpt>
      <trkpt lat="44.09147" lon="6.93591">
        <ele>1698.6</ele>
        <time>2021-06-02T08:36:52.189Z</time>
      </trkpt>
      <trkpt lat="44.09153" lon="6.93578">
        <ele>1699.5</ele>
        <time>2021-06-02T08:36:55.307Z</time>
      </trkpt>
      <trkpt lat="44.09161" lon="6.93566">
        <ele>1701.5</ele>
        <time>2021-06-02T08:36:59.044Z</time>
      </trkpt>
      <trkpt lat="44.0917" lon="6.93556">
        <ele>1698.9</ele>
        <time>2021-06-02T08:37:02.752Z</time>
      </trkpt>
      <trkpt lat="44.09179" lon="6.93542">
        <ele>1700.4</ele>
        <time>2021-06-02T08:37:06.182Z</time>
      </trkpt>
      <trkpt lat="44.09189" lon="6.93535">
        <ele>1703.4</ele>
        <time>2021-06-02T08:37:10.197Z</time>
      </trkpt>
      <trkpt lat="44.09201" lon="6.93528">
        <ele>1702.6</ele>
        <time>2021-06-02T08:37:14.186Z</time>
      </trkpt>
      <trkpt lat="44.09211" lon="6.93523">
        <ele>1702.1</ele>
        <time>2021-06-02T08:37:17.228Z</time>
      </trkpt>
      <trkpt lat="44.09223" lon="6.93517">
        <ele>1704.4</ele>
        <time>2021-06-02T08:37:20.639Z</time>
      </trkpt>
      <trkpt lat="44.09235" lon="6.93513">
        <ele>1705.5</ele>
        <time>2021-06-02T08:37:24.179Z</time>
      </trkpt>
      <trkpt lat="44.09246" lon="6.9351">
        <ele>1707.4</ele>
        <time>2021-06-02T08:37:27.201Z</time>
      </trkpt>
      <trkpt lat="44.09259" lon="6.93506">
        <ele>1710.7</ele>
        <time>2021-06-02T08:37:31.371Z</time>
      </trkpt>
      <trkpt lat="44.0927" lon="6.935">
        <ele>1710.9</ele>
        <time>2021-06-02T08:37:35.177Z</time>
      </trkpt>
      <trkpt lat="44.09281" lon="6.93489">
        <ele>1709.1</ele>
        <time>2021-06-02T08:37:39.171Z</time>
      </trkpt>
      <trkpt lat="44.09291" lon="6.93479">
        <ele>1708.2</ele>
        <time>2021-06-02T08:37:42.317Z</time>
      </trkpt>
      <trkpt lat="44.09301" lon="6.93467">
        <ele>1711.8</ele>
        <time>2021-06-02T08:37:46.187Z</time>
      </trkpt>
      <trkpt lat="44.09311" lon="6.93454">
        <ele>1712.5</ele>
        <time>2021-06-02T08:37:50.179Z</time>
      </trkpt>
      <trkpt lat="44.09324" lon="6.93443">
        <ele>1712.7</ele>
        <time>2021-06-02T08:37:54.188Z</time>
      </trkpt>
      <trkpt lat="44.09331" lon="6.93432">
        <ele>1712.7</ele>
        <time>2021-06-02T08:37:57.189Z</time>
      </trkpt>
      <trkpt lat="44.09338" lon="6.93417">
        <ele>1712.5</ele>
        <time>2021-06-02T08:38:01.169Z</time>
      </trkpt>
      <trkpt lat="44.09344" lon="6.93404">
        <ele>1711.8</ele>
        <time>2021-06-02T08:38:04.548Z</time>
      </trkpt>
      <trkpt lat="44.09352" lon="6.93391">
        <ele>1714.5</ele>
        <time>2021-06-02T08:38:08.164Z</time>
      </trkpt>
      <trkpt lat="44.0936" lon="6.9338">
        <ele>1716.1</ele>
        <time>2021-06-02T08:38:11.175Z</time>
      </trkpt>
      <trkpt lat="44.09371" lon="6.93365">
        <ele>1716</ele>
        <time>2021-06-02T08:38:15.185Z</time>
      </trkpt>
      <trkpt lat="44.0938" lon="6.93354">
        <ele>1717</ele>
        <time>2021-06-02T08:38:18.185Z</time>
      </trkpt>
      <trkpt lat="44.09387" lon="6.93341">
        <ele>1713.7</ele>
        <time>2021-06-02T08:38:21.715Z</time>
      </trkpt>
      <trkpt lat="44.09392" lon="6.93328">
        <ele>1714.3</ele>
        <time>2021-06-02T08:38:25.192Z</time>
      </trkpt>
      <trkpt lat="44.094" lon="6.93316">
        <ele>1713.3</ele>
        <time>2021-06-02T08:38:28.316Z</time>
      </trkpt>
      <trkpt lat="44.09414" lon="6.93292">
        <ele>1714</ele>
        <time>2021-06-02T08:38:33.000Z</time>
      </trkpt>
      <trkpt lat="44.0942" lon="6.93294">
        <ele>1717.1</ele>
        <time>2021-06-02T08:38:37.185Z</time>
      </trkpt>
      <trkpt lat="44.09427" lon="6.93272">
        <ele>1719.7</ele>
        <time>2021-06-02T08:38:40.303Z</time>
      </trkpt>
      <trkpt lat="44.09436" lon="6.93251">
        <ele>1725.2</ele>
        <time>2021-06-02T08:38:43.709Z</time>
      </trkpt>
      <trkpt lat="44.0944" lon="6.93233">
        <ele>1729.3</ele>
        <time>2021-06-02T08:38:47.085Z</time>
      </trkpt>
      <trkpt lat="44.09445" lon="6.93219">
        <ele>1730.6</ele>
        <time>2021-06-02T08:38:50.178Z</time>
      </trkpt>
      <trkpt lat="44.09452" lon="6.93204">
        <ele>1732.4</ele>
        <time>2021-06-02T08:38:53.890Z</time>
      </trkpt>
      <trkpt lat="44.09459" lon="6.9319">
        <ele>1735.5</ele>
        <time>2021-06-02T08:38:56.993Z</time>
      </trkpt>
      <trkpt lat="44.09465" lon="6.93177">
        <ele>1734.4</ele>
        <time>2021-06-02T08:39:00.188Z</time>
      </trkpt>
      <trkpt lat="44.09471" lon="6.93165">
        <ele>1733.2</ele>
        <time>2021-06-02T08:39:03.000Z</time>
      </trkpt>
      <trkpt lat="44.09477" lon="6.93159">
        <ele>1732.9</ele>
        <time>2021-06-02T08:39:06.307Z</time>
      </trkpt>
      <trkpt lat="44.09489" lon="6.9314">
        <ele>1735.6</ele>
        <time>2021-06-02T08:39:10.170Z</time>
      </trkpt>
      <trkpt lat="44.09501" lon="6.93122">
        <ele>1735.1</ele>
        <time>2021-06-02T08:39:15.000Z</time>
      </trkpt>
      <trkpt lat="44.09504" lon="6.93109">
        <ele>1735.2</ele>
        <time>2021-06-02T08:39:18.184Z</time>
      </trkpt>
      <trkpt lat="44.09511" lon="6.93094">
        <ele>1714.8</ele>
        <time>2021-06-02T08:39:21.846Z</time>
      </trkpt>
      <trkpt lat="44.09526" lon="6.93082">
        <ele>1728.1</ele>
        <time>2021-06-02T08:39:25.185Z</time>
      </trkpt>
      <trkpt lat="44.09537" lon="6.93087">
        <ele>1733.7</ele>
        <time>2021-06-02T08:39:28.829Z</time>
      </trkpt>
      <trkpt lat="44.09549" lon="6.9309">
        <ele>1736.2</ele>
        <time>2021-06-02T08:39:32.185Z</time>
      </trkpt>
      <trkpt lat="44.09561" lon="6.93094">
        <ele>1736.5</ele>
        <time>2021-06-02T08:39:35.196Z</time>
      </trkpt>
      <trkpt lat="44.09574" lon="6.93098">
        <ele>1737.2</ele>
        <time>2021-06-02T08:39:38.281Z</time>
      </trkpt>
      <trkpt lat="44.09587" lon="6.93102">
        <ele>1736.4</ele>
        <time>2021-06-02T08:39:42.180Z</time>
      </trkpt>
      <trkpt lat="44.09599" lon="6.93102">
        <ele>1737.2</ele>
        <time>2021-06-02T08:39:46.177Z</time>
      </trkpt>
      <trkpt lat="44.09611" lon="6.93096">
        <ele>1736.8</ele>
        <time>2021-06-02T08:39:49.989Z</time>
      </trkpt>
      <trkpt lat="44.09625" lon="6.93086">
        <ele>1736.7</ele>
        <time>2021-06-02T08:39:54.000Z</time>
      </trkpt>
      <trkpt lat="44.09633" lon="6.93076">
        <ele>1736.7</ele>
        <time>2021-06-02T08:39:57.173Z</time>
      </trkpt>
      <trkpt lat="44.09656" lon="6.93041">
        <ele>1737.3</ele>
        <time>2021-06-02T08:40:03.000Z</time>
      </trkpt>
      <trkpt lat="44.09658" lon="6.93031">
        <ele>1737.4</ele>
        <time>2021-06-02T08:40:10.180Z</time>
      </trkpt>
      <trkpt lat="44.09674" lon="6.93005">
        <ele>1735.7</ele>
        <time>2021-06-02T08:40:13.465Z</time>
      </trkpt>
      <trkpt lat="44.09677" lon="6.92986">
        <ele>1736.1</ele>
        <time>2021-06-02T08:40:16.892Z</time>
      </trkpt>
      <trkpt lat="44.09677" lon="6.92975">
        <ele>1735.8</ele>
        <time>2021-06-02T08:40:20.358Z</time>
      </trkpt>
      <trkpt lat="44.09682" lon="6.92959">
        <ele>1738.7</ele>
        <time>2021-06-02T08:40:24.000Z</time>
      </trkpt>
      <trkpt lat="44.09685" lon="6.92944">
        <ele>1738.7</ele>
        <time>2021-06-02T08:40:27.187Z</time>
      </trkpt>
      <trkpt lat="44.09685" lon="6.92932">
        <ele>1735.6</ele>
        <time>2021-06-02T08:40:30.195Z</time>
      </trkpt>
      <trkpt lat="44.0965" lon="6.92922">
        <ele>1731.9</ele>
        <time>2021-06-02T08:40:36.000Z</time>
      </trkpt>
      <trkpt lat="44.09617" lon="6.92914">
        <ele>1731.8</ele>
        <time>2021-06-02T08:40:42.000Z</time>
      </trkpt>
      <trkpt lat="44.09607" lon="6.92912">
        <ele>1731.3</ele>
        <time>2021-06-02T08:40:45.259Z</time>
      </trkpt>
      <trkpt lat="44.09594" lon="6.92922">
        <ele>1730.6</ele>
        <time>2021-06-02T08:40:50.561Z</time>
      </trkpt>
      <trkpt lat="44.09563" lon="6.92912">
        <ele>1731</ele>
        <time>2021-06-02T08:40:54.000Z</time>
      </trkpt>
      <trkpt lat="44.09545" lon="6.92906">
        <ele>1731.8</ele>
        <time>2021-06-02T08:40:57.000Z</time>
      </trkpt>
      <trkpt lat="44.0953" lon="6.92896">
        <ele>1732.2</ele>
        <time>2021-06-02T08:41:01.198Z</time>
      </trkpt>
      <trkpt lat="44.09528" lon="6.92885">
        <ele>1735.6</ele>
        <time>2021-06-02T08:41:06.000Z</time>
      </trkpt>
      <trkpt lat="44.09523" lon="6.92864">
        <ele>1735.7</ele>
        <time>2021-06-02T08:41:09.315Z</time>
      </trkpt>
      <trkpt lat="44.09522" lon="6.92842">
        <ele>1734.6</ele>
        <time>2021-06-02T08:41:13.967Z</time>
      </trkpt>
      <trkpt lat="44.09517" lon="6.92825">
        <ele>1735.5</ele>
        <time>2021-06-02T08:41:18.000Z</time>
      </trkpt>
      <trkpt lat="44.09515" lon="6.92809">
        <ele>1731.5</ele>
        <time>2021-06-02T08:41:21.000Z</time>
      </trkpt>
      <trkpt lat="44.0951" lon="6.92789">
        <ele>1728.4</ele>
        <time>2021-06-02T08:41:24.000Z</time>
      </trkpt>
      <trkpt lat="44.09503" lon="6.92761">
        <ele>1728.5</ele>
        <time>2021-06-02T08:41:30.000Z</time>
      </trkpt>
      <trkpt lat="44.09499" lon="6.92747">
        <ele>1728.5</ele>
        <time>2021-06-02T08:41:33.185Z</time>
      </trkpt>
      <trkpt lat="44.09496" lon="6.92733">
        <ele>1728.6</ele>
        <time>2021-06-02T08:41:36.000Z</time>
      </trkpt>
      <trkpt lat="44.09488" lon="6.92706">
        <ele>1728.6</ele>
        <time>2021-06-02T08:41:42.171Z</time>
      </trkpt>
      <trkpt lat="44.09479" lon="6.9269">
        <ele>1727.9</ele>
        <time>2021-06-02T08:41:45.000Z</time>
      </trkpt>
      <trkpt lat="44.0947" lon="6.92679">
        <ele>1725.5</ele>
        <time>2021-06-02T08:41:48.000Z</time>
      </trkpt>
      <trkpt lat="44.09447" lon="6.92656">
        <ele>1725.3</ele>
        <time>2021-06-02T08:41:54.000Z</time>
      </trkpt>
      <trkpt lat="44.09422" lon="6.92641">
        <ele>1722.8</ele>
        <time>2021-06-02T08:42:00.000Z</time>
      </trkpt>
      <trkpt lat="44.09406" lon="6.92631">
        <ele>1723.7</ele>
        <time>2021-06-02T08:42:03.000Z</time>
      </trkpt>
      <trkpt lat="44.09377" lon="6.92615">
        <ele>1724.6</ele>
        <time>2021-06-02T08:42:09.000Z</time>
      </trkpt>
      <trkpt lat="44.09351" lon="6.92613">
        <ele>1722.3</ele>
        <time>2021-06-02T08:42:15.000Z</time>
      </trkpt>
      <trkpt lat="44.0932" lon="6.92624">
        <ele>1725.8</ele>
        <time>2021-06-02T08:42:21.000Z</time>
      </trkpt>
      <trkpt lat="44.09287" lon="6.92637">
        <ele>1727.7</ele>
        <time>2021-06-02T08:42:27.000Z</time>
      </trkpt>
      <trkpt lat="44.09274" lon="6.92643">
        <ele>1728.4</ele>
        <time>2021-06-02T08:42:30.000Z</time>
      </trkpt>
      <trkpt lat="44.09268" lon="6.92645">
        <ele>1731.4</ele>
        <time>2021-06-02T08:42:33.000Z</time>
      </trkpt>
      <trkpt lat="44.09236" lon="6.92628">
        <ele>1731.4</ele>
        <time>2021-06-02T08:42:39.000Z</time>
      </trkpt>
      <trkpt lat="44.09217" lon="6.92599">
        <ele>1729.1</ele>
        <time>2021-06-02T08:42:45.000Z</time>
      </trkpt>
      <trkpt lat="44.0921" lon="6.92571">
        <ele>1729.5</ele>
        <time>2021-06-02T08:42:51.000Z</time>
      </trkpt>
      <trkpt lat="44.09194" lon="6.9253">
        <ele>1725.3</ele>
        <time>2021-06-02T08:42:57.000Z</time>
      </trkpt>
      <trkpt lat="44.09179" lon="6.92506">
        <ele>1724.2</ele>
        <time>2021-06-02T08:43:03.000Z</time>
      </trkpt>
      <trkpt lat="44.09168" lon="6.92494">
        <ele>1725.6</ele>
        <time>2021-06-02T08:43:06.248Z</time>
      </trkpt>
      <trkpt lat="44.09153" lon="6.92485">
        <ele>1727.6</ele>
        <time>2021-06-02T08:43:10.183Z</time>
      </trkpt>
      <trkpt lat="44.09141" lon="6.92468">
        <ele>1729.3</ele>
        <time>2021-06-02T08:43:15.000Z</time>
      </trkpt>
      <trkpt lat="44.09128" lon="6.92466">
        <ele>1727.4</ele>
        <time>2021-06-02T08:43:18.000Z</time>
      </trkpt>
      <trkpt lat="44.0911" lon="6.92464">
        <ele>1730</ele>
        <time>2021-06-02T08:43:22.179Z</time>
      </trkpt>
      <trkpt lat="44.09084" lon="6.92454">
        <ele>1729.8</ele>
        <time>2021-06-02T08:43:27.000Z</time>
      </trkpt>
      <trkpt lat="44.09075" lon="6.92437">
        <ele>1730.5</ele>
        <time>2021-06-02T08:43:30.000Z</time>
      </trkpt>
      <trkpt lat="44.09077" lon="6.92417">
        <ele>1735.5</ele>
        <time>2021-06-02T08:43:33.000Z</time>
      </trkpt>
      <trkpt lat="44.09082" lon="6.92376">
        <ele>1734</ele>
        <time>2021-06-02T08:43:39.000Z</time>
      </trkpt>
      <trkpt lat="44.0907" lon="6.9235">
        <ele>1728.6</ele>
        <time>2021-06-02T08:43:42.000Z</time>
      </trkpt>
      <trkpt lat="44.09054" lon="6.92309">
        <ele>1718.7</ele>
        <time>2021-06-02T08:43:48.000Z</time>
      </trkpt>
      <trkpt lat="44.09049" lon="6.92286">
        <ele>1719.7</ele>
        <time>2021-06-02T08:43:51.000Z</time>
      </trkpt>
      <trkpt lat="44.09046" lon="6.92262">
        <ele>1720.5</ele>
        <time>2021-06-02T08:43:54.277Z</time>
      </trkpt>
      <trkpt lat="44.09038" lon="6.9222">
        <ele>1726.2</ele>
        <time>2021-06-02T08:44:00.000Z</time>
      </trkpt>
      <trkpt lat="44.09022" lon="6.92187">
        <ele>1732.7</ele>
        <time>2021-06-02T08:44:06.000Z</time>
      </trkpt>
      <trkpt lat="44.09013" lon="6.92167">
        <ele>1736.1</ele>
        <time>2021-06-02T08:44:09.000Z</time>
      </trkpt>
      <trkpt lat="44.09005" lon="6.92145">
        <ele>1731.8</ele>
        <time>2021-06-02T08:44:12.000Z</time>
      </trkpt>
      <trkpt lat="44.09" lon="6.92127">
        <ele>1731.1</ele>
        <time>2021-06-02T08:44:15.336Z</time>
      </trkpt>
      <trkpt lat="44.0901" lon="6.92115">
        <ele>1728.6</ele>
        <time>2021-06-02T08:44:19.095Z</time>
      </trkpt>
      <trkpt lat="44.09005" lon="6.92096">
        <ele>1726.8</ele>
        <time>2021-06-02T08:44:22.328Z</time>
      </trkpt>
      <trkpt lat="44.09" lon="6.92072">
        <ele>1727.8</ele>
        <time>2021-06-02T08:44:26.175Z</time>
      </trkpt>
      <trkpt lat="44.08985" lon="6.92031">
        <ele>1726.3</ele>
        <time>2021-06-02T08:44:30.000Z</time>
      </trkpt>
      <trkpt lat="44.08983" lon="6.92014">
        <ele>1726.3</ele>
        <time>2021-06-02T08:44:33.191Z</time>
      </trkpt>
      <trkpt lat="44.08982" lon="6.91982">
        <ele>1725.5</ele>
        <time>2021-06-02T08:44:37.186Z</time>
      </trkpt>
      <trkpt lat="44.08979" lon="6.91969">
        <ele>1720.4</ele>
        <time>2021-06-02T08:44:42.000Z</time>
      </trkpt>
      <trkpt lat="44.08969" lon="6.9194">
        <ele>1718.9</ele>
        <time>2021-06-02T08:44:48.000Z</time>
      </trkpt>
      <trkpt lat="44.08953" lon="6.9188">
        <ele>1712.4</ele>
        <time>2021-06-02T08:44:54.000Z</time>
      </trkpt>
      <trkpt lat="44.08954" lon="6.91825">
        <ele>1715</ele>
        <time>2021-06-02T08:45:00.000Z</time>
      </trkpt>
      <trkpt lat="44.08956" lon="6.91818">
        <ele>1712.1</ele>
        <time>2021-06-02T08:45:03.000Z</time>
      </trkpt>
      <trkpt lat="44.08958" lon="6.91792">
        <ele>1714.9</ele>
        <time>2021-06-02T08:45:09.000Z</time>
      </trkpt>
      <trkpt lat="44.08964" lon="6.91781">
        <ele>1713.4</ele>
        <time>2021-06-02T08:45:16.189Z</time>
      </trkpt>
      <trkpt lat="44.08975" lon="6.91764">
        <ele>1712.4</ele>
        <time>2021-06-02T08:45:20.108Z</time>
      </trkpt>
      <trkpt lat="44.08983" lon="6.91751">
        <ele>1712.3</ele>
        <time>2021-06-02T08:45:23.177Z</time>
      </trkpt>
      <trkpt lat="44.08998" lon="6.91726">
        <ele>1708.1</ele>
        <time>2021-06-02T08:45:27.000Z</time>
      </trkpt>
      <trkpt lat="44.08996" lon="6.91716">
        <ele>1708.1</ele>
        <time>2021-06-02T08:45:30.180Z</time>
      </trkpt>
      <trkpt lat="44.0899" lon="6.91709">
        <ele>1705.8</ele>
        <time>2021-06-02T08:45:37.166Z</time>
      </trkpt>
      <trkpt lat="44.08981" lon="6.91696">
        <ele>1702.1</ele>
        <time>2021-06-02T08:45:44.193Z</time>
      </trkpt>
      <trkpt lat="44.08973" lon="6.91688">
        <ele>1700.2</ele>
        <time>2021-06-02T08:45:48.181Z</time>
      </trkpt>
      <trkpt lat="44.08969" lon="6.91679">
        <ele>1697.8</ele>
        <time>2021-06-02T08:45:51.211Z</time>
      </trkpt>
      <trkpt lat="44.08965" lon="6.91673">
        <ele>1695</ele>
        <time>2021-06-02T08:45:54.234Z</time>
      </trkpt>
      <trkpt lat="44.08961" lon="6.91669">
        <ele>1695.9</ele>
        <time>2021-06-02T08:45:57.243Z</time>
      </trkpt>
      <trkpt lat="44.08957" lon="6.91664">
        <ele>1694.6</ele>
        <time>2021-06-02T08:46:05.230Z</time>
      </trkpt>
      <trkpt lat="44.08952" lon="6.91661">
        <ele>1694.6</ele>
        <time>2021-06-02T08:46:08.822Z</time>
      </trkpt>
      <trkpt lat="44.08946" lon="6.91657">
        <ele>1695</ele>
        <time>2021-06-02T08:46:12.182Z</time>
      </trkpt>
      <trkpt lat="44.08944" lon="6.91648">
        <ele>1689.4</ele>
        <time>2021-06-02T08:46:15.885Z</time>
      </trkpt>
      <trkpt lat="44.0894" lon="6.91633">
        <ele>1683.3</ele>
        <time>2021-06-02T08:46:23.096Z</time>
      </trkpt>
      <trkpt lat="44.08934" lon="6.91628">
        <ele>1677.5</ele>
        <time>2021-06-02T08:46:29.176Z</time>
      </trkpt>
      <trkpt lat="44.0893" lon="6.91622">
        <ele>1675.5</ele>
        <time>2021-06-02T08:46:36.000Z</time>
      </trkpt>
      <trkpt lat="44.08927" lon="6.91615">
        <ele>1675.5</ele>
        <time>2021-06-02T08:46:39.189Z</time>
      </trkpt>
      <trkpt lat="44.08923" lon="6.91609">
        <ele>1674.5</ele>
        <time>2021-06-02T08:46:52.792Z</time>
      </trkpt>
      <trkpt lat="44.08921" lon="6.91603">
        <ele>1672.1</ele>
        <time>2021-06-02T08:47:05.084Z</time>
      </trkpt>
      <trkpt lat="44.08919" lon="6.91595">
        <ele>1663.4</ele>
        <time>2021-06-02T08:47:32.000Z</time>
      </trkpt>
      <trkpt lat="44.08912" lon="6.91589">
        <ele>1662.6</ele>
        <time>2021-06-02T08:47:42.930Z</time>
      </trkpt>
      <trkpt lat="44.08908" lon="6.9158">
        <ele>1660.7</ele>
        <time>2021-06-02T08:47:46.043Z</time>
      </trkpt>
      <trkpt lat="44.08911" lon="6.91569">
        <ele>1661.9</ele>
        <time>2021-06-02T08:47:52.000Z</time>
      </trkpt>
      <trkpt lat="44.08904" lon="6.91567">
        <ele>1662.6</ele>
        <time>2021-06-02T08:48:01.000Z</time>
      </trkpt>
      <trkpt lat="44.08903" lon="6.91549">
        <ele>1658.1</ele>
        <time>2021-06-02T08:48:27.220Z</time>
      </trkpt>
      <trkpt lat="44.08899" lon="6.91532">
        <ele>1657.7</ele>
        <time>2021-06-02T08:48:30.887Z</time>
      </trkpt>
      <trkpt lat="44.08907" lon="6.91509">
        <ele>1652.2</ele>
        <time>2021-06-02T08:48:34.000Z</time>
      </trkpt>
      <trkpt lat="44.08908" lon="6.91495">
        <ele>1652.2</ele>
        <time>2021-06-02T08:48:37.782Z</time>
      </trkpt>
      <trkpt lat="44.08906" lon="6.91475">
        <ele>1648.9</ele>
        <time>2021-06-02T08:48:41.803Z</time>
      </trkpt>
      <trkpt lat="44.08902" lon="6.91461">
        <ele>1647.3</ele>
        <time>2021-06-02T08:48:45.185Z</time>
      </trkpt>
      <trkpt lat="44.08896" lon="6.91448">
        <ele>1644.5</ele>
        <time>2021-06-02T08:48:48.324Z</time>
      </trkpt>
      <trkpt lat="44.08889" lon="6.91434">
        <ele>1637.6</ele>
        <time>2021-06-02T08:48:52.000Z</time>
      </trkpt>
      <trkpt lat="44.08882" lon="6.91421">
        <ele>1637.6</ele>
        <time>2021-06-02T08:48:55.173Z</time>
      </trkpt>
      <trkpt lat="44.08876" lon="6.91406">
        <ele>1634.7</ele>
        <time>2021-06-02T08:48:58.186Z</time>
      </trkpt>
      <trkpt lat="44.0887" lon="6.91377">
        <ele>1630.2</ele>
        <time>2021-06-02T08:49:02.397Z</time>
      </trkpt>
      <trkpt lat="44.08864" lon="6.91328">
        <ele>1626.8</ele>
        <time>2021-06-02T08:49:07.000Z</time>
      </trkpt>
      <trkpt lat="44.08849" lon="6.91278">
        <ele>1619.5</ele>
        <time>2021-06-02T08:49:13.000Z</time>
      </trkpt>
      <trkpt lat="44.08826" lon="6.91236">
        <ele>1613.4</ele>
        <time>2021-06-02T08:49:19.000Z</time>
      </trkpt>
      <trkpt lat="44.08814" lon="6.91214">
        <ele>1605.5</ele>
        <time>2021-06-02T08:49:25.000Z</time>
      </trkpt>
      <trkpt lat="44.08799" lon="6.91172">
        <ele>1604.5</ele>
        <time>2021-06-02T08:49:31.000Z</time>
      </trkpt>
      <trkpt lat="44.08791" lon="6.91162">
        <ele>1602.4</ele>
        <time>2021-06-02T08:49:34.973Z</time>
      </trkpt>
      <trkpt lat="44.08792" lon="6.91174">
        <ele>1602.9</ele>
        <time>2021-06-02T08:49:38.177Z</time>
      </trkpt>
      <trkpt lat="44.08769" lon="6.91121">
        <ele>1599.1</ele>
        <time>2021-06-02T08:49:43.000Z</time>
      </trkpt>
      <trkpt lat="44.08759" lon="6.91112">
        <ele>1595.9</ele>
        <time>2021-06-02T08:49:46.281Z</time>
      </trkpt>
      <trkpt lat="44.08752" lon="6.91089">
        <ele>1590.2</ele>
        <time>2021-06-02T08:49:52.000Z</time>
      </trkpt>
      <trkpt lat="44.08771" lon="6.91099">
        <ele>1587.5</ele>
        <time>2021-06-02T08:49:55.000Z</time>
      </trkpt>
      <trkpt lat="44.08804" lon="6.91124">
        <ele>1585.9</ele>
        <time>2021-06-02T08:50:01.000Z</time>
      </trkpt>
      <trkpt lat="44.08824" lon="6.91126">
        <ele>1584.1</ele>
        <time>2021-06-02T08:50:05.185Z</time>
      </trkpt>
      <trkpt lat="44.0879" lon="6.91083">
        <ele>1580.3</ele>
        <time>2021-06-02T08:50:10.000Z</time>
      </trkpt>
      <trkpt lat="44.08771" lon="6.9107">
        <ele>1578.6</ele>
        <time>2021-06-02T08:50:13.211Z</time>
      </trkpt>
      <trkpt lat="44.08743" lon="6.9105">
        <ele>1575.5</ele>
        <time>2021-06-02T08:50:19.000Z</time>
      </trkpt>
      <trkpt lat="44.08729" lon="6.91038">
        <ele>1572.1</ele>
        <time>2021-06-02T08:50:22.248Z</time>
      </trkpt>
      <trkpt lat="44.08707" lon="6.91004">
        <ele>1569.8</ele>
        <time>2021-06-02T08:50:28.000Z</time>
      </trkpt>
      <trkpt lat="44.08699" lon="6.90992">
        <ele>1569.1</ele>
        <time>2021-06-02T08:50:31.000Z</time>
      </trkpt>
      <trkpt lat="44.08695" lon="6.90981">
        <ele>1570.4</ele>
        <time>2021-06-02T08:50:34.206Z</time>
      </trkpt>
      <trkpt lat="44.08697" lon="6.90967">
        <ele>1570.7</ele>
        <time>2021-06-02T08:50:38.181Z</time>
      </trkpt>
      <trkpt lat="44.08712" lon="6.9093">
        <ele>1565</ele>
        <time>2021-06-02T08:50:43.000Z</time>
      </trkpt>
      <trkpt lat="44.0872" lon="6.90922">
        <ele>1563.3</ele>
        <time>2021-06-02T08:50:46.000Z</time>
      </trkpt>
      <trkpt lat="44.0873" lon="6.90908">
        <ele>1565.4</ele>
        <time>2021-06-02T08:50:52.000Z</time>
      </trkpt>
      <trkpt lat="44.08736" lon="6.90899">
        <ele>1566.9</ele>
        <time>2021-06-02T08:50:55.000Z</time>
      </trkpt>
      <trkpt lat="44.08744" lon="6.90888">
        <ele>1568.8</ele>
        <time>2021-06-02T08:50:58.000Z</time>
      </trkpt>
      <trkpt lat="44.08754" lon="6.90878">
        <ele>1570</ele>
        <time>2021-06-02T08:51:01.250Z</time>
      </trkpt>
      <trkpt lat="44.08779" lon="6.90866">
        <ele>1567.1</ele>
        <time>2021-06-02T08:51:07.000Z</time>
      </trkpt>
      <trkpt lat="44.08806" lon="6.9085">
        <ele>1563.4</ele>
        <time>2021-06-02T08:51:13.000Z</time>
      </trkpt>
      <trkpt lat="44.08814" lon="6.90829">
        <ele>1558.2</ele>
        <time>2021-06-02T08:51:19.000Z</time>
      </trkpt>
      <trkpt lat="44.08816" lon="6.90823">
        <ele>1552.6</ele>
        <time>2021-06-02T08:51:22.000Z</time>
      </trkpt>
      <trkpt lat="44.08819" lon="6.90818">
        <ele>1553</ele>
        <time>2021-06-02T08:51:25.000Z</time>
      </trkpt>
      <trkpt lat="44.08823" lon="6.90811">
        <ele>1550.8</ele>
        <time>2021-06-02T08:51:28.250Z</time>
      </trkpt>
      <trkpt lat="44.08832" lon="6.90793">
        <ele>1548</ele>
        <time>2021-06-02T08:51:34.000Z</time>
      </trkpt>
      <trkpt lat="44.08846" lon="6.90764">
        <ele>1540.6</ele>
        <time>2021-06-02T08:51:40.000Z</time>
      </trkpt>
      <trkpt lat="44.08866" lon="6.90729">
        <ele>1540.2</ele>
        <time>2021-06-02T08:51:46.000Z</time>
      </trkpt>
      <trkpt lat="44.08872" lon="6.90717">
        <ele>1536.6</ele>
        <time>2021-06-02T08:51:49.000Z</time>
      </trkpt>
      <trkpt lat="44.08877" lon="6.90702">
        <ele>1532.7</ele>
        <time>2021-06-02T08:51:52.000Z</time>
      </trkpt>
      <trkpt lat="44.08884" lon="6.90663">
        <ele>1528</ele>
        <time>2021-06-02T08:51:58.000Z</time>
      </trkpt>
      <trkpt lat="44.08896" lon="6.90621">
        <ele>1524.9</ele>
        <time>2021-06-02T08:52:01.000Z</time>
      </trkpt>
      <trkpt lat="44.08909" lon="6.90567">
        <ele>1540.7</ele>
        <time>2021-06-02T08:52:07.000Z</time>
      </trkpt>
      <trkpt lat="44.08913" lon="6.90544">
        <ele>1529.4</ele>
        <time>2021-06-02T08:52:10.000Z</time>
      </trkpt>
      <trkpt lat="44.08913" lon="6.90523">
        <ele>1523</ele>
        <time>2021-06-02T08:52:13.000Z</time>
      </trkpt>
      <trkpt lat="44.08907" lon="6.90511">
        <ele>1521</ele>
        <time>2021-06-02T08:52:18.216Z</time>
      </trkpt>
      <trkpt lat="44.08901" lon="6.90505">
        <ele>1521.5</ele>
        <time>2021-06-02T08:52:21.371Z</time>
      </trkpt>
      <trkpt lat="44.08898" lon="6.90492">
        <ele>1519.9</ele>
        <time>2021-06-02T08:52:24.836Z</time>
      </trkpt>
      <trkpt lat="44.08898" lon="6.90478">
        <ele>1521.1</ele>
        <time>2021-06-02T08:52:28.191Z</time>
      </trkpt>
      <trkpt lat="44.08896" lon="6.90457">
        <ele>1523.8</ele>
        <time>2021-06-02T08:52:32.190Z</time>
      </trkpt>
      <trkpt lat="44.08895" lon="6.9044">
        <ele>1524.6</ele>
        <time>2021-06-02T08:52:35.748Z</time>
      </trkpt>
      <trkpt lat="44.08899" lon="6.90426">
        <ele>1525.6</ele>
        <time>2021-06-02T08:52:38.931Z</time>
      </trkpt>
      <trkpt lat="44.08903" lon="6.90409">
        <ele>1526.1</ele>
        <time>2021-06-02T08:52:42.455Z</time>
      </trkpt>
      <trkpt lat="44.08909" lon="6.90394">
        <ele>1527</ele>
        <time>2021-06-02T08:52:46.189Z</time>
      </trkpt>
      <trkpt lat="44.08914" lon="6.90378">
        <ele>1527.4</ele>
        <time>2021-06-02T08:52:49.993Z</time>
      </trkpt>
      <trkpt lat="44.08915" lon="6.90363">
        <ele>1528.9</ele>
        <time>2021-06-02T08:52:53.198Z</time>
      </trkpt>
      <trkpt lat="44.08913" lon="6.90345">
        <ele>1528.9</ele>
        <time>2021-06-02T08:52:56.786Z</time>
      </trkpt>
      <trkpt lat="44.08909" lon="6.90329">
        <ele>1528</ele>
        <time>2021-06-02T08:53:00.057Z</time>
      </trkpt>
      <trkpt lat="44.08903" lon="6.90314">
        <ele>1532.1</ele>
        <time>2021-06-02T08:53:03.121Z</time>
      </trkpt>
      <trkpt lat="44.08895" lon="6.90301">
        <ele>1533.1</ele>
        <time>2021-06-02T08:53:06.181Z</time>
      </trkpt>
      <trkpt lat="44.08883" lon="6.90289">
        <ele>1533.7</ele>
        <time>2021-06-02T08:53:10.210Z</time>
      </trkpt>
      <trkpt lat="44.08873" lon="6.90274">
        <ele>1536.4</ele>
        <time>2021-06-02T08:53:14.183Z</time>
      </trkpt>
      <trkpt lat="44.08865" lon="6.90261">
        <ele>1534.8</ele>
        <time>2021-06-02T08:53:17.183Z</time>
      </trkpt>
      <trkpt lat="44.08856" lon="6.90249">
        <ele>1535.9</ele>
        <time>2021-06-02T08:53:20.354Z</time>
      </trkpt>
      <trkpt lat="44.08845" lon="6.90235">
        <ele>1536.1</ele>
        <time>2021-06-02T08:53:24.040Z</time>
      </trkpt>
      <trkpt lat="44.08837" lon="6.90214">
        <ele>1535.3</ele>
        <time>2021-06-02T08:53:28.181Z</time>
      </trkpt>
      <trkpt lat="44.08832" lon="6.90198">
        <ele>1536.1</ele>
        <time>2021-06-02T08:53:31.185Z</time>
      </trkpt>
      <trkpt lat="44.08831" lon="6.90184">
        <ele>1537.3</ele>
        <time>2021-06-02T08:53:34.195Z</time>
      </trkpt>
      <trkpt lat="44.08828" lon="6.90169">
        <ele>1537.6</ele>
        <time>2021-06-02T08:53:38.192Z</time>
      </trkpt>
      <trkpt lat="44.08825" lon="6.90133">
        <ele>1533.2</ele>
        <time>2021-06-02T08:53:43.000Z</time>
      </trkpt>
      <trkpt lat="44.0883" lon="6.90112">
        <ele>1533.7</ele>
        <time>2021-06-02T08:53:46.211Z</time>
      </trkpt>
      <trkpt lat="44.08854" lon="6.90075">
        <ele>1545.1</ele>
        <time>2021-06-02T08:53:52.000Z</time>
      </trkpt>
      <trkpt lat="44.08886" lon="6.90026">
        <ele>1537.1</ele>
        <time>2021-06-02T08:53:58.000Z</time>
      </trkpt>
      <trkpt lat="44.08924" lon="6.89967">
        <ele>1535.2</ele>
        <time>2021-06-02T08:54:04.000Z</time>
      </trkpt>
      <trkpt lat="44.08936" lon="6.89891">
        <ele>1555.1</ele>
        <time>2021-06-02T08:54:10.000Z</time>
      </trkpt>
      <trkpt lat="44.08934" lon="6.89866">
        <ele>1537.7</ele>
        <time>2021-06-02T08:54:13.000Z</time>
      </trkpt>
      <trkpt lat="44.0892" lon="6.8986">
        <ele>1530.7</ele>
        <time>2021-06-02T08:54:18.238Z</time>
      </trkpt>
      <trkpt lat="44.08912" lon="6.89841">
        <ele>1521.1</ele>
        <time>2021-06-02T08:54:22.000Z</time>
      </trkpt>
      <trkpt lat="44.08905" lon="6.89819">
        <ele>1520.8</ele>
        <time>2021-06-02T08:54:25.000Z</time>
      </trkpt>
      <trkpt lat="44.08893" lon="6.89795">
        <ele>1516.8</ele>
        <time>2021-06-02T08:54:28.551Z</time>
      </trkpt>
      <trkpt lat="44.08877" lon="6.89752">
        <ele>1517.2</ele>
        <time>2021-06-02T08:54:34.000Z</time>
      </trkpt>
      <trkpt lat="44.08868" lon="6.8969">
        <ele>1519</ele>
        <time>2021-06-02T08:54:40.000Z</time>
      </trkpt>
      <trkpt lat="44.08864" lon="6.89638">
        <ele>1514.2</ele>
        <time>2021-06-02T08:54:46.000Z</time>
      </trkpt>
      <trkpt lat="44.08864" lon="6.89591">
        <ele>1514.4</ele>
        <time>2021-06-02T08:54:51.461Z</time>
      </trkpt>
      <trkpt lat="44.08877" lon="6.89569">
        <ele>1510.3</ele>
        <time>2021-06-02T08:54:55.000Z</time>
      </trkpt>
      <trkpt lat="44.08886" lon="6.8957">
        <ele>1511.2</ele>
        <time>2021-06-02T08:54:58.000Z</time>
      </trkpt>
      <trkpt lat="44.08902" lon="6.89556">
        <ele>1511.1</ele>
        <time>2021-06-02T08:55:04.000Z</time>
      </trkpt>
      <trkpt lat="44.08907" lon="6.89547">
        <ele>1511.3</ele>
        <time>2021-06-02T08:55:07.000Z</time>
      </trkpt>
      <trkpt lat="44.08907" lon="6.89536">
        <ele>1509.6</ele>
        <time>2021-06-02T08:55:10.000Z</time>
      </trkpt>
      <trkpt lat="44.08903" lon="6.89523">
        <ele>1507.8</ele>
        <time>2021-06-02T08:55:13.000Z</time>
      </trkpt>
      <trkpt lat="44.08904" lon="6.89485">
        <ele>1505.3</ele>
        <time>2021-06-02T08:55:19.000Z</time>
      </trkpt>
      <trkpt lat="44.08904" lon="6.89464">
        <ele>1503.5</ele>
        <time>2021-06-02T08:55:22.000Z</time>
      </trkpt>
      <trkpt lat="44.08905" lon="6.89442">
        <ele>1502.9</ele>
        <time>2021-06-02T08:55:25.255Z</time>
      </trkpt>
      <trkpt lat="44.08902" lon="6.89396">
        <ele>1502.1</ele>
        <time>2021-06-02T08:55:31.000Z</time>
      </trkpt>
      <trkpt lat="44.08899" lon="6.89373">
        <ele>1499.8</ele>
        <time>2021-06-02T08:55:34.000Z</time>
      </trkpt>
      <trkpt lat="44.08895" lon="6.89327">
        <ele>1518.8</ele>
        <time>2021-06-02T08:55:40.000Z</time>
      </trkpt>
      <trkpt lat="44.08895" lon="6.89298">
        <ele>1507.9</ele>
        <time>2021-06-02T08:55:46.000Z</time>
      </trkpt>
      <trkpt lat="44.08898" lon="6.89289">
        <ele>1501.1</ele>
        <time>2021-06-02T08:55:52.000Z</time>
      </trkpt>
      <trkpt lat="44.08892" lon="6.89284">
        <ele>1499.2</ele>
        <time>2021-06-02T08:55:56.190Z</time>
      </trkpt>
      <trkpt lat="44.08891" lon="6.8927">
        <ele>1494.9</ele>
        <time>2021-06-02T08:56:01.192Z</time>
      </trkpt>
      <trkpt lat="44.08886" lon="6.89256">
        <ele>1493.1</ele>
        <time>2021-06-02T08:56:04.931Z</time>
      </trkpt>
      <trkpt lat="44.08877" lon="6.89244">
        <ele>1493.6</ele>
        <time>2021-06-02T08:56:08.183Z</time>
      </trkpt>
      <trkpt lat="44.08867" lon="6.89212">
        <ele>1491.8</ele>
        <time>2021-06-02T08:56:13.000Z</time>
      </trkpt>
      <trkpt lat="44.08844" lon="6.892">
        <ele>1493.6</ele>
        <time>2021-06-02T08:56:19.000Z</time>
      </trkpt>
      <trkpt lat="44.08828" lon="6.89197">
        <ele>1492.6</ele>
        <time>2021-06-02T08:56:22.000Z</time>
      </trkpt>
      <trkpt lat="44.08817" lon="6.89198">
        <ele>1491.2</ele>
        <time>2021-06-02T08:56:25.000Z</time>
      </trkpt>
      <trkpt lat="44.08806" lon="6.89197">
        <ele>1485.3</ele>
        <time>2021-06-02T08:56:38.306Z</time>
      </trkpt>
      <trkpt lat="44.08793" lon="6.89207">
        <ele>1480.9</ele>
        <time>2021-06-02T08:56:42.192Z</time>
      </trkpt>
      <trkpt lat="44.08776" lon="6.89217">
        <ele>1478.2</ele>
        <time>2021-06-02T08:56:46.185Z</time>
      </trkpt>
      <trkpt lat="44.08759" lon="6.89215">
        <ele>1474</ele>
        <time>2021-06-02T08:56:50.186Z</time>
      </trkpt>
      <trkpt lat="44.08746" lon="6.89206">
        <ele>1472.4</ele>
        <time>2021-06-02T08:56:53.652Z</time>
      </trkpt>
      <trkpt lat="44.08739" lon="6.89192">
        <ele>1472</ele>
        <time>2021-06-02T08:56:57.175Z</time>
      </trkpt>
      <trkpt lat="44.08731" lon="6.89181">
        <ele>1470.8</ele>
        <time>2021-06-02T08:57:00.181Z</time>
      </trkpt>
      <trkpt lat="44.08718" lon="6.89168">
        <ele>1471.5</ele>
        <time>2021-06-02T08:57:04.187Z</time>
      </trkpt>
      <trkpt lat="44.08707" lon="6.89155">
        <ele>1472.1</ele>
        <time>2021-06-02T08:57:07.955Z</time>
      </trkpt>
      <trkpt lat="44.08695" lon="6.89148">
        <ele>1470.7</ele>
        <time>2021-06-02T08:57:11.183Z</time>
      </trkpt>
      <trkpt lat="44.08686" lon="6.89145">
        <ele>1471.6</ele>
        <time>2021-06-02T08:57:14.292Z</time>
      </trkpt>
      <trkpt lat="44.08667" lon="6.89138">
        <ele>1468.8</ele>
        <time>2021-06-02T08:57:17.767Z</time>
      </trkpt>
      <trkpt lat="44.08643" lon="6.89139">
        <ele>1465.6</ele>
        <time>2021-06-02T08:57:22.000Z</time>
      </trkpt>
      <trkpt lat="44.08623" lon="6.89137">
        <ele>1465.3</ele>
        <time>2021-06-02T08:57:26.177Z</time>
      </trkpt>
      <trkpt lat="44.08615" lon="6.89138">
        <ele>1463.2</ele>
        <time>2021-06-02T08:57:30.306Z</time>
      </trkpt>
      <trkpt lat="44.08609" lon="6.89146">
        <ele>1459.3</ele>
        <time>2021-06-02T08:57:33.950Z</time>
      </trkpt>
      <trkpt lat="44.08601" lon="6.89138">
        <ele>1457.9</ele>
        <time>2021-06-02T08:57:37.193Z</time>
      </trkpt>
      <trkpt lat="44.08587" lon="6.8913">
        <ele>1474.7</ele>
        <time>2021-06-02T08:57:41.189Z</time>
      </trkpt>
      <trkpt lat="44.08576" lon="6.89132">
        <ele>1462.2</ele>
        <time>2021-06-02T08:57:44.771Z</time>
      </trkpt>
      <trkpt lat="44.08569" lon="6.89129">
        <ele>1459.3</ele>
        <time>2021-06-02T08:57:49.000Z</time>
      </trkpt>
      <trkpt lat="44.08574" lon="6.89131">
        <ele>1457.9</ele>
        <time>2021-06-02T08:57:58.000Z</time>
      </trkpt>
      <trkpt lat="44.0857" lon="6.89135">
        <ele>1456.9</ele>
        <time>2021-06-02T08:58:27.608Z</time>
      </trkpt>
      <trkpt lat="44.08565" lon="6.89131">
        <ele>1484.5</ele>
        <time>2021-06-02T08:58:49.000Z</time>
      </trkpt>
      <trkpt lat="44.0856" lon="6.89126">
        <ele>1458.1</ele>
        <time>2021-06-02T08:58:58.790Z</time>
      </trkpt>
      <trkpt lat="44.08556" lon="6.89125">
        <ele>1454.5</ele>
        <time>2021-06-02T08:59:03.181Z</time>
      </trkpt>
      <trkpt lat="44.08549" lon="6.89124">
        <ele>1454.7</ele>
        <time>2021-06-02T08:59:06.385Z</time>
      </trkpt>
      <trkpt lat="44.0854" lon="6.89126">
        <ele>1452.1</ele>
        <time>2021-06-02T08:59:10.182Z</time>
      </trkpt>
      <trkpt lat="44.08533" lon="6.89126">
        <ele>1447.9</ele>
        <time>2021-06-02T08:59:13.184Z</time>
      </trkpt>
      <trkpt lat="44.0853" lon="6.89118">
        <ele>1472.2</ele>
        <time>2021-06-02T08:59:16.000Z</time>
      </trkpt>
      <trkpt lat="44.08534" lon="6.89115">
        <ele>1451.3</ele>
        <time>2021-06-02T08:59:28.000Z</time>
      </trkpt>
      <trkpt lat="44.08534" lon="6.89106">
        <ele>1449.9</ele>
        <time>2021-06-02T08:59:37.000Z</time>
      </trkpt>
      <trkpt lat="44.0853" lon="6.89099">
        <ele>1444.9</ele>
        <time>2021-06-02T08:59:52.193Z</time>
      </trkpt>
      <trkpt lat="44.08532" lon="6.89091">
        <ele>1434.1</ele>
        <time>2021-06-02T09:00:03.554Z</time>
      </trkpt>
      <trkpt lat="44.08533" lon="6.89082">
        <ele>1435.5</ele>
        <time>2021-06-02T09:00:19.425Z</time>
      </trkpt>
      <trkpt lat="44.08535" lon="6.89074">
        <ele>1434.8</ele>
        <time>2021-06-02T09:00:34.000Z</time>
      </trkpt>
      <trkpt lat="44.08535" lon="6.89096">
        <ele>1446.7</ele>
        <time>2021-06-02T09:03:06.902Z</time>
      </trkpt>
      <trkpt lat="44.08534" lon="6.89107">
        <ele>1438.7</ele>
        <time>2021-06-02T09:03:10.000Z</time>
      </trkpt>
      <trkpt lat="44.08528" lon="6.89104">
        <ele>1439.4</ele>
        <time>2021-06-02T09:03:13.543Z</time>
      </trkpt>
      <trkpt lat="44.08526" lon="6.89093">
        <ele>1439.2</ele>
        <time>2021-06-02T09:03:16.587Z</time>
      </trkpt>
      <trkpt lat="44.08531" lon="6.8908">
        <ele>1438.2</ele>
        <time>2021-06-02T09:03:19.762Z</time>
      </trkpt>
      <trkpt lat="44.08539" lon="6.89077">
        <ele>1538.5</ele>
        <time>2021-06-02T09:03:23.029Z</time>
      </trkpt>
      <trkpt lat="44.08544" lon="6.89071">
        <ele>1488.8</ele>
        <time>2021-06-02T09:03:27.427Z</time>
      </trkpt>
      <trkpt lat="44.0855" lon="6.89064">
        <ele>1464.1</ele>
        <time>2021-06-02T09:03:30.871Z</time>
      </trkpt>
      <trkpt lat="44.08554" lon="6.8906">
        <ele>1450.8</ele>
        <time>2021-06-02T09:03:34.000Z</time>
      </trkpt>
      <trkpt lat="44.0856" lon="6.8905">
        <ele>1447.1</ele>
        <time>2021-06-02T09:03:37.806Z</time>
      </trkpt>
      <trkpt lat="44.08565" lon="6.89038">
        <ele>1444.6</ele>
        <time>2021-06-02T09:03:41.221Z</time>
      </trkpt>
      <trkpt lat="44.08564" lon="6.89026">
        <ele>1443.9</ele>
        <time>2021-06-02T09:03:44.289Z</time>
      </trkpt>
      <trkpt lat="44.08562" lon="6.89013">
        <ele>1443.4</ele>
        <time>2021-06-02T09:03:47.788Z</time>
      </trkpt>
      <trkpt lat="44.08555" lon="6.89">
        <ele>1444.2</ele>
        <time>2021-06-02T09:03:51.337Z</time>
      </trkpt>
      <trkpt lat="44.08545" lon="6.88992">
        <ele>1443.7</ele>
        <time>2021-06-02T09:03:55.000Z</time>
      </trkpt>
      <trkpt lat="44.08549" lon="6.89001">
        <ele>1444.3</ele>
        <time>2021-06-02T09:04:04.000Z</time>
      </trkpt>
      <trkpt lat="44.08544" lon="6.88994">
        <ele>1450.8</ele>
        <time>2021-06-02T09:04:10.311Z</time>
      </trkpt>
      <trkpt lat="44.08543" lon="6.8898">
        <ele>1450.4</ele>
        <time>2021-06-02T09:04:13.970Z</time>
      </trkpt>
      <trkpt lat="44.08546" lon="6.88971">
        <ele>1448.2</ele>
        <time>2021-06-02T09:04:17.095Z</time>
      </trkpt>
      <trkpt lat="44.0855" lon="6.88957">
        <ele>1449.7</ele>
        <time>2021-06-02T09:04:20.885Z</time>
      </trkpt>
      <trkpt lat="44.08551" lon="6.88942">
        <ele>1447.3</ele>
        <time>2021-06-02T09:04:24.590Z</time>
      </trkpt>
      <trkpt lat="44.08551" lon="6.88931">
        <ele>1449.1</ele>
        <time>2021-06-02T09:04:28.000Z</time>
      </trkpt>
      <trkpt lat="44.08551" lon="6.88923">
        <ele>1448.3</ele>
        <time>2021-06-02T09:04:31.000Z</time>
      </trkpt>
      <trkpt lat="44.0855" lon="6.88915">
        <ele>1450</ele>
        <time>2021-06-02T09:04:40.000Z</time>
      </trkpt>
      <trkpt lat="44.08551" lon="6.88921">
        <ele>1448.6</ele>
        <time>2021-06-02T09:05:27.338Z</time>
      </trkpt>
      <trkpt lat="44.0855" lon="6.88907">
        <ele>1448.9</ele>
        <time>2021-06-02T09:08:04.194Z</time>
      </trkpt>
      <trkpt lat="44.0855" lon="6.88896">
        <ele>1444.9</ele>
        <time>2021-06-02T09:08:08.188Z</time>
      </trkpt>
      <trkpt lat="44.08552" lon="6.88878">
        <ele>1445.2</ele>
        <time>2021-06-02T09:08:12.025Z</time>
      </trkpt>
      <trkpt lat="44.08554" lon="6.88867">
        <ele>1447</ele>
        <time>2021-06-02T09:08:15.255Z</time>
      </trkpt>
      <trkpt lat="44.08559" lon="6.88855">
        <ele>1447.6</ele>
        <time>2021-06-02T09:08:19.195Z</time>
      </trkpt>
      <trkpt lat="44.08566" lon="6.88842">
        <ele>1448.3</ele>
        <time>2021-06-02T09:08:23.189Z</time>
      </trkpt>
      <trkpt lat="44.08574" lon="6.88834">
        <ele>1449.3</ele>
        <time>2021-06-02T09:08:26.543Z</time>
      </trkpt>
      <trkpt lat="44.08584" lon="6.88829">
        <ele>1493.9</ele>
        <time>2021-06-02T09:08:30.191Z</time>
      </trkpt>
      <trkpt lat="44.08592" lon="6.8882">
        <ele>1469.5</ele>
        <time>2021-06-02T09:08:34.189Z</time>
      </trkpt>
      <trkpt lat="44.08601" lon="6.88813">
        <ele>1453.2</ele>
        <time>2021-06-02T09:08:37.244Z</time>
      </trkpt>
      <trkpt lat="44.08612" lon="6.88809">
        <ele>1451</ele>
        <time>2021-06-02T09:08:41.181Z</time>
      </trkpt>
      <trkpt lat="44.08622" lon="6.88805">
        <ele>1451.1</ele>
        <time>2021-06-02T09:08:44.185Z</time>
      </trkpt>
      <trkpt lat="44.08631" lon="6.88801">
        <ele>1452.1</ele>
        <time>2021-06-02T09:08:47.252Z</time>
      </trkpt>
      <trkpt lat="44.08639" lon="6.88792">
        <ele>1451.6</ele>
        <time>2021-06-02T09:08:51.194Z</time>
      </trkpt>
      <trkpt lat="44.08645" lon="6.88786">
        <ele>1453.5</ele>
        <time>2021-06-02T09:08:54.301Z</time>
      </trkpt>
      <trkpt lat="44.08648" lon="6.88775">
        <ele>1465.9</ele>
        <time>2021-06-02T09:08:57.365Z</time>
      </trkpt>
      <trkpt lat="44.08655" lon="6.8876">
        <ele>1458.4</ele>
        <time>2021-06-02T09:09:01.187Z</time>
      </trkpt>
      <trkpt lat="44.08664" lon="6.88749">
        <ele>1454.8</ele>
        <time>2021-06-02T09:09:04.188Z</time>
      </trkpt>
      <trkpt lat="44.08666" lon="6.88734">
        <ele>1453.5</ele>
        <time>2021-06-02T09:09:08.106Z</time>
      </trkpt>
      <trkpt lat="44.08668" lon="6.88721">
        <ele>1451.1</ele>
        <time>2021-06-02T09:09:11.217Z</time>
      </trkpt>
      <trkpt lat="44.0867" lon="6.88708">
        <ele>1452.3</ele>
        <time>2021-06-02T09:09:14.308Z</time>
      </trkpt>
      <trkpt lat="44.08671" lon="6.88701">
        <ele>1454.9</ele>
        <time>2021-06-02T09:09:17.691Z</time>
      </trkpt>
      <trkpt lat="44.08675" lon="6.8869">
        <ele>1455</ele>
        <time>2021-06-02T09:09:21.286Z</time>
      </trkpt>
      <trkpt lat="44.08679" lon="6.88677">
        <ele>1456.1</ele>
        <time>2021-06-02T09:09:25.189Z</time>
      </trkpt>
      <trkpt lat="44.08681" lon="6.88662">
        <ele>1458.4</ele>
        <time>2021-06-02T09:09:29.144Z</time>
      </trkpt>
      <trkpt lat="44.08682" lon="6.88653">
        <ele>1459</ele>
        <time>2021-06-02T09:09:32.190Z</time>
      </trkpt>
      <trkpt lat="44.08685" lon="6.88636">
        <ele>1459.4</ele>
        <time>2021-06-02T09:09:35.461Z</time>
      </trkpt>
      <trkpt lat="44.08692" lon="6.8863">
        <ele>1459</ele>
        <time>2021-06-02T09:09:38.933Z</time>
      </trkpt>
      <trkpt lat="44.087" lon="6.8862">
        <ele>1458.8</ele>
        <time>2021-06-02T09:09:42.103Z</time>
      </trkpt>
      <trkpt lat="44.08704" lon="6.88607">
        <ele>1457.2</ele>
        <time>2021-06-02T09:09:45.171Z</time>
      </trkpt>
      <trkpt lat="44.08705" lon="6.88595">
        <ele>1458.5</ele>
        <time>2021-06-02T09:09:48.187Z</time>
      </trkpt>
      <trkpt lat="44.08704" lon="6.88579">
        <ele>1458.3</ele>
        <time>2021-06-02T09:09:51.193Z</time>
      </trkpt>
      <trkpt lat="44.08701" lon="6.88561">
        <ele>1458.8</ele>
        <time>2021-06-02T09:09:54.288Z</time>
      </trkpt>
      <trkpt lat="44.08699" lon="6.88549">
        <ele>1456.2</ele>
        <time>2021-06-02T09:09:57.331Z</time>
      </trkpt>
      <trkpt lat="44.08699" lon="6.88539">
        <ele>1458.3</ele>
        <time>2021-06-02T09:10:00.673Z</time>
      </trkpt>
      <trkpt lat="44.08699" lon="6.88525">
        <ele>1456.7</ele>
        <time>2021-06-02T09:10:04.176Z</time>
      </trkpt>
      <trkpt lat="44.08703" lon="6.88511">
        <ele>1455.7</ele>
        <time>2021-06-02T09:10:07.189Z</time>
      </trkpt>
      <trkpt lat="44.0871" lon="6.88496">
        <ele>1454.8</ele>
        <time>2021-06-02T09:10:10.000Z</time>
      </trkpt>
      <trkpt lat="44.08716" lon="6.88475">
        <ele>1457.7</ele>
        <time>2021-06-02T09:10:14.189Z</time>
      </trkpt>
      <trkpt lat="44.08714" lon="6.88464">
        <ele>1454.3</ele>
        <time>2021-06-02T09:10:21.140Z</time>
      </trkpt>
      <trkpt lat="44.08714" lon="6.88442">
        <ele>1454.1</ele>
        <time>2021-06-02T09:10:25.188Z</time>
      </trkpt>
      <trkpt lat="44.08714" lon="6.88427">
        <ele>1452.8</ele>
        <time>2021-06-02T09:10:28.196Z</time>
      </trkpt>
      <trkpt lat="44.08709" lon="6.88367">
        <ele>1449.9</ele>
        <time>2021-06-02T09:10:34.000Z</time>
      </trkpt>
      <trkpt lat="44.08679" lon="6.88325">
        <ele>1450.3</ele>
        <time>2021-06-02T09:10:43.000Z</time>
      </trkpt>
      <trkpt lat="44.08687" lon="6.88314">
        <ele>1450.2</ele>
        <time>2021-06-02T09:10:46.182Z</time>
      </trkpt>
      <trkpt lat="44.08686" lon="6.88322">
        <ele>1449.6</ele>
        <time>2021-06-02T09:10:50.163Z</time>
      </trkpt>
      <trkpt lat="44.08683" lon="6.88309">
        <ele>1450.7</ele>
        <time>2021-06-02T09:10:53.183Z</time>
      </trkpt>
      <trkpt lat="44.08682" lon="6.88294">
        <ele>1447.4</ele>
        <time>2021-06-02T09:10:56.989Z</time>
      </trkpt>
      <trkpt lat="44.08674" lon="6.88277">
        <ele>1445.6</ele>
        <time>2021-06-02T09:11:03.288Z</time>
      </trkpt>
      <trkpt lat="44.0867" lon="6.88271">
        <ele>1444.6</ele>
        <time>2021-06-02T09:11:09.891Z</time>
      </trkpt>
      <trkpt lat="44.08666" lon="6.88263">
        <ele>1439.6</ele>
        <time>2021-06-02T09:11:24.183Z</time>
      </trkpt>
      <trkpt lat="44.08662" lon="6.88259">
        <ele>1439.8</ele>
        <time>2021-06-02T09:11:27.371Z</time>
      </trkpt>
      <trkpt lat="44.08655" lon="6.88252">
        <ele>1441</ele>
        <time>2021-06-02T09:11:31.050Z</time>
      </trkpt>
      <trkpt lat="44.08653" lon="6.8824">
        <ele>1439.5</ele>
        <time>2021-06-02T09:11:34.114Z</time>
      </trkpt>
      <trkpt lat="44.08654" lon="6.88229">
        <ele>1440.1</ele>
        <time>2021-06-02T09:11:37.199Z</time>
      </trkpt>
      <trkpt lat="44.08662" lon="6.88221">
        <ele>1438.1</ele>
        <time>2021-06-02T09:11:41.037Z</time>
      </trkpt>
      <trkpt lat="44.08662" lon="6.88214">
        <ele>1435.4</ele>
        <time>2021-06-02T09:11:44.182Z</time>
      </trkpt>
      <trkpt lat="44.08655" lon="6.88203">
        <ele>1435.1</ele>
        <time>2021-06-02T09:11:47.571Z</time>
      </trkpt>
      <trkpt lat="44.08652" lon="6.88191">
        <ele>1432.8</ele>
        <time>2021-06-02T09:11:50.774Z</time>
      </trkpt>
      <trkpt lat="44.08653" lon="6.88183">
        <ele>1430.7</ele>
        <time>2021-06-02T09:11:54.427Z</time>
      </trkpt>
      <trkpt lat="44.08656" lon="6.88171">
        <ele>1431.5</ele>
        <time>2021-06-02T09:11:58.191Z</time>
      </trkpt>
      <trkpt lat="44.08658" lon="6.88157">
        <ele>1432.9</ele>
        <time>2021-06-02T09:12:01.192Z</time>
      </trkpt>
      <trkpt lat="44.08655" lon="6.88146">
        <ele>1432.2</ele>
        <time>2021-06-02T09:12:05.185Z</time>
      </trkpt>
      <trkpt lat="44.08648" lon="6.88129">
        <ele>1428.3</ele>
        <time>2021-06-02T09:12:09.306Z</time>
      </trkpt>
      <trkpt lat="44.08642" lon="6.88117">
        <ele>1428</ele>
        <time>2021-06-02T09:12:12.317Z</time>
      </trkpt>
      <trkpt lat="44.08639" lon="6.88108">
        <ele>1419.4</ele>
        <time>2021-06-02T09:12:22.183Z</time>
      </trkpt>
      <trkpt lat="44.08642" lon="6.88104">
        <ele>1414.8</ele>
        <time>2021-06-02T09:13:08.760Z</time>
      </trkpt>
      <trkpt lat="44.08641" lon="6.8809">
        <ele>1404.8</ele>
        <time>2021-06-02T09:14:01.000Z</time>
      </trkpt>
      <trkpt lat="44.08643" lon="6.88084">
        <ele>1401.1</ele>
        <time>2021-06-02T09:15:39.566Z</time>
      </trkpt>
      <trkpt lat="44.08644" lon="6.88077">
        <ele>1400.7</ele>
        <time>2021-06-02T09:15:56.196Z</time>
      </trkpt>
      <trkpt lat="44.08643" lon="6.8807">
        <ele>1400.4</ele>
        <time>2021-06-02T09:16:10.000Z</time>
      </trkpt>
      <trkpt lat="44.08642" lon="6.88061">
        <ele>1396.1</ele>
        <time>2021-06-02T09:16:22.000Z</time>
      </trkpt>
      <trkpt lat="44.08641" lon="6.88053">
        <ele>1393.8</ele>
        <time>2021-06-02T09:17:07.000Z</time>
      </trkpt>
      <trkpt lat="44.08643" lon="6.88047">
        <ele>1392.5</ele>
        <time>2021-06-02T09:17:31.000Z</time>
      </trkpt>
      <trkpt lat="44.08633" lon="6.88049">
        <ele>1390.6</ele>
        <time>2021-06-02T09:19:50.474Z</time>
      </trkpt>
      <trkpt lat="44.08637" lon="6.88037">
        <ele>1389.3</ele>
        <time>2021-06-02T09:19:55.177Z</time>
      </trkpt>
      <trkpt lat="44.08637" lon="6.88031">
        <ele>1392.2</ele>
        <time>2021-06-02T09:19:58.191Z</time>
      </trkpt>
      <trkpt lat="44.0864" lon="6.88015">
        <ele>1393.8</ele>
        <time>2021-06-02T09:20:01.332Z</time>
      </trkpt>
      <trkpt lat="44.08639" lon="6.88006">
        <ele>1392.7</ele>
        <time>2021-06-02T09:20:04.936Z</time>
      </trkpt>
      <trkpt lat="44.08634" lon="6.87998">
        <ele>1392.1</ele>
        <time>2021-06-02T09:20:11.798Z</time>
      </trkpt>
      <trkpt lat="44.0863" lon="6.87993">
        <ele>1389</ele>
        <time>2021-06-02T09:20:15.186Z</time>
      </trkpt>
      <trkpt lat="44.08626" lon="6.87987">
        <ele>1387.7</ele>
        <time>2021-06-02T09:20:18.203Z</time>
      </trkpt>
      <trkpt lat="44.08627" lon="6.87976">
        <ele>1386.1</ele>
        <time>2021-06-02T09:20:22.190Z</time>
      </trkpt>
      <trkpt lat="44.08622" lon="6.87966">
        <ele>1377.1</ele>
        <time>2021-06-02T09:20:28.934Z</time>
      </trkpt>
      <trkpt lat="44.08617" lon="6.87964">
        <ele>1375.3</ele>
        <time>2021-06-02T09:20:32.308Z</time>
      </trkpt>
      <trkpt lat="44.08608" lon="6.87969">
        <ele>1382</ele>
        <time>2021-06-02T09:20:42.330Z</time>
      </trkpt>
      <trkpt lat="44.08592" lon="6.87981">
        <ele>1375.7</ele>
        <time>2021-06-02T09:20:46.000Z</time>
      </trkpt>
      <trkpt lat="44.08598" lon="6.87981">
        <ele>1370.9</ele>
        <time>2021-06-02T09:20:49.485Z</time>
      </trkpt>
      <trkpt lat="44.0859" lon="6.87968">
        <ele>1370.2</ele>
        <time>2021-06-02T09:20:52.667Z</time>
      </trkpt>
      <trkpt lat="44.08583" lon="6.87921">
        <ele>1362.9</ele>
        <time>2021-06-02T09:20:58.000Z</time>
      </trkpt>
      <trkpt lat="44.08593" lon="6.87922">
        <ele>1360.7</ele>
        <time>2021-06-02T09:21:03.087Z</time>
      </trkpt>
      <trkpt lat="44.0859" lon="6.87916">
        <ele>1357.1</ele>
        <time>2021-06-02T09:21:06.184Z</time>
      </trkpt>
      <trkpt lat="44.08588" lon="6.87909">
        <ele>1356.1</ele>
        <time>2021-06-02T09:21:10.000Z</time>
      </trkpt>
      <trkpt lat="44.08588" lon="6.879">
        <ele>1357.3</ele>
        <time>2021-06-02T09:21:18.258Z</time>
      </trkpt>
      <trkpt lat="44.08589" lon="6.87891">
        <ele>1356.6</ele>
        <time>2021-06-02T09:21:28.000Z</time>
      </trkpt>
      <trkpt lat="44.08587" lon="6.87882">
        <ele>1357.6</ele>
        <time>2021-06-02T09:21:31.000Z</time>
      </trkpt>
      <trkpt lat="44.08588" lon="6.87889">
        <ele>1357.3</ele>
        <time>2021-06-02T09:21:38.074Z</time>
      </trkpt>
      <trkpt lat="44.08587" lon="6.8788">
        <ele>1357.3</ele>
        <time>2021-06-02T09:22:07.000Z</time>
      </trkpt>
      <trkpt lat="44.08591" lon="6.87884">
        <ele>1358.2</ele>
        <time>2021-06-02T09:24:01.000Z</time>
      </trkpt>
      <trkpt lat="44.08597" lon="6.8788">
        <ele>1351.6</ele>
        <time>2021-06-02T09:25:04.946Z</time>
      </trkpt>
      <trkpt lat="44.08604" lon="6.8788">
        <ele>1392.6</ele>
        <time>2021-06-02T09:25:08.594Z</time>
      </trkpt>
      <trkpt lat="44.08609" lon="6.87878">
        <ele>1366.6</ele>
        <time>2021-06-02T09:25:12.195Z</time>
      </trkpt>
      <trkpt lat="44.08615" lon="6.87875">
        <ele>1350.1</ele>
        <time>2021-06-02T09:25:23.911Z</time>
      </trkpt>
      <trkpt lat="44.0862" lon="6.87871">
        <ele>1351.8</ele>
        <time>2021-06-02T09:25:30.520Z</time>
      </trkpt>
      <trkpt lat="44.08622" lon="6.87864">
        <ele>1338.7</ele>
        <time>2021-06-02T09:25:47.237Z</time>
      </trkpt>
      <trkpt lat="44.08627" lon="6.87863">
        <ele>1336.5</ele>
        <time>2021-06-02T09:25:54.014Z</time>
      </trkpt>
      <trkpt lat="44.08625" lon="6.87853">
        <ele>1337.3</ele>
        <time>2021-06-02T09:26:01.000Z</time>
      </trkpt>
      <trkpt lat="44.08626" lon="6.87836">
        <ele>1337.4</ele>
        <time>2021-06-02T09:26:04.199Z</time>
      </trkpt>
      <trkpt lat="44.0863" lon="6.87818">
        <ele>1336.1</ele>
        <time>2021-06-02T09:26:07.789Z</time>
      </trkpt>
      <trkpt lat="44.08633" lon="6.87806">
        <ele>1335.9</ele>
        <time>2021-06-02T09:26:11.262Z</time>
      </trkpt>
      <trkpt lat="44.08636" lon="6.87796">
        <ele>1337.8</ele>
        <time>2021-06-02T09:26:15.189Z</time>
      </trkpt>
      <trkpt lat="44.08639" lon="6.87789">
        <ele>1336.4</ele>
        <time>2021-06-02T09:26:18.331Z</time>
      </trkpt>
      <trkpt lat="44.08644" lon="6.87787">
        <ele>1335</ele>
        <time>2021-06-02T09:26:25.974Z</time>
      </trkpt>
      <trkpt lat="44.08649" lon="6.87785">
        <ele>1331</ele>
        <time>2021-06-02T09:26:33.576Z</time>
      </trkpt>
      <trkpt lat="44.08651" lon="6.87777">
        <ele>1332.6</ele>
        <time>2021-06-02T09:26:37.197Z</time>
      </trkpt>
      <trkpt lat="44.08652" lon="6.8777">
        <ele>1328.2</ele>
        <time>2021-06-02T09:26:43.451Z</time>
      </trkpt>
      <trkpt lat="44.08658" lon="6.87769">
        <ele>1325.9</ele>
        <time>2021-06-02T09:26:55.823Z</time>
      </trkpt>
      <trkpt lat="44.08657" lon="6.87758">
        <ele>1320.1</ele>
        <time>2021-06-02T09:27:06.313Z</time>
      </trkpt>
      <trkpt lat="44.08655" lon="6.87743">
        <ele>1319.8</ele>
        <time>2021-06-02T09:27:13.199Z</time>
      </trkpt>
      <trkpt lat="44.08661" lon="6.87737">
        <ele>1314.2</ele>
        <time>2021-06-02T09:27:18.200Z</time>
      </trkpt>
      <trkpt lat="44.08666" lon="6.87728">
        <ele>1312.9</ele>
        <time>2021-06-02T09:27:24.491Z</time>
      </trkpt>
      <trkpt lat="44.08669" lon="6.87722">
        <ele>1314.2</ele>
        <time>2021-06-02T09:27:28.194Z</time>
      </trkpt>
      <trkpt lat="44.08677" lon="6.87726">
        <ele>1310.5</ele>
        <time>2021-06-02T09:27:35.188Z</time>
      </trkpt>
      <trkpt lat="44.08684" lon="6.87721">
        <ele>1308.2</ele>
        <time>2021-06-02T09:27:42.183Z</time>
      </trkpt>
      <trkpt lat="44.08688" lon="6.87715">
        <ele>1306.6</ele>
        <time>2021-06-02T09:27:46.196Z</time>
      </trkpt>
      <trkpt lat="44.08688" lon="6.87699">
        <ele>1304.2</ele>
        <time>2021-06-02T09:27:50.275Z</time>
      </trkpt>
      <trkpt lat="44.08689" lon="6.87692">
        <ele>1303.7</ele>
        <time>2021-06-02T09:27:53.398Z</time>
      </trkpt>
      <trkpt lat="44.08692" lon="6.8768">
        <ele>1302.9</ele>
        <time>2021-06-02T09:28:01.000Z</time>
      </trkpt>
      <trkpt lat="44.08695" lon="6.87667">
        <ele>1301.8</ele>
        <time>2021-06-02T09:28:07.957Z</time>
      </trkpt>
      <trkpt lat="44.08695" lon="6.87656">
        <ele>1297.5</ele>
        <time>2021-06-02T09:28:11.313Z</time>
      </trkpt>
      <trkpt lat="44.08692" lon="6.87652">
        <ele>1296.5</ele>
        <time>2021-06-02T09:28:19.182Z</time>
      </trkpt>
      <trkpt lat="44.08691" lon="6.87642">
        <ele>1294.4</ele>
        <time>2021-06-02T09:28:25.325Z</time>
      </trkpt>
      <trkpt lat="44.08691" lon="6.87633">
        <ele>1295.5</ele>
        <time>2021-06-02T09:28:28.391Z</time>
      </trkpt>
      <trkpt lat="44.08692" lon="6.87621">
        <ele>1297.5</ele>
        <time>2021-06-02T09:28:32.760Z</time>
      </trkpt>
      <trkpt lat="44.08693" lon="6.87612">
        <ele>1292.6</ele>
        <time>2021-06-02T09:28:36.219Z</time>
      </trkpt>
      <trkpt lat="44.08691" lon="6.87604">
        <ele>1293.2</ele>
        <time>2021-06-02T09:28:39.951Z</time>
      </trkpt>
      <trkpt lat="44.08691" lon="6.87593">
        <ele>1306.6</ele>
        <time>2021-06-02T09:28:43.000Z</time>
      </trkpt>
      <trkpt lat="44.08691" lon="6.87584">
        <ele>1306.6</ele>
        <time>2021-06-02T09:28:46.216Z</time>
      </trkpt>
      <trkpt lat="44.08695" lon="6.87568">
        <ele>1290.1</ele>
        <time>2021-06-02T09:28:50.176Z</time>
      </trkpt>
      <trkpt lat="44.08704" lon="6.87545">
        <ele>1286.8</ele>
        <time>2021-06-02T09:28:53.255Z</time>
      </trkpt>
      <trkpt lat="44.08708" lon="6.87532">
        <ele>1376.1</ele>
        <time>2021-06-02T09:28:56.430Z</time>
      </trkpt>
      <trkpt lat="44.08712" lon="6.87523">
        <ele>1333.1</ele>
        <time>2021-06-02T09:28:59.482Z</time>
      </trkpt>
      <trkpt lat="44.08716" lon="6.87514">
        <ele>1299.7</ele>
        <time>2021-06-02T09:29:02.710Z</time>
      </trkpt>
      <trkpt lat="44.08719" lon="6.875">
        <ele>1288.2</ele>
        <time>2021-06-02T09:29:05.896Z</time>
      </trkpt>
      <trkpt lat="44.0872" lon="6.87486">
        <ele>1281</ele>
        <time>2021-06-02T09:29:09.191Z</time>
      </trkpt>
      <trkpt lat="44.08717" lon="6.87474">
        <ele>1275.3</ele>
        <time>2021-06-02T09:29:12.335Z</time>
      </trkpt>
      <trkpt lat="44.08711" lon="6.87454">
        <ele>1268.6</ele>
        <time>2021-06-02T09:29:15.571Z</time>
      </trkpt>
      <trkpt lat="44.08712" lon="6.87436">
        <ele>1262</ele>
        <time>2021-06-02T09:29:19.244Z</time>
      </trkpt>
      <trkpt lat="44.08719" lon="6.87417">
        <ele>1256.5</ele>
        <time>2021-06-02T09:29:23.193Z</time>
      </trkpt>
      <trkpt lat="44.08718" lon="6.8739">
        <ele>1254</ele>
        <time>2021-06-02T09:29:26.873Z</time>
      </trkpt>
      <trkpt lat="44.08719" lon="6.8737">
        <ele>1250.4</ele>
        <time>2021-06-02T09:29:29.877Z</time>
      </trkpt>
      <trkpt lat="44.08714" lon="6.87333">
        <ele>1249.7</ele>
        <time>2021-06-02T09:29:34.000Z</time>
      </trkpt>
      <trkpt lat="44.08711" lon="6.87319">
        <ele>1249.8</ele>
        <time>2021-06-02T09:29:37.000Z</time>
      </trkpt>
      <trkpt lat="44.08716" lon="6.87306">
        <ele>1243.4</ele>
        <time>2021-06-02T09:29:40.000Z</time>
      </trkpt>
      <trkpt lat="44.0873" lon="6.87302">
        <ele>1241.8</ele>
        <time>2021-06-02T09:29:46.000Z</time>
      </trkpt>
      <trkpt lat="44.08733" lon="6.87294">
        <ele>1285.8</ele>
        <time>2021-06-02T09:29:49.000Z</time>
      </trkpt>
      <trkpt lat="44.08732" lon="6.87284">
        <ele>1264.1</ele>
        <time>2021-06-02T09:29:52.000Z</time>
      </trkpt>
      <trkpt lat="44.0873" lon="6.87264">
        <ele>1245</ele>
        <time>2021-06-02T09:29:58.000Z</time>
      </trkpt>
      <trkpt lat="44.08724" lon="6.8725">
        <ele>1245</ele>
        <time>2021-06-02T09:30:04.000Z</time>
      </trkpt>
      <trkpt lat="44.08723" lon="6.8724">
        <ele>1245.2</ele>
        <time>2021-06-02T09:30:10.000Z</time>
      </trkpt>
      <trkpt lat="44.08724" lon="6.87226">
        <ele>1242.6</ele>
        <time>2021-06-02T09:30:15.806Z</time>
      </trkpt>
      <trkpt lat="44.08716" lon="6.87204">
        <ele>1236.3</ele>
        <time>2021-06-02T09:30:19.000Z</time>
      </trkpt>
      <trkpt lat="44.08713" lon="6.87185">
        <ele>1236.5</ele>
        <time>2021-06-02T09:30:22.000Z</time>
      </trkpt>
      <trkpt lat="44.08714" lon="6.87159">
        <ele>1228.8</ele>
        <time>2021-06-02T09:30:28.000Z</time>
      </trkpt>
      <trkpt lat="44.08716" lon="6.87153">
        <ele>1224.9</ele>
        <time>2021-06-02T09:30:31.000Z</time>
      </trkpt>
      <trkpt lat="44.08717" lon="6.87141">
        <ele>1227.4</ele>
        <time>2021-06-02T09:30:43.000Z</time>
      </trkpt>
      <trkpt lat="44.08705" lon="6.8713">
        <ele>1225.2</ele>
        <time>2021-06-02T09:30:52.000Z</time>
      </trkpt>
      <trkpt lat="44.08705" lon="6.87123">
        <ele>1306.1</ele>
        <time>2021-06-02T09:30:55.000Z</time>
      </trkpt>
      <trkpt lat="44.0871" lon="6.87113">
        <ele>1262</ele>
        <time>2021-06-02T09:31:00.158Z</time>
      </trkpt>
      <trkpt lat="44.08712" lon="6.87104">
        <ele>1245.4</ele>
        <time>2021-06-02T09:31:04.000Z</time>
      </trkpt>
      <trkpt lat="44.08714" lon="6.87089">
        <ele>1235.3</ele>
        <time>2021-06-02T09:31:07.000Z</time>
      </trkpt>
      <trkpt lat="44.08715" lon="6.87078">
        <ele>1233.6</ele>
        <time>2021-06-02T09:31:10.000Z</time>
      </trkpt>
      <trkpt lat="44.08716" lon="6.8707">
        <ele>1235.7</ele>
        <time>2021-06-02T09:31:13.000Z</time>
      </trkpt>
      <trkpt lat="44.08714" lon="6.87054">
        <ele>1234.3</ele>
        <time>2021-06-02T09:31:16.000Z</time>
      </trkpt>
      <trkpt lat="44.08709" lon="6.87038">
        <ele>1232</ele>
        <time>2021-06-02T09:31:19.222Z</time>
      </trkpt>
      <trkpt lat="44.08702" lon="6.87012">
        <ele>1223.7</ele>
        <time>2021-06-02T09:31:25.000Z</time>
      </trkpt>
      <trkpt lat="44.08698" lon="6.86989">
        <ele>1222.5</ele>
        <time>2021-06-02T09:31:28.244Z</time>
      </trkpt>
      <trkpt lat="44.08689" lon="6.86949">
        <ele>1220.2</ele>
        <time>2021-06-02T09:31:33.254Z</time>
      </trkpt>
      <trkpt lat="44.08688" lon="6.86911">
        <ele>1214.6</ele>
        <time>2021-06-02T09:31:37.000Z</time>
      </trkpt>
      <trkpt lat="44.08686" lon="6.86901">
        <ele>1214.3</ele>
        <time>2021-06-02T09:31:40.000Z</time>
      </trkpt>
      <trkpt lat="44.08688" lon="6.86885">
        <ele>1212.6</ele>
        <time>2021-06-02T09:31:46.196Z</time>
      </trkpt>
      <trkpt lat="44.08689" lon="6.8687">
        <ele>1208.6</ele>
        <time>2021-06-02T09:31:50.169Z</time>
      </trkpt>
      <trkpt lat="44.08686" lon="6.86857">
        <ele>1206.8</ele>
        <time>2021-06-02T09:31:53.797Z</time>
      </trkpt>
      <trkpt lat="44.08683" lon="6.86845">
        <ele>1203.3</ele>
        <time>2021-06-02T09:31:56.809Z</time>
      </trkpt>
      <trkpt lat="44.08681" lon="6.86833">
        <ele>1200.4</ele>
        <time>2021-06-02T09:32:00.192Z</time>
      </trkpt>
      <trkpt lat="44.08679" lon="6.86822">
        <ele>1203.3</ele>
        <time>2021-06-02T09:32:03.251Z</time>
      </trkpt>
      <trkpt lat="44.08676" lon="6.86805">
        <ele>1203</ele>
        <time>2021-06-02T09:32:06.875Z</time>
      </trkpt>
      <trkpt lat="44.08673" lon="6.86794">
        <ele>1199.9</ele>
        <time>2021-06-02T09:32:10.197Z</time>
      </trkpt>
      <trkpt lat="44.0867" lon="6.86777">
        <ele>1195.4</ele>
        <time>2021-06-02T09:32:14.182Z</time>
      </trkpt>
      <trkpt lat="44.08669" lon="6.86764">
        <ele>1255.7</ele>
        <time>2021-06-02T09:32:17.193Z</time>
      </trkpt>
      <trkpt lat="44.08663" lon="6.86747">
        <ele>1215.6</ele>
        <time>2021-06-02T09:32:20.450Z</time>
      </trkpt>
      <trkpt lat="44.08661" lon="6.86735">
        <ele>1203.1</ele>
        <time>2021-06-02T09:32:23.949Z</time>
      </trkpt>
      <trkpt lat="44.08659" lon="6.86727">
        <ele>1194.7</ele>
        <time>2021-06-02T09:32:28.000Z</time>
      </trkpt>
      <trkpt lat="44.08656" lon="6.86721">
        <ele>1193.9</ele>
        <time>2021-06-02T09:32:34.000Z</time>
      </trkpt>
      <trkpt lat="44.0865" lon="6.86716">
        <ele>1190.2</ele>
        <time>2021-06-02T09:33:13.683Z</time>
      </trkpt>
      <trkpt lat="44.08646" lon="6.86712">
        <ele>1186.3</ele>
        <time>2021-06-02T09:33:20.185Z</time>
      </trkpt>
      <trkpt lat="44.08643" lon="6.86702">
        <ele>1185</ele>
        <time>2021-06-02T09:33:24.077Z</time>
      </trkpt>
      <trkpt lat="44.08641" lon="6.86693">
        <ele>1221</ele>
        <time>2021-06-02T09:33:27.200Z</time>
      </trkpt>
      <trkpt lat="44.08639" lon="6.86681">
        <ele>1202.7</ele>
        <time>2021-06-02T09:33:31.189Z</time>
      </trkpt>
      <trkpt lat="44.08637" lon="6.86663">
        <ele>1190.8</ele>
        <time>2021-06-02T09:33:37.209Z</time>
      </trkpt>
      <trkpt lat="44.08636" lon="6.86656">
        <ele>1187.8</ele>
        <time>2021-06-02T09:33:44.381Z</time>
      </trkpt>
      <trkpt lat="44.08633" lon="6.86651">
        <ele>1191.3</ele>
        <time>2021-06-02T09:33:52.052Z</time>
      </trkpt>
      <trkpt lat="44.08628" lon="6.86647">
        <ele>1192</ele>
        <time>2021-06-02T09:34:03.199Z</time>
      </trkpt>
      <trkpt lat="44.08629" lon="6.86641">
        <ele>1190.3</ele>
        <time>2021-06-02T09:34:19.713Z</time>
      </trkpt>
      <trkpt lat="44.08628" lon="6.86632">
        <ele>1186.7</ele>
        <time>2021-06-02T09:34:23.185Z</time>
      </trkpt>
      <trkpt lat="44.08631" lon="6.86624">
        <ele>1186.5</ele>
        <time>2021-06-02T09:34:29.748Z</time>
      </trkpt>
      <trkpt lat="44.08633" lon="6.86614">
        <ele>1191.6</ele>
        <time>2021-06-02T09:34:34.000Z</time>
      </trkpt>
      <trkpt lat="44.08635" lon="6.86606">
        <ele>1191.1</ele>
        <time>2021-06-02T09:34:42.277Z</time>
      </trkpt>
      <trkpt lat="44.08636" lon="6.86598">
        <ele>1189.2</ele>
        <time>2021-06-02T09:34:53.195Z</time>
      </trkpt>
      <trkpt lat="44.08638" lon="6.86587">
        <ele>1186.3</ele>
        <time>2021-06-02T09:35:07.000Z</time>
      </trkpt>
      <trkpt lat="44.08639" lon="6.86581">
        <ele>1249.4</ele>
        <time>2021-06-02T09:35:15.731Z</time>
      </trkpt>
      <trkpt lat="44.08639" lon="6.86572">
        <ele>1186.9</ele>
        <time>2021-06-02T09:35:25.750Z</time>
      </trkpt>
      <trkpt lat="44.08637" lon="6.86563">
        <ele>1181.2</ele>
        <time>2021-06-02T09:35:32.434Z</time>
      </trkpt>
      <trkpt lat="44.08637" lon="6.86552">
        <ele>1179.8</ele>
        <time>2021-06-02T09:35:39.184Z</time>
      </trkpt>
      <trkpt lat="44.0864" lon="6.86545">
        <ele>1177.1</ele>
        <time>2021-06-02T09:35:42.430Z</time>
      </trkpt>
      <trkpt lat="44.08644" lon="6.86535">
        <ele>1176.2</ele>
        <time>2021-06-02T09:35:45.542Z</time>
      </trkpt>
      <trkpt lat="44.08646" lon="6.86529">
        <ele>1177.1</ele>
        <time>2021-06-02T09:35:49.000Z</time>
      </trkpt>
      <trkpt lat="44.08651" lon="6.8652">
        <ele>1177.5</ele>
        <time>2021-06-02T09:35:52.000Z</time>
      </trkpt>
      <trkpt lat="44.08653" lon="6.86512">
        <ele>1172.8</ele>
        <time>2021-06-02T09:35:55.000Z</time>
      </trkpt>
      <trkpt lat="44.08646" lon="6.86502">
        <ele>1168.9</ele>
        <time>2021-06-02T09:35:58.000Z</time>
      </trkpt>
      <trkpt lat="44.08644" lon="6.86494">
        <ele>1167.3</ele>
        <time>2021-06-02T09:36:01.510Z</time>
      </trkpt>
      <trkpt lat="44.08643" lon="6.86484">
        <ele>1165.2</ele>
        <time>2021-06-02T09:36:04.773Z</time>
      </trkpt>
      <trkpt lat="44.08643" lon="6.86466">
        <ele>1160.8</ele>
        <time>2021-06-02T09:36:08.028Z</time>
      </trkpt>
      <trkpt lat="44.08654" lon="6.86452">
        <ele>1156</ele>
        <time>2021-06-02T09:36:12.270Z</time>
      </trkpt>
      <trkpt lat="44.0866" lon="6.86449">
        <ele>1154.8</ele>
        <time>2021-06-02T09:36:15.697Z</time>
      </trkpt>
      <trkpt lat="44.08668" lon="6.86441">
        <ele>1148</ele>
        <time>2021-06-02T09:36:19.000Z</time>
      </trkpt>
      <trkpt lat="44.08675" lon="6.86437">
        <ele>1146.3</ele>
        <time>2021-06-02T09:36:22.000Z</time>
      </trkpt>
      <trkpt lat="44.08681" lon="6.86435">
        <ele>1146.7</ele>
        <time>2021-06-02T09:36:25.794Z</time>
      </trkpt>
      <trkpt lat="44.08688" lon="6.86432">
        <ele>1142.3</ele>
        <time>2021-06-02T09:36:29.433Z</time>
      </trkpt>
      <trkpt lat="44.08693" lon="6.86424">
        <ele>1136.2</ele>
        <time>2021-06-02T09:36:32.777Z</time>
      </trkpt>
      <trkpt lat="44.08698" lon="6.86419">
        <ele>1134.5</ele>
        <time>2021-06-02T09:36:36.192Z</time>
      </trkpt>
      <trkpt lat="44.087" lon="6.8641">
        <ele>1132</ele>
        <time>2021-06-02T09:36:39.789Z</time>
      </trkpt>
      <trkpt lat="44.08702" lon="6.86403">
        <ele>1131.6</ele>
        <time>2021-06-02T09:36:43.000Z</time>
      </trkpt>
      <trkpt lat="44.08705" lon="6.86398">
        <ele>1127.5</ele>
        <time>2021-06-02T09:36:46.000Z</time>
      </trkpt>
      <trkpt lat="44.08708" lon="6.8639">
        <ele>1123.4</ele>
        <time>2021-06-02T09:36:49.155Z</time>
      </trkpt>
      <trkpt lat="44.08713" lon="6.86381">
        <ele>1123.4</ele>
        <time>2021-06-02T09:36:52.191Z</time>
      </trkpt>
      <trkpt lat="44.08719" lon="6.86371">
        <ele>1124.6</ele>
        <time>2021-06-02T09:36:56.215Z</time>
      </trkpt>
      <trkpt lat="44.0872" lon="6.86383">
        <ele>1119.9</ele>
        <time>2021-06-02T09:37:01.000Z</time>
      </trkpt>
      <trkpt lat="44.08725" lon="6.86379">
        <ele>1119.7</ele>
        <time>2021-06-02T09:37:08.257Z</time>
      </trkpt>
      <trkpt lat="44.08733" lon="6.86371">
        <ele>1113.9</ele>
        <time>2021-06-02T09:37:15.224Z</time>
      </trkpt>
      <trkpt lat="44.08738" lon="6.86365">
        <ele>1106.5</ele>
        <time>2021-06-02T09:37:18.287Z</time>
      </trkpt>
      <trkpt lat="44.08742" lon="6.86375">
        <ele>1103.6</ele>
        <time>2021-06-02T09:37:21.742Z</time>
      </trkpt>
      <trkpt lat="44.08747" lon="6.86384">
        <ele>1103.2</ele>
        <time>2021-06-02T09:37:25.000Z</time>
      </trkpt>
      <trkpt lat="44.08756" lon="6.86395">
        <ele>1103.2</ele>
        <time>2021-06-02T09:37:28.208Z</time>
      </trkpt>
      <trkpt lat="44.08765" lon="6.86397">
        <ele>1097.3</ele>
        <time>2021-06-02T09:37:32.188Z</time>
      </trkpt>
      <trkpt lat="44.08773" lon="6.86386">
        <ele>1098</ele>
        <time>2021-06-02T09:37:35.865Z</time>
      </trkpt>
      <trkpt lat="44.08779" lon="6.8638">
        <ele>1092.3</ele>
        <time>2021-06-02T09:37:39.142Z</time>
      </trkpt>
      <trkpt lat="44.08783" lon="6.86385">
        <ele>1088.9</ele>
        <time>2021-06-02T09:37:42.244Z</time>
      </trkpt>
      <trkpt lat="44.08785" lon="6.86379">
        <ele>1085.3</ele>
        <time>2021-06-02T09:37:45.602Z</time>
      </trkpt>
      <trkpt lat="44.08787" lon="6.86371">
        <ele>1077.9</ele>
        <time>2021-06-02T09:37:55.188Z</time>
      </trkpt>
      <trkpt lat="44.08798" lon="6.8636">
        <ele>1073.9</ele>
        <time>2021-06-02T09:37:58.712Z</time>
      </trkpt>
      <trkpt lat="44.08802" lon="6.86352">
        <ele>1073.6</ele>
        <time>2021-06-02T09:38:02.080Z</time>
      </trkpt>
      <trkpt lat="44.08803" lon="6.86344">
        <ele>1073.9</ele>
        <time>2021-06-02T09:38:05.165Z</time>
      </trkpt>
      <trkpt lat="44.08803" lon="6.86337">
        <ele>1162.9</ele>
        <time>2021-06-02T09:38:08.187Z</time>
      </trkpt>
      <trkpt lat="44.08804" lon="6.86329">
        <ele>1103.6</ele>
        <time>2021-06-02T09:38:11.756Z</time>
      </trkpt>
      <trkpt lat="44.08804" lon="6.86317">
        <ele>1081.1</ele>
        <time>2021-06-02T09:38:35.116Z</time>
      </trkpt>
      <trkpt lat="44.08806" lon="6.86302">
        <ele>1070.5</ele>
        <time>2021-06-02T09:38:38.145Z</time>
      </trkpt>
      <trkpt lat="44.08811" lon="6.86286">
        <ele>1065.9</ele>
        <time>2021-06-02T09:38:41.185Z</time>
      </trkpt>
      <trkpt lat="44.08816" lon="6.86275">
        <ele>1066.1</ele>
        <time>2021-06-02T09:38:44.204Z</time>
      </trkpt>
      <trkpt lat="44.0882" lon="6.86258">
        <ele>1062.9</ele>
        <time>2021-06-02T09:38:47.282Z</time>
      </trkpt>
      <trkpt lat="44.08824" lon="6.86245">
        <ele>1073.1</ele>
        <time>2021-06-02T09:38:52.000Z</time>
      </trkpt>
      <trkpt lat="44.08832" lon="6.86228">
        <ele>1065.1</ele>
        <time>2021-06-02T09:38:57.269Z</time>
      </trkpt>
      <trkpt lat="44.08838" lon="6.86223">
        <ele>1060.6</ele>
        <time>2021-06-02T09:39:06.462Z</time>
      </trkpt>
      <trkpt lat="44.08844" lon="6.8622">
        <ele>1059.3</ele>
        <time>2021-06-02T09:39:16.000Z</time>
      </trkpt>
      <trkpt lat="44.0884" lon="6.86216">
        <ele>1053.5</ele>
        <time>2021-06-02T09:40:22.000Z</time>
      </trkpt>
      <trkpt lat="44.08846" lon="6.86221">
        <ele>1053.4</ele>
        <time>2021-06-02T09:40:37.000Z</time>
      </trkpt>
      <trkpt lat="44.08842" lon="6.86216">
        <ele>1046.9</ele>
        <time>2021-06-02T09:42:05.177Z</time>
      </trkpt>
      <trkpt lat="44.08844" lon="6.86209">
        <ele>1044.6</ele>
        <time>2021-06-02T09:42:09.322Z</time>
      </trkpt>
      <trkpt lat="44.08849" lon="6.86202">
        <ele>1040</ele>
        <time>2021-06-02T09:42:16.192Z</time>
      </trkpt>
      <trkpt lat="44.08854" lon="6.86199">
        <ele>1038.1</ele>
        <time>2021-06-02T09:42:19.198Z</time>
      </trkpt>
      <trkpt lat="44.08862" lon="6.86193">
        <ele>1034.5</ele>
        <time>2021-06-02T09:42:24.200Z</time>
      </trkpt>
      <trkpt lat="44.0886" lon="6.86188">
        <ele>1033.4</ele>
        <time>2021-06-02T09:42:31.202Z</time>
      </trkpt>
      <trkpt lat="44.08855" lon="6.86183">
        <ele>1031.2</ele>
        <time>2021-06-02T09:42:44.863Z</time>
      </trkpt>
      <trkpt lat="44.08847" lon="6.86182">
        <ele>1028.9</ele>
        <time>2021-06-02T09:42:52.000Z</time>
      </trkpt>
      <trkpt lat="44.08841" lon="6.86173">
        <ele>1043.9</ele>
        <time>2021-06-02T09:42:59.377Z</time>
      </trkpt>
      <trkpt lat="44.0884" lon="6.86163">
        <ele>1219.4</ele>
        <time>2021-06-02T09:43:06.214Z</time>
      </trkpt>
      <trkpt lat="44.08839" lon="6.86151">
        <ele>1054.5</ele>
        <time>2021-06-02T09:43:12.400Z</time>
      </trkpt>
      <trkpt lat="44.08831" lon="6.86137">
        <ele>1030.6</ele>
        <time>2021-06-02T09:43:16.000Z</time>
      </trkpt>
      <trkpt lat="44.08825" lon="6.86133">
        <ele>1030.6</ele>
        <time>2021-06-02T09:43:19.185Z</time>
      </trkpt>
      <trkpt lat="44.08813" lon="6.86117">
        <ele>1021.4</ele>
        <time>2021-06-02T09:43:26.182Z</time>
      </trkpt>
      <trkpt lat="44.08801" lon="6.861">
        <ele>1017.9</ele>
        <time>2021-06-02T09:43:29.299Z</time>
      </trkpt>
      <trkpt lat="44.08793" lon="6.86082">
        <ele>1015.7</ele>
        <time>2021-06-02T09:43:33.190Z</time>
      </trkpt>
      <trkpt lat="44.08783" lon="6.86065">
        <ele>1014.7</ele>
        <time>2021-06-02T09:43:36.645Z</time>
      </trkpt>
      <trkpt lat="44.08777" lon="6.86055">
        <ele>1007.5</ele>
        <time>2021-06-02T09:43:39.783Z</time>
      </trkpt>
      <trkpt lat="44.08774" lon="6.86042">
        <ele>1004.5</ele>
        <time>2021-06-02T09:43:43.199Z</time>
      </trkpt>
      <trkpt lat="44.08768" lon="6.86035">
        <ele>995.8</ele>
        <time>2021-06-02T09:43:46.945Z</time>
      </trkpt>
      <trkpt lat="44.08757" lon="6.86026">
        <ele>991.7</ele>
        <time>2021-06-02T09:43:50.286Z</time>
      </trkpt>
      <trkpt lat="44.0875" lon="6.86017">
        <ele>993.2</ele>
        <time>2021-06-02T09:43:53.729Z</time>
      </trkpt>
      <trkpt lat="44.08736" lon="6.85999">
        <ele>991.4</ele>
        <time>2021-06-02T09:43:56.821Z</time>
      </trkpt>
      <trkpt lat="44.08722" lon="6.85981">
        <ele>990.9</ele>
        <time>2021-06-02T09:44:00.021Z</time>
      </trkpt>
      <trkpt lat="44.0871" lon="6.85967">
        <ele>989.2</ele>
        <time>2021-06-02T09:44:03.186Z</time>
      </trkpt>
      <trkpt lat="44.08698" lon="6.8595">
        <ele>992.9</ele>
        <time>2021-06-02T09:44:06.312Z</time>
      </trkpt>
      <trkpt lat="44.08678" lon="6.85918">
        <ele>983.3</ele>
        <time>2021-06-02T09:44:10.000Z</time>
      </trkpt>
      <trkpt lat="44.08666" lon="6.85904">
        <ele>977.6</ele>
        <time>2021-06-02T09:44:16.000Z</time>
      </trkpt>
      <trkpt lat="44.08665" lon="6.85891">
        <ele>972.5</ele>
        <time>2021-06-02T09:44:19.000Z</time>
      </trkpt>
      <trkpt lat="44.08663" lon="6.85882">
        <ele>967.7</ele>
        <time>2021-06-02T09:44:25.000Z</time>
      </trkpt>
      <trkpt lat="44.08658" lon="6.85872">
        <ele>963.2</ele>
        <time>2021-06-02T09:44:31.000Z</time>
      </trkpt>
      <trkpt lat="44.08656" lon="6.85864">
        <ele>964.5</ele>
        <time>2021-06-02T09:44:40.000Z</time>
      </trkpt>
      <trkpt lat="44.08661" lon="6.85853">
        <ele>962.5</ele>
        <time>2021-06-02T09:44:46.000Z</time>
      </trkpt>
      <trkpt lat="44.08658" lon="6.85846">
        <ele>963.5</ele>
        <time>2021-06-02T09:44:49.000Z</time>
      </trkpt>
      <trkpt lat="44.08645" lon="6.85849">
        <ele>959.9</ele>
        <time>2021-06-02T09:44:55.000Z</time>
      </trkpt>
      <trkpt lat="44.0864" lon="6.85857">
        <ele>959.3</ele>
        <time>2021-06-02T09:45:01.000Z</time>
      </trkpt>
      <trkpt lat="44.0863" lon="6.85867">
        <ele>960.6</ele>
        <time>2021-06-02T09:45:07.000Z</time>
      </trkpt>
      <trkpt lat="44.08623" lon="6.85872">
        <ele>958.5</ele>
        <time>2021-06-02T09:45:13.000Z</time>
      </trkpt>
      <trkpt lat="44.08627" lon="6.85862">
        <ele>957.5</ele>
        <time>2021-06-02T09:46:31.000Z</time>
      </trkpt>
      <trkpt lat="44.08631" lon="6.85854">
        <ele>957.5</ele>
        <time>2021-06-02T09:46:34.193Z</time>
      </trkpt>
      <trkpt lat="44.08659" lon="6.85821">
        <ele>954.4</ele>
        <time>2021-06-02T09:46:37.000Z</time>
      </trkpt>
      <trkpt lat="44.08664" lon="6.85812">
        <ele>954.3</ele>
        <time>2021-06-02T09:46:40.277Z</time>
      </trkpt>
      <trkpt lat="44.08665" lon="6.85803">
        <ele>951</ele>
        <time>2021-06-02T09:46:47.740Z</time>
      </trkpt>
      <trkpt lat="44.08655" lon="6.85792">
        <ele>949.3</ele>
        <time>2021-06-02T09:46:58.202Z</time>
      </trkpt>
      <trkpt lat="44.08654" lon="6.85777">
        <ele>944.2</ele>
        <time>2021-06-02T09:47:01.252Z</time>
      </trkpt>
      <trkpt lat="44.08653" lon="6.85767">
        <ele>940.3</ele>
        <time>2021-06-02T09:47:05.187Z</time>
      </trkpt>
      <trkpt lat="44.08652" lon="6.8576">
        <ele>937.9</ele>
        <time>2021-06-02T09:47:08.196Z</time>
      </trkpt>
      <trkpt lat="44.08658" lon="6.85747">
        <ele>935.7</ele>
        <time>2021-06-02T09:47:11.469Z</time>
      </trkpt>
      <trkpt lat="44.08659" lon="6.85739">
        <ele>935.8</ele>
        <time>2021-06-02T09:47:14.722Z</time>
      </trkpt>
      <trkpt lat="44.0866" lon="6.85732">
        <ele>935.5</ele>
        <time>2021-06-02T09:47:24.368Z</time>
      </trkpt>
      <trkpt lat="44.08659" lon="6.85716">
        <ele>934.4</ele>
        <time>2021-06-02T09:47:28.000Z</time>
      </trkpt>
      <trkpt lat="44.08658" lon="6.85708">
        <ele>933.1</ele>
        <time>2021-06-02T09:47:34.000Z</time>
      </trkpt>
      <trkpt lat="44.08657" lon="6.85692">
        <ele>931.6</ele>
        <time>2021-06-02T09:47:40.000Z</time>
      </trkpt>
      <trkpt lat="44.08654" lon="6.85683">
        <ele>930.3</ele>
        <time>2021-06-02T09:47:43.000Z</time>
      </trkpt>
      <trkpt lat="44.08656" lon="6.85675">
        <ele>928</ele>
        <time>2021-06-02T09:47:46.000Z</time>
      </trkpt>
      <trkpt lat="44.08657" lon="6.85664">
        <ele>926.5</ele>
        <time>2021-06-02T09:47:49.245Z</time>
      </trkpt>
      <trkpt lat="44.08658" lon="6.85646">
        <ele>920.2</ele>
        <time>2021-06-02T09:47:55.000Z</time>
      </trkpt>
      <trkpt lat="44.08659" lon="6.85636">
        <ele>917.1</ele>
        <time>2021-06-02T09:48:01.000Z</time>
      </trkpt>
      <trkpt lat="44.08679" lon="6.85632">
        <ele>910</ele>
        <time>2021-06-02T09:48:07.000Z</time>
      </trkpt>
      <trkpt lat="44.08694" lon="6.85622">
        <ele>908.6</ele>
        <time>2021-06-02T09:48:13.000Z</time>
      </trkpt>
      <trkpt lat="44.08688" lon="6.8562">
        <ele>908.6</ele>
        <time>2021-06-02T09:48:16.230Z</time>
      </trkpt>
      <trkpt lat="44.08683" lon="6.85621">
        <ele>909.5</ele>
        <time>2021-06-02T09:48:20.204Z</time>
      </trkpt>
      <trkpt lat="44.08669" lon="6.85614">
        <ele>906.1</ele>
        <time>2021-06-02T09:48:28.000Z</time>
      </trkpt>
      <trkpt lat="44.08653" lon="6.85609">
        <ele>907.4</ele>
        <time>2021-06-02T09:48:32.493Z</time>
      </trkpt>
      <trkpt lat="44.08659" lon="6.85608">
        <ele>904.6</ele>
        <time>2021-06-02T09:48:36.198Z</time>
      </trkpt>
      <trkpt lat="44.08663" lon="6.85612">
        <ele>904.5</ele>
        <time>2021-06-02T09:48:40.203Z</time>
      </trkpt>
      <trkpt lat="44.08675" lon="6.85606">
        <ele>902.3</ele>
        <time>2021-06-02T09:48:44.200Z</time>
      </trkpt>
      <trkpt lat="44.08679" lon="6.85601">
        <ele>900.7</ele>
        <time>2021-06-02T09:48:47.266Z</time>
      </trkpt>
      <trkpt lat="44.08686" lon="6.85594">
        <ele>898.1</ele>
        <time>2021-06-02T09:48:50.475Z</time>
      </trkpt>
      <trkpt lat="44.08695" lon="6.85584">
        <ele>893.4</ele>
        <time>2021-06-02T09:48:57.645Z</time>
      </trkpt>
      <trkpt lat="44.08721" lon="6.85574">
        <ele>888.6</ele>
        <time>2021-06-02T09:49:01.000Z</time>
      </trkpt>
      <trkpt lat="44.08766" lon="6.85543">
        <ele>1013.4</ele>
        <time>2021-06-02T09:49:07.000Z</time>
      </trkpt>
      <trkpt lat="44.08774" lon="6.85525">
        <ele>963.3</ele>
        <time>2021-06-02T09:49:10.000Z</time>
      </trkpt>
      <trkpt lat="44.08777" lon="6.85488">
        <ele>912.4</ele>
        <time>2021-06-02T09:49:16.000Z</time>
      </trkpt>
      <trkpt lat="44.0878" lon="6.8548">
        <ele>912.1</ele>
        <time>2021-06-02T09:49:19.212Z</time>
      </trkpt>
      <trkpt lat="44.08783" lon="6.85473">
        <ele>889.8</ele>
        <time>2021-06-02T09:49:25.610Z</time>
      </trkpt>
      <trkpt lat="44.08784" lon="6.85465">
        <ele>882.2</ele>
        <time>2021-06-02T09:49:29.194Z</time>
      </trkpt>
      <trkpt lat="44.08781" lon="6.85456">
        <ele>880.4</ele>
        <time>2021-06-02T09:49:32.259Z</time>
      </trkpt>
      <trkpt lat="44.08785" lon="6.85443">
        <ele>876</ele>
        <time>2021-06-02T09:49:36.199Z</time>
      </trkpt>
      <trkpt lat="44.0879" lon="6.85439">
        <ele>871.1</ele>
        <time>2021-06-02T09:49:40.000Z</time>
      </trkpt>
      <trkpt lat="44.08794" lon="6.85442">
        <ele>864.5</ele>
        <time>2021-06-02T09:50:22.000Z</time>
      </trkpt>
      <trkpt lat="44.088" lon="6.85444">
        <ele>873.3</ele>
        <time>2021-06-02T09:50:52.000Z</time>
      </trkpt>
      <trkpt lat="44.08795" lon="6.85447">
        <ele>857.8</ele>
        <time>2021-06-02T09:51:18.812Z</time>
      </trkpt>
      <trkpt lat="44.08795" lon="6.8544">
        <ele>863.1</ele>
        <time>2021-06-02T09:52:04.000Z</time>
      </trkpt>
      <trkpt lat="44.088" lon="6.85439">
        <ele>870.8</ele>
        <time>2021-06-02T09:52:19.000Z</time>
      </trkpt>
      <trkpt lat="44.08803" lon="6.85445">
        <ele>865.7</ele>
        <time>2021-06-02T09:52:58.000Z</time>
      </trkpt>
      <trkpt lat="44.08802" lon="6.85438">
        <ele>862.7</ele>
        <time>2021-06-02T09:53:22.000Z</time>
      </trkpt>
      <trkpt lat="44.08813" lon="6.85417">
        <ele>860.6</ele>
        <time>2021-06-02T09:53:28.000Z</time>
      </trkpt>
      <trkpt lat="44.08834" lon="6.85407">
        <ele>860.4</ele>
        <time>2021-06-02T09:53:34.000Z</time>
      </trkpt>
      <trkpt lat="44.08846" lon="6.854">
        <ele>860.4</ele>
        <time>2021-06-02T09:53:37.000Z</time>
      </trkpt>
      <trkpt lat="44.08857" lon="6.85394">
        <ele>858.2</ele>
        <time>2021-06-02T09:53:40.000Z</time>
      </trkpt>
      <trkpt lat="44.0888" lon="6.85382">
        <ele>859.4</ele>
        <time>2021-06-02T09:53:46.000Z</time>
      </trkpt>
      <trkpt lat="44.08889" lon="6.85377">
        <ele>857.7</ele>
        <time>2021-06-02T09:53:52.000Z</time>
      </trkpt>
      <trkpt lat="44.089" lon="6.85376">
        <ele>853.5</ele>
        <time>2021-06-02T09:53:58.000Z</time>
      </trkpt>
      <trkpt lat="44.08905" lon="6.85378">
        <ele>852.3</ele>
        <time>2021-06-02T09:54:01.000Z</time>
      </trkpt>
      <trkpt lat="44.08916" lon="6.85369">
        <ele>849.5</ele>
        <time>2021-06-02T09:54:07.000Z</time>
      </trkpt>
      <trkpt lat="44.08925" lon="6.85361">
        <ele>850.4</ele>
        <time>2021-06-02T09:54:10.000Z</time>
      </trkpt>
      <trkpt lat="44.08935" lon="6.85358">
        <ele>848.3</ele>
        <time>2021-06-02T09:54:13.000Z</time>
      </trkpt>
      <trkpt lat="44.08955" lon="6.85355">
        <ele>850.7</ele>
        <time>2021-06-02T09:54:19.000Z</time>
      </trkpt>
      <trkpt lat="44.0897" lon="6.85362">
        <ele>847</ele>
        <time>2021-06-02T09:54:25.000Z</time>
      </trkpt>
      <trkpt lat="44.08977" lon="6.85357">
        <ele>845.4</ele>
        <time>2021-06-02T09:54:34.000Z</time>
      </trkpt>
      <trkpt lat="44.08987" lon="6.85352">
        <ele>848.3</ele>
        <time>2021-06-02T09:54:40.000Z</time>
      </trkpt>
      <trkpt lat="44.0899" lon="6.85345">
        <ele>849.5</ele>
        <time>2021-06-02T09:54:55.000Z</time>
      </trkpt>
      <trkpt lat="44.08993" lon="6.8534">
        <ele>849.5</ele>
        <time>2021-06-02T09:54:58.198Z</time>
      </trkpt>
      <trkpt lat="44.08985" lon="6.85334">
        <ele>850.4</ele>
        <time>2021-06-02T09:55:07.000Z</time>
      </trkpt>
      <trkpt lat="44.08976" lon="6.85336">
        <ele>853.3</ele>
        <time>2021-06-02T09:55:10.000Z</time>
      </trkpt>
      <trkpt lat="44.0897" lon="6.85336">
        <ele>855.1</ele>
        <time>2021-06-02T09:55:13.000Z</time>
      </trkpt>
      <trkpt lat="44.08963" lon="6.85336">
        <ele>853.2</ele>
        <time>2021-06-02T09:55:16.000Z</time>
      </trkpt>
      <trkpt lat="44.08954" lon="6.85343">
        <ele>855.7</ele>
        <time>2021-06-02T09:55:20.187Z</time>
      </trkpt>
      <trkpt lat="44.0895" lon="6.85349">
        <ele>855</ele>
        <time>2021-06-02T09:55:27.294Z</time>
      </trkpt>
      <trkpt lat="44.08946" lon="6.85347">
        <ele>857.9</ele>
        <time>2021-06-02T09:55:49.000Z</time>
      </trkpt>
      <trkpt lat="44.08949" lon="6.85352">
        <ele>852.9</ele>
        <time>2021-06-02T10:02:15.384Z</time>
      </trkpt>
      <trkpt lat="44.08942" lon="6.85353">
        <ele>860.8</ele>
        <time>2021-06-02T10:04:18.000Z</time>
      </trkpt>
      <trkpt lat="44.08947" lon="6.85351">
        <ele>863.4</ele>
        <time>2021-06-02T10:06:13.000Z</time>
      </trkpt>
      <trkpt lat="44.08949" lon="6.85358">
        <ele>855</ele>
        <time>2021-06-02T10:22:02.635Z</time>
      </trkpt>
      <trkpt lat="44.08966" lon="6.85355">
        <ele>851.1</ele>
        <time>2021-06-02T10:22:07.000Z</time>
      </trkpt>
      <trkpt lat="44.08987" lon="6.85352">
        <ele>845.8</ele>
        <time>2021-06-02T10:22:13.000Z</time>
      </trkpt>
      <trkpt lat="44.08997" lon="6.8535">
        <ele>846.6</ele>
        <time>2021-06-02T10:22:16.000Z</time>
      </trkpt>
      <trkpt lat="44.09017" lon="6.85345">
        <ele>846.1</ele>
        <time>2021-06-02T10:22:22.000Z</time>
      </trkpt>
      <trkpt lat="44.0903" lon="6.85336">
        <ele>847.4</ele>
        <time>2021-06-02T10:22:27.971Z</time>
      </trkpt>
      <trkpt lat="44.09031" lon="6.85324">
        <ele>843.9</ele>
        <time>2021-06-02T10:22:31.189Z</time>
      </trkpt>
      <trkpt lat="44.09031" lon="6.85314">
        <ele>844.9</ele>
        <time>2021-06-02T10:22:34.208Z</time>
      </trkpt>
      <trkpt lat="44.09029" lon="6.85297">
        <ele>842.7</ele>
        <time>2021-06-02T10:22:38.268Z</time>
      </trkpt>
      <trkpt lat="44.09027" lon="6.85282">
        <ele>842.6</ele>
        <time>2021-06-02T10:22:43.000Z</time>
      </trkpt>
      <trkpt lat="44.09026" lon="6.85271">
        <ele>842.7</ele>
        <time>2021-06-02T10:22:46.198Z</time>
      </trkpt>
      <trkpt lat="44.09026" lon="6.85259">
        <ele>841.5</ele>
        <time>2021-06-02T10:22:49.000Z</time>
      </trkpt>
      <trkpt lat="44.09024" lon="6.85247">
        <ele>840.6</ele>
        <time>2021-06-02T10:22:52.000Z</time>
      </trkpt>
      <trkpt lat="44.09021" lon="6.85223">
        <ele>839.5</ele>
        <time>2021-06-02T10:22:58.195Z</time>
      </trkpt>
      <trkpt lat="44.09017" lon="6.85206">
        <ele>838.8</ele>
        <time>2021-06-02T10:23:04.000Z</time>
      </trkpt>
      <trkpt lat="44.09016" lon="6.85199">
        <ele>835.3</ele>
        <time>2021-06-02T10:23:07.000Z</time>
      </trkpt>
      <trkpt lat="44.09013" lon="6.85183">
        <ele>837.4</ele>
        <time>2021-06-02T10:23:13.000Z</time>
      </trkpt>
      <trkpt lat="44.09012" lon="6.85176">
        <ele>838.5</ele>
        <time>2021-06-02T10:23:16.000Z</time>
      </trkpt>
      <trkpt lat="44.09016" lon="6.85171">
        <ele>838.6</ele>
        <time>2021-06-02T10:23:22.253Z</time>
      </trkpt>
      <trkpt lat="44.09011" lon="6.85168">
        <ele>838.7</ele>
        <time>2021-06-02T10:24:25.187Z</time>
      </trkpt>
      <trkpt lat="44.09016" lon="6.85169">
        <ele>834.1</ele>
        <time>2021-06-02T10:24:28.354Z</time>
      </trkpt>
      <trkpt lat="44.09017" lon="6.85185">
        <ele>833.5</ele>
        <time>2021-06-02T10:24:32.192Z</time>
      </trkpt>
      <trkpt lat="44.09019" lon="6.85205">
        <ele>836.3</ele>
        <time>2021-06-02T10:24:36.199Z</time>
      </trkpt>
      <trkpt lat="44.09023" lon="6.85219">
        <ele>833.7</ele>
        <time>2021-06-02T10:24:40.189Z</time>
      </trkpt>
      <trkpt lat="44.09033" lon="6.85218">
        <ele>831.4</ele>
        <time>2021-06-02T10:24:43.221Z</time>
      </trkpt>
      <trkpt lat="44.09044" lon="6.85214">
        <ele>831</ele>
        <time>2021-06-02T10:24:47.202Z</time>
      </trkpt>
      <trkpt lat="44.09054" lon="6.85213">
        <ele>832.4</ele>
        <time>2021-06-02T10:24:50.323Z</time>
      </trkpt>
      <trkpt lat="44.09065" lon="6.8521">
        <ele>833.4</ele>
        <time>2021-06-02T10:24:54.003Z</time>
      </trkpt>
      <trkpt lat="44.0907" lon="6.85209">
        <ele>831.4</ele>
        <time>2021-06-02T10:24:57.409Z</time>
      </trkpt>
      <trkpt lat="44.09078" lon="6.85208">
        <ele>831.4</ele>
        <time>2021-06-02T10:25:01.198Z</time>
      </trkpt>
      <trkpt lat="44.09088" lon="6.85208">
        <ele>834</ele>
        <time>2021-06-02T10:25:05.126Z</time>
      </trkpt>
      <trkpt lat="44.09096" lon="6.85207">
        <ele>836.1</ele>
        <time>2021-06-02T10:25:08.203Z</time>
      </trkpt>
      <trkpt lat="44.09106" lon="6.85206">
        <ele>833.7</ele>
        <time>2021-06-02T10:25:11.290Z</time>
      </trkpt>
      <trkpt lat="44.09119" lon="6.85204">
        <ele>837.1</ele>
        <time>2021-06-02T10:25:15.451Z</time>
      </trkpt>
      <trkpt lat="44.0913" lon="6.85203">
        <ele>838.6</ele>
        <time>2021-06-02T10:25:18.468Z</time>
      </trkpt>
      <trkpt lat="44.09144" lon="6.85201">
        <ele>836.8</ele>
        <time>2021-06-02T10:25:22.000Z</time>
      </trkpt>
      <trkpt lat="44.09156" lon="6.85201">
        <ele>836.7</ele>
        <time>2021-06-02T10:25:25.191Z</time>
      </trkpt>
      <trkpt lat="44.09168" lon="6.852">
        <ele>835.2</ele>
        <time>2021-06-02T10:25:28.300Z</time>
      </trkpt>
      <trkpt lat="44.09185" lon="6.852">
        <ele>836.8</ele>
        <time>2021-06-02T10:25:32.199Z</time>
      </trkpt>
      <trkpt lat="44.09198" lon="6.85201">
        <ele>835.5</ele>
        <time>2021-06-02T10:25:36.200Z</time>
      </trkpt>
      <trkpt lat="44.0921" lon="6.85203">
        <ele>835.9</ele>
        <time>2021-06-02T10:25:40.183Z</time>
      </trkpt>
      <trkpt lat="44.09219" lon="6.85206">
        <ele>834.5</ele>
        <time>2021-06-02T10:25:43.191Z</time>
      </trkpt>
      <trkpt lat="44.09226" lon="6.85209">
        <ele>836.1</ele>
        <time>2021-06-02T10:25:46.194Z</time>
      </trkpt>
      <trkpt lat="44.09236" lon="6.85212">
        <ele>837.7</ele>
        <time>2021-06-02T10:25:49.306Z</time>
      </trkpt>
      <trkpt lat="44.09248" lon="6.85218">
        <ele>838.1</ele>
        <time>2021-06-02T10:25:53.216Z</time>
      </trkpt>
      <trkpt lat="44.09254" lon="6.85224">
        <ele>838.2</ele>
        <time>2021-06-02T10:25:57.236Z</time>
      </trkpt>
      <trkpt lat="44.09262" lon="6.85227">
        <ele>837.1</ele>
        <time>2021-06-02T10:26:01.198Z</time>
      </trkpt>
      <trkpt lat="44.09269" lon="6.85232">
        <ele>838.6</ele>
        <time>2021-06-02T10:26:04.205Z</time>
      </trkpt>
      <trkpt lat="44.09277" lon="6.85237">
        <ele>840.2</ele>
        <time>2021-06-02T10:26:07.206Z</time>
      </trkpt>
      <trkpt lat="44.09284" lon="6.85242">
        <ele>839.6</ele>
        <time>2021-06-02T10:26:10.357Z</time>
      </trkpt>
      <trkpt lat="44.09295" lon="6.85247">
        <ele>841.7</ele>
        <time>2021-06-02T10:26:14.194Z</time>
      </trkpt>
      <trkpt lat="44.09305" lon="6.85254">
        <ele>841.3</ele>
        <time>2021-06-02T10:26:17.205Z</time>
      </trkpt>
      <trkpt lat="44.09318" lon="6.85259">
        <ele>840.2</ele>
        <time>2021-06-02T10:26:20.821Z</time>
      </trkpt>
      <trkpt lat="44.09333" lon="6.85256">
        <ele>840.2</ele>
        <time>2021-06-02T10:26:25.160Z</time>
      </trkpt>
      <trkpt lat="44.09344" lon="6.85254">
        <ele>844</ele>
        <time>2021-06-02T10:26:28.192Z</time>
      </trkpt>
      <trkpt lat="44.09354" lon="6.85259">
        <ele>845.6</ele>
        <time>2021-06-02T10:26:31.218Z</time>
      </trkpt>
      <trkpt lat="44.0936" lon="6.85256">
        <ele>848.4</ele>
        <time>2021-06-02T10:26:34.757Z</time>
      </trkpt>
      <trkpt lat="44.09363" lon="6.85248">
        <ele>848.4</ele>
        <time>2021-06-02T10:26:37.954Z</time>
      </trkpt>
      <trkpt lat="44.09368" lon="6.85226">
        <ele>849.1</ele>
        <time>2021-06-02T10:26:41.945Z</time>
      </trkpt>
      <trkpt lat="44.0937" lon="6.85211">
        <ele>848.2</ele>
        <time>2021-06-02T10:26:45.190Z</time>
      </trkpt>
      <trkpt lat="44.09373" lon="6.85197">
        <ele>845.8</ele>
        <time>2021-06-02T10:26:48.194Z</time>
      </trkpt>
      <trkpt lat="44.0938" lon="6.85181">
        <ele>844.7</ele>
        <time>2021-06-02T10:26:52.000Z</time>
      </trkpt>
      <trkpt lat="44.09386" lon="6.85165">
        <ele>847</ele>
        <time>2021-06-02T10:26:56.476Z</time>
      </trkpt>
      <trkpt lat="44.09391" lon="6.85152">
        <ele>848.2</ele>
        <time>2021-06-02T10:27:00.236Z</time>
      </trkpt>
      <trkpt lat="44.09399" lon="6.85142">
        <ele>849.8</ele>
        <time>2021-06-02T10:27:04.184Z</time>
      </trkpt>
      <trkpt lat="44.09406" lon="6.85136">
        <ele>852.6</ele>
        <time>2021-06-02T10:27:07.202Z</time>
      </trkpt>
      <trkpt lat="44.09414" lon="6.85128">
        <ele>853.9</ele>
        <time>2021-06-02T10:27:11.207Z</time>
      </trkpt>
      <trkpt lat="44.0942" lon="6.85116">
        <ele>852.5</ele>
        <time>2021-06-02T10:27:14.771Z</time>
      </trkpt>
      <trkpt lat="44.09427" lon="6.85104">
        <ele>853.6</ele>
        <time>2021-06-02T10:27:18.586Z</time>
      </trkpt>
      <trkpt lat="44.09434" lon="6.85092">
        <ele>855.6</ele>
        <time>2021-06-02T10:27:22.190Z</time>
      </trkpt>
      <trkpt lat="44.09439" lon="6.85084">
        <ele>856.4</ele>
        <time>2021-06-02T10:27:25.203Z</time>
      </trkpt>
      <trkpt lat="44.09445" lon="6.85074">
        <ele>855.9</ele>
        <time>2021-06-02T10:27:28.204Z</time>
      </trkpt>
      <trkpt lat="44.09453" lon="6.85063">
        <ele>857.5</ele>
        <time>2021-06-02T10:27:31.752Z</time>
      </trkpt>
      <trkpt lat="44.09461" lon="6.85053">
        <ele>859</ele>
        <time>2021-06-02T10:27:35.189Z</time>
      </trkpt>
      <trkpt lat="44.09466" lon="6.85043">
        <ele>859.2</ele>
        <time>2021-06-02T10:27:38.228Z</time>
      </trkpt>
      <trkpt lat="44.09473" lon="6.85031">
        <ele>860.3</ele>
        <time>2021-06-02T10:27:42.202Z</time>
      </trkpt>
      <trkpt lat="44.09481" lon="6.8502">
        <ele>859.9</ele>
        <time>2021-06-02T10:27:46.192Z</time>
      </trkpt>
      <trkpt lat="44.09485" lon="6.85012">
        <ele>861.9</ele>
        <time>2021-06-02T10:27:49.000Z</time>
      </trkpt>
      <trkpt lat="44.09488" lon="6.85004">
        <ele>862.8</ele>
        <time>2021-06-02T10:27:52.808Z</time>
      </trkpt>
      <trkpt lat="44.09488" lon="6.84996">
        <ele>861.4</ele>
        <time>2021-06-02T10:27:58.000Z</time>
      </trkpt>
      <trkpt lat="44.09481" lon="6.84994">
        <ele>863</ele>
        <time>2021-06-02T10:28:11.070Z</time>
      </trkpt>
      <trkpt lat="44.09471" lon="6.84999">
        <ele>864.1</ele>
        <time>2021-06-02T10:28:14.191Z</time>
      </trkpt>
      <trkpt lat="44.09459" lon="6.85006">
        <ele>863.4</ele>
        <time>2021-06-02T10:28:17.368Z</time>
      </trkpt>
      <trkpt lat="44.09447" lon="6.85008">
        <ele>866.9</ele>
        <time>2021-06-02T10:28:21.202Z</time>
      </trkpt>
      <trkpt lat="44.09435" lon="6.85009">
        <ele>867.9</ele>
        <time>2021-06-02T10:28:25.198Z</time>
      </trkpt>
      <trkpt lat="44.09426" lon="6.85007">
        <ele>868</ele>
        <time>2021-06-02T10:28:28.341Z</time>
      </trkpt>
      <trkpt lat="44.09414" lon="6.85001">
        <ele>873.5</ele>
        <time>2021-06-02T10:28:34.000Z</time>
      </trkpt>
      <trkpt lat="44.09408" lon="6.84996">
        <ele>872.8</ele>
        <time>2021-06-02T10:28:38.195Z</time>
      </trkpt>
      <trkpt lat="44.09401" lon="6.84995">
        <ele>872.5</ele>
        <time>2021-06-02T10:28:49.000Z</time>
      </trkpt>
      <trkpt lat="44.09401" lon="6.84985">
        <ele>873.4</ele>
        <time>2021-06-02T10:29:43.000Z</time>
      </trkpt>
      <trkpt lat="44.0941" lon="6.84975">
        <ele>873.3</ele>
        <time>2021-06-02T10:29:50.053Z</time>
      </trkpt>
      <trkpt lat="44.09402" lon="6.84964">
        <ele>874.5</ele>
        <time>2021-06-02T10:29:54.051Z</time>
      </trkpt>
      <trkpt lat="44.09398" lon="6.84956">
        <ele>873.8</ele>
        <time>2021-06-02T10:29:57.243Z</time>
      </trkpt>
      <trkpt lat="44.09395" lon="6.84945">
        <ele>875.1</ele>
        <time>2021-06-02T10:30:01.193Z</time>
      </trkpt>
      <trkpt lat="44.09395" lon="6.84935">
        <ele>874.5</ele>
        <time>2021-06-02T10:30:07.988Z</time>
      </trkpt>
      <trkpt lat="44.09395" lon="6.84925">
        <ele>871.1</ele>
        <time>2021-06-02T10:30:11.210Z</time>
      </trkpt>
      <trkpt lat="44.09395" lon="6.84918">
        <ele>872.2</ele>
        <time>2021-06-02T10:30:14.248Z</time>
      </trkpt>
      <trkpt lat="44.09393" lon="6.8491">
        <ele>870.1</ele>
        <time>2021-06-02T10:30:18.069Z</time>
      </trkpt>
      <trkpt lat="44.09387" lon="6.84897">
        <ele>870.5</ele>
        <time>2021-06-02T10:30:21.087Z</time>
      </trkpt>
      <trkpt lat="44.09385" lon="6.84883">
        <ele>870</ele>
        <time>2021-06-02T10:30:25.196Z</time>
      </trkpt>
      <trkpt lat="44.09385" lon="6.84871">
        <ele>873.4</ele>
        <time>2021-06-02T10:30:28.728Z</time>
      </trkpt>
      <trkpt lat="44.09386" lon="6.84863">
        <ele>872.8</ele>
        <time>2021-06-02T10:30:32.243Z</time>
      </trkpt>
      <trkpt lat="44.09391" lon="6.8487">
        <ele>878.2</ele>
        <time>2021-06-02T10:30:47.194Z</time>
      </trkpt>
      <trkpt lat="44.09397" lon="6.84875">
        <ele>880.5</ele>
        <time>2021-06-02T10:30:50.243Z</time>
      </trkpt>
      <trkpt lat="44.09403" lon="6.84883">
        <ele>881.1</ele>
        <time>2021-06-02T10:30:54.207Z</time>
      </trkpt>
      <trkpt lat="44.09408" lon="6.84891">
        <ele>881.9</ele>
        <time>2021-06-02T10:30:57.208Z</time>
      </trkpt>
      <trkpt lat="44.09414" lon="6.84891">
        <ele>885</ele>
        <time>2021-06-02T10:31:05.653Z</time>
      </trkpt>
      <trkpt lat="44.0941" lon="6.84887">
        <ele>884.3</ele>
        <time>2021-06-02T10:31:09.196Z</time>
      </trkpt>
      <trkpt lat="44.09406" lon="6.84882">
        <ele>885.2</ele>
        <time>2021-06-02T10:31:12.439Z</time>
      </trkpt>
      <trkpt lat="44.09401" lon="6.84877">
        <ele>884.3</ele>
        <time>2021-06-02T10:31:16.198Z</time>
      </trkpt>
      <trkpt lat="44.09394" lon="6.84868">
        <ele>885.8</ele>
        <time>2021-06-02T10:31:19.211Z</time>
      </trkpt>
      <trkpt lat="44.09385" lon="6.84857">
        <ele>884.8</ele>
        <time>2021-06-02T10:31:23.201Z</time>
      </trkpt>
      <trkpt lat="44.0938" lon="6.8485">
        <ele>884.8</ele>
        <time>2021-06-02T10:31:26.712Z</time>
      </trkpt>
      <trkpt lat="44.09376" lon="6.8484">
        <ele>885.1</ele>
        <time>2021-06-02T10:31:31.208Z</time>
      </trkpt>
      <trkpt lat="44.0937" lon="6.84834">
        <ele>884.5</ele>
        <time>2021-06-02T10:31:35.504Z</time>
      </trkpt>
      <trkpt lat="44.09367" lon="6.84839">
        <ele>889.2</ele>
        <time>2021-06-02T10:31:52.333Z</time>
      </trkpt>
      <trkpt lat="44.09365" lon="6.84849">
        <ele>888.9</ele>
        <time>2021-06-02T10:33:10.000Z</time>
      </trkpt>
      <trkpt lat="44.09374" lon="6.84852">
        <ele>892.1</ele>
        <time>2021-06-02T10:33:17.751Z</time>
      </trkpt>
      <trkpt lat="44.09377" lon="6.84868">
        <ele>891.4</ele>
        <time>2021-06-02T10:33:21.193Z</time>
      </trkpt>
      <trkpt lat="44.09376" lon="6.84883">
        <ele>892.3</ele>
        <time>2021-06-02T10:33:24.196Z</time>
      </trkpt>
      <trkpt lat="44.09372" lon="6.84901">
        <ele>888.6</ele>
        <time>2021-06-02T10:33:28.000Z</time>
      </trkpt>
      <trkpt lat="44.09373" lon="6.84913">
        <ele>886.2</ele>
        <time>2021-06-02T10:33:31.386Z</time>
      </trkpt>
      <trkpt lat="44.09378" lon="6.84926">
        <ele>887.9</ele>
        <time>2021-06-02T10:33:35.192Z</time>
      </trkpt>
      <trkpt lat="44.09384" lon="6.84939">
        <ele>887.2</ele>
        <time>2021-06-02T10:33:38.203Z</time>
      </trkpt>
      <trkpt lat="44.09393" lon="6.84967">
        <ele>886.6</ele>
        <time>2021-06-02T10:33:43.247Z</time>
      </trkpt>
      <trkpt lat="44.09401" lon="6.84972">
        <ele>882.2</ele>
        <time>2021-06-02T10:33:47.209Z</time>
      </trkpt>
      <trkpt lat="44.09406" lon="6.84972">
        <ele>878.4</ele>
        <time>2021-06-02T10:33:52.000Z</time>
      </trkpt>
      <trkpt lat="44.09414" lon="6.84972">
        <ele>878.7</ele>
        <time>2021-06-02T10:34:02.611Z</time>
      </trkpt>
      <trkpt lat="44.09419" lon="6.84971">
        <ele>880.6</ele>
        <time>2021-06-02T10:34:06.009Z</time>
      </trkpt>
      <trkpt lat="44.09426" lon="6.84968">
        <ele>879.7</ele>
        <time>2021-06-02T10:34:09.190Z</time>
      </trkpt>
      <trkpt lat="44.09434" lon="6.84967">
        <ele>879.8</ele>
        <time>2021-06-02T10:34:12.198Z</time>
      </trkpt>
      <trkpt lat="44.09442" lon="6.84965">
        <ele>876.6</ele>
        <time>2021-06-02T10:34:16.203Z</time>
      </trkpt>
      <trkpt lat="44.09452" lon="6.84958">
        <ele>879.4</ele>
        <time>2021-06-02T10:34:20.195Z</time>
      </trkpt>
      <trkpt lat="44.09458" lon="6.84955">
        <ele>879</ele>
        <time>2021-06-02T10:34:23.210Z</time>
      </trkpt>
      <trkpt lat="44.09465" lon="6.84949">
        <ele>880.3</ele>
        <time>2021-06-02T10:34:27.198Z</time>
      </trkpt>
      <trkpt lat="44.09469" lon="6.84944">
        <ele>880.7</ele>
        <time>2021-06-02T10:34:30.259Z</time>
      </trkpt>
      <trkpt lat="44.09477" lon="6.84943">
        <ele>879.7</ele>
        <time>2021-06-02T10:34:37.363Z</time>
      </trkpt>
      <trkpt lat="44.09483" lon="6.8494">
        <ele>883</ele>
        <time>2021-06-02T10:34:44.811Z</time>
      </trkpt>
      <trkpt lat="44.09492" lon="6.84938">
        <ele>881.6</ele>
        <time>2021-06-02T10:34:51.629Z</time>
      </trkpt>
      <trkpt lat="44.09498" lon="6.84938">
        <ele>878.9</ele>
        <time>2021-06-02T10:34:58.197Z</time>
      </trkpt>
      <trkpt lat="44.09497" lon="6.84932">
        <ele>886.8</ele>
        <time>2021-06-02T10:35:04.875Z</time>
      </trkpt>
      <trkpt lat="44.09492" lon="6.84928">
        <ele>886.2</ele>
        <time>2021-06-02T10:35:12.023Z</time>
      </trkpt>
      <trkpt lat="44.09492" lon="6.84921">
        <ele>890.3</ele>
        <time>2021-06-02T10:35:15.370Z</time>
      </trkpt>
      <trkpt lat="44.09496" lon="6.84914">
        <ele>895.3</ele>
        <time>2021-06-02T10:35:19.028Z</time>
      </trkpt>
      <trkpt lat="44.09502" lon="6.84917">
        <ele>898.9</ele>
        <time>2021-06-02T10:35:22.330Z</time>
      </trkpt>
      <trkpt lat="44.09509" lon="6.84925">
        <ele>899.4</ele>
        <time>2021-06-02T10:35:29.193Z</time>
      </trkpt>
      <trkpt lat="44.09511" lon="6.84918">
        <ele>895.6</ele>
        <time>2021-06-02T10:35:40.000Z</time>
      </trkpt>
      <trkpt lat="44.09513" lon="6.84911">
        <ele>896.6</ele>
        <time>2021-06-02T10:35:49.774Z</time>
      </trkpt>
      <trkpt lat="44.09508" lon="6.84907">
        <ele>896.4</ele>
        <time>2021-06-02T10:36:05.824Z</time>
      </trkpt>
      <trkpt lat="44.09503" lon="6.84906">
        <ele>899.9</ele>
        <time>2021-06-02T10:36:16.124Z</time>
      </trkpt>
      <trkpt lat="44.09506" lon="6.84897">
        <ele>902.1</ele>
        <time>2021-06-02T10:36:26.164Z</time>
      </trkpt>
      <trkpt lat="44.09513" lon="6.84899">
        <ele>908.7</ele>
        <time>2021-06-02T10:36:32.766Z</time>
      </trkpt>
      <trkpt lat="44.09518" lon="6.84898">
        <ele>908.7</ele>
        <time>2021-06-02T10:36:36.122Z</time>
      </trkpt>
      <trkpt lat="44.09523" lon="6.84897">
        <ele>908.8</ele>
        <time>2021-06-02T10:36:40.144Z</time>
      </trkpt>
      <trkpt lat="44.09531" lon="6.84894">
        <ele>911.1</ele>
        <time>2021-06-02T10:36:47.346Z</time>
      </trkpt>
      <trkpt lat="44.09539" lon="6.84888">
        <ele>912.6</ele>
        <time>2021-06-02T10:36:53.832Z</time>
      </trkpt>
      <trkpt lat="44.09544" lon="6.84886">
        <ele>911.5</ele>
        <time>2021-06-02T10:36:57.347Z</time>
      </trkpt>
      <trkpt lat="44.09548" lon="6.84883">
        <ele>911.9</ele>
        <time>2021-06-02T10:37:00.491Z</time>
      </trkpt>
      <trkpt lat="44.09545" lon="6.84875">
        <ele>918.7</ele>
        <time>2021-06-02T10:37:07.000Z</time>
      </trkpt>
      <trkpt lat="44.09547" lon="6.84867">
        <ele>917.6</ele>
        <time>2021-06-02T10:37:13.805Z</time>
      </trkpt>
      <trkpt lat="44.09552" lon="6.84865">
        <ele>914.3</ele>
        <time>2021-06-02T10:37:20.548Z</time>
      </trkpt>
      <trkpt lat="44.09559" lon="6.84864">
        <ele>914.7</ele>
        <time>2021-06-02T10:37:30.429Z</time>
      </trkpt>
      <trkpt lat="44.09566" lon="6.84857">
        <ele>910.4</ele>
        <time>2021-06-02T10:37:40.146Z</time>
      </trkpt>
      <trkpt lat="44.0957" lon="6.84852">
        <ele>914.8</ele>
        <time>2021-06-02T10:37:47.249Z</time>
      </trkpt>
      <trkpt lat="44.09575" lon="6.84851">
        <ele>919.1</ele>
        <time>2021-06-02T10:37:54.109Z</time>
      </trkpt>
      <trkpt lat="44.09575" lon="6.8484">
        <ele>924</ele>
        <time>2021-06-02T10:38:01.000Z</time>
      </trkpt>
      <trkpt lat="44.09575" lon="6.84833">
        <ele>927.5</ele>
        <time>2021-06-02T10:38:04.949Z</time>
      </trkpt>
      <trkpt lat="44.09576" lon="6.84822">
        <ele>929.8</ele>
        <time>2021-06-02T10:38:09.754Z</time>
      </trkpt>
      <trkpt lat="44.09572" lon="6.84817">
        <ele>932.8</ele>
        <time>2021-06-02T10:38:13.000Z</time>
      </trkpt>
      <trkpt lat="44.09577" lon="6.84819">
        <ele>933.3</ele>
        <time>2021-06-02T10:38:21.163Z</time>
      </trkpt>
      <trkpt lat="44.09582" lon="6.8482">
        <ele>930.7</ele>
        <time>2021-06-02T10:38:35.444Z</time>
      </trkpt>
      <trkpt lat="44.09583" lon="6.84814">
        <ele>930.5</ele>
        <time>2021-06-02T10:45:16.000Z</time>
      </trkpt>
      <trkpt lat="44.09578" lon="6.84816">
        <ele>931.1</ele>
        <time>2021-06-02T10:45:27.614Z</time>
      </trkpt>
      <trkpt lat="44.09583" lon="6.84807">
        <ele>927.3</ele>
        <time>2021-06-02T10:47:01.000Z</time>
      </trkpt>
      <trkpt lat="44.09588" lon="6.84792">
        <ele>928.5</ele>
        <time>2021-06-02T10:47:07.000Z</time>
      </trkpt>
      <trkpt lat="44.09589" lon="6.84783">
        <ele>927.3</ele>
        <time>2021-06-02T10:47:10.000Z</time>
      </trkpt>
      <trkpt lat="44.09596" lon="6.84769">
        <ele>934.5</ele>
        <time>2021-06-02T10:47:16.000Z</time>
      </trkpt>
      <trkpt lat="44.096" lon="6.84763">
        <ele>940.1</ele>
        <time>2021-06-02T10:47:19.000Z</time>
      </trkpt>
      <trkpt lat="44.09604" lon="6.84757">
        <ele>943.3</ele>
        <time>2021-06-02T10:47:22.000Z</time>
      </trkpt>
      <trkpt lat="44.09616" lon="6.84748">
        <ele>941.6</ele>
        <time>2021-06-02T10:47:28.000Z</time>
      </trkpt>
      <trkpt lat="44.09616" lon="6.84742">
        <ele>937.3</ele>
        <time>2021-06-02T10:47:31.000Z</time>
      </trkpt>
      <trkpt lat="44.09623" lon="6.84736">
        <ele>937.2</ele>
        <time>2021-06-02T10:47:37.000Z</time>
      </trkpt>
      <trkpt lat="44.09628" lon="6.84723">
        <ele>943</ele>
        <time>2021-06-02T10:47:43.740Z</time>
      </trkpt>
      <trkpt lat="44.09634" lon="6.84724">
        <ele>943.6</ele>
        <time>2021-06-02T10:47:58.000Z</time>
      </trkpt>
      <trkpt lat="44.09637" lon="6.84718">
        <ele>942.9</ele>
        <time>2021-06-02T10:48:11.808Z</time>
      </trkpt>
      <trkpt lat="44.09638" lon="6.84711">
        <ele>943</ele>
        <time>2021-06-02T10:48:18.291Z</time>
      </trkpt>
      <trkpt lat="44.09642" lon="6.84707">
        <ele>943.7</ele>
        <time>2021-06-02T10:48:21.875Z</time>
      </trkpt>
      <trkpt lat="44.09646" lon="6.84703">
        <ele>950.2</ele>
        <time>2021-06-02T10:48:25.000Z</time>
      </trkpt>
      <trkpt lat="44.09653" lon="6.84701">
        <ele>950.1</ele>
        <time>2021-06-02T10:48:32.207Z</time>
      </trkpt>
      <trkpt lat="44.09658" lon="6.84695">
        <ele>944</ele>
        <time>2021-06-02T10:48:43.963Z</time>
      </trkpt>
      <trkpt lat="44.09665" lon="6.84685">
        <ele>944.8</ele>
        <time>2021-06-02T10:48:51.449Z</time>
      </trkpt>
      <trkpt lat="44.0967" lon="6.8468">
        <ele>946.4</ele>
        <time>2021-06-02T10:48:55.114Z</time>
      </trkpt>
      <trkpt lat="44.09674" lon="6.84675">
        <ele>955.4</ele>
        <time>2021-06-02T10:48:58.000Z</time>
      </trkpt>
      <trkpt lat="44.09683" lon="6.84668">
        <ele>957</ele>
        <time>2021-06-02T10:49:05.006Z</time>
      </trkpt>
      <trkpt lat="44.09692" lon="6.84663">
        <ele>956.8</ele>
        <time>2021-06-02T10:49:11.532Z</time>
      </trkpt>
      <trkpt lat="44.09697" lon="6.84661">
        <ele>954.3</ele>
        <time>2021-06-02T10:49:14.967Z</time>
      </trkpt>
      <trkpt lat="44.09703" lon="6.84656">
        <ele>953.2</ele>
        <time>2021-06-02T10:49:21.444Z</time>
      </trkpt>
      <trkpt lat="44.09712" lon="6.84654">
        <ele>954.1</ele>
        <time>2021-06-02T10:49:25.000Z</time>
      </trkpt>
      <trkpt lat="44.09718" lon="6.84652">
        <ele>950.6</ele>
        <time>2021-06-02T10:49:28.000Z</time>
      </trkpt>
      <trkpt lat="44.09722" lon="6.84642">
        <ele>951.7</ele>
        <time>2021-06-02T10:49:31.000Z</time>
      </trkpt>
      <trkpt lat="44.09733" lon="6.84628">
        <ele>953.2</ele>
        <time>2021-06-02T10:49:34.921Z</time>
      </trkpt>
      <trkpt lat="44.0974" lon="6.84621">
        <ele>953.9</ele>
        <time>2021-06-02T10:49:38.226Z</time>
      </trkpt>
      <trkpt lat="44.09746" lon="6.84614">
        <ele>953</ele>
        <time>2021-06-02T10:49:41.767Z</time>
      </trkpt>
      <trkpt lat="44.09751" lon="6.84611">
        <ele>952.5</ele>
        <time>2021-06-02T10:49:44.994Z</time>
      </trkpt>
      <trkpt lat="44.09758" lon="6.8461">
        <ele>955</ele>
        <time>2021-06-02T10:49:48.889Z</time>
      </trkpt>
      <trkpt lat="44.09763" lon="6.84611">
        <ele>954.1</ele>
        <time>2021-06-02T10:49:52.285Z</time>
      </trkpt>
      <trkpt lat="44.09771" lon="6.84606">
        <ele>954.5</ele>
        <time>2021-06-02T10:49:55.843Z</time>
      </trkpt>
      <trkpt lat="44.09779" lon="6.84607">
        <ele>956.3</ele>
        <time>2021-06-02T10:49:59.069Z</time>
      </trkpt>
      <trkpt lat="44.09785" lon="6.84604">
        <ele>955.1</ele>
        <time>2021-06-02T10:50:02.090Z</time>
      </trkpt>
      <trkpt lat="44.0979" lon="6.84605">
        <ele>953.8</ele>
        <time>2021-06-02T10:50:05.218Z</time>
      </trkpt>
      <trkpt lat="44.09795" lon="6.84608">
        <ele>954.8</ele>
        <time>2021-06-02T10:50:08.264Z</time>
      </trkpt>
      <trkpt lat="44.09801" lon="6.84609">
        <ele>954.6</ele>
        <time>2021-06-02T10:50:11.488Z</time>
      </trkpt>
      <trkpt lat="44.09808" lon="6.84609">
        <ele>959.6</ele>
        <time>2021-06-02T10:50:14.645Z</time>
      </trkpt>
      <trkpt lat="44.09816" lon="6.84603">
        <ele>956.4</ele>
        <time>2021-06-02T10:50:18.149Z</time>
      </trkpt>
      <trkpt lat="44.09825" lon="6.84593">
        <ele>956.8</ele>
        <time>2021-06-02T10:50:21.648Z</time>
      </trkpt>
      <trkpt lat="44.09832" lon="6.84585">
        <ele>955.1</ele>
        <time>2021-06-02T10:50:25.000Z</time>
      </trkpt>
      <trkpt lat="44.09837" lon="6.84577">
        <ele>953.1</ele>
        <time>2021-06-02T10:50:28.585Z</time>
      </trkpt>
      <trkpt lat="44.09843" lon="6.84565">
        <ele>954.4</ele>
        <time>2021-06-02T10:50:35.545Z</time>
      </trkpt>
      <trkpt lat="44.09848" lon="6.84563">
        <ele>954.8</ele>
        <time>2021-06-02T10:50:39.063Z</time>
      </trkpt>
      <trkpt lat="44.09856" lon="6.84557">
        <ele>954.5</ele>
        <time>2021-06-02T10:50:42.722Z</time>
      </trkpt>
      <trkpt lat="44.09865" lon="6.84549">
        <ele>957.3</ele>
        <time>2021-06-02T10:50:45.785Z</time>
      </trkpt>
      <trkpt lat="44.09876" lon="6.84542">
        <ele>959.6</ele>
        <time>2021-06-02T10:50:48.922Z</time>
      </trkpt>
      <trkpt lat="44.09884" lon="6.84536">
        <ele>966.5</ele>
        <time>2021-06-02T10:50:52.409Z</time>
      </trkpt>
      <trkpt lat="44.09892" lon="6.84529">
        <ele>967.9</ele>
        <time>2021-06-02T10:50:55.663Z</time>
      </trkpt>
      <trkpt lat="44.099" lon="6.84519">
        <ele>968.1</ele>
        <time>2021-06-02T10:50:59.130Z</time>
      </trkpt>
      <trkpt lat="44.09906" lon="6.84511">
        <ele>971</ele>
        <time>2021-06-02T10:51:02.270Z</time>
      </trkpt>
      <trkpt lat="44.09912" lon="6.8451">
        <ele>971.9</ele>
        <time>2021-06-02T10:51:05.851Z</time>
      </trkpt>
      <trkpt lat="44.0992" lon="6.84511">
        <ele>971.6</ele>
        <time>2021-06-02T10:51:09.256Z</time>
      </trkpt>
      <trkpt lat="44.09929" lon="6.84509">
        <ele>967.3</ele>
        <time>2021-06-02T10:51:12.304Z</time>
      </trkpt>
      <trkpt lat="44.09938" lon="6.84506">
        <ele>967.3</ele>
        <time>2021-06-02T10:51:15.729Z</time>
      </trkpt>
      <trkpt lat="44.09948" lon="6.84503">
        <ele>969.8</ele>
        <time>2021-06-02T10:51:18.774Z</time>
      </trkpt>
      <trkpt lat="44.09958" lon="6.84499">
        <ele>966.5</ele>
        <time>2021-06-02T10:51:21.966Z</time>
      </trkpt>
      <trkpt lat="44.09964" lon="6.84492">
        <ele>963.5</ele>
        <time>2021-06-02T10:51:25.066Z</time>
      </trkpt>
      <trkpt lat="44.09971" lon="6.84487">
        <ele>963.8</ele>
        <time>2021-06-02T10:51:28.301Z</time>
      </trkpt>
      <trkpt lat="44.0998" lon="6.84476">
        <ele>962.8</ele>
        <time>2021-06-02T10:51:31.489Z</time>
      </trkpt>
      <trkpt lat="44.09987" lon="6.84466">
        <ele>963.6</ele>
        <time>2021-06-02T10:51:35.227Z</time>
      </trkpt>
      <trkpt lat="44.0999" lon="6.84456">
        <ele>961.3</ele>
        <time>2021-06-02T10:51:39.044Z</time>
      </trkpt>
      <trkpt lat="44.09997" lon="6.84441">
        <ele>962.3</ele>
        <time>2021-06-02T10:51:45.161Z</time>
      </trkpt>
      <trkpt lat="44.1" lon="6.84432">
        <ele>969.2</ele>
        <time>2021-06-02T10:51:49.000Z</time>
      </trkpt>
      <trkpt lat="44.10004" lon="6.84428">
        <ele>971.5</ele>
        <time>2021-06-02T10:51:53.383Z</time>
      </trkpt>
      <trkpt lat="44.10009" lon="6.84427">
        <ele>975.8</ele>
        <time>2021-06-02T10:51:56.810Z</time>
      </trkpt>
      <trkpt lat="44.10019" lon="6.84422">
        <ele>976.7</ele>
        <time>2021-06-02T10:52:03.792Z</time>
      </trkpt>
      <trkpt lat="44.10025" lon="6.84418">
        <ele>977.5</ele>
        <time>2021-06-02T10:52:07.000Z</time>
      </trkpt>
      <trkpt lat="44.1003" lon="6.84417">
        <ele>979.4</ele>
        <time>2021-06-02T10:52:28.000Z</time>
      </trkpt>
      <trkpt lat="44.10036" lon="6.84415">
        <ele>982</ele>
        <time>2021-06-02T10:53:49.000Z</time>
      </trkpt>
      <trkpt lat="44.10041" lon="6.84404">
        <ele>966.4</ele>
        <time>2021-06-02T10:54:10.000Z</time>
      </trkpt>
      <trkpt lat="44.10046" lon="6.84406">
        <ele>967.4</ele>
        <time>2021-06-02T10:54:19.000Z</time>
      </trkpt>
      <trkpt lat="44.10042" lon="6.8441">
        <ele>970.8</ele>
        <time>2021-06-02T10:55:12.288Z</time>
      </trkpt>
      <trkpt lat="44.10053" lon="6.84412">
        <ele>969.3</ele>
        <time>2021-06-02T10:55:19.000Z</time>
      </trkpt>
      <trkpt lat="44.10059" lon="6.84412">
        <ele>969.3</ele>
        <time>2021-06-02T10:55:22.193Z</time>
      </trkpt>
      <trkpt lat="44.10066" lon="6.84411">
        <ele>970.8</ele>
        <time>2021-06-02T10:55:25.224Z</time>
      </trkpt>
      <trkpt lat="44.10076" lon="6.84415">
        <ele>969</ele>
        <time>2021-06-02T10:55:29.188Z</time>
      </trkpt>
      <trkpt lat="44.10086" lon="6.84418">
        <ele>968.5</ele>
        <time>2021-06-02T10:55:32.326Z</time>
      </trkpt>
      <trkpt lat="44.10098" lon="6.84419">
        <ele>967.8</ele>
        <time>2021-06-02T10:55:36.209Z</time>
      </trkpt>
      <trkpt lat="44.10105" lon="6.84423">
        <ele>970.9</ele>
        <time>2021-06-02T10:55:40.200Z</time>
      </trkpt>
      <trkpt lat="44.10117" lon="6.84425">
        <ele>969.2</ele>
        <time>2021-06-02T10:55:44.194Z</time>
      </trkpt>
      <trkpt lat="44.10127" lon="6.84428">
        <ele>968.9</ele>
        <time>2021-06-02T10:55:51.273Z</time>
      </trkpt>
      <trkpt lat="44.10133" lon="6.8443">
        <ele>968.7</ele>
        <time>2021-06-02T10:55:54.666Z</time>
      </trkpt>
      <trkpt lat="44.10138" lon="6.84427">
        <ele>964.2</ele>
        <time>2021-06-02T10:55:58.197Z</time>
      </trkpt>
      <trkpt lat="44.10144" lon="6.84424">
        <ele>963.4</ele>
        <time>2021-06-02T10:56:01.211Z</time>
      </trkpt>
      <trkpt lat="44.10152" lon="6.84419">
        <ele>961</ele>
        <time>2021-06-02T10:56:04.983Z</time>
      </trkpt>
      <trkpt lat="44.10156" lon="6.84412">
        <ele>957.6</ele>
        <time>2021-06-02T10:56:08.287Z</time>
      </trkpt>
      <trkpt lat="44.10161" lon="6.84407">
        <ele>956.1</ele>
        <time>2021-06-02T10:56:12.086Z</time>
      </trkpt>
      <trkpt lat="44.10168" lon="6.84398">
        <ele>959.4</ele>
        <time>2021-06-02T10:56:15.091Z</time>
      </trkpt>
      <trkpt lat="44.10174" lon="6.84389">
        <ele>958.8</ele>
        <time>2021-06-02T10:56:18.306Z</time>
      </trkpt>
      <trkpt lat="44.1018" lon="6.84382">
        <ele>960.3</ele>
        <time>2021-06-02T10:56:22.224Z</time>
      </trkpt>
      <trkpt lat="44.10188" lon="6.84375">
        <ele>967.1</ele>
        <time>2021-06-02T10:56:26.174Z</time>
      </trkpt>
      <trkpt lat="44.10195" lon="6.8437">
        <ele>967.5</ele>
        <time>2021-06-02T10:56:29.196Z</time>
      </trkpt>
      <trkpt lat="44.10203" lon="6.84363">
        <ele>971.5</ele>
        <time>2021-06-02T10:56:32.404Z</time>
      </trkpt>
      <trkpt lat="44.10212" lon="6.84363">
        <ele>973.4</ele>
        <time>2021-06-02T10:56:39.206Z</time>
      </trkpt>
      <trkpt lat="44.10217" lon="6.8436">
        <ele>975.4</ele>
        <time>2021-06-02T10:56:48.952Z</time>
      </trkpt>
      <trkpt lat="44.10225" lon="6.84356">
        <ele>973.5</ele>
        <time>2021-06-02T10:56:55.194Z</time>
      </trkpt>
      <trkpt lat="44.10229" lon="6.84349">
        <ele>973.2</ele>
        <time>2021-06-02T10:56:58.205Z</time>
      </trkpt>
      <trkpt lat="44.10243" lon="6.84331">
        <ele>976.2</ele>
        <time>2021-06-02T10:57:04.000Z</time>
      </trkpt>
      <trkpt lat="44.1025" lon="6.84324">
        <ele>979.7</ele>
        <time>2021-06-02T10:57:10.974Z</time>
      </trkpt>
      <trkpt lat="44.10253" lon="6.84313">
        <ele>976.1</ele>
        <time>2021-06-02T10:57:21.318Z</time>
      </trkpt>
      <trkpt lat="44.10256" lon="6.84306">
        <ele>975.1</ele>
        <time>2021-06-02T10:57:24.627Z</time>
      </trkpt>
      <trkpt lat="44.1026" lon="6.843">
        <ele>970.4</ele>
        <time>2021-06-02T10:57:28.201Z</time>
      </trkpt>
      <trkpt lat="44.10266" lon="6.8429">
        <ele>919.3</ele>
        <time>2021-06-02T10:57:32.055Z</time>
      </trkpt>
      <trkpt lat="44.10267" lon="6.84278">
        <ele>945.8</ele>
        <time>2021-06-02T10:57:38.891Z</time>
      </trkpt>
      <trkpt lat="44.10267" lon="6.84269">
        <ele>954.2</ele>
        <time>2021-06-02T10:57:42.626Z</time>
      </trkpt>
      <trkpt lat="44.10266" lon="6.84255">
        <ele>956</ele>
        <time>2021-06-02T10:57:46.191Z</time>
      </trkpt>
      <trkpt lat="44.10266" lon="6.84246">
        <ele>958.3</ele>
        <time>2021-06-02T10:57:49.621Z</time>
      </trkpt>
      <trkpt lat="44.1027" lon="6.84234">
        <ele>963.9</ele>
        <time>2021-06-02T10:57:56.199Z</time>
      </trkpt>
      <trkpt lat="44.10274" lon="6.84226">
        <ele>972</ele>
        <time>2021-06-02T10:58:02.469Z</time>
      </trkpt>
      <trkpt lat="44.10272" lon="6.84216">
        <ele>977.1</ele>
        <time>2021-06-02T10:58:09.565Z</time>
      </trkpt>
      <trkpt lat="44.1027" lon="6.84207">
        <ele>981.3</ele>
        <time>2021-06-02T10:58:19.924Z</time>
      </trkpt>
      <trkpt lat="44.10267" lon="6.842">
        <ele>913.9</ele>
        <time>2021-06-02T10:58:26.850Z</time>
      </trkpt>
      <trkpt lat="44.10265" lon="6.84194">
        <ele>935.1</ele>
        <time>2021-06-02T10:58:29.883Z</time>
      </trkpt>
      <trkpt lat="44.1027" lon="6.8418">
        <ele>961</ele>
        <time>2021-06-02T10:58:36.464Z</time>
      </trkpt>
      <trkpt lat="44.10274" lon="6.8417">
        <ele>963.8</ele>
        <time>2021-06-02T10:58:40.000Z</time>
      </trkpt>
      <trkpt lat="44.10275" lon="6.84163">
        <ele>963.8</ele>
        <time>2021-06-02T10:58:43.193Z</time>
      </trkpt>
      <trkpt lat="44.10279" lon="6.84151">
        <ele>964.5</ele>
        <time>2021-06-02T10:58:46.208Z</time>
      </trkpt>
      <trkpt lat="44.1028" lon="6.84138">
        <ele>958.8</ele>
        <time>2021-06-02T10:58:49.647Z</time>
      </trkpt>
      <trkpt lat="44.10278" lon="6.8413">
        <ele>956.3</ele>
        <time>2021-06-02T10:58:53.210Z</time>
      </trkpt>
      <trkpt lat="44.10273" lon="6.84123">
        <ele>955.5</ele>
        <time>2021-06-02T10:58:56.624Z</time>
      </trkpt>
      <trkpt lat="44.10271" lon="6.84117">
        <ele>953.3</ele>
        <time>2021-06-02T10:59:00.128Z</time>
      </trkpt>
      <trkpt lat="44.10269" lon="6.84111">
        <ele>952.8</ele>
        <time>2021-06-02T10:59:03.199Z</time>
      </trkpt>
      <trkpt lat="44.10268" lon="6.84102">
        <ele>951</ele>
        <time>2021-06-02T10:59:06.293Z</time>
      </trkpt>
      <trkpt lat="44.10267" lon="6.84095">
        <ele>951.1</ele>
        <time>2021-06-02T10:59:09.884Z</time>
      </trkpt>
      <trkpt lat="44.10267" lon="6.84086">
        <ele>954.4</ele>
        <time>2021-06-02T10:59:16.000Z</time>
      </trkpt>
      <trkpt lat="44.10272" lon="6.84081">
        <ele>962.4</ele>
        <time>2021-06-02T10:59:19.149Z</time>
      </trkpt>
      <trkpt lat="44.10277" lon="6.84076">
        <ele>962.6</ele>
        <time>2021-06-02T10:59:23.192Z</time>
      </trkpt>
      <trkpt lat="44.10279" lon="6.84063">
        <ele>967.5</ele>
        <time>2021-06-02T10:59:29.687Z</time>
      </trkpt>
      <trkpt lat="44.10279" lon="6.84055">
        <ele>968</ele>
        <time>2021-06-02T10:59:33.235Z</time>
      </trkpt>
      <trkpt lat="44.10275" lon="6.84049">
        <ele>970.8</ele>
        <time>2021-06-02T10:59:36.464Z</time>
      </trkpt>
      <trkpt lat="44.1027" lon="6.84046">
        <ele>981.8</ele>
        <time>2021-06-02T10:59:40.000Z</time>
      </trkpt>
      <trkpt lat="44.10269" lon="6.84039">
        <ele>986.3</ele>
        <time>2021-06-02T10:59:43.000Z</time>
      </trkpt>
      <trkpt lat="44.10268" lon="6.8403">
        <ele>988.8</ele>
        <time>2021-06-02T10:59:46.369Z</time>
      </trkpt>
      <trkpt lat="44.10266" lon="6.84014">
        <ele>991.1</ele>
        <time>2021-06-02T10:59:50.157Z</time>
      </trkpt>
      <trkpt lat="44.10265" lon="6.84005">
        <ele>992</ele>
        <time>2021-06-02T10:59:56.892Z</time>
      </trkpt>
      <trkpt lat="44.10266" lon="6.83997">
        <ele>992.4</ele>
        <time>2021-06-02T11:00:11.221Z</time>
      </trkpt>
      <trkpt lat="44.10271" lon="6.83994">
        <ele>992.5</ele>
        <time>2021-06-02T11:00:25.000Z</time>
      </trkpt>
      <trkpt lat="44.10272" lon="6.83988">
        <ele>991.7</ele>
        <time>2021-06-02T11:00:37.604Z</time>
      </trkpt>
      <trkpt lat="44.10266" lon="6.83981">
        <ele>992.9</ele>
        <time>2021-06-02T11:00:49.189Z</time>
      </trkpt>
      <trkpt lat="44.1026" lon="6.83977">
        <ele>996.8</ele>
        <time>2021-06-02T11:00:55.669Z</time>
      </trkpt>
      <trkpt lat="44.10254" lon="6.83973">
        <ele>999.2</ele>
        <time>2021-06-02T11:01:04.000Z</time>
      </trkpt>
      <trkpt lat="44.1025" lon="6.83969">
        <ele>1007.9</ele>
        <time>2021-06-02T11:01:19.000Z</time>
      </trkpt>
      <trkpt lat="44.1025" lon="6.83961">
        <ele>1006.8</ele>
        <time>2021-06-02T11:01:34.000Z</time>
      </trkpt>
      <trkpt lat="44.10248" lon="6.83952">
        <ele>1012.4</ele>
        <time>2021-06-02T11:02:26.466Z</time>
      </trkpt>
      <trkpt lat="44.10246" lon="6.83945">
        <ele>1013.3</ele>
        <time>2021-06-02T11:02:29.992Z</time>
      </trkpt>
      <trkpt lat="44.10245" lon="6.83936">
        <ele>1009.4</ele>
        <time>2021-06-02T11:02:34.204Z</time>
      </trkpt>
      <trkpt lat="44.10241" lon="6.8393">
        <ele>1011.1</ele>
        <time>2021-06-02T11:02:37.807Z</time>
      </trkpt>
      <trkpt lat="44.10235" lon="6.83927">
        <ele>1015.4</ele>
        <time>2021-06-02T11:02:41.208Z</time>
      </trkpt>
      <trkpt lat="44.10231" lon="6.83932">
        <ele>1019.7</ele>
        <time>2021-06-02T11:02:48.196Z</time>
      </trkpt>
      <trkpt lat="44.10231" lon="6.83939">
        <ele>1020.2</ele>
        <time>2021-06-02T11:02:51.201Z</time>
      </trkpt>
      <trkpt lat="44.10224" lon="6.83945">
        <ele>1024.6</ele>
        <time>2021-06-02T11:02:57.234Z</time>
      </trkpt>
      <trkpt lat="44.1022" lon="6.83948">
        <ele>1028.5</ele>
        <time>2021-06-02T11:03:01.000Z</time>
      </trkpt>
      <trkpt lat="44.10215" lon="6.83949">
        <ele>1024</ele>
        <time>2021-06-02T11:03:04.346Z</time>
      </trkpt>
      <trkpt lat="44.10209" lon="6.83949">
        <ele>1027.8</ele>
        <time>2021-06-02T11:03:08.284Z</time>
      </trkpt>
      <trkpt lat="44.10204" lon="6.8395">
        <ele>1026.1</ele>
        <time>2021-06-02T11:03:11.570Z</time>
      </trkpt>
      <trkpt lat="44.102" lon="6.83952">
        <ele>1020.5</ele>
        <time>2021-06-02T11:03:15.196Z</time>
      </trkpt>
      <trkpt lat="44.10195" lon="6.83958">
        <ele>1022</ele>
        <time>2021-06-02T11:03:18.892Z</time>
      </trkpt>
      <trkpt lat="44.10186" lon="6.8396">
        <ele>1022.9</ele>
        <time>2021-06-02T11:03:25.195Z</time>
      </trkpt>
      <trkpt lat="44.10185" lon="6.83952">
        <ele>1021.3</ele>
        <time>2021-06-02T11:03:32.509Z</time>
      </trkpt>
      <trkpt lat="44.10188" lon="6.83947">
        <ele>1027.4</ele>
        <time>2021-06-02T11:03:38.860Z</time>
      </trkpt>
      <trkpt lat="44.10181" lon="6.83947">
        <ele>1029.4</ele>
        <time>2021-06-02T11:03:46.206Z</time>
      </trkpt>
      <trkpt lat="44.10176" lon="6.83945">
        <ele>1027.8</ele>
        <time>2021-06-02T11:03:49.341Z</time>
      </trkpt>
      <trkpt lat="44.10172" lon="6.8395">
        <ele>1030.3</ele>
        <time>2021-06-02T11:04:15.225Z</time>
      </trkpt>
      <trkpt lat="44.10167" lon="6.83948">
        <ele>1034.9</ele>
        <time>2021-06-02T11:04:28.396Z</time>
      </trkpt>
      <trkpt lat="44.10162" lon="6.83949">
        <ele>1032.7</ele>
        <time>2021-06-02T11:04:32.296Z</time>
      </trkpt>
      <trkpt lat="44.10155" lon="6.83952">
        <ele>1032.2</ele>
        <time>2021-06-02T11:04:36.255Z</time>
      </trkpt>
      <trkpt lat="44.1015" lon="6.83951">
        <ele>1035.5</ele>
        <time>2021-06-02T11:04:39.389Z</time>
      </trkpt>
      <trkpt lat="44.10145" lon="6.83954">
        <ele>1036.2</ele>
        <time>2021-06-02T11:04:43.195Z</time>
      </trkpt>
      <trkpt lat="44.1014" lon="6.83959">
        <ele>1037.9</ele>
        <time>2021-06-02T11:04:49.207Z</time>
      </trkpt>
      <trkpt lat="44.10133" lon="6.83961">
        <ele>1039.2</ele>
        <time>2021-06-02T11:04:53.229Z</time>
      </trkpt>
      <trkpt lat="44.10128" lon="6.83963">
        <ele>1045.2</ele>
        <time>2021-06-02T11:04:56.624Z</time>
      </trkpt>
      <trkpt lat="44.10123" lon="6.83965">
        <ele>1042.8</ele>
        <time>2021-06-02T11:05:00.543Z</time>
      </trkpt>
      <trkpt lat="44.10121" lon="6.83971">
        <ele>1044.7</ele>
        <time>2021-06-02T11:05:03.630Z</time>
      </trkpt>
      <trkpt lat="44.10122" lon="6.8398">
        <ele>1043.1</ele>
        <time>2021-06-02T11:05:07.191Z</time>
      </trkpt>
      <trkpt lat="44.10121" lon="6.8399">
        <ele>1047.5</ele>
        <time>2021-06-02T11:05:10.604Z</time>
      </trkpt>
      <trkpt lat="44.10122" lon="6.84">
        <ele>1050.2</ele>
        <time>2021-06-02T11:05:13.753Z</time>
      </trkpt>
      <trkpt lat="44.1012" lon="6.84009">
        <ele>1050.1</ele>
        <time>2021-06-02T11:05:17.203Z</time>
      </trkpt>
      <trkpt lat="44.10119" lon="6.84018">
        <ele>1051.6</ele>
        <time>2021-06-02T11:05:20.570Z</time>
      </trkpt>
      <trkpt lat="44.10118" lon="6.84027">
        <ele>1053.3</ele>
        <time>2021-06-02T11:05:23.865Z</time>
      </trkpt>
      <trkpt lat="44.10119" lon="6.84034">
        <ele>1051.2</ele>
        <time>2021-06-02T11:05:27.196Z</time>
      </trkpt>
      <trkpt lat="44.10121" lon="6.84043">
        <ele>1053.2</ele>
        <time>2021-06-02T11:05:30.487Z</time>
      </trkpt>
      <trkpt lat="44.1012" lon="6.84053">
        <ele>1052.9</ele>
        <time>2021-06-02T11:05:33.966Z</time>
      </trkpt>
      <trkpt lat="44.10121" lon="6.84061">
        <ele>1054.3</ele>
        <time>2021-06-02T11:05:37.196Z</time>
      </trkpt>
      <trkpt lat="44.10122" lon="6.84069">
        <ele>1056.1</ele>
        <time>2021-06-02T11:05:40.313Z</time>
      </trkpt>
      <trkpt lat="44.10122" lon="6.84081">
        <ele>1058.2</ele>
        <time>2021-06-02T11:05:44.144Z</time>
      </trkpt>
      <trkpt lat="44.10123" lon="6.84095">
        <ele>1062.5</ele>
        <time>2021-06-02T11:05:50.412Z</time>
      </trkpt>
      <trkpt lat="44.10125" lon="6.84103">
        <ele>1066.8</ele>
        <time>2021-06-02T11:05:57.951Z</time>
      </trkpt>
      <trkpt lat="44.10126" lon="6.8411">
        <ele>1068.9</ele>
        <time>2021-06-02T11:06:01.000Z</time>
      </trkpt>
      <trkpt lat="44.10127" lon="6.84122">
        <ele>1061.3</ele>
        <time>2021-06-02T11:06:08.197Z</time>
      </trkpt>
      <trkpt lat="44.10128" lon="6.84129">
        <ele>1061.6</ele>
        <time>2021-06-02T11:06:12.208Z</time>
      </trkpt>
      <trkpt lat="44.10126" lon="6.84136">
        <ele>1060.8</ele>
        <time>2021-06-02T11:06:15.467Z</time>
      </trkpt>
      <trkpt lat="44.10127" lon="6.84142">
        <ele>1059</ele>
        <time>2021-06-02T11:06:18.860Z</time>
      </trkpt>
      <trkpt lat="44.10126" lon="6.8415">
        <ele>1062.3</ele>
        <time>2021-06-02T11:06:22.205Z</time>
      </trkpt>
      <trkpt lat="44.10126" lon="6.84158">
        <ele>1064</ele>
        <time>2021-06-02T11:06:26.209Z</time>
      </trkpt>
      <trkpt lat="44.10132" lon="6.84165">
        <ele>1060</ele>
        <time>2021-06-02T11:06:29.622Z</time>
      </trkpt>
      <trkpt lat="44.10135" lon="6.84171">
        <ele>1063.3</ele>
        <time>2021-06-02T11:06:32.788Z</time>
      </trkpt>
      <trkpt lat="44.10136" lon="6.8418">
        <ele>1061.8</ele>
        <time>2021-06-02T11:06:36.209Z</time>
      </trkpt>
      <trkpt lat="44.10134" lon="6.84187">
        <ele>1063.3</ele>
        <time>2021-06-02T11:06:39.329Z</time>
      </trkpt>
      <trkpt lat="44.10133" lon="6.84193">
        <ele>1065.9</ele>
        <time>2021-06-02T11:06:43.206Z</time>
      </trkpt>
      <trkpt lat="44.10134" lon="6.84209">
        <ele>1065.9</ele>
        <time>2021-06-02T11:06:49.732Z</time>
      </trkpt>
      <trkpt lat="44.10135" lon="6.84215">
        <ele>1068.2</ele>
        <time>2021-06-02T11:06:59.292Z</time>
      </trkpt>
      <trkpt lat="44.10132" lon="6.84223">
        <ele>1067.7</ele>
        <time>2021-06-02T11:07:16.000Z</time>
      </trkpt>
      <trkpt lat="44.10131" lon="6.8423">
        <ele>1070.2</ele>
        <time>2021-06-02T11:08:56.208Z</time>
      </trkpt>
      <trkpt lat="44.10131" lon="6.84237">
        <ele>1066.5</ele>
        <time>2021-06-02T11:09:10.198Z</time>
      </trkpt>
      <trkpt lat="44.10125" lon="6.84231">
        <ele>1068.7</ele>
        <time>2021-06-02T11:09:13.530Z</time>
      </trkpt>
      <trkpt lat="44.1012" lon="6.84225">
        <ele>1068.4</ele>
        <time>2021-06-02T11:09:16.826Z</time>
      </trkpt>
      <trkpt lat="44.10119" lon="6.84219">
        <ele>1070.6</ele>
        <time>2021-06-02T11:09:20.196Z</time>
      </trkpt>
      <trkpt lat="44.10117" lon="6.84207">
        <ele>1074.5</ele>
        <time>2021-06-02T11:09:23.834Z</time>
      </trkpt>
      <trkpt lat="44.10114" lon="6.84201">
        <ele>1077.2</ele>
        <time>2021-06-02T11:09:31.000Z</time>
      </trkpt>
      <trkpt lat="44.10112" lon="6.84194">
        <ele>1007.8</ele>
        <time>2021-06-02T11:09:37.493Z</time>
      </trkpt>
      <trkpt lat="44.10104" lon="6.84186">
        <ele>1063.4</ele>
        <time>2021-06-02T11:09:45.179Z</time>
      </trkpt>
      <trkpt lat="44.10101" lon="6.84181">
        <ele>1068.6</ele>
        <time>2021-06-02T11:09:48.188Z</time>
      </trkpt>
      <trkpt lat="44.10096" lon="6.84171">
        <ele>1068.9</ele>
        <time>2021-06-02T11:09:54.930Z</time>
      </trkpt>
      <trkpt lat="44.10094" lon="6.84166">
        <ele>1071.3</ele>
        <time>2021-06-02T11:09:58.000Z</time>
      </trkpt>
      <trkpt lat="44.10084" lon="6.8416">
        <ele>1079.5</ele>
        <time>2021-06-02T11:10:05.191Z</time>
      </trkpt>
      <trkpt lat="44.10081" lon="6.84154">
        <ele>1091</ele>
        <time>2021-06-02T11:10:19.000Z</time>
      </trkpt>
      <trkpt lat="44.10075" lon="6.84149">
        <ele>1098.9</ele>
        <time>2021-06-02T11:10:31.000Z</time>
      </trkpt>
      <trkpt lat="44.10072" lon="6.84142">
        <ele>1099.5</ele>
        <time>2021-06-02T11:10:40.892Z</time>
      </trkpt>
      <trkpt lat="44.10069" lon="6.8413">
        <ele>1098.9</ele>
        <time>2021-06-02T11:10:47.784Z</time>
      </trkpt>
      <trkpt lat="44.10066" lon="6.84124">
        <ele>1102.6</ele>
        <time>2021-06-02T11:10:53.971Z</time>
      </trkpt>
      <trkpt lat="44.10063" lon="6.84118">
        <ele>1101</ele>
        <time>2021-06-02T11:11:02.023Z</time>
      </trkpt>
      <trkpt lat="44.10059" lon="6.8411">
        <ele>1100.7</ele>
        <time>2021-06-02T11:11:08.832Z</time>
      </trkpt>
      <trkpt lat="44.10055" lon="6.841">
        <ele>1103.8</ele>
        <time>2021-06-02T11:11:15.208Z</time>
      </trkpt>
      <trkpt lat="44.10053" lon="6.84093">
        <ele>1102.8</ele>
        <time>2021-06-02T11:11:18.721Z</time>
      </trkpt>
      <trkpt lat="44.10049" lon="6.84084">
        <ele>1103.1</ele>
        <time>2021-06-02T11:11:22.000Z</time>
      </trkpt>
      <trkpt lat="44.10047" lon="6.84072">
        <ele>1101.8</ele>
        <time>2021-06-02T11:11:25.000Z</time>
      </trkpt>
      <trkpt lat="44.10043" lon="6.84061">
        <ele>1041.5</ele>
        <time>2021-06-02T11:11:28.408Z</time>
      </trkpt>
      <trkpt lat="44.10038" lon="6.84058">
        <ele>1066</ele>
        <time>2021-06-02T11:11:31.524Z</time>
      </trkpt>
      <trkpt lat="44.10032" lon="6.84051">
        <ele>1080.5</ele>
        <time>2021-06-02T11:11:35.191Z</time>
      </trkpt>
      <trkpt lat="44.1003" lon="6.84043">
        <ele>1090.4</ele>
        <time>2021-06-02T11:11:38.553Z</time>
      </trkpt>
      <trkpt lat="44.10025" lon="6.84033">
        <ele>1099.2</ele>
        <time>2021-06-02T11:11:45.229Z</time>
      </trkpt>
      <trkpt lat="44.10027" lon="6.84027">
        <ele>1106.4</ele>
        <time>2021-06-02T11:11:49.000Z</time>
      </trkpt>
      <trkpt lat="44.10023" lon="6.84017">
        <ele>1106.1</ele>
        <time>2021-06-02T11:11:55.770Z</time>
      </trkpt>
      <trkpt lat="44.10022" lon="6.84008">
        <ele>1103.4</ele>
        <time>2021-06-02T11:11:58.805Z</time>
      </trkpt>
      <trkpt lat="44.10021" lon="6.84001">
        <ele>1098.4</ele>
        <time>2021-06-02T11:12:02.181Z</time>
      </trkpt>
      <trkpt lat="44.10022" lon="6.83995">
        <ele>1101.7</ele>
        <time>2021-06-02T11:12:05.203Z</time>
      </trkpt>
      <trkpt lat="44.10027" lon="6.83984">
        <ele>1099.1</ele>
        <time>2021-06-02T11:12:11.834Z</time>
      </trkpt>
      <trkpt lat="44.10028" lon="6.83973">
        <ele>1102.6</ele>
        <time>2021-06-02T11:12:15.203Z</time>
      </trkpt>
      <trkpt lat="44.10026" lon="6.83961">
        <ele>1104.5</ele>
        <time>2021-06-02T11:12:18.731Z</time>
      </trkpt>
      <trkpt lat="44.10022" lon="6.83953">
        <ele>1101.9</ele>
        <time>2021-06-02T11:12:21.874Z</time>
      </trkpt>
      <trkpt lat="44.10019" lon="6.83944">
        <ele>1105</ele>
        <time>2021-06-02T11:12:25.210Z</time>
      </trkpt>
      <trkpt lat="44.10017" lon="6.83933">
        <ele>1105.4</ele>
        <time>2021-06-02T11:12:28.789Z</time>
      </trkpt>
      <trkpt lat="44.10016" lon="6.83924">
        <ele>1104.1</ele>
        <time>2021-06-02T11:12:32.266Z</time>
      </trkpt>
      <trkpt lat="44.10015" lon="6.83914">
        <ele>1111.3</ele>
        <time>2021-06-02T11:12:36.144Z</time>
      </trkpt>
      <trkpt lat="44.10015" lon="6.83906">
        <ele>1107.5</ele>
        <time>2021-06-02T11:12:39.370Z</time>
      </trkpt>
      <trkpt lat="44.10016" lon="6.83897">
        <ele>1105.2</ele>
        <time>2021-06-02T11:12:42.734Z</time>
      </trkpt>
      <trkpt lat="44.10017" lon="6.8389">
        <ele>1105.1</ele>
        <time>2021-06-02T11:12:46.046Z</time>
      </trkpt>
      <trkpt lat="44.10017" lon="6.83881">
        <ele>1102.7</ele>
        <time>2021-06-02T11:12:49.619Z</time>
      </trkpt>
      <trkpt lat="44.10021" lon="6.83871">
        <ele>1102.2</ele>
        <time>2021-06-02T11:12:54.071Z</time>
      </trkpt>
      <trkpt lat="44.10023" lon="6.83864">
        <ele>1104.8</ele>
        <time>2021-06-02T11:12:57.591Z</time>
      </trkpt>
      <trkpt lat="44.10026" lon="6.83856">
        <ele>1107</ele>
        <time>2021-06-02T11:13:01.211Z</time>
      </trkpt>
      <trkpt lat="44.10027" lon="6.83847">
        <ele>1107.5</ele>
        <time>2021-06-02T11:13:04.530Z</time>
      </trkpt>
      <trkpt lat="44.10027" lon="6.83839">
        <ele>1107.7</ele>
        <time>2021-06-02T11:13:07.607Z</time>
      </trkpt>
      <trkpt lat="44.10029" lon="6.8383">
        <ele>1114.6</ele>
        <time>2021-06-02T11:13:11.201Z</time>
      </trkpt>
      <trkpt lat="44.10031" lon="6.83819">
        <ele>1114.7</ele>
        <time>2021-06-02T11:13:15.204Z</time>
      </trkpt>
      <trkpt lat="44.10033" lon="6.83811">
        <ele>1118.1</ele>
        <time>2021-06-02T11:13:18.226Z</time>
      </trkpt>
      <trkpt lat="44.10032" lon="6.83802">
        <ele>1119</ele>
        <time>2021-06-02T11:13:21.742Z</time>
      </trkpt>
      <trkpt lat="44.10038" lon="6.83788">
        <ele>1123.4</ele>
        <time>2021-06-02T11:13:28.929Z</time>
      </trkpt>
      <trkpt lat="44.10042" lon="6.83781">
        <ele>1124.1</ele>
        <time>2021-06-02T11:13:31.942Z</time>
      </trkpt>
      <trkpt lat="44.10046" lon="6.83775">
        <ele>1121.9</ele>
        <time>2021-06-02T11:13:35.214Z</time>
      </trkpt>
      <trkpt lat="44.10049" lon="6.83766">
        <ele>1120.3</ele>
        <time>2021-06-02T11:13:38.486Z</time>
      </trkpt>
      <trkpt lat="44.10053" lon="6.83754">
        <ele>1120.6</ele>
        <time>2021-06-02T11:13:42.098Z</time>
      </trkpt>
      <trkpt lat="44.10056" lon="6.83744">
        <ele>1122.5</ele>
        <time>2021-06-02T11:13:45.181Z</time>
      </trkpt>
      <trkpt lat="44.10056" lon="6.83733">
        <ele>1120.8</ele>
        <time>2021-06-02T11:13:48.784Z</time>
      </trkpt>
      <trkpt lat="44.10056" lon="6.83723">
        <ele>1129.4</ele>
        <time>2021-06-02T11:13:52.000Z</time>
      </trkpt>
      <trkpt lat="44.1006" lon="6.83717">
        <ele>1129.4</ele>
        <time>2021-06-02T11:13:55.192Z</time>
      </trkpt>
      <trkpt lat="44.10062" lon="6.8371">
        <ele>1130.2</ele>
        <time>2021-06-02T11:13:58.201Z</time>
      </trkpt>
      <trkpt lat="44.10065" lon="6.83704">
        <ele>1132.5</ele>
        <time>2021-06-02T11:14:01.206Z</time>
      </trkpt>
      <trkpt lat="44.10068" lon="6.83691">
        <ele>1135.2</ele>
        <time>2021-06-02T11:14:05.442Z</time>
      </trkpt>
      <trkpt lat="44.10074" lon="6.83673">
        <ele>1136.8</ele>
        <time>2021-06-02T11:14:09.208Z</time>
      </trkpt>
      <trkpt lat="44.10079" lon="6.83665">
        <ele>1136.3</ele>
        <time>2021-06-02T11:14:12.710Z</time>
      </trkpt>
      <trkpt lat="44.10082" lon="6.83659">
        <ele>1138.7</ele>
        <time>2021-06-02T11:14:15.768Z</time>
      </trkpt>
      <trkpt lat="44.10085" lon="6.83654">
        <ele>1135.8</ele>
        <time>2021-06-02T11:14:19.206Z</time>
      </trkpt>
      <trkpt lat="44.10088" lon="6.83647">
        <ele>1133.4</ele>
        <time>2021-06-02T11:14:22.490Z</time>
      </trkpt>
      <trkpt lat="44.10092" lon="6.83639">
        <ele>1137.3</ele>
        <time>2021-06-02T11:14:26.089Z</time>
      </trkpt>
      <trkpt lat="44.10096" lon="6.83631">
        <ele>1432.7</ele>
        <time>2021-06-02T11:14:29.203Z</time>
      </trkpt>
      <trkpt lat="44.10099" lon="6.83622">
        <ele>1356.6</ele>
        <time>2021-06-02T11:14:32.586Z</time>
      </trkpt>
      <trkpt lat="44.101" lon="6.83612">
        <ele>1275.2</ele>
        <time>2021-06-02T11:14:36.230Z</time>
      </trkpt>
      <trkpt lat="44.10096" lon="6.83599">
        <ele>1217</ele>
        <time>2021-06-02T11:14:39.929Z</time>
      </trkpt>
      <trkpt lat="44.10091" lon="6.8359">
        <ele>1184.2</ele>
        <time>2021-06-02T11:14:43.111Z</time>
      </trkpt>
      <trkpt lat="44.10088" lon="6.83582">
        <ele>1155.7</ele>
        <time>2021-06-02T11:14:46.364Z</time>
      </trkpt>
      <trkpt lat="44.10086" lon="6.83574">
        <ele>1132.8</ele>
        <time>2021-06-02T11:14:49.703Z</time>
      </trkpt>
      <trkpt lat="44.10082" lon="6.83561">
        <ele>1132.5</ele>
        <time>2021-06-02T11:14:53.080Z</time>
      </trkpt>
      <trkpt lat="44.1008" lon="6.83549">
        <ele>1130.2</ele>
        <time>2021-06-02T11:14:56.388Z</time>
      </trkpt>
      <trkpt lat="44.10074" lon="6.83541">
        <ele>1128.7</ele>
        <time>2021-06-02T11:15:00.190Z</time>
      </trkpt>
      <trkpt lat="44.10063" lon="6.83526">
        <ele>1128.2</ele>
        <time>2021-06-02T11:15:04.000Z</time>
      </trkpt>
      <trkpt lat="44.10057" lon="6.83522">
        <ele>1122.4</ele>
        <time>2021-06-02T11:15:10.829Z</time>
      </trkpt>
      <trkpt lat="44.10043" lon="6.83513">
        <ele>1125.8</ele>
        <time>2021-06-02T11:15:14.260Z</time>
      </trkpt>
      <trkpt lat="44.1004" lon="6.83499">
        <ele>1126.6</ele>
        <time>2021-06-02T11:15:18.519Z</time>
      </trkpt>
      <trkpt lat="44.1004" lon="6.83484">
        <ele>1131.1</ele>
        <time>2021-06-02T11:15:22.209Z</time>
      </trkpt>
      <trkpt lat="44.10037" lon="6.83468">
        <ele>1128.9</ele>
        <time>2021-06-02T11:15:25.870Z</time>
      </trkpt>
      <trkpt lat="44.10033" lon="6.83461">
        <ele>1131.2</ele>
        <time>2021-06-02T11:15:29.095Z</time>
      </trkpt>
      <trkpt lat="44.10029" lon="6.83452">
        <ele>1131.2</ele>
        <time>2021-06-02T11:15:32.191Z</time>
      </trkpt>
      <trkpt lat="44.10026" lon="6.83443">
        <ele>1129.3</ele>
        <time>2021-06-02T11:15:35.709Z</time>
      </trkpt>
      <trkpt lat="44.10023" lon="6.83432">
        <ele>1127.6</ele>
        <time>2021-06-02T11:15:38.851Z</time>
      </trkpt>
      <trkpt lat="44.10019" lon="6.83423">
        <ele>1129.4</ele>
        <time>2021-06-02T11:15:42.204Z</time>
      </trkpt>
      <trkpt lat="44.10017" lon="6.83413">
        <ele>1129.2</ele>
        <time>2021-06-02T11:15:45.272Z</time>
      </trkpt>
      <trkpt lat="44.10013" lon="6.83403">
        <ele>1126.8</ele>
        <time>2021-06-02T11:15:49.132Z</time>
      </trkpt>
      <trkpt lat="44.1001" lon="6.83396">
        <ele>1124.6</ele>
        <time>2021-06-02T11:15:52.220Z</time>
      </trkpt>
      <trkpt lat="44.10004" lon="6.83381">
        <ele>1126.2</ele>
        <time>2021-06-02T11:15:55.876Z</time>
      </trkpt>
      <trkpt lat="44.10001" lon="6.83371">
        <ele>1123.7</ele>
        <time>2021-06-02T11:15:59.052Z</time>
      </trkpt>
      <trkpt lat="44.09999" lon="6.83356">
        <ele>1123.7</ele>
        <time>2021-06-02T11:16:02.274Z</time>
      </trkpt>
      <trkpt lat="44.09997" lon="6.83343">
        <ele>1126</ele>
        <time>2021-06-02T11:16:05.980Z</time>
      </trkpt>
      <trkpt lat="44.09997" lon="6.83334">
        <ele>1126.4</ele>
        <time>2021-06-02T11:16:09.187Z</time>
      </trkpt>
      <trkpt lat="44.09995" lon="6.83325">
        <ele>1130.4</ele>
        <time>2021-06-02T11:16:12.208Z</time>
      </trkpt>
      <trkpt lat="44.0999" lon="6.83313">
        <ele>1132.5</ele>
        <time>2021-06-02T11:16:15.628Z</time>
      </trkpt>
      <trkpt lat="44.09987" lon="6.83301">
        <ele>1137.1</ele>
        <time>2021-06-02T11:16:19.136Z</time>
      </trkpt>
      <trkpt lat="44.09986" lon="6.83291">
        <ele>1140.4</ele>
        <time>2021-06-02T11:16:22.195Z</time>
      </trkpt>
      <trkpt lat="44.09987" lon="6.83282">
        <ele>1142.5</ele>
        <time>2021-06-02T11:16:25.213Z</time>
      </trkpt>
      <trkpt lat="44.09991" lon="6.83272">
        <ele>1143.9</ele>
        <time>2021-06-02T11:16:28.979Z</time>
      </trkpt>
      <trkpt lat="44.09982" lon="6.83256">
        <ele>1145.1</ele>
        <time>2021-06-02T11:16:35.679Z</time>
      </trkpt>
      <trkpt lat="44.09976" lon="6.83249">
        <ele>1148.5</ele>
        <time>2021-06-02T11:16:39.030Z</time>
      </trkpt>
      <trkpt lat="44.09968" lon="6.83245">
        <ele>1157</ele>
        <time>2021-06-02T11:16:45.451Z</time>
      </trkpt>
      <trkpt lat="44.09964" lon="6.83237">
        <ele>1166.4</ele>
        <time>2021-06-02T11:16:52.209Z</time>
      </trkpt>
      <trkpt lat="44.09961" lon="6.83231">
        <ele>1169.4</ele>
        <time>2021-06-02T11:17:04.000Z</time>
      </trkpt>
      <trkpt lat="44.09952" lon="6.83219">
        <ele>1169.8</ele>
        <time>2021-06-02T11:17:19.000Z</time>
      </trkpt>
      <trkpt lat="44.09948" lon="6.83211">
        <ele>1169.1</ele>
        <time>2021-06-02T11:17:43.997Z</time>
      </trkpt>
      <trkpt lat="44.09944" lon="6.83213">
        <ele>1173.7</ele>
        <time>2021-06-02T11:17:49.000Z</time>
      </trkpt>
      <trkpt lat="44.09939" lon="6.83215">
        <ele>1170.2</ele>
        <time>2021-06-02T11:17:52.000Z</time>
      </trkpt>
      <trkpt lat="44.09932" lon="6.83213">
        <ele>1165.4</ele>
        <time>2021-06-02T11:18:04.000Z</time>
      </trkpt>
      <trkpt lat="44.09925" lon="6.83211">
        <ele>1167.2</ele>
        <time>2021-06-02T11:18:13.000Z</time>
      </trkpt>
      <trkpt lat="44.09922" lon="6.83221">
        <ele>1168.9</ele>
        <time>2021-06-02T11:19:26.593Z</time>
      </trkpt>
      <trkpt lat="44.09925" lon="6.83232">
        <ele>1167.3</ele>
        <time>2021-06-02T11:19:30.220Z</time>
      </trkpt>
      <trkpt lat="44.09926" lon="6.83243">
        <ele>1166.2</ele>
        <time>2021-06-02T11:19:34.000Z</time>
      </trkpt>
      <trkpt lat="44.09926" lon="6.83249">
        <ele>1161.4</ele>
        <time>2021-06-02T11:19:37.000Z</time>
      </trkpt>
      <trkpt lat="44.0993" lon="6.83256">
        <ele>1164.3</ele>
        <time>2021-06-02T11:19:40.000Z</time>
      </trkpt>
      <trkpt lat="44.09935" lon="6.83263">
        <ele>1165</ele>
        <time>2021-06-02T11:19:43.000Z</time>
      </trkpt>
      <trkpt lat="44.09951" lon="6.83249">
        <ele>1169.5</ele>
        <time>2021-06-02T11:19:55.000Z</time>
      </trkpt>
      <trkpt lat="44.09947" lon="6.83258">
        <ele>1166.2</ele>
        <time>2021-06-02T11:19:58.000Z</time>
      </trkpt>
      <trkpt lat="44.09948" lon="6.8327">
        <ele>1171.5</ele>
        <time>2021-06-02T11:20:02.061Z</time>
      </trkpt>
      <trkpt lat="44.09947" lon="6.83282">
        <ele>1166.8</ele>
        <time>2021-06-02T11:20:05.289Z</time>
      </trkpt>
      <trkpt lat="44.0994" lon="6.83303">
        <ele>1161.8</ele>
        <time>2021-06-02T11:20:10.198Z</time>
      </trkpt>
      <trkpt lat="44.09935" lon="6.83312">
        <ele>1162.1</ele>
        <time>2021-06-02T11:20:13.215Z</time>
      </trkpt>
      <trkpt lat="44.0993" lon="6.83319">
        <ele>1161.6</ele>
        <time>2021-06-02T11:20:16.239Z</time>
      </trkpt>
      <trkpt lat="44.09923" lon="6.83327">
        <ele>1164.7</ele>
        <time>2021-06-02T11:20:20.236Z</time>
      </trkpt>
      <trkpt lat="44.09928" lon="6.83335">
        <ele>1170.4</ele>
        <time>2021-06-02T11:20:31.115Z</time>
      </trkpt>
      <trkpt lat="44.0993" lon="6.83343">
        <ele>1169.2</ele>
        <time>2021-06-02T11:20:34.000Z</time>
      </trkpt>
      <trkpt lat="44.09934" lon="6.83354">
        <ele>1169.2</ele>
        <time>2021-06-02T11:20:37.194Z</time>
      </trkpt>
      <trkpt lat="44.09939" lon="6.83363">
        <ele>1172.7</ele>
        <time>2021-06-02T11:20:40.204Z</time>
      </trkpt>
      <trkpt lat="44.09945" lon="6.83373">
        <ele>1171.5</ele>
        <time>2021-06-02T11:20:44.204Z</time>
      </trkpt>
      <trkpt lat="44.0995" lon="6.83385">
        <ele>1169.8</ele>
        <time>2021-06-02T11:20:47.290Z</time>
      </trkpt>
      <trkpt lat="44.0995" lon="6.83392">
        <ele>1168.8</ele>
        <time>2021-06-02T11:20:50.969Z</time>
      </trkpt>
      <trkpt lat="44.09954" lon="6.83394">
        <ele>1169.5</ele>
        <time>2021-06-02T11:20:59.209Z</time>
      </trkpt>
      <trkpt lat="44.09956" lon="6.83388">
        <ele>1167.5</ele>
        <time>2021-06-02T11:21:20.311Z</time>
      </trkpt>
      <trkpt lat="44.09958" lon="6.8338">
        <ele>1168.8</ele>
        <time>2021-06-02T11:21:57.570Z</time>
      </trkpt>
      <trkpt lat="44.0995" lon="6.83376">
        <ele>1171.7</ele>
        <time>2021-06-02T11:22:01.085Z</time>
      </trkpt>
      <trkpt lat="44.09945" lon="6.83376">
        <ele>1170.4</ele>
        <time>2021-06-02T11:22:04.193Z</time>
      </trkpt>
      <trkpt lat="44.09938" lon="6.83376">
        <ele>1171.2</ele>
        <time>2021-06-02T11:22:07.632Z</time>
      </trkpt>
      <trkpt lat="44.09932" lon="6.83372">
        <ele>1169.4</ele>
        <time>2021-06-02T11:22:11.222Z</time>
      </trkpt>
      <trkpt lat="44.09925" lon="6.8337">
        <ele>1170.3</ele>
        <time>2021-06-02T11:22:15.212Z</time>
      </trkpt>
      <trkpt lat="44.09922" lon="6.83365">
        <ele>1171.9</ele>
        <time>2021-06-02T11:22:19.204Z</time>
      </trkpt>
      <trkpt lat="44.09921" lon="6.83358">
        <ele>1170.9</ele>
        <time>2021-06-02T11:22:22.204Z</time>
      </trkpt>
      <trkpt lat="44.09916" lon="6.8335">
        <ele>1171.8</ele>
        <time>2021-06-02T11:22:26.199Z</time>
      </trkpt>
      <trkpt lat="44.09909" lon="6.83345">
        <ele>1174.4</ele>
        <time>2021-06-02T11:22:29.665Z</time>
      </trkpt>
      <trkpt lat="44.09907" lon="6.83338">
        <ele>1175.7</ele>
        <time>2021-06-02T11:22:32.896Z</time>
      </trkpt>
      <trkpt lat="44.09901" lon="6.83325">
        <ele>1173.6</ele>
        <time>2021-06-02T11:22:39.630Z</time>
      </trkpt>
      <trkpt lat="44.09899" lon="6.8332">
        <ele>1175</ele>
        <time>2021-06-02T11:22:43.000Z</time>
      </trkpt>
      <trkpt lat="44.0989" lon="6.83316">
        <ele>1176.4</ele>
        <time>2021-06-02T11:22:50.055Z</time>
      </trkpt>
      <trkpt lat="44.09884" lon="6.83322">
        <ele>1177.2</ele>
        <time>2021-06-02T11:22:56.210Z</time>
      </trkpt>
      <trkpt lat="44.09879" lon="6.83328">
        <ele>1180.2</ele>
        <time>2021-06-02T11:22:59.671Z</time>
      </trkpt>
      <trkpt lat="44.09872" lon="6.83331">
        <ele>1181.5</ele>
        <time>2021-06-02T11:23:03.135Z</time>
      </trkpt>
      <trkpt lat="44.09864" lon="6.83331">
        <ele>1178.1</ele>
        <time>2021-06-02T11:23:06.203Z</time>
      </trkpt>
      <trkpt lat="44.0986" lon="6.83323">
        <ele>1182.7</ele>
        <time>2021-06-02T11:23:10.199Z</time>
      </trkpt>
      <trkpt lat="44.09856" lon="6.83317">
        <ele>1187.1</ele>
        <time>2021-06-02T11:23:13.874Z</time>
      </trkpt>
      <trkpt lat="44.09852" lon="6.8331">
        <ele>1186.7</ele>
        <time>2021-06-02T11:23:21.209Z</time>
      </trkpt>
      <trkpt lat="44.09847" lon="6.83299">
        <ele>1186.6</ele>
        <time>2021-06-02T11:23:27.518Z</time>
      </trkpt>
      <trkpt lat="44.09843" lon="6.83291">
        <ele>1187</ele>
        <time>2021-06-02T11:23:31.212Z</time>
      </trkpt>
      <trkpt lat="44.09836" lon="6.83288">
        <ele>1192.9</ele>
        <time>2021-06-02T11:23:34.292Z</time>
      </trkpt>
      <trkpt lat="44.09831" lon="6.83285">
        <ele>1189.5</ele>
        <time>2021-06-02T11:23:37.870Z</time>
      </trkpt>
      <trkpt lat="44.09824" lon="6.83282">
        <ele>1195.1</ele>
        <time>2021-06-02T11:23:41.213Z</time>
      </trkpt>
      <trkpt lat="44.09817" lon="6.83282">
        <ele>1194.3</ele>
        <time>2021-06-02T11:23:44.845Z</time>
      </trkpt>
      <trkpt lat="44.09812" lon="6.83285">
        <ele>1192.2</ele>
        <time>2021-06-02T11:23:48.311Z</time>
      </trkpt>
      <trkpt lat="44.09812" lon="6.83298">
        <ele>1197.3</ele>
        <time>2021-06-02T11:23:52.000Z</time>
      </trkpt>
      <trkpt lat="44.09814" lon="6.83312">
        <ele>1208.9</ele>
        <time>2021-06-02T11:23:58.348Z</time>
      </trkpt>
      <trkpt lat="44.09812" lon="6.8332">
        <ele>1211.9</ele>
        <time>2021-06-02T11:24:02.064Z</time>
      </trkpt>
      <trkpt lat="44.09804" lon="6.83324">
        <ele>1212.3</ele>
        <time>2021-06-02T11:24:08.255Z</time>
      </trkpt>
      <trkpt lat="44.09798" lon="6.83327">
        <ele>1211.2</ele>
        <time>2021-06-02T11:24:12.206Z</time>
      </trkpt>
      <trkpt lat="44.09792" lon="6.83325">
        <ele>1209.5</ele>
        <time>2021-06-02T11:24:15.476Z</time>
      </trkpt>
      <trkpt lat="44.09785" lon="6.83324">
        <ele>1209.7</ele>
        <time>2021-06-02T11:24:19.000Z</time>
      </trkpt>
      <trkpt lat="44.09779" lon="6.8332">
        <ele>1209.7</ele>
        <time>2021-06-02T11:24:22.195Z</time>
      </trkpt>
      <trkpt lat="44.09774" lon="6.83315">
        <ele>1211.5</ele>
        <time>2021-06-02T11:24:25.307Z</time>
      </trkpt>
      <trkpt lat="44.0977" lon="6.83312">
        <ele>1216.1</ele>
        <time>2021-06-02T11:24:28.552Z</time>
      </trkpt>
      <trkpt lat="44.09773" lon="6.83304">
        <ele>1225.4</ele>
        <time>2021-06-02T11:24:57.207Z</time>
      </trkpt>
      <trkpt lat="44.09767" lon="6.83297">
        <ele>1224.9</ele>
        <time>2021-06-02T11:25:04.060Z</time>
      </trkpt>
      <trkpt lat="44.09762" lon="6.83299">
        <ele>1226.7</ele>
        <time>2021-06-02T11:25:07.192Z</time>
      </trkpt>
      <trkpt lat="44.09758" lon="6.83306">
        <ele>1231.3</ele>
        <time>2021-06-02T11:25:10.721Z</time>
      </trkpt>
      <trkpt lat="44.09757" lon="6.83315">
        <ele>1233</ele>
        <time>2021-06-02T11:25:14.531Z</time>
      </trkpt>
      <trkpt lat="44.09755" lon="6.83321">
        <ele>1233.1</ele>
        <time>2021-06-02T11:25:18.050Z</time>
      </trkpt>
      <trkpt lat="44.0975" lon="6.83324">
        <ele>1234.2</ele>
        <time>2021-06-02T11:25:21.203Z</time>
      </trkpt>
      <trkpt lat="44.09743" lon="6.83328">
        <ele>1231.1</ele>
        <time>2021-06-02T11:25:24.567Z</time>
      </trkpt>
      <trkpt lat="44.09739" lon="6.83326">
        <ele>1232.5</ele>
        <time>2021-06-02T11:25:28.197Z</time>
      </trkpt>
      <trkpt lat="44.09736" lon="6.83319">
        <ele>1236.7</ele>
        <time>2021-06-02T11:25:34.831Z</time>
      </trkpt>
      <trkpt lat="44.0973" lon="6.83318">
        <ele>1249.6</ele>
        <time>2021-06-02T11:26:04.732Z</time>
      </trkpt>
      <trkpt lat="44.09729" lon="6.83327">
        <ele>1256.8</ele>
        <time>2021-06-02T11:26:12.190Z</time>
      </trkpt>
      <trkpt lat="44.09722" lon="6.83331">
        <ele>1258.7</ele>
        <time>2021-06-02T11:26:18.352Z</time>
      </trkpt>
      <trkpt lat="44.09714" lon="6.83322">
        <ele>1297.3</ele>
        <time>2021-06-02T11:26:22.051Z</time>
      </trkpt>
      <trkpt lat="44.09708" lon="6.83314">
        <ele>1418.2</ele>
        <time>2021-06-02T11:26:26.211Z</time>
      </trkpt>
      <trkpt lat="44.097" lon="6.83309">
        <ele>1358.3</ele>
        <time>2021-06-02T11:26:29.381Z</time>
      </trkpt>
      <trkpt lat="44.09693" lon="6.83305">
        <ele>1316.1</ele>
        <time>2021-06-02T11:26:33.198Z</time>
      </trkpt>
      <trkpt lat="44.09687" lon="6.83302">
        <ele>1293.4</ele>
        <time>2021-06-02T11:26:36.255Z</time>
      </trkpt>
      <trkpt lat="44.0968" lon="6.83298">
        <ele>1283.4</ele>
        <time>2021-06-02T11:26:40.072Z</time>
      </trkpt>
      <trkpt lat="44.09673" lon="6.83296">
        <ele>1268.2</ele>
        <time>2021-06-02T11:26:43.368Z</time>
      </trkpt>
      <trkpt lat="44.09672" lon="6.83303">
        <ele>1267.4</ele>
        <time>2021-06-02T11:26:51.206Z</time>
      </trkpt>
      <trkpt lat="44.09673" lon="6.83294">
        <ele>1269.5</ele>
        <time>2021-06-02T11:27:04.879Z</time>
      </trkpt>
      <trkpt lat="44.09671" lon="6.83286">
        <ele>1268.8</ele>
        <time>2021-06-02T11:27:12.216Z</time>
      </trkpt>
      <trkpt lat="44.09669" lon="6.83279">
        <ele>1268.9</ele>
        <time>2021-06-02T11:27:15.399Z</time>
      </trkpt>
      <trkpt lat="44.09663" lon="6.83294">
        <ele>1268.9</ele>
        <time>2021-06-02T11:27:22.204Z</time>
      </trkpt>
      <trkpt lat="44.09661" lon="6.83303">
        <ele>1267.6</ele>
        <time>2021-06-02T11:27:25.212Z</time>
      </trkpt>
      <trkpt lat="44.09657" lon="6.83312">
        <ele>1266.4</ele>
        <time>2021-06-02T11:27:28.214Z</time>
      </trkpt>
      <trkpt lat="44.09651" lon="6.83324">
        <ele>1267.4</ele>
        <time>2021-06-02T11:27:32.205Z</time>
      </trkpt>
      <trkpt lat="44.09646" lon="6.83331">
        <ele>1267.5</ele>
        <time>2021-06-02T11:27:35.569Z</time>
      </trkpt>
      <trkpt lat="44.09642" lon="6.83334">
        <ele>1297.2</ele>
        <time>2021-06-02T11:27:39.059Z</time>
      </trkpt>
      <trkpt lat="44.09635" lon="6.83334">
        <ele>1283.4</ele>
        <time>2021-06-02T11:27:43.200Z</time>
      </trkpt>
      <trkpt lat="44.09629" lon="6.83335">
        <ele>1271.7</ele>
        <time>2021-06-02T11:27:46.208Z</time>
      </trkpt>
      <trkpt lat="44.09624" lon="6.83337">
        <ele>1268.7</ele>
        <time>2021-06-02T11:27:49.995Z</time>
      </trkpt>
      <trkpt lat="44.09621" lon="6.83332">
        <ele>1272.9</ele>
        <time>2021-06-02T11:27:56.689Z</time>
      </trkpt>
      <trkpt lat="44.09627" lon="6.83324">
        <ele>1273.9</ele>
        <time>2021-06-02T11:28:04.101Z</time>
      </trkpt>
      <trkpt lat="44.0963" lon="6.83316">
        <ele>1275.9</ele>
        <time>2021-06-02T11:28:10.288Z</time>
      </trkpt>
      <trkpt lat="44.0963" lon="6.83309">
        <ele>1278.1</ele>
        <time>2021-06-02T11:28:18.554Z</time>
      </trkpt>
      <trkpt lat="44.09623" lon="6.83302">
        <ele>1284.1</ele>
        <time>2021-06-02T11:28:28.209Z</time>
      </trkpt>
      <trkpt lat="44.09618" lon="6.83298">
        <ele>1284.5</ele>
        <time>2021-06-02T11:28:31.630Z</time>
      </trkpt>
      <trkpt lat="44.09613" lon="6.83296">
        <ele>1284</ele>
        <time>2021-06-02T11:28:34.739Z</time>
      </trkpt>
      <trkpt lat="44.09606" lon="6.83296">
        <ele>1285.7</ele>
        <time>2021-06-02T11:28:38.199Z</time>
      </trkpt>
      <trkpt lat="44.09599" lon="6.83297">
        <ele>1287.6</ele>
        <time>2021-06-02T11:28:41.362Z</time>
      </trkpt>
      <trkpt lat="44.09593" lon="6.83298">
        <ele>1286.2</ele>
        <time>2021-06-02T11:28:44.368Z</time>
      </trkpt>
      <trkpt lat="44.09588" lon="6.83299">
        <ele>1284.5</ele>
        <time>2021-06-02T11:28:47.532Z</time>
      </trkpt>
      <trkpt lat="44.09585" lon="6.83304">
        <ele>1285.5</ele>
        <time>2021-06-02T11:28:50.807Z</time>
      </trkpt>
      <trkpt lat="44.09577" lon="6.83305">
        <ele>1295.7</ele>
        <time>2021-06-02T11:29:01.597Z</time>
      </trkpt>
      <trkpt lat="44.09574" lon="6.83299">
        <ele>1297.5</ele>
        <time>2021-06-02T11:29:08.199Z</time>
      </trkpt>
      <trkpt lat="44.09564" lon="6.83292">
        <ele>1305.2</ele>
        <time>2021-06-02T11:29:18.198Z</time>
      </trkpt>
      <trkpt lat="44.09556" lon="6.83291">
        <ele>1309.2</ele>
        <time>2021-06-02T11:29:21.542Z</time>
      </trkpt>
      <trkpt lat="44.0955" lon="6.83291">
        <ele>1310.8</ele>
        <time>2021-06-02T11:29:24.680Z</time>
      </trkpt>
      <trkpt lat="44.09541" lon="6.83293">
        <ele>1312.2</ele>
        <time>2021-06-02T11:29:28.192Z</time>
      </trkpt>
      <trkpt lat="44.09532" lon="6.83296">
        <ele>1309.9</ele>
        <time>2021-06-02T11:29:31.331Z</time>
      </trkpt>
      <trkpt lat="44.09523" lon="6.83299">
        <ele>1312.9</ele>
        <time>2021-06-02T11:29:35.231Z</time>
      </trkpt>
      <trkpt lat="44.09514" lon="6.83304">
        <ele>1315.9</ele>
        <time>2021-06-02T11:29:39.205Z</time>
      </trkpt>
      <trkpt lat="44.09505" lon="6.83312">
        <ele>1315.5</ele>
        <time>2021-06-02T11:29:43.214Z</time>
      </trkpt>
      <trkpt lat="44.09497" lon="6.83316">
        <ele>1319.5</ele>
        <time>2021-06-02T11:29:46.334Z</time>
      </trkpt>
      <trkpt lat="44.09487" lon="6.83317">
        <ele>1317.8</ele>
        <time>2021-06-02T11:29:50.072Z</time>
      </trkpt>
      <trkpt lat="44.09479" lon="6.83316">
        <ele>1317.9</ele>
        <time>2021-06-02T11:29:53.681Z</time>
      </trkpt>
      <trkpt lat="44.09471" lon="6.83312">
        <ele>1316</ele>
        <time>2021-06-02T11:29:57.326Z</time>
      </trkpt>
      <trkpt lat="44.09466" lon="6.83309">
        <ele>1315.6</ele>
        <time>2021-06-02T11:30:00.372Z</time>
      </trkpt>
      <trkpt lat="44.0946" lon="6.83306">
        <ele>1314.6</ele>
        <time>2021-06-02T11:30:04.207Z</time>
      </trkpt>
      <trkpt lat="44.09455" lon="6.83307">
        <ele>1313.9</ele>
        <time>2021-06-02T11:30:07.402Z</time>
      </trkpt>
      <trkpt lat="44.09443" lon="6.83306">
        <ele>1311.8</ele>
        <time>2021-06-02T11:30:14.200Z</time>
      </trkpt>
      <trkpt lat="44.09437" lon="6.83302">
        <ele>1312.6</ele>
        <time>2021-06-02T11:30:19.000Z</time>
      </trkpt>
      <trkpt lat="44.09428" lon="6.83305">
        <ele>1335.2</ele>
        <time>2021-06-02T11:30:40.000Z</time>
      </trkpt>
      <trkpt lat="44.09424" lon="6.83302">
        <ele>1324.6</ele>
        <time>2021-06-02T11:46:01.000Z</time>
      </trkpt>
      <trkpt lat="44.09428" lon="6.83304">
        <ele>1325.6</ele>
        <time>2021-06-02T11:46:13.000Z</time>
      </trkpt>
      <trkpt lat="44.09426" lon="6.83298">
        <ele>1329.7</ele>
        <time>2021-06-02T11:48:38.927Z</time>
      </trkpt>
      <trkpt lat="44.09424" lon="6.83304">
        <ele>1337.3</ele>
        <time>2021-06-02T11:49:31.000Z</time>
      </trkpt>
      <trkpt lat="44.09429" lon="6.83298">
        <ele>1327.3</ele>
        <time>2021-06-02T11:49:54.200Z</time>
      </trkpt>
      <trkpt lat="44.09424" lon="6.83299">
        <ele>1338.3</ele>
        <time>2021-06-02T11:50:49.000Z</time>
      </trkpt>
      <trkpt lat="44.09419" lon="6.83298">
        <ele>1346.7</ele>
        <time>2021-06-02T11:53:13.000Z</time>
      </trkpt>
      <trkpt lat="44.09425" lon="6.833">
        <ele>1342.5</ele>
        <time>2021-06-02T11:53:26.635Z</time>
      </trkpt>
      <trkpt lat="44.09429" lon="6.83297">
        <ele>1338.5</ele>
        <time>2021-06-02T11:53:47.611Z</time>
      </trkpt>
      <trkpt lat="44.09428" lon="6.83305">
        <ele>1337.5</ele>
        <time>2021-06-02T11:55:39.254Z</time>
      </trkpt>
      <trkpt lat="44.09419" lon="6.83302">
        <ele>1338.3</ele>
        <time>2021-06-02T11:55:42.666Z</time>
      </trkpt>
      <trkpt lat="44.09414" lon="6.83302">
        <ele>1337.3</ele>
        <time>2021-06-02T11:55:45.684Z</time>
      </trkpt>
      <trkpt lat="44.09407" lon="6.833">
        <ele>1339.6</ele>
        <time>2021-06-02T11:55:49.011Z</time>
      </trkpt>
      <trkpt lat="44.09399" lon="6.83296">
        <ele>1337.9</ele>
        <time>2021-06-02T11:55:52.108Z</time>
      </trkpt>
      <trkpt lat="44.09393" lon="6.83297">
        <ele>1335.7</ele>
        <time>2021-06-02T11:55:55.000Z</time>
      </trkpt>
      <trkpt lat="44.09389" lon="6.83302">
        <ele>1334.9</ele>
        <time>2021-06-02T11:55:58.000Z</time>
      </trkpt>
      <trkpt lat="44.09384" lon="6.83311">
        <ele>1338</ele>
        <time>2021-06-02T11:56:05.155Z</time>
      </trkpt>
      <trkpt lat="44.09378" lon="6.83315">
        <ele>1337.5</ele>
        <time>2021-06-02T11:56:08.218Z</time>
      </trkpt>
      <trkpt lat="44.09372" lon="6.8332">
        <ele>1334.8</ele>
        <time>2021-06-02T11:56:12.134Z</time>
      </trkpt>
      <trkpt lat="44.09366" lon="6.83322">
        <ele>1331.4</ele>
        <time>2021-06-02T11:56:15.199Z</time>
      </trkpt>
      <trkpt lat="44.09355" lon="6.83308">
        <ele>1332.8</ele>
        <time>2021-06-02T11:56:19.206Z</time>
      </trkpt>
      <trkpt lat="44.09343" lon="6.83296">
        <ele>1329.8</ele>
        <time>2021-06-02T11:56:22.271Z</time>
      </trkpt>
      <trkpt lat="44.09328" lon="6.83288">
        <ele>1330.1</ele>
        <time>2021-06-02T11:56:25.872Z</time>
      </trkpt>
      <trkpt lat="44.09329" lon="6.833">
        <ele>1331.8</ele>
        <time>2021-06-02T11:56:29.199Z</time>
      </trkpt>
      <trkpt lat="44.09317" lon="6.833">
        <ele>1331.9</ele>
        <time>2021-06-02T11:56:32.205Z</time>
      </trkpt>
      <trkpt lat="44.09305" lon="6.83298">
        <ele>1328.7</ele>
        <time>2021-06-02T11:56:36.216Z</time>
      </trkpt>
      <trkpt lat="44.09289" lon="6.83302">
        <ele>1329.8</ele>
        <time>2021-06-02T11:56:40.217Z</time>
      </trkpt>
      <trkpt lat="44.09281" lon="6.83284">
        <ele>1331</ele>
        <time>2021-06-02T11:56:44.209Z</time>
      </trkpt>
      <trkpt lat="44.09251" lon="6.8326">
        <ele>1326.3</ele>
        <time>2021-06-02T11:56:49.000Z</time>
      </trkpt>
      <trkpt lat="44.09246" lon="6.83255">
        <ele>1326.3</ele>
        <time>2021-06-02T11:56:52.210Z</time>
      </trkpt>
      <trkpt lat="44.0925" lon="6.83263">
        <ele>1325.9</ele>
        <time>2021-06-02T11:56:55.212Z</time>
      </trkpt>
      <trkpt lat="44.09253" lon="6.83282">
        <ele>1330.2</ele>
        <time>2021-06-02T11:56:58.717Z</time>
      </trkpt>
      <trkpt lat="44.09245" lon="6.83323">
        <ele>1329.4</ele>
        <time>2021-06-02T11:57:04.000Z</time>
      </trkpt>
      <trkpt lat="44.09247" lon="6.83332">
        <ele>1326.9</ele>
        <time>2021-06-02T11:57:07.000Z</time>
      </trkpt>
      <trkpt lat="44.09241" lon="6.83334">
        <ele>1326.9</ele>
        <time>2021-06-02T11:57:10.215Z</time>
      </trkpt>
      <trkpt lat="44.09233" lon="6.83346">
        <ele>1327.3</ele>
        <time>2021-06-02T11:57:13.753Z</time>
      </trkpt>
      <trkpt lat="44.09224" lon="6.83351">
        <ele>1329.4</ele>
        <time>2021-06-02T11:57:17.234Z</time>
      </trkpt>
      <trkpt lat="44.09217" lon="6.83368">
        <ele>1330.7</ele>
        <time>2021-06-02T11:57:20.613Z</time>
      </trkpt>
      <trkpt lat="44.09208" lon="6.83374">
        <ele>1332.2</ele>
        <time>2021-06-02T11:57:24.212Z</time>
      </trkpt>
      <trkpt lat="44.092" lon="6.83377">
        <ele>1333.3</ele>
        <time>2021-06-02T11:57:27.291Z</time>
      </trkpt>
      <trkpt lat="44.0919" lon="6.83372">
        <ele>1333.1</ele>
        <time>2021-06-02T11:57:31.210Z</time>
      </trkpt>
      <trkpt lat="44.0918" lon="6.83364">
        <ele>1332.8</ele>
        <time>2021-06-02T11:57:34.218Z</time>
      </trkpt>
      <trkpt lat="44.09154" lon="6.83337">
        <ele>1327.8</ele>
        <time>2021-06-02T11:57:40.000Z</time>
      </trkpt>
      <trkpt lat="44.09151" lon="6.83348">
        <ele>1327.8</ele>
        <time>2021-06-02T11:57:43.211Z</time>
      </trkpt>
      <trkpt lat="44.09126" lon="6.83329">
        <ele>1327.9</ele>
        <time>2021-06-02T11:57:49.000Z</time>
      </trkpt>
      <trkpt lat="44.09129" lon="6.83337">
        <ele>1327.5</ele>
        <time>2021-06-02T11:57:52.783Z</time>
      </trkpt>
      <trkpt lat="44.09124" lon="6.83344">
        <ele>1328.1</ele>
        <time>2021-06-02T11:57:56.203Z</time>
      </trkpt>
      <trkpt lat="44.09115" lon="6.83343">
        <ele>1332.1</ele>
        <time>2021-06-02T11:57:59.732Z</time>
      </trkpt>
      <trkpt lat="44.0911" lon="6.83347">
        <ele>1332.7</ele>
        <time>2021-06-02T11:58:02.843Z</time>
      </trkpt>
      <trkpt lat="44.09103" lon="6.83346">
        <ele>1333.4</ele>
        <time>2021-06-02T11:58:06.414Z</time>
      </trkpt>
      <trkpt lat="44.09095" lon="6.83345">
        <ele>1333.6</ele>
        <time>2021-06-02T11:58:10.252Z</time>
      </trkpt>
      <trkpt lat="44.09088" lon="6.83348">
        <ele>1336.5</ele>
        <time>2021-06-02T11:58:14.197Z</time>
      </trkpt>
      <trkpt lat="44.09082" lon="6.83351">
        <ele>1338.8</ele>
        <time>2021-06-02T11:58:18.180Z</time>
      </trkpt>
      <trkpt lat="44.09077" lon="6.83362">
        <ele>1337.7</ele>
        <time>2021-06-02T11:58:24.962Z</time>
      </trkpt>
      <trkpt lat="44.09072" lon="6.83367">
        <ele>1336.1</ele>
        <time>2021-06-02T11:58:28.000Z</time>
      </trkpt>
      <trkpt lat="44.09066" lon="6.83369">
        <ele>1336.1</ele>
        <time>2021-06-02T11:58:31.208Z</time>
      </trkpt>
      <trkpt lat="44.09058" lon="6.83372">
        <ele>1335.5</ele>
        <time>2021-06-02T11:58:35.493Z</time>
      </trkpt>
      <trkpt lat="44.09049" lon="6.83375">
        <ele>1336.3</ele>
        <time>2021-06-02T11:58:39.220Z</time>
      </trkpt>
      <trkpt lat="44.09043" lon="6.83375">
        <ele>1335.6</ele>
        <time>2021-06-02T11:58:42.235Z</time>
      </trkpt>
      <trkpt lat="44.09033" lon="6.83378">
        <ele>1336.3</ele>
        <time>2021-06-02T11:58:45.278Z</time>
      </trkpt>
      <trkpt lat="44.09025" lon="6.8338">
        <ele>1338.4</ele>
        <time>2021-06-02T11:58:48.760Z</time>
      </trkpt>
      <trkpt lat="44.09017" lon="6.8338">
        <ele>1338.9</ele>
        <time>2021-06-02T11:58:52.077Z</time>
      </trkpt>
      <trkpt lat="44.0901" lon="6.83378">
        <ele>1341.9</ele>
        <time>2021-06-02T11:58:55.509Z</time>
      </trkpt>
      <trkpt lat="44.09001" lon="6.83376">
        <ele>1344.7</ele>
        <time>2021-06-02T11:58:59.208Z</time>
      </trkpt>
      <trkpt lat="44.08993" lon="6.83376">
        <ele>1347.4</ele>
        <time>2021-06-02T11:59:03.204Z</time>
      </trkpt>
      <trkpt lat="44.08986" lon="6.83377">
        <ele>1348.2</ele>
        <time>2021-06-02T11:59:06.220Z</time>
      </trkpt>
      <trkpt lat="44.08976" lon="6.83372">
        <ele>1348.3</ele>
        <time>2021-06-02T11:59:10.213Z</time>
      </trkpt>
      <trkpt lat="44.08966" lon="6.83371">
        <ele>1351.6</ele>
        <time>2021-06-02T11:59:13.286Z</time>
      </trkpt>
      <trkpt lat="44.08956" lon="6.83365">
        <ele>1353.4</ele>
        <time>2021-06-02T11:59:17.208Z</time>
      </trkpt>
      <trkpt lat="44.08947" lon="6.83358">
        <ele>1353</ele>
        <time>2021-06-02T11:59:21.211Z</time>
      </trkpt>
      <trkpt lat="44.08938" lon="6.83355">
        <ele>1351.8</ele>
        <time>2021-06-02T11:59:28.207Z</time>
      </trkpt>
      <trkpt lat="44.08931" lon="6.8336">
        <ele>1353.2</ele>
        <time>2021-06-02T11:59:31.240Z</time>
      </trkpt>
      <trkpt lat="44.08924" lon="6.83363">
        <ele>1358.1</ele>
        <time>2021-06-02T11:59:34.291Z</time>
      </trkpt>
      <trkpt lat="44.08916" lon="6.83362">
        <ele>1356.3</ele>
        <time>2021-06-02T11:59:38.198Z</time>
      </trkpt>
      <trkpt lat="44.08911" lon="6.83363">
        <ele>1350</ele>
        <time>2021-06-02T11:59:42.073Z</time>
      </trkpt>
      <trkpt lat="44.08905" lon="6.83368">
        <ele>1356.5</ele>
        <time>2021-06-02T11:59:45.078Z</time>
      </trkpt>
      <trkpt lat="44.08898" lon="6.83373">
        <ele>1360.7</ele>
        <time>2021-06-02T11:59:48.190Z</time>
      </trkpt>
      <trkpt lat="44.0889" lon="6.83373">
        <ele>1360.2</ele>
        <time>2021-06-02T11:59:51.721Z</time>
      </trkpt>
      <trkpt lat="44.08884" lon="6.83371">
        <ele>1362</ele>
        <time>2021-06-02T11:59:54.997Z</time>
      </trkpt>
      <trkpt lat="44.08876" lon="6.83371">
        <ele>1357.6</ele>
        <time>2021-06-02T11:59:58.000Z</time>
      </trkpt>
      <trkpt lat="44.0887" lon="6.83369">
        <ele>1356.2</ele>
        <time>2021-06-02T12:00:01.000Z</time>
      </trkpt>
      <trkpt lat="44.08864" lon="6.83369">
        <ele>1357</ele>
        <time>2021-06-02T12:00:07.215Z</time>
      </trkpt>
      <trkpt lat="44.08866" lon="6.83362">
        <ele>1358.1</ele>
        <time>2021-06-02T12:00:15.211Z</time>
      </trkpt>
      <trkpt lat="44.08874" lon="6.83358">
        <ele>1357.1</ele>
        <time>2021-06-02T12:00:18.265Z</time>
      </trkpt>
      <trkpt lat="44.08879" lon="6.83358">
        <ele>1360.4</ele>
        <time>2021-06-02T12:00:22.000Z</time>
      </trkpt>
      <trkpt lat="44.08883" lon="6.83363">
        <ele>1364.6</ele>
        <time>2021-06-02T12:00:30.208Z</time>
      </trkpt>
      <trkpt lat="44.08889" lon="6.8336">
        <ele>1366</ele>
        <time>2021-06-02T12:00:34.201Z</time>
      </trkpt>
      <trkpt lat="44.08893" lon="6.8335">
        <ele>1366.3</ele>
        <time>2021-06-02T12:00:40.274Z</time>
      </trkpt>
      <trkpt lat="44.08897" lon="6.83337">
        <ele>1365.7</ele>
        <time>2021-06-02T12:00:44.454Z</time>
      </trkpt>
      <trkpt lat="44.089" lon="6.83329">
        <ele>1364.3</ele>
        <time>2021-06-02T12:00:48.211Z</time>
      </trkpt>
      <trkpt lat="44.08908" lon="6.83324">
        <ele>1364.4</ele>
        <time>2021-06-02T12:00:52.206Z</time>
      </trkpt>
      <trkpt lat="44.08915" lon="6.8332">
        <ele>1361.1</ele>
        <time>2021-06-02T12:00:55.209Z</time>
      </trkpt>
      <trkpt lat="44.08923" lon="6.83315">
        <ele>1363.7</ele>
        <time>2021-06-02T12:00:59.205Z</time>
      </trkpt>
      <trkpt lat="44.0893" lon="6.83311">
        <ele>1363.6</ele>
        <time>2021-06-02T12:01:02.934Z</time>
      </trkpt>
      <trkpt lat="44.08937" lon="6.83307">
        <ele>1365.9</ele>
        <time>2021-06-02T12:01:07.206Z</time>
      </trkpt>
      <trkpt lat="44.08943" lon="6.83299">
        <ele>1369.3</ele>
        <time>2021-06-02T12:01:12.359Z</time>
      </trkpt>
      <trkpt lat="44.08946" lon="6.8329">
        <ele>1375.1</ele>
        <time>2021-06-02T12:01:39.874Z</time>
      </trkpt>
      <trkpt lat="44.0895" lon="6.83283">
        <ele>1377.7</ele>
        <time>2021-06-02T12:01:43.000Z</time>
      </trkpt>
      <trkpt lat="44.08947" lon="6.83288">
        <ele>1382.2</ele>
        <time>2021-06-02T12:02:00.281Z</time>
      </trkpt>
      <trkpt lat="44.08949" lon="6.83276">
        <ele>1377.8</ele>
        <time>2021-06-02T12:02:21.140Z</time>
      </trkpt>
      <trkpt lat="44.08951" lon="6.83267">
        <ele>1377.5</ele>
        <time>2021-06-02T12:02:27.719Z</time>
      </trkpt>
      <trkpt lat="44.08956" lon="6.83262">
        <ele>1377.6</ele>
        <time>2021-06-02T12:02:34.000Z</time>
      </trkpt>
      <trkpt lat="44.0896" lon="6.83249">
        <ele>1384</ele>
        <time>2021-06-02T12:02:53.900Z</time>
      </trkpt>
      <trkpt lat="44.08962" lon="6.83242">
        <ele>1384.3</ele>
        <time>2021-06-02T12:02:57.113Z</time>
      </trkpt>
      <trkpt lat="44.08962" lon="6.83235">
        <ele>1386.9</ele>
        <time>2021-06-02T12:03:00.206Z</time>
      </trkpt>
      <trkpt lat="44.08965" lon="6.83227">
        <ele>1385</ele>
        <time>2021-06-02T12:03:04.232Z</time>
      </trkpt>
      <trkpt lat="44.0897" lon="6.8322">
        <ele>1384.2</ele>
        <time>2021-06-02T12:03:08.209Z</time>
      </trkpt>
      <trkpt lat="44.08978" lon="6.8321">
        <ele>1384</ele>
        <time>2021-06-02T12:03:12.209Z</time>
      </trkpt>
      <trkpt lat="44.08982" lon="6.83204">
        <ele>1386.3</ele>
        <time>2021-06-02T12:03:15.282Z</time>
      </trkpt>
      <trkpt lat="44.08983" lon="6.83197">
        <ele>1385.3</ele>
        <time>2021-06-02T12:03:19.200Z</time>
      </trkpt>
      <trkpt lat="44.08984" lon="6.83191">
        <ele>1388.5</ele>
        <time>2021-06-02T12:03:22.000Z</time>
      </trkpt>
      <trkpt lat="44.08987" lon="6.83177">
        <ele>1386.9</ele>
        <time>2021-06-02T12:03:26.737Z</time>
      </trkpt>
      <trkpt lat="44.08997" lon="6.83167">
        <ele>1387.6</ele>
        <time>2021-06-02T12:03:34.200Z</time>
      </trkpt>
      <trkpt lat="44.09004" lon="6.83163">
        <ele>1391.8</ele>
        <time>2021-06-02T12:03:37.599Z</time>
      </trkpt>
      <trkpt lat="44.09009" lon="6.8316">
        <ele>1393.1</ele>
        <time>2021-06-02T12:03:40.923Z</time>
      </trkpt>
      <trkpt lat="44.09015" lon="6.83158">
        <ele>1393</ele>
        <time>2021-06-02T12:03:44.230Z</time>
      </trkpt>
      <trkpt lat="44.09019" lon="6.83154">
        <ele>1394</ele>
        <time>2021-06-02T12:03:47.394Z</time>
      </trkpt>
      <trkpt lat="44.09023" lon="6.83149">
        <ele>1393.8</ele>
        <time>2021-06-02T12:03:51.198Z</time>
      </trkpt>
      <trkpt lat="44.09027" lon="6.83138">
        <ele>1399.4</ele>
        <time>2021-06-02T12:03:57.255Z</time>
      </trkpt>
      <trkpt lat="44.0903" lon="6.83129">
        <ele>1399.2</ele>
        <time>2021-06-02T12:04:01.239Z</time>
      </trkpt>
      <trkpt lat="44.09037" lon="6.83119">
        <ele>1403.9</ele>
        <time>2021-06-02T12:04:05.460Z</time>
      </trkpt>
      <trkpt lat="44.09043" lon="6.83109">
        <ele>1404.8</ele>
        <time>2021-06-02T12:04:08.702Z</time>
      </trkpt>
      <trkpt lat="44.09048" lon="6.831">
        <ele>1405.9</ele>
        <time>2021-06-02T12:04:12.199Z</time>
      </trkpt>
      <trkpt lat="44.09052" lon="6.83093">
        <ele>1404.3</ele>
        <time>2021-06-02T12:04:15.259Z</time>
      </trkpt>
      <trkpt lat="44.09057" lon="6.83088">
        <ele>1408.2</ele>
        <time>2021-06-02T12:04:19.000Z</time>
      </trkpt>
      <trkpt lat="44.09051" lon="6.8308">
        <ele>1410.6</ele>
        <time>2021-06-02T12:04:28.000Z</time>
      </trkpt>
      <trkpt lat="44.09046" lon="6.83085">
        <ele>1409.6</ele>
        <time>2021-06-02T12:04:43.000Z</time>
      </trkpt>
      <trkpt lat="44.09048" lon="6.83078">
        <ele>1414.4</ele>
        <time>2021-06-02T12:04:56.133Z</time>
      </trkpt>
      <trkpt lat="44.0905" lon="6.83072">
        <ele>1415.8</ele>
        <time>2021-06-02T12:04:59.301Z</time>
      </trkpt>
      <trkpt lat="44.09055" lon="6.83062">
        <ele>1418.4</ele>
        <time>2021-06-02T12:05:03.210Z</time>
      </trkpt>
      <trkpt lat="44.09063" lon="6.83056">
        <ele>1415.5</ele>
        <time>2021-06-02T12:05:06.674Z</time>
      </trkpt>
      <trkpt lat="44.09071" lon="6.83052">
        <ele>1414.3</ele>
        <time>2021-06-02T12:05:10.200Z</time>
      </trkpt>
      <trkpt lat="44.09079" lon="6.83045">
        <ele>1417.9</ele>
        <time>2021-06-02T12:05:14.205Z</time>
      </trkpt>
      <trkpt lat="44.09087" lon="6.8304">
        <ele>1421.6</ele>
        <time>2021-06-02T12:05:17.716Z</time>
      </trkpt>
      <trkpt lat="44.09093" lon="6.83037">
        <ele>1420.7</ele>
        <time>2021-06-02T12:05:21.208Z</time>
      </trkpt>
      <trkpt lat="44.09099" lon="6.83032">
        <ele>1420</ele>
        <time>2021-06-02T12:05:24.298Z</time>
      </trkpt>
      <trkpt lat="44.09105" lon="6.83028">
        <ele>1423.6</ele>
        <time>2021-06-02T12:05:28.000Z</time>
      </trkpt>
      <trkpt lat="44.09112" lon="6.83022">
        <ele>1423.3</ele>
        <time>2021-06-02T12:05:31.491Z</time>
      </trkpt>
      <trkpt lat="44.09116" lon="6.83019">
        <ele>1424.5</ele>
        <time>2021-06-02T12:05:35.198Z</time>
      </trkpt>
      <trkpt lat="44.09122" lon="6.83012">
        <ele>1424.4</ele>
        <time>2021-06-02T12:05:38.207Z</time>
      </trkpt>
      <trkpt lat="44.09125" lon="6.83007">
        <ele>1424.5</ele>
        <time>2021-06-02T12:05:41.641Z</time>
      </trkpt>
      <trkpt lat="44.0913" lon="6.83005">
        <ele>1426.4</ele>
        <time>2021-06-02T12:05:44.737Z</time>
      </trkpt>
      <trkpt lat="44.09134" lon="6.83">
        <ele>1425.5</ele>
        <time>2021-06-02T12:05:48.035Z</time>
      </trkpt>
      <trkpt lat="44.09138" lon="6.82995">
        <ele>1425.3</ele>
        <time>2021-06-02T12:05:51.212Z</time>
      </trkpt>
      <trkpt lat="44.09142" lon="6.82993">
        <ele>1424.5</ele>
        <time>2021-06-02T12:05:54.451Z</time>
      </trkpt>
      <trkpt lat="44.09148" lon="6.82994">
        <ele>1426.1</ele>
        <time>2021-06-02T12:05:58.210Z</time>
      </trkpt>
      <trkpt lat="44.0916" lon="6.82984">
        <ele>1424.7</ele>
        <time>2021-06-02T12:06:04.218Z</time>
      </trkpt>
      <trkpt lat="44.09166" lon="6.82984">
        <ele>1434.8</ele>
        <time>2021-06-02T12:06:13.000Z</time>
      </trkpt>
      <trkpt lat="44.09162" lon="6.8298">
        <ele>1422.8</ele>
        <time>2021-06-02T12:06:43.000Z</time>
      </trkpt>
      <trkpt lat="44.09166" lon="6.82976">
        <ele>1422.9</ele>
        <time>2021-06-02T12:06:52.000Z</time>
      </trkpt>
      <trkpt lat="44.09158" lon="6.82976">
        <ele>1424.6</ele>
        <time>2021-06-02T12:07:02.888Z</time>
      </trkpt>
      <trkpt lat="44.09148" lon="6.82972">
        <ele>1426.2</ele>
        <time>2021-06-02T12:07:06.207Z</time>
      </trkpt>
      <trkpt lat="44.0914" lon="6.82975">
        <ele>1431.1</ele>
        <time>2021-06-02T12:07:12.481Z</time>
      </trkpt>
      <trkpt lat="44.09129" lon="6.82974">
        <ele>1435.5</ele>
        <time>2021-06-02T12:07:20.241Z</time>
      </trkpt>
      <trkpt lat="44.09123" lon="6.82975">
        <ele>1436.3</ele>
        <time>2021-06-02T12:07:24.205Z</time>
      </trkpt>
      <trkpt lat="44.09117" lon="6.82972">
        <ele>1438.6</ele>
        <time>2021-06-02T12:07:28.218Z</time>
      </trkpt>
      <trkpt lat="44.09113" lon="6.82967">
        <ele>1438.9</ele>
        <time>2021-06-02T12:07:31.720Z</time>
      </trkpt>
      <trkpt lat="44.09117" lon="6.82957">
        <ele>1439</ele>
        <time>2021-06-02T12:07:38.290Z</time>
      </trkpt>
      <trkpt lat="44.09115" lon="6.8295">
        <ele>1437.7</ele>
        <time>2021-06-02T12:07:45.250Z</time>
      </trkpt>
      <trkpt lat="44.09107" lon="6.82951">
        <ele>1440.1</ele>
        <time>2021-06-02T12:07:49.209Z</time>
      </trkpt>
      <trkpt lat="44.091" lon="6.8295">
        <ele>1440.8</ele>
        <time>2021-06-02T12:07:53.199Z</time>
      </trkpt>
      <trkpt lat="44.09091" lon="6.82947">
        <ele>1443.8</ele>
        <time>2021-06-02T12:07:59.958Z</time>
      </trkpt>
      <trkpt lat="44.09088" lon="6.8294">
        <ele>1441.7</ele>
        <time>2021-06-02T12:08:03.210Z</time>
      </trkpt>
      <trkpt lat="44.0909" lon="6.82929">
        <ele>1444.6</ele>
        <time>2021-06-02T12:08:06.374Z</time>
      </trkpt>
      <trkpt lat="44.09092" lon="6.8292">
        <ele>1443.6</ele>
        <time>2021-06-02T12:08:10.217Z</time>
      </trkpt>
      <trkpt lat="44.09088" lon="6.82925">
        <ele>1445.6</ele>
        <time>2021-06-02T12:08:21.286Z</time>
      </trkpt>
      <trkpt lat="44.09096" lon="6.8292">
        <ele>1451.6</ele>
        <time>2021-06-02T12:09:10.215Z</time>
      </trkpt>
      <trkpt lat="44.09096" lon="6.8291">
        <ele>1457.9</ele>
        <time>2021-06-02T12:09:14.260Z</time>
      </trkpt>
      <trkpt lat="44.09093" lon="6.829">
        <ele>1459.6</ele>
        <time>2021-06-02T12:09:17.676Z</time>
      </trkpt>
      <trkpt lat="44.09092" lon="6.82892">
        <ele>1459.5</ele>
        <time>2021-06-02T12:09:20.865Z</time>
      </trkpt>
      <trkpt lat="44.09093" lon="6.82885">
        <ele>1460.9</ele>
        <time>2021-06-02T12:09:23.976Z</time>
      </trkpt>
      <trkpt lat="44.09094" lon="6.82878">
        <ele>1459.5</ele>
        <time>2021-06-02T12:09:27.224Z</time>
      </trkpt>
      <trkpt lat="44.09097" lon="6.82871">
        <ele>1462.3</ele>
        <time>2021-06-02T12:09:31.204Z</time>
      </trkpt>
      <trkpt lat="44.09099" lon="6.82862">
        <ele>1459.3</ele>
        <time>2021-06-02T12:09:34.217Z</time>
      </trkpt>
      <trkpt lat="44.09101" lon="6.82851">
        <ele>1459.6</ele>
        <time>2021-06-02T12:09:38.054Z</time>
      </trkpt>
      <trkpt lat="44.091" lon="6.82843">
        <ele>1472.3</ele>
        <time>2021-06-02T12:09:41.211Z</time>
      </trkpt>
      <trkpt lat="44.09098" lon="6.82832">
        <ele>1468.5</ele>
        <time>2021-06-02T12:09:45.025Z</time>
      </trkpt>
      <trkpt lat="44.09097" lon="6.82823">
        <ele>1466.1</ele>
        <time>2021-06-02T12:09:48.157Z</time>
      </trkpt>
      <trkpt lat="44.09088" lon="6.82822">
        <ele>1467.6</ele>
        <time>2021-06-02T12:09:54.391Z</time>
      </trkpt>
      <trkpt lat="44.09082" lon="6.82826">
        <ele>1466.8</ele>
        <time>2021-06-02T12:09:57.946Z</time>
      </trkpt>
      <trkpt lat="44.09077" lon="6.82829">
        <ele>1470.1</ele>
        <time>2021-06-02T12:10:01.207Z</time>
      </trkpt>
      <trkpt lat="44.09071" lon="6.82832">
        <ele>1473</ele>
        <time>2021-06-02T12:10:05.075Z</time>
      </trkpt>
      <trkpt lat="44.09067" lon="6.82829">
        <ele>1473.2</ele>
        <time>2021-06-02T12:10:08.203Z</time>
      </trkpt>
      <trkpt lat="44.0906" lon="6.82833">
        <ele>1472.8</ele>
        <time>2021-06-02T12:10:15.224Z</time>
      </trkpt>
      <trkpt lat="44.09053" lon="6.82834">
        <ele>1479.3</ele>
        <time>2021-06-02T12:10:22.000Z</time>
      </trkpt>
      <trkpt lat="44.09043" lon="6.82834">
        <ele>1480.5</ele>
        <time>2021-06-02T12:10:26.054Z</time>
      </trkpt>
      <trkpt lat="44.09037" lon="6.82836">
        <ele>1480.2</ele>
        <time>2021-06-02T12:10:29.217Z</time>
      </trkpt>
      <trkpt lat="44.09032" lon="6.82838">
        <ele>1480.2</ele>
        <time>2021-06-02T12:10:32.924Z</time>
      </trkpt>
      <trkpt lat="44.09027" lon="6.82838">
        <ele>1479.4</ele>
        <time>2021-06-02T12:10:36.207Z</time>
      </trkpt>
      <trkpt lat="44.0902" lon="6.82837">
        <ele>1478.6</ele>
        <time>2021-06-02T12:10:40.212Z</time>
      </trkpt>
      <trkpt lat="44.09016" lon="6.82829">
        <ele>1482.2</ele>
        <time>2021-06-02T12:10:44.243Z</time>
      </trkpt>
      <trkpt lat="44.09018" lon="6.82821">
        <ele>1479.9</ele>
        <time>2021-06-02T12:10:48.213Z</time>
      </trkpt>
      <trkpt lat="44.09023" lon="6.82815">
        <ele>1485</ele>
        <time>2021-06-02T12:10:54.298Z</time>
      </trkpt>
      <trkpt lat="44.09028" lon="6.82808">
        <ele>1489.4</ele>
        <time>2021-06-02T12:10:58.218Z</time>
      </trkpt>
      <trkpt lat="44.09034" lon="6.82801">
        <ele>1489.1</ele>
        <time>2021-06-02T12:11:02.015Z</time>
      </trkpt>
      <trkpt lat="44.0904" lon="6.82793">
        <ele>1492.9</ele>
        <time>2021-06-02T12:11:06.216Z</time>
      </trkpt>
      <trkpt lat="44.09049" lon="6.82784">
        <ele>1496.2</ele>
        <time>2021-06-02T12:11:13.248Z</time>
      </trkpt>
      <trkpt lat="44.09054" lon="6.82777">
        <ele>1492</ele>
        <time>2021-06-02T12:11:17.200Z</time>
      </trkpt>
      <trkpt lat="44.09057" lon="6.82768">
        <ele>1493.4</ele>
        <time>2021-06-02T12:11:20.662Z</time>
      </trkpt>
      <trkpt lat="44.09063" lon="6.82761">
        <ele>1497.5</ele>
        <time>2021-06-02T12:11:24.208Z</time>
      </trkpt>
      <trkpt lat="44.09069" lon="6.82752">
        <ele>1497.1</ele>
        <time>2021-06-02T12:11:27.211Z</time>
      </trkpt>
      <trkpt lat="44.09075" lon="6.82742">
        <ele>1501.1</ele>
        <time>2021-06-02T12:11:31.217Z</time>
      </trkpt>
      <trkpt lat="44.09081" lon="6.82736">
        <ele>1500.4</ele>
        <time>2021-06-02T12:11:34.740Z</time>
      </trkpt>
      <trkpt lat="44.09087" lon="6.82726">
        <ele>1498.8</ele>
        <time>2021-06-02T12:11:41.554Z</time>
      </trkpt>
      <trkpt lat="44.0909" lon="6.82718">
        <ele>1498.1</ele>
        <time>2021-06-02T12:11:45.205Z</time>
      </trkpt>
      <trkpt lat="44.09096" lon="6.82709">
        <ele>1496.2</ele>
        <time>2021-06-02T12:11:49.216Z</time>
      </trkpt>
      <trkpt lat="44.09103" lon="6.827">
        <ele>1499.4</ele>
        <time>2021-06-02T12:11:53.204Z</time>
      </trkpt>
      <trkpt lat="44.09108" lon="6.82698">
        <ele>1504.1</ele>
        <time>2021-06-02T12:11:56.314Z</time>
      </trkpt>
      <trkpt lat="44.09113" lon="6.82694">
        <ele>1503.4</ele>
        <time>2021-06-02T12:11:59.690Z</time>
      </trkpt>
      <trkpt lat="44.09119" lon="6.82691">
        <ele>1505.3</ele>
        <time>2021-06-02T12:12:03.255Z</time>
      </trkpt>
      <trkpt lat="44.09123" lon="6.82686">
        <ele>1507.2</ele>
        <time>2021-06-02T12:12:06.924Z</time>
      </trkpt>
      <trkpt lat="44.09127" lon="6.82679">
        <ele>1507.9</ele>
        <time>2021-06-02T12:12:10.079Z</time>
      </trkpt>
      <trkpt lat="44.0913" lon="6.82671">
        <ele>1505</ele>
        <time>2021-06-02T12:12:13.000Z</time>
      </trkpt>
      <trkpt lat="44.09132" lon="6.82662">
        <ele>1505</ele>
        <time>2021-06-02T12:12:16.206Z</time>
      </trkpt>
      <trkpt lat="44.09137" lon="6.82657">
        <ele>1511.8</ele>
        <time>2021-06-02T12:12:20.158Z</time>
      </trkpt>
      <trkpt lat="44.09141" lon="6.82652">
        <ele>1511.3</ele>
        <time>2021-06-02T12:12:23.208Z</time>
      </trkpt>
      <trkpt lat="44.09146" lon="6.82646">
        <ele>1514.8</ele>
        <time>2021-06-02T12:12:27.216Z</time>
      </trkpt>
      <trkpt lat="44.09149" lon="6.8264">
        <ele>1512.4</ele>
        <time>2021-06-02T12:12:30.256Z</time>
      </trkpt>
      <trkpt lat="44.09157" lon="6.82631">
        <ele>1517.2</ele>
        <time>2021-06-02T12:12:37.204Z</time>
      </trkpt>
      <trkpt lat="44.09158" lon="6.82624">
        <ele>1518</ele>
        <time>2021-06-02T12:12:44.354Z</time>
      </trkpt>
      <trkpt lat="44.09165" lon="6.82615">
        <ele>1518.1</ele>
        <time>2021-06-02T12:12:54.326Z</time>
      </trkpt>
      <trkpt lat="44.09169" lon="6.8261">
        <ele>1521.7</ele>
        <time>2021-06-02T12:12:57.698Z</time>
      </trkpt>
      <trkpt lat="44.09174" lon="6.8261">
        <ele>1520.7</ele>
        <time>2021-06-02T12:13:01.214Z</time>
      </trkpt>
      <trkpt lat="44.09178" lon="6.82592">
        <ele>1526.2</ele>
        <time>2021-06-02T12:13:08.244Z</time>
      </trkpt>
      <trkpt lat="44.09178" lon="6.8258">
        <ele>1529.8</ele>
        <time>2021-06-02T12:13:12.194Z</time>
      </trkpt>
      <trkpt lat="44.09177" lon="6.82565">
        <ele>1530.4</ele>
        <time>2021-06-02T12:13:16.222Z</time>
      </trkpt>
      <trkpt lat="44.09175" lon="6.82557">
        <ele>1527.6</ele>
        <time>2021-06-02T12:13:19.253Z</time>
      </trkpt>
      <trkpt lat="44.09175" lon="6.82546">
        <ele>1529.5</ele>
        <time>2021-06-02T12:13:23.499Z</time>
      </trkpt>
      <trkpt lat="44.09178" lon="6.82539">
        <ele>1529.6</ele>
        <time>2021-06-02T12:13:27.196Z</time>
      </trkpt>
      <trkpt lat="44.0918" lon="6.82534">
        <ele>1529.7</ele>
        <time>2021-06-02T12:13:30.211Z</time>
      </trkpt>
      <trkpt lat="44.09183" lon="6.82528">
        <ele>1531.1</ele>
        <time>2021-06-02T12:13:33.316Z</time>
      </trkpt>
      <trkpt lat="44.09189" lon="6.82517">
        <ele>1530.3</ele>
        <time>2021-06-02T12:13:37.208Z</time>
      </trkpt>
      <trkpt lat="44.09192" lon="6.82508">
        <ele>1530.4</ele>
        <time>2021-06-02T12:13:41.215Z</time>
      </trkpt>
      <trkpt lat="44.09195" lon="6.82501">
        <ele>1530.7</ele>
        <time>2021-06-02T12:13:44.764Z</time>
      </trkpt>
      <trkpt lat="44.09194" lon="6.82494">
        <ele>1528.7</ele>
        <time>2021-06-02T12:13:47.858Z</time>
      </trkpt>
      <trkpt lat="44.0919" lon="6.82485">
        <ele>1530.7</ele>
        <time>2021-06-02T12:13:50.860Z</time>
      </trkpt>
      <trkpt lat="44.09188" lon="6.82477">
        <ele>1529.9</ele>
        <time>2021-06-02T12:13:53.983Z</time>
      </trkpt>
      <trkpt lat="44.09188" lon="6.82466">
        <ele>1527.9</ele>
        <time>2021-06-02T12:13:57.208Z</time>
      </trkpt>
      <trkpt lat="44.0919" lon="6.82456">
        <ele>1530.3</ele>
        <time>2021-06-02T12:14:00.728Z</time>
      </trkpt>
      <trkpt lat="44.09192" lon="6.82449">
        <ele>1533.6</ele>
        <time>2021-06-02T12:14:04.000Z</time>
      </trkpt>
      <trkpt lat="44.09193" lon="6.8244">
        <ele>1533.6</ele>
        <time>2021-06-02T12:14:07.215Z</time>
      </trkpt>
      <trkpt lat="44.09194" lon="6.82431">
        <ele>1535.6</ele>
        <time>2021-06-02T12:14:10.422Z</time>
      </trkpt>
      <trkpt lat="44.09197" lon="6.82422">
        <ele>1535.7</ele>
        <time>2021-06-02T12:14:13.887Z</time>
      </trkpt>
      <trkpt lat="44.09197" lon="6.82416">
        <ele>1539.4</ele>
        <time>2021-06-02T12:14:17.058Z</time>
      </trkpt>
      <trkpt lat="44.09198" lon="6.82407">
        <ele>1539.9</ele>
        <time>2021-06-02T12:14:20.213Z</time>
      </trkpt>
      <trkpt lat="44.09197" lon="6.82396">
        <ele>1542.2</ele>
        <time>2021-06-02T12:14:23.518Z</time>
      </trkpt>
      <trkpt lat="44.09195" lon="6.82383">
        <ele>1543.1</ele>
        <time>2021-06-02T12:14:27.263Z</time>
      </trkpt>
      <trkpt lat="44.09194" lon="6.82368">
        <ele>1442.1</ele>
        <time>2021-06-02T12:14:31.214Z</time>
      </trkpt>
      <trkpt lat="44.0919" lon="6.82351">
        <ele>1509.9</ele>
        <time>2021-06-02T12:14:35.199Z</time>
      </trkpt>
      <trkpt lat="44.09187" lon="6.82343">
        <ele>1523.2</ele>
        <time>2021-06-02T12:14:38.599Z</time>
      </trkpt>
      <trkpt lat="44.09186" lon="6.82327">
        <ele>1535.8</ele>
        <time>2021-06-02T12:14:46.202Z</time>
      </trkpt>
      <trkpt lat="44.09189" lon="6.8232">
        <ele>1543</ele>
        <time>2021-06-02T12:14:49.776Z</time>
      </trkpt>
      <trkpt lat="44.09194" lon="6.82314">
        <ele>1548.9</ele>
        <time>2021-06-02T12:14:52.841Z</time>
      </trkpt>
      <trkpt lat="44.092" lon="6.82311">
        <ele>1551.2</ele>
        <time>2021-06-02T12:14:56.263Z</time>
      </trkpt>
      <trkpt lat="44.09207" lon="6.82307">
        <ele>1550.2</ele>
        <time>2021-06-02T12:15:00.069Z</time>
      </trkpt>
      <trkpt lat="44.09212" lon="6.82304">
        <ele>1552.6</ele>
        <time>2021-06-02T12:15:03.232Z</time>
      </trkpt>
      <trkpt lat="44.09218" lon="6.82299">
        <ele>1550.2</ele>
        <time>2021-06-02T12:15:07.000Z</time>
      </trkpt>
      <trkpt lat="44.09222" lon="6.82292">
        <ele>1549.5</ele>
        <time>2021-06-02T12:15:11.217Z</time>
      </trkpt>
      <trkpt lat="44.09224" lon="6.82283">
        <ele>1553.6</ele>
        <time>2021-06-02T12:15:14.651Z</time>
      </trkpt>
      <trkpt lat="44.09231" lon="6.82273">
        <ele>1556.1</ele>
        <time>2021-06-02T12:15:21.204Z</time>
      </trkpt>
      <trkpt lat="44.09236" lon="6.82269">
        <ele>1555.9</ele>
        <time>2021-06-02T12:15:24.320Z</time>
      </trkpt>
      <trkpt lat="44.09241" lon="6.82263">
        <ele>1556.5</ele>
        <time>2021-06-02T12:15:27.512Z</time>
      </trkpt>
      <trkpt lat="44.09245" lon="6.82259">
        <ele>1560.7</ele>
        <time>2021-06-02T12:15:31.223Z</time>
      </trkpt>
      <trkpt lat="44.09252" lon="6.82247">
        <ele>1567.6</ele>
        <time>2021-06-02T12:15:39.205Z</time>
      </trkpt>
      <trkpt lat="44.09255" lon="6.82242">
        <ele>1566.2</ele>
        <time>2021-06-02T12:15:43.259Z</time>
      </trkpt>
      <trkpt lat="44.09262" lon="6.82229">
        <ele>1569.5</ele>
        <time>2021-06-02T12:15:50.240Z</time>
      </trkpt>
      <trkpt lat="44.09267" lon="6.82221">
        <ele>1569.4</ele>
        <time>2021-06-02T12:15:54.185Z</time>
      </trkpt>
      <trkpt lat="44.09272" lon="6.82214">
        <ele>1569.8</ele>
        <time>2021-06-02T12:15:57.359Z</time>
      </trkpt>
      <trkpt lat="44.09279" lon="6.8221">
        <ele>1569.6</ele>
        <time>2021-06-02T12:16:01.208Z</time>
      </trkpt>
      <trkpt lat="44.09285" lon="6.822">
        <ele>1569</ele>
        <time>2021-06-02T12:16:07.278Z</time>
      </trkpt>
      <trkpt lat="44.0929" lon="6.82192">
        <ele>1567</ele>
        <time>2021-06-02T12:16:11.203Z</time>
      </trkpt>
      <trkpt lat="44.09295" lon="6.82187">
        <ele>1566.3</ele>
        <time>2021-06-02T12:16:14.223Z</time>
      </trkpt>
      <trkpt lat="44.09302" lon="6.82183">
        <ele>1568.4</ele>
        <time>2021-06-02T12:16:17.623Z</time>
      </trkpt>
      <trkpt lat="44.09308" lon="6.82178">
        <ele>1565.3</ele>
        <time>2021-06-02T12:16:21.204Z</time>
      </trkpt>
      <trkpt lat="44.09313" lon="6.82169">
        <ele>1568.5</ele>
        <time>2021-06-02T12:16:25.213Z</time>
      </trkpt>
      <trkpt lat="44.09318" lon="6.82164">
        <ele>1572</ele>
        <time>2021-06-02T12:16:28.243Z</time>
      </trkpt>
      <trkpt lat="44.09321" lon="6.82159">
        <ele>1572</ele>
        <time>2021-06-02T12:16:31.257Z</time>
      </trkpt>
      <trkpt lat="44.09327" lon="6.82146">
        <ele>1567.4</ele>
        <time>2021-06-02T12:16:35.222Z</time>
      </trkpt>
      <trkpt lat="44.09329" lon="6.82133">
        <ele>1570.2</ele>
        <time>2021-06-02T12:16:39.201Z</time>
      </trkpt>
      <trkpt lat="44.09331" lon="6.82127">
        <ele>1572.6</ele>
        <time>2021-06-02T12:16:42.211Z</time>
      </trkpt>
      <trkpt lat="44.09336" lon="6.82118">
        <ele>1574.2</ele>
        <time>2021-06-02T12:16:46.226Z</time>
      </trkpt>
      <trkpt lat="44.09339" lon="6.82113">
        <ele>1573.9</ele>
        <time>2021-06-02T12:16:53.343Z</time>
      </trkpt>
      <trkpt lat="44.09345" lon="6.82105">
        <ele>1579.3</ele>
        <time>2021-06-02T12:17:09.589Z</time>
      </trkpt>
      <trkpt lat="44.09347" lon="6.82099">
        <ele>1581</ele>
        <time>2021-06-02T12:17:13.119Z</time>
      </trkpt>
      <trkpt lat="44.09345" lon="6.82093">
        <ele>1586.9</ele>
        <time>2021-06-02T12:17:20.056Z</time>
      </trkpt>
      <trkpt lat="44.09343" lon="6.82084">
        <ele>1589.9</ele>
        <time>2021-06-02T12:17:36.208Z</time>
      </trkpt>
      <trkpt lat="44.09343" lon="6.82075">
        <ele>1591.3</ele>
        <time>2021-06-02T12:17:43.355Z</time>
      </trkpt>
      <trkpt lat="44.09346" lon="6.82065">
        <ele>1592.3</ele>
        <time>2021-06-02T12:17:46.373Z</time>
      </trkpt>
      <trkpt lat="44.0935" lon="6.82058">
        <ele>1586</ele>
        <time>2021-06-02T12:18:25.563Z</time>
      </trkpt>
      <trkpt lat="44.09352" lon="6.82051">
        <ele>1587.4</ele>
        <time>2021-06-02T12:18:33.259Z</time>
      </trkpt>
      <trkpt lat="44.09355" lon="6.82046">
        <ele>1588.6</ele>
        <time>2021-06-02T12:18:36.302Z</time>
      </trkpt>
      <trkpt lat="44.0936" lon="6.82039">
        <ele>1588.2</ele>
        <time>2021-06-02T12:18:40.213Z</time>
      </trkpt>
      <trkpt lat="44.09364" lon="6.82033">
        <ele>1587.2</ele>
        <time>2021-06-02T12:18:43.231Z</time>
      </trkpt>
      <trkpt lat="44.09367" lon="6.82028">
        <ele>1591.6</ele>
        <time>2021-06-02T12:18:46.269Z</time>
      </trkpt>
      <trkpt lat="44.09371" lon="6.82023">
        <ele>1588.5</ele>
        <time>2021-06-02T12:18:50.210Z</time>
      </trkpt>
      <trkpt lat="44.09374" lon="6.82011">
        <ele>1589.4</ele>
        <time>2021-06-02T12:18:54.249Z</time>
      </trkpt>
      <trkpt lat="44.09379" lon="6.82004">
        <ele>1590.9</ele>
        <time>2021-06-02T12:18:58.251Z</time>
      </trkpt>
      <trkpt lat="44.09382" lon="6.81996">
        <ele>1590.1</ele>
        <time>2021-06-02T12:19:01.251Z</time>
      </trkpt>
      <trkpt lat="44.09385" lon="6.81981">
        <ele>1591.7</ele>
        <time>2021-06-02T12:19:06.254Z</time>
      </trkpt>
      <trkpt lat="44.09388" lon="6.81972">
        <ele>1603.7</ele>
        <time>2021-06-02T12:19:13.620Z</time>
      </trkpt>
      <trkpt lat="44.09393" lon="6.81969">
        <ele>1607.1</ele>
        <time>2021-06-02T12:19:23.760Z</time>
      </trkpt>
      <trkpt lat="44.09396" lon="6.81963">
        <ele>1606.7</ele>
        <time>2021-06-02T12:19:30.311Z</time>
      </trkpt>
      <trkpt lat="44.09389" lon="6.81955">
        <ele>1609.6</ele>
        <time>2021-06-02T12:19:36.560Z</time>
      </trkpt>
      <trkpt lat="44.09382" lon="6.81949">
        <ele>1597.6</ele>
        <time>2021-06-02T12:19:40.211Z</time>
      </trkpt>
      <trkpt lat="44.09378" lon="6.81943">
        <ele>1607.4</ele>
        <time>2021-06-02T12:19:43.258Z</time>
      </trkpt>
      <trkpt lat="44.09374" lon="6.81942">
        <ele>1614.4</ele>
        <time>2021-06-02T12:19:49.000Z</time>
      </trkpt>
      <trkpt lat="44.09375" lon="6.81933">
        <ele>1617</ele>
        <time>2021-06-02T12:25:23.964Z</time>
      </trkpt>
      <trkpt lat="44.09367" lon="6.81924">
        <ele>1616.1</ele>
        <time>2021-06-02T12:25:27.341Z</time>
      </trkpt>
      <trkpt lat="44.09359" lon="6.81917">
        <ele>1615.5</ele>
        <time>2021-06-02T12:25:30.565Z</time>
      </trkpt>
      <trkpt lat="44.09349" lon="6.81911">
        <ele>1616</ele>
        <time>2021-06-02T12:25:34.215Z</time>
      </trkpt>
      <trkpt lat="44.09339" lon="6.81907">
        <ele>1612.1</ele>
        <time>2021-06-02T12:25:38.715Z</time>
      </trkpt>
      <trkpt lat="44.09329" lon="6.81901">
        <ele>1614</ele>
        <time>2021-06-02T12:25:42.223Z</time>
      </trkpt>
      <trkpt lat="44.0932" lon="6.81895">
        <ele>1615.2</ele>
        <time>2021-06-02T12:25:46.209Z</time>
      </trkpt>
      <trkpt lat="44.09315" lon="6.81886">
        <ele>1610.8</ele>
        <time>2021-06-02T12:25:49.283Z</time>
      </trkpt>
      <trkpt lat="44.09308" lon="6.81875">
        <ele>1610.7</ele>
        <time>2021-06-02T12:25:54.216Z</time>
      </trkpt>
      <trkpt lat="44.09305" lon="6.81869">
        <ele>1612.2</ele>
        <time>2021-06-02T12:25:58.211Z</time>
      </trkpt>
      <trkpt lat="44.09301" lon="6.81866">
        <ele>1613.1</ele>
        <time>2021-06-02T12:26:01.216Z</time>
      </trkpt>
      <trkpt lat="44.0929" lon="6.81864">
        <ele>1611.4</ele>
        <time>2021-06-02T12:26:05.172Z</time>
      </trkpt>
      <trkpt lat="44.09258" lon="6.8186">
        <ele>1608.6</ele>
        <time>2021-06-02T12:26:10.000Z</time>
      </trkpt>
      <trkpt lat="44.09222" lon="6.81864">
        <ele>1603.8</ele>
        <time>2021-06-02T12:26:16.000Z</time>
      </trkpt>
      <trkpt lat="44.09185" lon="6.81855">
        <ele>1613.6</ele>
        <time>2021-06-02T12:26:22.000Z</time>
      </trkpt>
      <trkpt lat="44.09165" lon="6.81848">
        <ele>1607.8</ele>
        <time>2021-06-02T12:26:25.000Z</time>
      </trkpt>
      <trkpt lat="44.09147" lon="6.8184">
        <ele>1602.5</ele>
        <time>2021-06-02T12:26:31.000Z</time>
      </trkpt>
      <trkpt lat="44.09137" lon="6.81838">
        <ele>1599.4</ele>
        <time>2021-06-02T12:26:34.905Z</time>
      </trkpt>
      <trkpt lat="44.09125" lon="6.81838">
        <ele>1596.7</ele>
        <time>2021-06-02T12:26:41.648Z</time>
      </trkpt>
      <trkpt lat="44.09109" lon="6.8184">
        <ele>1594</ele>
        <time>2021-06-02T12:26:45.216Z</time>
      </trkpt>
      <trkpt lat="44.09079" lon="6.81847">
        <ele>1593.6</ele>
        <time>2021-06-02T12:26:49.000Z</time>
      </trkpt>
      <trkpt lat="44.09065" lon="6.81839">
        <ele>1594</ele>
        <time>2021-06-02T12:26:52.000Z</time>
      </trkpt>
      <trkpt lat="44.09049" lon="6.81846">
        <ele>1586.8</ele>
        <time>2021-06-02T12:27:00.220Z</time>
      </trkpt>
      <trkpt lat="44.09038" lon="6.81854">
        <ele>1586.3</ele>
        <time>2021-06-02T12:27:03.224Z</time>
      </trkpt>
      <trkpt lat="44.09026" lon="6.81857">
        <ele>1589.3</ele>
        <time>2021-06-02T12:27:06.571Z</time>
      </trkpt>
      <trkpt lat="44.09017" lon="6.81861">
        <ele>1584.3</ele>
        <time>2021-06-02T12:27:10.000Z</time>
      </trkpt>
      <trkpt lat="44.09015" lon="6.81853">
        <ele>1581.2</ele>
        <time>2021-06-02T12:27:13.000Z</time>
      </trkpt>
      <trkpt lat="44.09015" lon="6.81846">
        <ele>1532.8</ele>
        <time>2021-06-02T12:27:22.000Z</time>
      </trkpt>
      <trkpt lat="44.09013" lon="6.8184">
        <ele>1572.5</ele>
        <time>2021-06-02T12:27:34.000Z</time>
      </trkpt>
      <trkpt lat="44.09014" lon="6.8183">
        <ele>1578.4</ele>
        <time>2021-06-02T12:27:37.000Z</time>
      </trkpt>
      <trkpt lat="44.09017" lon="6.81822">
        <ele>1578.8</ele>
        <time>2021-06-02T12:27:40.000Z</time>
      </trkpt>
      <trkpt lat="44.09032" lon="6.81808">
        <ele>1580</ele>
        <time>2021-06-02T12:27:46.000Z</time>
      </trkpt>
      <trkpt lat="44.0904" lon="6.81799">
        <ele>1579.1</ele>
        <time>2021-06-02T12:27:49.000Z</time>
      </trkpt>
      <trkpt lat="44.09048" lon="6.81791">
        <ele>1578.3</ele>
        <time>2021-06-02T12:27:52.232Z</time>
      </trkpt>
      <trkpt lat="44.09063" lon="6.81784">
        <ele>1577</ele>
        <time>2021-06-02T12:27:56.547Z</time>
      </trkpt>
      <trkpt lat="44.09071" lon="6.81771">
        <ele>1575.9</ele>
        <time>2021-06-02T12:27:59.988Z</time>
      </trkpt>
      <trkpt lat="44.09077" lon="6.81755">
        <ele>1574.4</ele>
        <time>2021-06-02T12:28:04.208Z</time>
      </trkpt>
      <trkpt lat="44.09082" lon="6.81749">
        <ele>1575</ele>
        <time>2021-06-02T12:28:08.027Z</time>
      </trkpt>
      <trkpt lat="44.09089" lon="6.81734">
        <ele>1570.2</ele>
        <time>2021-06-02T12:28:11.205Z</time>
      </trkpt>
      <trkpt lat="44.09101" lon="6.81726">
        <ele>1570.4</ele>
        <time>2021-06-02T12:28:15.150Z</time>
      </trkpt>
      <trkpt lat="44.09106" lon="6.81719">
        <ele>1565.6</ele>
        <time>2021-06-02T12:28:18.213Z</time>
      </trkpt>
      <trkpt lat="44.09113" lon="6.81714">
        <ele>1564.1</ele>
        <time>2021-06-02T12:28:21.237Z</time>
      </trkpt>
      <trkpt lat="44.09117" lon="6.817">
        <ele>1565</ele>
        <time>2021-06-02T12:28:24.252Z</time>
      </trkpt>
      <trkpt lat="44.09121" lon="6.81681">
        <ele>1565.8</ele>
        <time>2021-06-02T12:28:28.217Z</time>
      </trkpt>
      <trkpt lat="44.09126" lon="6.81664">
        <ele>1566.5</ele>
        <time>2021-06-02T12:28:32.218Z</time>
      </trkpt>
      <trkpt lat="44.09131" lon="6.81656">
        <ele>1564.8</ele>
        <time>2021-06-02T12:28:35.373Z</time>
      </trkpt>
      <trkpt lat="44.09141" lon="6.81648">
        <ele>1566.6</ele>
        <time>2021-06-02T12:28:39.529Z</time>
      </trkpt>
      <trkpt lat="44.09138" lon="6.81634">
        <ele>1565.6</ele>
        <time>2021-06-02T12:28:43.000Z</time>
      </trkpt>
      <trkpt lat="44.09141" lon="6.81628">
        <ele>1564.2</ele>
        <time>2021-06-02T12:28:49.000Z</time>
      </trkpt>
      <trkpt lat="44.09152" lon="6.81625">
        <ele>1562.5</ele>
        <time>2021-06-02T12:28:55.000Z</time>
      </trkpt>
      <trkpt lat="44.09168" lon="6.81617">
        <ele>1564.9</ele>
        <time>2021-06-02T12:29:01.000Z</time>
      </trkpt>
      <trkpt lat="44.09185" lon="6.81607">
        <ele>1560</ele>
        <time>2021-06-02T12:29:07.000Z</time>
      </trkpt>
      <trkpt lat="44.09193" lon="6.81605">
        <ele>1560</ele>
        <time>2021-06-02T12:29:10.210Z</time>
      </trkpt>
      <trkpt lat="44.09204" lon="6.81594">
        <ele>1555.7</ele>
        <time>2021-06-02T12:29:13.713Z</time>
      </trkpt>
      <trkpt lat="44.09219" lon="6.81583">
        <ele>1556.7</ele>
        <time>2021-06-02T12:29:17.424Z</time>
      </trkpt>
      <trkpt lat="44.09229" lon="6.81566">
        <ele>1554.5</ele>
        <time>2021-06-02T12:29:21.083Z</time>
      </trkpt>
      <trkpt lat="44.09237" lon="6.81558">
        <ele>1554.1</ele>
        <time>2021-06-02T12:29:24.213Z</time>
      </trkpt>
      <trkpt lat="44.09252" lon="6.81549">
        <ele>1549.1</ele>
        <time>2021-06-02T12:29:31.213Z</time>
      </trkpt>
      <trkpt lat="44.09281" lon="6.81513">
        <ele>1548</ele>
        <time>2021-06-02T12:29:37.000Z</time>
      </trkpt>
      <trkpt lat="44.09292" lon="6.81511">
        <ele>1546</ele>
        <time>2021-06-02T12:29:41.216Z</time>
      </trkpt>
      <trkpt lat="44.093" lon="6.81509">
        <ele>1546.1</ele>
        <time>2021-06-02T12:29:44.528Z</time>
      </trkpt>
      <trkpt lat="44.09307" lon="6.81504">
        <ele>1547.5</ele>
        <time>2021-06-02T12:29:47.729Z</time>
      </trkpt>
      <trkpt lat="44.09316" lon="6.81499">
        <ele>1546.1</ele>
        <time>2021-06-02T12:29:50.965Z</time>
      </trkpt>
      <trkpt lat="44.09341" lon="6.81485">
        <ele>1546.3</ele>
        <time>2021-06-02T12:29:55.000Z</time>
      </trkpt>
      <trkpt lat="44.09345" lon="6.81474">
        <ele>1546.3</ele>
        <time>2021-06-02T12:29:58.220Z</time>
      </trkpt>
      <trkpt lat="44.0936" lon="6.81466">
        <ele>1545.7</ele>
        <time>2021-06-02T12:30:02.207Z</time>
      </trkpt>
      <trkpt lat="44.09368" lon="6.81458">
        <ele>1546.7</ele>
        <time>2021-06-02T12:30:05.276Z</time>
      </trkpt>
      <trkpt lat="44.0938" lon="6.81449">
        <ele>1546.3</ele>
        <time>2021-06-02T12:30:08.724Z</time>
      </trkpt>
      <trkpt lat="44.09393" lon="6.81433">
        <ele>1546.4</ele>
        <time>2021-06-02T12:30:12.220Z</time>
      </trkpt>
      <trkpt lat="44.0941" lon="6.81419">
        <ele>1547.7</ele>
        <time>2021-06-02T12:30:16.215Z</time>
      </trkpt>
      <trkpt lat="44.09429" lon="6.814">
        <ele>1544.3</ele>
        <time>2021-06-02T12:30:20.218Z</time>
      </trkpt>
      <trkpt lat="44.09434" lon="6.81394">
        <ele>1543</ele>
        <time>2021-06-02T12:30:23.255Z</time>
      </trkpt>
      <trkpt lat="44.09449" lon="6.81392">
        <ele>1544</ele>
        <time>2021-06-02T12:30:27.235Z</time>
      </trkpt>
      <trkpt lat="44.09459" lon="6.81388">
        <ele>1541.1</ele>
        <time>2021-06-02T12:30:31.209Z</time>
      </trkpt>
      <trkpt lat="44.09465" lon="6.81381">
        <ele>1539.6</ele>
        <time>2021-06-02T12:30:34.237Z</time>
      </trkpt>
      <trkpt lat="44.09474" lon="6.81364">
        <ele>1541.5</ele>
        <time>2021-06-02T12:30:38.243Z</time>
      </trkpt>
      <trkpt lat="44.09483" lon="6.81354">
        <ele>1543.3</ele>
        <time>2021-06-02T12:30:41.603Z</time>
      </trkpt>
      <trkpt lat="44.0949" lon="6.81345">
        <ele>1542.9</ele>
        <time>2021-06-02T12:30:44.988Z</time>
      </trkpt>
      <trkpt lat="44.09515" lon="6.81315">
        <ele>1539.7</ele>
        <time>2021-06-02T12:30:49.000Z</time>
      </trkpt>
      <trkpt lat="44.09527" lon="6.81309">
        <ele>1537.8</ele>
        <time>2021-06-02T12:30:53.208Z</time>
      </trkpt>
      <trkpt lat="44.09545" lon="6.81291">
        <ele>1538.6</ele>
        <time>2021-06-02T12:30:58.000Z</time>
      </trkpt>
      <trkpt lat="44.0955" lon="6.81284">
        <ele>1538.6</ele>
        <time>2021-06-02T12:31:01.212Z</time>
      </trkpt>
      <trkpt lat="44.09568" lon="6.81269">
        <ele>1539.5</ele>
        <time>2021-06-02T12:31:04.000Z</time>
      </trkpt>
      <trkpt lat="44.0959" lon="6.81238">
        <ele>1538.5</ele>
        <time>2021-06-02T12:31:10.000Z</time>
      </trkpt>
      <trkpt lat="44.09616" lon="6.81196">
        <ele>1537.5</ele>
        <time>2021-06-02T12:31:16.000Z</time>
      </trkpt>
      <trkpt lat="44.09628" lon="6.8117">
        <ele>1536.1</ele>
        <time>2021-06-02T12:31:19.000Z</time>
      </trkpt>
      <trkpt lat="44.09637" lon="6.8116">
        <ele>1536.4</ele>
        <time>2021-06-02T12:31:24.266Z</time>
      </trkpt>
      <trkpt lat="44.09644" lon="6.81163">
        <ele>1535.7</ele>
        <time>2021-06-02T12:31:28.052Z</time>
      </trkpt>
      <trkpt lat="44.09651" lon="6.81163">
        <ele>1535.2</ele>
        <time>2021-06-02T12:31:31.633Z</time>
      </trkpt>
      <trkpt lat="44.09658" lon="6.81159">
        <ele>1532.4</ele>
        <time>2021-06-02T12:31:35.215Z</time>
      </trkpt>
      <trkpt lat="44.09662" lon="6.8115">
        <ele>1532.6</ele>
        <time>2021-06-02T12:31:38.507Z</time>
      </trkpt>
      <trkpt lat="44.09668" lon="6.8114">
        <ele>1532.1</ele>
        <time>2021-06-02T12:31:42.204Z</time>
      </trkpt>
      <trkpt lat="44.09677" lon="6.8113">
        <ele>1534.6</ele>
        <time>2021-06-02T12:31:46.207Z</time>
      </trkpt>
      <trkpt lat="44.09682" lon="6.81122">
        <ele>1534.6</ele>
        <time>2021-06-02T12:31:49.214Z</time>
      </trkpt>
      <trkpt lat="44.09691" lon="6.81116">
        <ele>1538.7</ele>
        <time>2021-06-02T12:31:52.796Z</time>
      </trkpt>
      <trkpt lat="44.09696" lon="6.81106">
        <ele>1541.9</ele>
        <time>2021-06-02T12:31:56.215Z</time>
      </trkpt>
      <trkpt lat="44.09701" lon="6.81095">
        <ele>1542.9</ele>
        <time>2021-06-02T12:31:59.267Z</time>
      </trkpt>
      <trkpt lat="44.09706" lon="6.81082">
        <ele>1540.4</ele>
        <time>2021-06-02T12:32:02.903Z</time>
      </trkpt>
      <trkpt lat="44.09708" lon="6.81073">
        <ele>1543.3</ele>
        <time>2021-06-02T12:32:06.242Z</time>
      </trkpt>
      <trkpt lat="44.09708" lon="6.81062">
        <ele>1544.1</ele>
        <time>2021-06-02T12:32:10.219Z</time>
      </trkpt>
      <trkpt lat="44.09704" lon="6.81046">
        <ele>1545.9</ele>
        <time>2021-06-02T12:32:14.210Z</time>
      </trkpt>
      <trkpt lat="44.09698" lon="6.81037">
        <ele>1546</ele>
        <time>2021-06-02T12:32:17.353Z</time>
      </trkpt>
      <trkpt lat="44.09696" lon="6.81025">
        <ele>1533.7</ele>
        <time>2021-06-02T12:32:22.000Z</time>
      </trkpt>
      <trkpt lat="44.09696" lon="6.81018">
        <ele>1533.1</ele>
        <time>2021-06-02T12:32:25.000Z</time>
      </trkpt>
      <trkpt lat="44.09695" lon="6.81011">
        <ele>1534.2</ele>
        <time>2021-06-02T12:32:34.000Z</time>
      </trkpt>
      <trkpt lat="44.09693" lon="6.81005">
        <ele>1534.6</ele>
        <time>2021-06-02T12:32:58.735Z</time>
      </trkpt>
      <trkpt lat="44.0969" lon="6.80995">
        <ele>1531.8</ele>
        <time>2021-06-02T12:33:05.254Z</time>
      </trkpt>
      <trkpt lat="44.0968" lon="6.80985">
        <ele>1530.2</ele>
        <time>2021-06-02T12:33:08.526Z</time>
      </trkpt>
      <trkpt lat="44.09668" lon="6.80982">
        <ele>1532.4</ele>
        <time>2021-06-02T12:33:11.993Z</time>
      </trkpt>
      <trkpt lat="44.09663" lon="6.80975">
        <ele>1530.3</ele>
        <time>2021-06-02T12:33:15.009Z</time>
      </trkpt>
      <trkpt lat="44.09665" lon="6.80969">
        <ele>1527.8</ele>
        <time>2021-06-02T12:33:18.473Z</time>
      </trkpt>
      <trkpt lat="44.09678" lon="6.8095">
        <ele>1520.4</ele>
        <time>2021-06-02T12:33:22.000Z</time>
      </trkpt>
      <trkpt lat="44.09692" lon="6.80935">
        <ele>1518.3</ele>
        <time>2021-06-02T12:33:25.000Z</time>
      </trkpt>
      <trkpt lat="44.09704" lon="6.80918">
        <ele>1515.5</ele>
        <time>2021-06-02T12:33:28.000Z</time>
      </trkpt>
      <trkpt lat="44.09718" lon="6.80896">
        <ele>1516</ele>
        <time>2021-06-02T12:33:33.224Z</time>
      </trkpt>
      <trkpt lat="44.09722" lon="6.80894">
        <ele>1439.6</ele>
        <time>2021-06-02T12:33:36.239Z</time>
      </trkpt>
      <trkpt lat="44.09728" lon="6.80889">
        <ele>1478.5</ele>
        <time>2021-06-02T12:33:39.245Z</time>
      </trkpt>
      <trkpt lat="44.09747" lon="6.80858">
        <ele>1495.6</ele>
        <time>2021-06-02T12:33:43.000Z</time>
      </trkpt>
      <trkpt lat="44.09768" lon="6.80827">
        <ele>1493.8</ele>
        <time>2021-06-02T12:33:46.000Z</time>
      </trkpt>
      <trkpt lat="44.09811" lon="6.80793">
        <ele>1492.4</ele>
        <time>2021-06-02T12:33:52.000Z</time>
      </trkpt>
      <trkpt lat="44.0983" lon="6.80768">
        <ele>1493.7</ele>
        <time>2021-06-02T12:33:55.000Z</time>
      </trkpt>
      <trkpt lat="44.09851" lon="6.8075">
        <ele>1493</ele>
        <time>2021-06-02T12:33:58.000Z</time>
      </trkpt>
      <trkpt lat="44.09868" lon="6.80737">
        <ele>1489.1</ele>
        <time>2021-06-02T12:34:01.000Z</time>
      </trkpt>
      <trkpt lat="44.09881" lon="6.80717">
        <ele>1485.7</ele>
        <time>2021-06-02T12:34:06.215Z</time>
      </trkpt>
      <trkpt lat="44.09895" lon="6.807">
        <ele>1485.5</ele>
        <time>2021-06-02T12:34:10.000Z</time>
      </trkpt>
      <trkpt lat="44.09901" lon="6.8069">
        <ele>1483</ele>
        <time>2021-06-02T12:34:13.000Z</time>
      </trkpt>
      <trkpt lat="44.09916" lon="6.8067">
        <ele>1483.7</ele>
        <time>2021-06-02T12:34:19.000Z</time>
      </trkpt>
      <trkpt lat="44.09925" lon="6.8066">
        <ele>1478.9</ele>
        <time>2021-06-02T12:34:22.000Z</time>
      </trkpt>
      <trkpt lat="44.09935" lon="6.80648">
        <ele>1429.8</ele>
        <time>2021-06-02T12:34:25.236Z</time>
      </trkpt>
      <trkpt lat="44.09964" lon="6.80624">
        <ele>1465.3</ele>
        <time>2021-06-02T12:34:31.000Z</time>
      </trkpt>
      <trkpt lat="44.09986" lon="6.80592">
        <ele>1480.2</ele>
        <time>2021-06-02T12:34:37.000Z</time>
      </trkpt>
      <trkpt lat="44.09994" lon="6.80576">
        <ele>1483</ele>
        <time>2021-06-02T12:34:40.000Z</time>
      </trkpt>
      <trkpt lat="44.1" lon="6.80566">
        <ele>1482.9</ele>
        <time>2021-06-02T12:34:43.000Z</time>
      </trkpt>
      <trkpt lat="44.10007" lon="6.80553">
        <ele>1480.4</ele>
        <time>2021-06-02T12:34:49.000Z</time>
      </trkpt>
      <trkpt lat="44.10009" lon="6.80546">
        <ele>1481</ele>
        <time>2021-06-02T12:34:52.000Z</time>
      </trkpt>
      <trkpt lat="44.10013" lon="6.80541">
        <ele>1479.9</ele>
        <time>2021-06-02T12:34:55.000Z</time>
      </trkpt>
      <trkpt lat="44.10024" lon="6.80535">
        <ele>1479.3</ele>
        <time>2021-06-02T12:34:59.222Z</time>
      </trkpt>
      <trkpt lat="44.10048" lon="6.80511">
        <ele>1476.8</ele>
        <time>2021-06-02T12:35:04.000Z</time>
      </trkpt>
      <trkpt lat="44.10073" lon="6.8047">
        <ele>1477.6</ele>
        <time>2021-06-02T12:35:10.000Z</time>
      </trkpt>
      <trkpt lat="44.10091" lon="6.80415">
        <ele>1478.3</ele>
        <time>2021-06-02T12:35:16.000Z</time>
      </trkpt>
      <trkpt lat="44.101" lon="6.80387">
        <ele>1477</ele>
        <time>2021-06-02T12:35:19.000Z</time>
      </trkpt>
      <trkpt lat="44.10113" lon="6.80328">
        <ele>1446.7</ele>
        <time>2021-06-02T12:35:25.000Z</time>
      </trkpt>
      <trkpt lat="44.10109" lon="6.80309">
        <ele>1461.3</ele>
        <time>2021-06-02T12:35:28.000Z</time>
      </trkpt>
      <trkpt lat="44.10098" lon="6.80272">
        <ele>1466.9</ele>
        <time>2021-06-02T12:35:34.000Z</time>
      </trkpt>
      <trkpt lat="44.10112" lon="6.80233">
        <ele>1467.6</ele>
        <time>2021-06-02T12:35:40.000Z</time>
      </trkpt>
      <trkpt lat="44.10112" lon="6.80222">
        <ele>1466.5</ele>
        <time>2021-06-02T12:35:43.000Z</time>
      </trkpt>
      <trkpt lat="44.1012" lon="6.80211">
        <ele>1470.4</ele>
        <time>2021-06-02T12:35:46.464Z</time>
      </trkpt>
      <trkpt lat="44.10126" lon="6.80198">
        <ele>1474.8</ele>
        <time>2021-06-02T12:35:49.699Z</time>
      </trkpt>
      <trkpt lat="44.10134" lon="6.80183">
        <ele>1476</ele>
        <time>2021-06-02T12:35:53.638Z</time>
      </trkpt>
      <trkpt lat="44.1014" lon="6.80174">
        <ele>1473.1</ele>
        <time>2021-06-02T12:35:57.003Z</time>
      </trkpt>
      <trkpt lat="44.10153" lon="6.80141">
        <ele>1472.5</ele>
        <time>2021-06-02T12:36:01.000Z</time>
      </trkpt>
      <trkpt lat="44.10161" lon="6.80117">
        <ele>1470.5</ele>
        <time>2021-06-02T12:36:04.000Z</time>
      </trkpt>
      <trkpt lat="44.10168" lon="6.80077">
        <ele>1473.2</ele>
        <time>2021-06-02T12:36:10.000Z</time>
      </trkpt>
      <trkpt lat="44.10182" lon="6.8007">
        <ele>1473.8</ele>
        <time>2021-06-02T12:36:15.251Z</time>
      </trkpt>
      <trkpt lat="44.10189" lon="6.80061">
        <ele>1477.8</ele>
        <time>2021-06-02T12:36:19.000Z</time>
      </trkpt>
      <trkpt lat="44.10181" lon="6.80044">
        <ele>1477.7</ele>
        <time>2021-06-02T12:36:22.000Z</time>
      </trkpt>
      <trkpt lat="44.10177" lon="6.80004">
        <ele>1475.6</ele>
        <time>2021-06-02T12:36:29.206Z</time>
      </trkpt>
      <trkpt lat="44.10147" lon="6.7999">
        <ele>1469.5</ele>
        <time>2021-06-02T12:36:34.000Z</time>
      </trkpt>
      <trkpt lat="44.10149" lon="6.79965">
        <ele>1463.7</ele>
        <time>2021-06-02T12:36:41.216Z</time>
      </trkpt>
      <trkpt lat="44.10153" lon="6.79955">
        <ele>1458.1</ele>
        <time>2021-06-02T12:36:48.331Z</time>
      </trkpt>
      <trkpt lat="44.10156" lon="6.79944">
        <ele>1460.6</ele>
        <time>2021-06-02T12:36:52.207Z</time>
      </trkpt>
      <trkpt lat="44.10162" lon="6.79932">
        <ele>1461.6</ele>
        <time>2021-06-02T12:36:57.209Z</time>
      </trkpt>
      <trkpt lat="44.1017" lon="6.79926">
        <ele>1462.2</ele>
        <time>2021-06-02T12:37:04.213Z</time>
      </trkpt>
      <trkpt lat="44.10176" lon="6.79933">
        <ele>1459.4</ele>
        <time>2021-06-02T12:37:07.651Z</time>
      </trkpt>
      <trkpt lat="44.10184" lon="6.79938">
        <ele>1589</ele>
        <time>2021-06-02T12:37:10.924Z</time>
      </trkpt>
      <trkpt lat="44.1019" lon="6.79944">
        <ele>1528.6</ele>
        <time>2021-06-02T12:37:13.968Z</time>
      </trkpt>
      <trkpt lat="44.10193" lon="6.7995">
        <ele>1495</ele>
        <time>2021-06-02T12:37:17.227Z</time>
      </trkpt>
      <trkpt lat="44.10199" lon="6.79954">
        <ele>1476.7</ele>
        <time>2021-06-02T12:37:20.481Z</time>
      </trkpt>
      <trkpt lat="44.10207" lon="6.79957">
        <ele>1468.1</ele>
        <time>2021-06-02T12:37:24.046Z</time>
      </trkpt>
      <trkpt lat="44.1021" lon="6.79962">
        <ele>1463.6</ele>
        <time>2021-06-02T12:37:30.567Z</time>
      </trkpt>
      <trkpt lat="44.10215" lon="6.7997">
        <ele>1460.3</ele>
        <time>2021-06-02T12:37:36.969Z</time>
      </trkpt>
      <trkpt lat="44.10219" lon="6.79978">
        <ele>1454.9</ele>
        <time>2021-06-02T12:37:40.000Z</time>
      </trkpt>
      <trkpt lat="44.10248" lon="6.79986">
        <ele>1449.8</ele>
        <time>2021-06-02T12:37:46.000Z</time>
      </trkpt>
      <trkpt lat="44.10264" lon="6.8">
        <ele>1450.3</ele>
        <time>2021-06-02T12:37:49.000Z</time>
      </trkpt>
      <trkpt lat="44.10275" lon="6.80021">
        <ele>1445.8</ele>
        <time>2021-06-02T12:37:52.000Z</time>
      </trkpt>
      <trkpt lat="44.10277" lon="6.80033">
        <ele>1440.5</ele>
        <time>2021-06-02T12:37:55.000Z</time>
      </trkpt>
      <trkpt lat="44.10279" lon="6.80047">
        <ele>1400.9</ele>
        <time>2021-06-02T12:38:00.573Z</time>
      </trkpt>
      <trkpt lat="44.10273" lon="6.80049">
        <ele>1429</ele>
        <time>2021-06-02T12:38:14.933Z</time>
      </trkpt>
      <trkpt lat="44.10278" lon="6.80057">
        <ele>1436.5</ele>
        <time>2021-06-02T12:38:59.360Z</time>
      </trkpt>
      <trkpt lat="44.10286" lon="6.80061">
        <ele>1434.5</ele>
        <time>2021-06-02T12:39:03.223Z</time>
      </trkpt>
      <trkpt lat="44.10294" lon="6.80065">
        <ele>1435.9</ele>
        <time>2021-06-02T12:39:06.224Z</time>
      </trkpt>
      <trkpt lat="44.10303" lon="6.80068">
        <ele>1434.4</ele>
        <time>2021-06-02T12:39:10.000Z</time>
      </trkpt>
      <trkpt lat="44.1031" lon="6.80069">
        <ele>1432.8</ele>
        <time>2021-06-02T12:39:16.000Z</time>
      </trkpt>
      <trkpt lat="44.1032" lon="6.80077">
        <ele>1431.3</ele>
        <time>2021-06-02T12:39:26.692Z</time>
      </trkpt>
      <trkpt lat="44.10325" lon="6.80077">
        <ele>1431.6</ele>
        <time>2021-06-02T12:39:30.224Z</time>
      </trkpt>
      <trkpt lat="44.1033" lon="6.80077">
        <ele>1432</ele>
        <time>2021-06-02T12:39:33.335Z</time>
      </trkpt>
      <trkpt lat="44.10337" lon="6.80078">
        <ele>1432.4</ele>
        <time>2021-06-02T12:39:44.483Z</time>
      </trkpt>
      <trkpt lat="44.10342" lon="6.80078">
        <ele>1434.9</ele>
        <time>2021-06-02T12:39:48.599Z</time>
      </trkpt>
      <trkpt lat="44.10349" lon="6.80077">
        <ele>1431.7</ele>
        <time>2021-06-02T12:39:59.214Z</time>
      </trkpt>
      <trkpt lat="44.10354" lon="6.80076">
        <ele>1434.3</ele>
        <time>2021-06-02T12:40:06.167Z</time>
      </trkpt>
      <trkpt lat="44.10359" lon="6.80076">
        <ele>1434.9</ele>
        <time>2021-06-02T12:40:09.236Z</time>
      </trkpt>
      <trkpt lat="44.10367" lon="6.80079">
        <ele>1434.2</ele>
        <time>2021-06-02T12:40:12.846Z</time>
      </trkpt>
      <trkpt lat="44.1038" lon="6.80084">
        <ele>1430.8</ele>
        <time>2021-06-02T12:40:16.209Z</time>
      </trkpt>
      <trkpt lat="44.10387" lon="6.80082">
        <ele>1430</ele>
        <time>2021-06-02T12:40:19.216Z</time>
      </trkpt>
      <trkpt lat="44.10393" lon="6.80075">
        <ele>1429.6</ele>
        <time>2021-06-02T12:40:22.256Z</time>
      </trkpt>
      <trkpt lat="44.10416" lon="6.80023">
        <ele>1426.4</ele>
        <time>2021-06-02T12:40:28.000Z</time>
      </trkpt>
      <trkpt lat="44.10421" lon="6.80009">
        <ele>1426.4</ele>
        <time>2021-06-02T12:40:31.216Z</time>
      </trkpt>
      <trkpt lat="44.10451" lon="6.79977">
        <ele>1412.3</ele>
        <time>2021-06-02T12:40:37.000Z</time>
      </trkpt>
      <trkpt lat="44.10456" lon="6.79979">
        <ele>1412.3</ele>
        <time>2021-06-02T12:40:40.219Z</time>
      </trkpt>
      <trkpt lat="44.10468" lon="6.79963">
        <ele>1408.9</ele>
        <time>2021-06-02T12:40:46.987Z</time>
      </trkpt>
      <trkpt lat="44.10496" lon="6.79933">
        <ele>1406.4</ele>
        <time>2021-06-02T12:40:52.000Z</time>
      </trkpt>
      <trkpt lat="44.10503" lon="6.79928">
        <ele>1406.4</ele>
        <time>2021-06-02T12:40:55.216Z</time>
      </trkpt>
      <trkpt lat="44.1051" lon="6.79923">
        <ele>1398.6</ele>
        <time>2021-06-02T12:40:59.220Z</time>
      </trkpt>
      <trkpt lat="44.10526" lon="6.79916">
        <ele>1394.7</ele>
        <time>2021-06-02T12:41:02.932Z</time>
      </trkpt>
      <trkpt lat="44.1054" lon="6.7992">
        <ele>1393.4</ele>
        <time>2021-06-02T12:41:06.215Z</time>
      </trkpt>
      <trkpt lat="44.10555" lon="6.79921">
        <ele>1391.4</ele>
        <time>2021-06-02T12:41:10.223Z</time>
      </trkpt>
      <trkpt lat="44.10585" lon="6.79896">
        <ele>1391.1</ele>
        <time>2021-06-02T12:41:16.000Z</time>
      </trkpt>
      <trkpt lat="44.106" lon="6.79882">
        <ele>1391.5</ele>
        <time>2021-06-02T12:41:22.000Z</time>
      </trkpt>
      <trkpt lat="44.10607" lon="6.79878">
        <ele>1391.5</ele>
        <time>2021-06-02T12:41:25.221Z</time>
      </trkpt>
      <trkpt lat="44.1062" lon="6.79872">
        <ele>1384</ele>
        <time>2021-06-02T12:41:28.609Z</time>
      </trkpt>
      <trkpt lat="44.10636" lon="6.79867">
        <ele>1380.2</ele>
        <time>2021-06-02T12:41:31.991Z</time>
      </trkpt>
      <trkpt lat="44.10668" lon="6.79852">
        <ele>1377.5</ele>
        <time>2021-06-02T12:41:37.000Z</time>
      </trkpt>
      <trkpt lat="44.10687" lon="6.79852">
        <ele>1372.3</ele>
        <time>2021-06-02T12:41:40.000Z</time>
      </trkpt>
      <trkpt lat="44.10721" lon="6.79872">
        <ele>1362.5</ele>
        <time>2021-06-02T12:41:46.000Z</time>
      </trkpt>
      <trkpt lat="44.10724" lon="6.79884">
        <ele>1359.4</ele>
        <time>2021-06-02T12:41:49.000Z</time>
      </trkpt>
      <trkpt lat="44.10719" lon="6.79915">
        <ele>1351.3</ele>
        <time>2021-06-02T12:41:55.000Z</time>
      </trkpt>
      <trkpt lat="44.1072" lon="6.79955">
        <ele>1347.6</ele>
        <time>2021-06-02T12:42:01.000Z</time>
      </trkpt>
      <trkpt lat="44.10726" lon="6.7997">
        <ele>1348.5</ele>
        <time>2021-06-02T12:42:07.000Z</time>
      </trkpt>
      <trkpt lat="44.1073" lon="6.79972">
        <ele>1347</ele>
        <time>2021-06-02T12:42:18.251Z</time>
      </trkpt>
      <trkpt lat="44.10725" lon="6.79973">
        <ele>1348</ele>
        <time>2021-06-02T12:42:39.916Z</time>
      </trkpt>
      <trkpt lat="44.10721" lon="6.7998">
        <ele>1348.7</ele>
        <time>2021-06-02T12:42:47.205Z</time>
      </trkpt>
      <trkpt lat="44.10733" lon="6.7997">
        <ele>1346.2</ele>
        <time>2021-06-02T12:42:50.747Z</time>
      </trkpt>
      <trkpt lat="44.10745" lon="6.79959">
        <ele>1345.6</ele>
        <time>2021-06-02T12:42:54.224Z</time>
      </trkpt>
      <trkpt lat="44.10753" lon="6.79944">
        <ele>1345.1</ele>
        <time>2021-06-02T12:42:58.211Z</time>
      </trkpt>
      <trkpt lat="44.1076" lon="6.79935">
        <ele>1347.6</ele>
        <time>2021-06-02T12:43:01.220Z</time>
      </trkpt>
      <trkpt lat="44.1077" lon="6.79926">
        <ele>1343.7</ele>
        <time>2021-06-02T12:43:05.105Z</time>
      </trkpt>
      <trkpt lat="44.10779" lon="6.79923">
        <ele>1342.9</ele>
        <time>2021-06-02T12:43:08.234Z</time>
      </trkpt>
      <trkpt lat="44.10787" lon="6.79925">
        <ele>1339.9</ele>
        <time>2021-06-02T12:43:11.617Z</time>
      </trkpt>
      <trkpt lat="44.10794" lon="6.79921">
        <ele>1334.6</ele>
        <time>2021-06-02T12:43:18.257Z</time>
      </trkpt>
      <trkpt lat="44.108" lon="6.79913">
        <ele>1336.5</ele>
        <time>2021-06-02T12:43:22.125Z</time>
      </trkpt>
      <trkpt lat="44.10804" lon="6.79917">
        <ele>1324.4</ele>
        <time>2021-06-02T12:43:36.216Z</time>
      </trkpt>
      <trkpt lat="44.10805" lon="6.79923">
        <ele>1323.6</ele>
        <time>2021-06-02T12:43:42.724Z</time>
      </trkpt>
      <trkpt lat="44.10801" lon="6.7993">
        <ele>1315.6</ele>
        <time>2021-06-02T12:43:58.547Z</time>
      </trkpt>
      <trkpt lat="44.10796" lon="6.79934">
        <ele>1312.2</ele>
        <time>2021-06-02T12:44:01.954Z</time>
      </trkpt>
      <trkpt lat="44.10791" lon="6.79946">
        <ele>1312.7</ele>
        <time>2021-06-02T12:44:07.000Z</time>
      </trkpt>
      <trkpt lat="44.10792" lon="6.79965">
        <ele>1308.7</ele>
        <time>2021-06-02T12:44:16.000Z</time>
      </trkpt>
      <trkpt lat="44.10794" lon="6.79971">
        <ele>1310.2</ele>
        <time>2021-06-02T12:44:19.299Z</time>
      </trkpt>
      <trkpt lat="44.10795" lon="6.79983">
        <ele>1304.7</ele>
        <time>2021-06-02T12:44:23.614Z</time>
      </trkpt>
      <trkpt lat="44.10797" lon="6.79993">
        <ele>1301.4</ele>
        <time>2021-06-02T12:44:27.221Z</time>
      </trkpt>
      <trkpt lat="44.10798" lon="6.80001">
        <ele>1296.7</ele>
        <time>2021-06-02T12:44:34.485Z</time>
      </trkpt>
      <trkpt lat="44.10804" lon="6.80003">
        <ele>1299</ele>
        <time>2021-06-02T12:44:42.214Z</time>
      </trkpt>
      <trkpt lat="44.10808" lon="6.80002">
        <ele>1297.3</ele>
        <time>2021-06-02T12:45:08.907Z</time>
      </trkpt>
      <trkpt lat="44.10809" lon="6.80015">
        <ele>1295.4</ele>
        <time>2021-06-02T12:45:28.794Z</time>
      </trkpt>
      <trkpt lat="44.10817" lon="6.80036">
        <ele>1293.3</ele>
        <time>2021-06-02T12:45:32.241Z</time>
      </trkpt>
      <trkpt lat="44.10817" lon="6.80053">
        <ele>1289.5</ele>
        <time>2021-06-02T12:45:36.222Z</time>
      </trkpt>
      <trkpt lat="44.10817" lon="6.8007">
        <ele>1288.6</ele>
        <time>2021-06-02T12:45:40.209Z</time>
      </trkpt>
      <trkpt lat="44.10827" lon="6.80078">
        <ele>1284.3</ele>
        <time>2021-06-02T12:45:43.224Z</time>
      </trkpt>
      <trkpt lat="44.1084" lon="6.8009">
        <ele>1278.3</ele>
        <time>2021-06-02T12:45:47.224Z</time>
      </trkpt>
      <trkpt lat="44.10855" lon="6.80092">
        <ele>1277</ele>
        <time>2021-06-02T12:45:51.009Z</time>
      </trkpt>
      <trkpt lat="44.1086" lon="6.80086">
        <ele>1275.1</ele>
        <time>2021-06-02T12:45:55.220Z</time>
      </trkpt>
      <trkpt lat="44.10852" lon="6.8008">
        <ele>1272.6</ele>
        <time>2021-06-02T12:46:02.733Z</time>
      </trkpt>
      <trkpt lat="44.10853" lon="6.8007">
        <ele>1272.2</ele>
        <time>2021-06-02T12:46:06.310Z</time>
      </trkpt>
      <trkpt lat="44.10862" lon="6.80063">
        <ele>1270.2</ele>
        <time>2021-06-02T12:46:10.000Z</time>
      </trkpt>
      <trkpt lat="44.10867" lon="6.80059">
        <ele>1267.9</ele>
        <time>2021-06-02T12:46:13.000Z</time>
      </trkpt>
      <trkpt lat="44.10878" lon="6.80058">
        <ele>1270.6</ele>
        <time>2021-06-02T12:46:31.000Z</time>
      </trkpt>
      <trkpt lat="44.10884" lon="6.80051">
        <ele>1268.2</ele>
        <time>2021-06-02T12:46:37.000Z</time>
      </trkpt>
      <trkpt lat="44.10887" lon="6.80046">
        <ele>1267.5</ele>
        <time>2021-06-02T12:46:40.000Z</time>
      </trkpt>
      <trkpt lat="44.10898" lon="6.80036">
        <ele>1262.6</ele>
        <time>2021-06-02T12:46:46.000Z</time>
      </trkpt>
      <trkpt lat="44.1091" lon="6.80025">
        <ele>1262.3</ele>
        <time>2021-06-02T12:46:49.000Z</time>
      </trkpt>
      <trkpt lat="44.10931" lon="6.80012">
        <ele>1258.5</ele>
        <time>2021-06-02T12:46:52.294Z</time>
      </trkpt>
      <trkpt lat="44.10953" lon="6.79999">
        <ele>1255.9</ele>
        <time>2021-06-02T12:46:57.306Z</time>
      </trkpt>
      <trkpt lat="44.10957" lon="6.79981">
        <ele>1250.6</ele>
        <time>2021-06-02T12:47:01.000Z</time>
      </trkpt>
      <trkpt lat="44.10936" lon="6.79961">
        <ele>1243.3</ele>
        <time>2021-06-02T12:47:07.000Z</time>
      </trkpt>
      <trkpt lat="44.10938" lon="6.79975">
        <ele>1243.4</ele>
        <time>2021-06-02T12:47:10.232Z</time>
      </trkpt>
      <trkpt lat="44.10944" lon="6.7998">
        <ele>1238.4</ele>
        <time>2021-06-02T12:47:16.719Z</time>
      </trkpt>
      <trkpt lat="44.10939" lon="6.79979">
        <ele>1234.6</ele>
        <time>2021-06-02T12:47:23.551Z</time>
      </trkpt>
      <trkpt lat="44.10946" lon="6.79991">
        <ele>1218.9</ele>
        <time>2021-06-02T12:47:40.000Z</time>
      </trkpt>
      <trkpt lat="44.10951" lon="6.79993">
        <ele>1218.8</ele>
        <time>2021-06-02T12:47:46.000Z</time>
      </trkpt>
      <trkpt lat="44.10953" lon="6.8">
        <ele>1219.3</ele>
        <time>2021-06-02T12:47:52.000Z</time>
      </trkpt>
      <trkpt lat="44.10959" lon="6.80002">
        <ele>1211.5</ele>
        <time>2021-06-02T12:48:01.000Z</time>
      </trkpt>
      <trkpt lat="44.10965" lon="6.79999">
        <ele>1211.3</ele>
        <time>2021-06-02T12:48:13.743Z</time>
      </trkpt>
      <trkpt lat="44.10965" lon="6.79993">
        <ele>1205.6</ele>
        <time>2021-06-02T12:48:37.000Z</time>
      </trkpt>
      <trkpt lat="44.10969" lon="6.79984">
        <ele>1192.9</ele>
        <time>2021-06-02T12:48:44.350Z</time>
      </trkpt>
      <trkpt lat="44.10969" lon="6.79975">
        <ele>1188.6</ele>
        <time>2021-06-02T12:48:47.455Z</time>
      </trkpt>
      <trkpt lat="44.1097" lon="6.79965">
        <ele>1190.2</ele>
        <time>2021-06-02T12:48:51.215Z</time>
      </trkpt>
      <trkpt lat="44.10975" lon="6.79955">
        <ele>1189.3</ele>
        <time>2021-06-02T12:48:54.528Z</time>
      </trkpt>
      <trkpt lat="44.1098" lon="6.79944">
        <ele>1190.4</ele>
        <time>2021-06-02T12:48:57.631Z</time>
      </trkpt>
      <trkpt lat="44.10985" lon="6.79935">
        <ele>1188.8</ele>
        <time>2021-06-02T12:49:01.000Z</time>
      </trkpt>
      <trkpt lat="44.10991" lon="6.79932">
        <ele>1186.5</ele>
        <time>2021-06-02T12:49:10.000Z</time>
      </trkpt>
      <trkpt lat="44.10994" lon="6.79927">
        <ele>1183.4</ele>
        <time>2021-06-02T12:49:16.000Z</time>
      </trkpt>
      <trkpt lat="44.11002" lon="6.79916">
        <ele>1185.3</ele>
        <time>2021-06-02T12:49:22.000Z</time>
      </trkpt>
      <trkpt lat="44.10994" lon="6.79905">
        <ele>1185.9</ele>
        <time>2021-06-02T12:49:37.000Z</time>
      </trkpt>
      <trkpt lat="44.10999" lon="6.79905">
        <ele>1187.7</ele>
        <time>2021-06-02T12:50:01.000Z</time>
      </trkpt>
      <trkpt lat="44.11007" lon="6.79905">
        <ele>1191.7</ele>
        <time>2021-06-02T12:50:39.552Z</time>
      </trkpt>
      <trkpt lat="44.11015" lon="6.79903">
        <ele>1186</ele>
        <time>2021-06-02T12:50:42.918Z</time>
      </trkpt>
      <trkpt lat="44.11023" lon="6.799">
        <ele>1188.6</ele>
        <time>2021-06-02T12:50:46.209Z</time>
      </trkpt>
      <trkpt lat="44.11031" lon="6.79896">
        <ele>1191.1</ele>
        <time>2021-06-02T12:50:49.222Z</time>
      </trkpt>
      <trkpt lat="44.11049" lon="6.7988">
        <ele>1183.2</ele>
        <time>2021-06-02T12:50:52.000Z</time>
      </trkpt>
      <trkpt lat="44.11056" lon="6.7988">
        <ele>1183.2</ele>
        <time>2021-06-02T12:50:55.253Z</time>
      </trkpt>
      <trkpt lat="44.11071" lon="6.79877">
        <ele>1175</ele>
        <time>2021-06-02T12:50:59.524Z</time>
      </trkpt>
      <trkpt lat="44.11085" lon="6.79871">
        <ele>1175</ele>
        <time>2021-06-02T12:51:03.160Z</time>
      </trkpt>
      <trkpt lat="44.11097" lon="6.79863">
        <ele>1172.4</ele>
        <time>2021-06-02T12:51:07.000Z</time>
      </trkpt>
      <trkpt lat="44.11108" lon="6.79857">
        <ele>1172.9</ele>
        <time>2021-06-02T12:51:10.000Z</time>
      </trkpt>
      <trkpt lat="44.11116" lon="6.79851">
        <ele>1172.9</ele>
        <time>2021-06-02T12:51:13.201Z</time>
      </trkpt>
      <trkpt lat="44.11127" lon="6.79834">
        <ele>1166.6</ele>
        <time>2021-06-02T12:51:16.521Z</time>
      </trkpt>
      <trkpt lat="44.11135" lon="6.79826">
        <ele>1164.5</ele>
        <time>2021-06-02T12:51:19.749Z</time>
      </trkpt>
      <trkpt lat="44.11139" lon="6.79819">
        <ele>1165.1</ele>
        <time>2021-06-02T12:51:22.842Z</time>
      </trkpt>
      <trkpt lat="44.11147" lon="6.79814">
        <ele>1161.8</ele>
        <time>2021-06-02T12:51:26.219Z</time>
      </trkpt>
      <trkpt lat="44.11163" lon="6.79804">
        <ele>1162.7</ele>
        <time>2021-06-02T12:51:29.661Z</time>
      </trkpt>
      <trkpt lat="44.11172" lon="6.79799">
        <ele>1282.5</ele>
        <time>2021-06-02T12:51:33.364Z</time>
      </trkpt>
      <trkpt lat="44.11181" lon="6.79792">
        <ele>1236.7</ele>
        <time>2021-06-02T12:51:36.866Z</time>
      </trkpt>
      <trkpt lat="44.11195" lon="6.79792">
        <ele>1214.5</ele>
        <time>2021-06-02T12:51:40.044Z</time>
      </trkpt>
      <trkpt lat="44.11214" lon="6.79785">
        <ele>1177.3</ele>
        <time>2021-06-02T12:51:43.285Z</time>
      </trkpt>
      <trkpt lat="44.11231" lon="6.79774">
        <ele>1167.5</ele>
        <time>2021-06-02T12:51:47.028Z</time>
      </trkpt>
      <trkpt lat="44.11244" lon="6.79762">
        <ele>1163.3</ele>
        <time>2021-06-02T12:51:50.123Z</time>
      </trkpt>
      <trkpt lat="44.11259" lon="6.79753">
        <ele>1152.9</ele>
        <time>2021-06-02T12:51:53.345Z</time>
      </trkpt>
      <trkpt lat="44.11285" lon="6.79728">
        <ele>1149.2</ele>
        <time>2021-06-02T12:51:58.000Z</time>
      </trkpt>
      <trkpt lat="44.11275" lon="6.79729">
        <ele>1152.1</ele>
        <time>2021-06-02T12:52:01.784Z</time>
      </trkpt>
      <trkpt lat="44.1127" lon="6.79733">
        <ele>1446.1</ele>
        <time>2021-06-02T12:52:04.975Z</time>
      </trkpt>
      <trkpt lat="44.11284" lon="6.79719">
        <ele>1330.6</ele>
        <time>2021-06-02T12:52:08.372Z</time>
      </trkpt>
      <trkpt lat="44.11303" lon="6.79711">
        <ele>1269</ele>
        <time>2021-06-02T12:52:12.042Z</time>
      </trkpt>
      <trkpt lat="44.11314" lon="6.79707">
        <ele>1230.4</ele>
        <time>2021-06-02T12:52:15.243Z</time>
      </trkpt>
      <trkpt lat="44.11322" lon="6.79697">
        <ele>1216.4</ele>
        <time>2021-06-02T12:52:18.490Z</time>
      </trkpt>
      <trkpt lat="44.11331" lon="6.79683">
        <ele>1198.6</ele>
        <time>2021-06-02T12:52:22.217Z</time>
      </trkpt>
      <trkpt lat="44.11341" lon="6.79664">
        <ele>1477.6</ele>
        <time>2021-06-02T12:52:26.212Z</time>
      </trkpt>
      <trkpt lat="44.11348" lon="6.79652">
        <ele>1275.7</ele>
        <time>2021-06-02T12:52:29.844Z</time>
      </trkpt>
      <trkpt lat="44.11355" lon="6.79641">
        <ele>1466.8</ele>
        <time>2021-06-02T12:52:33.183Z</time>
      </trkpt>
      <trkpt lat="44.11417" lon="6.79548">
        <ele>1165.8</ele>
        <time>2021-06-02T12:52:40.000Z</time>
      </trkpt>
      <trkpt lat="44.11419" lon="6.79533">
        <ele>1148.1</ele>
        <time>2021-06-02T12:52:43.000Z</time>
      </trkpt>
      <trkpt lat="44.11421" lon="6.7951">
        <ele>1134.1</ele>
        <time>2021-06-02T12:52:46.000Z</time>
      </trkpt>
      <trkpt lat="44.11416" lon="6.79476">
        <ele>1122.1</ele>
        <time>2021-06-02T12:52:52.000Z</time>
      </trkpt>
      <trkpt lat="44.11393" lon="6.79442">
        <ele>1119</ele>
        <time>2021-06-02T12:52:58.000Z</time>
      </trkpt>
      <trkpt lat="44.11396" lon="6.79432">
        <ele>1115.8</ele>
        <time>2021-06-02T12:53:01.566Z</time>
      </trkpt>
      <trkpt lat="44.11398" lon="6.79411">
        <ele>1111.9</ele>
        <time>2021-06-02T12:53:05.248Z</time>
      </trkpt>
      <trkpt lat="44.11413" lon="6.79406">
        <ele>1102</ele>
        <time>2021-06-02T12:53:09.262Z</time>
      </trkpt>
      <trkpt lat="44.11414" lon="6.79392">
        <ele>1099.4</ele>
        <time>2021-06-02T12:53:13.200Z</time>
      </trkpt>
      <trkpt lat="44.114" lon="6.79357">
        <ele>1100.1</ele>
        <time>2021-06-02T12:53:16.000Z</time>
      </trkpt>
      <trkpt lat="44.11393" lon="6.79331">
        <ele>1098</ele>
        <time>2021-06-02T12:53:20.223Z</time>
      </trkpt>
      <trkpt lat="44.11402" lon="6.79318">
        <ele>1096.6</ele>
        <time>2021-06-02T12:53:24.210Z</time>
      </trkpt>
      <trkpt lat="44.11411" lon="6.79314">
        <ele>1096.8</ele>
        <time>2021-06-02T12:53:27.215Z</time>
      </trkpt>
      <trkpt lat="44.11424" lon="6.79307">
        <ele>1095.2</ele>
        <time>2021-06-02T12:53:31.218Z</time>
      </trkpt>
      <trkpt lat="44.11436" lon="6.79299">
        <ele>1095.5</ele>
        <time>2021-06-02T12:53:34.225Z</time>
      </trkpt>
      <trkpt lat="44.11445" lon="6.7929">
        <ele>1094</ele>
        <time>2021-06-02T12:53:37.299Z</time>
      </trkpt>
      <trkpt lat="44.11458" lon="6.79279">
        <ele>1249.8</ele>
        <time>2021-06-02T12:53:43.000Z</time>
      </trkpt>
      <trkpt lat="44.11467" lon="6.79279">
        <ele>1195.5</ele>
        <time>2021-06-02T12:53:46.000Z</time>
      </trkpt>
      <trkpt lat="44.11473" lon="6.79283">
        <ele>1172.7</ele>
        <time>2021-06-02T12:53:49.286Z</time>
      </trkpt>
      <trkpt lat="44.11487" lon="6.79285">
        <ele>1145.3</ele>
        <time>2021-06-02T12:53:54.298Z</time>
      </trkpt>
      <trkpt lat="44.11503" lon="6.79293">
        <ele>1126.7</ele>
        <time>2021-06-02T12:53:58.000Z</time>
      </trkpt>
      <trkpt lat="44.11514" lon="6.79309">
        <ele>1113.2</ele>
        <time>2021-06-02T12:54:01.000Z</time>
      </trkpt>
      <trkpt lat="44.1152" lon="6.79324">
        <ele>1113.6</ele>
        <time>2021-06-02T12:54:05.209Z</time>
      </trkpt>
      <trkpt lat="44.11528" lon="6.79325">
        <ele>1103.3</ele>
        <time>2021-06-02T12:54:12.212Z</time>
      </trkpt>
      <trkpt lat="44.11535" lon="6.79315">
        <ele>1101.1</ele>
        <time>2021-06-02T12:54:15.436Z</time>
      </trkpt>
      <trkpt lat="44.11547" lon="6.79308">
        <ele>1101.4</ele>
        <time>2021-06-02T12:54:19.000Z</time>
      </trkpt>
      <trkpt lat="44.11557" lon="6.79307">
        <ele>1101.5</ele>
        <time>2021-06-02T12:54:22.210Z</time>
      </trkpt>
      <trkpt lat="44.11568" lon="6.7931">
        <ele>1089.3</ele>
        <time>2021-06-02T12:54:25.470Z</time>
      </trkpt>
      <trkpt lat="44.11579" lon="6.79298">
        <ele>1083.5</ele>
        <time>2021-06-02T12:54:29.219Z</time>
      </trkpt>
      <trkpt lat="44.116" lon="6.79265">
        <ele>1080.7</ele>
        <time>2021-06-02T12:54:34.000Z</time>
      </trkpt>
      <trkpt lat="44.11609" lon="6.7926">
        <ele>1078.6</ele>
        <time>2021-06-02T12:54:37.000Z</time>
      </trkpt>
      <trkpt lat="44.11621" lon="6.79254">
        <ele>1081.8</ele>
        <time>2021-06-02T12:54:40.000Z</time>
      </trkpt>
      <trkpt lat="44.11637" lon="6.79251">
        <ele>1075.8</ele>
        <time>2021-06-02T12:54:43.000Z</time>
      </trkpt>
      <trkpt lat="44.11668" lon="6.79215">
        <ele>1066.7</ele>
        <time>2021-06-02T12:54:49.000Z</time>
      </trkpt>
      <trkpt lat="44.11682" lon="6.79191">
        <ele>1063.3</ele>
        <time>2021-06-02T12:54:54.283Z</time>
      </trkpt>
      <trkpt lat="44.11701" lon="6.79176">
        <ele>1058.5</ele>
        <time>2021-06-02T12:54:58.000Z</time>
      </trkpt>
      <trkpt lat="44.11704" lon="6.79166">
        <ele>1058.6</ele>
        <time>2021-06-02T12:55:01.634Z</time>
      </trkpt>
      <trkpt lat="44.11711" lon="6.79164">
        <ele>1307.2</ele>
        <time>2021-06-02T12:55:04.777Z</time>
      </trkpt>
      <trkpt lat="44.11716" lon="6.79163">
        <ele>1226.7</ele>
        <time>2021-06-02T12:55:08.206Z</time>
      </trkpt>
      <trkpt lat="44.11725" lon="6.79169">
        <ele>1128.8</ele>
        <time>2021-06-02T12:55:13.000Z</time>
      </trkpt>
      <trkpt lat="44.11738" lon="6.79157">
        <ele>1128.8</ele>
        <time>2021-06-02T12:55:16.218Z</time>
      </trkpt>
      <trkpt lat="44.1174" lon="6.7915">
        <ele>1074.2</ele>
        <time>2021-06-02T12:55:19.233Z</time>
      </trkpt>
      <trkpt lat="44.11744" lon="6.79145">
        <ele>1050.2</ele>
        <time>2021-06-02T12:55:26.209Z</time>
      </trkpt>
      <trkpt lat="44.11752" lon="6.79147">
        <ele>1044</ele>
        <time>2021-06-02T12:55:30.267Z</time>
      </trkpt>
      <trkpt lat="44.11753" lon="6.79155">
        <ele>1041.3</ele>
        <time>2021-06-02T12:55:34.227Z</time>
      </trkpt>
      <trkpt lat="44.11765" lon="6.79149">
        <ele>1151</ele>
        <time>2021-06-02T12:55:38.214Z</time>
      </trkpt>
      <trkpt lat="44.11773" lon="6.79165">
        <ele>1066.2</ele>
        <time>2021-06-02T12:55:45.205Z</time>
      </trkpt>
      <trkpt lat="44.11783" lon="6.79159">
        <ele>1054.3</ele>
        <time>2021-06-02T12:55:48.610Z</time>
      </trkpt>
      <trkpt lat="44.11796" lon="6.79136">
        <ele>1038.3</ele>
        <time>2021-06-02T12:55:52.000Z</time>
      </trkpt>
      <trkpt lat="44.11796" lon="6.7912">
        <ele>1032.2</ele>
        <time>2021-06-02T12:55:56.002Z</time>
      </trkpt>
      <trkpt lat="44.11799" lon="6.79107">
        <ele>1032.3</ele>
        <time>2021-06-02T12:55:59.211Z</time>
      </trkpt>
      <trkpt lat="44.11805" lon="6.79105">
        <ele>1025.8</ele>
        <time>2021-06-02T12:56:02.619Z</time>
      </trkpt>
      <trkpt lat="44.11806" lon="6.79098">
        <ele>1250.8</ele>
        <time>2021-06-02T12:56:06.226Z</time>
      </trkpt>
      <trkpt lat="44.11815" lon="6.79093">
        <ele>1121</ele>
        <time>2021-06-02T12:56:10.228Z</time>
      </trkpt>
      <trkpt lat="44.11822" lon="6.79092">
        <ele>1060.7</ele>
        <time>2021-06-02T12:56:14.224Z</time>
      </trkpt>
      <trkpt lat="44.11833" lon="6.79092">
        <ele>1045.3</ele>
        <time>2021-06-02T12:56:17.506Z</time>
      </trkpt>
      <trkpt lat="44.11858" lon="6.79096">
        <ele>1032</ele>
        <time>2021-06-02T12:56:22.000Z</time>
      </trkpt>
      <trkpt lat="44.1188" lon="6.79091">
        <ele>1030.1</ele>
        <time>2021-06-02T12:56:25.000Z</time>
      </trkpt>
      <trkpt lat="44.11913" lon="6.79091">
        <ele>1021.6</ele>
        <time>2021-06-02T12:56:31.000Z</time>
      </trkpt>
      <trkpt lat="44.11928" lon="6.79096">
        <ele>1018.2</ele>
        <time>2021-06-02T12:56:34.000Z</time>
      </trkpt>
      <trkpt lat="44.11948" lon="6.79097">
        <ele>1017.3</ele>
        <time>2021-06-02T12:56:37.000Z</time>
      </trkpt>
      <trkpt lat="44.11969" lon="6.79093">
        <ele>1012.7</ele>
        <time>2021-06-02T12:56:40.293Z</time>
      </trkpt>
      <trkpt lat="44.11995" lon="6.79089">
        <ele>1010.9</ele>
        <time>2021-06-02T12:56:46.000Z</time>
      </trkpt>
      <trkpt lat="44.12007" lon="6.79088">
        <ele>1004.3</ele>
        <time>2021-06-02T12:56:49.000Z</time>
      </trkpt>
      <trkpt lat="44.12018" lon="6.79084">
        <ele>1005.8</ele>
        <time>2021-06-02T12:56:52.000Z</time>
      </trkpt>
      <trkpt lat="44.1203" lon="6.79082">
        <ele>1004.7</ele>
        <time>2021-06-02T12:56:55.265Z</time>
      </trkpt>
      <trkpt lat="44.12045" lon="6.79078">
        <ele>1000.2</ele>
        <time>2021-06-02T12:57:01.000Z</time>
      </trkpt>
      <trkpt lat="44.12058" lon="6.79068">
        <ele>997.7</ele>
        <time>2021-06-02T12:57:07.000Z</time>
      </trkpt>
      <trkpt lat="44.12066" lon="6.79065">
        <ele>994.6</ele>
        <time>2021-06-02T12:57:10.000Z</time>
      </trkpt>
      <trkpt lat="44.12077" lon="6.79067">
        <ele>991.1</ele>
        <time>2021-06-02T12:57:13.247Z</time>
      </trkpt>
      <trkpt lat="44.12092" lon="6.79061">
        <ele>992.9</ele>
        <time>2021-06-02T12:57:19.000Z</time>
      </trkpt>
      <trkpt lat="44.12096" lon="6.7906">
        <ele>995.2</ele>
        <time>2021-06-02T12:57:22.000Z</time>
      </trkpt>
      <trkpt lat="44.12101" lon="6.79057">
        <ele>991.7</ele>
        <time>2021-06-02T12:57:28.000Z</time>
      </trkpt>
      <trkpt lat="44.12103" lon="6.79051">
        <ele>1157.3</ele>
        <time>2021-06-02T12:57:37.000Z</time>
      </trkpt>
      <trkpt lat="44.12108" lon="6.79055">
        <ele>1175.1</ele>
        <time>2021-06-02T12:57:49.476Z</time>
      </trkpt>
      <trkpt lat="44.12118" lon="6.79047">
        <ele>1214.6</ele>
        <time>2021-06-02T12:57:56.222Z</time>
      </trkpt>
      <trkpt lat="44.12118" lon="6.79037">
        <ele>1101.8</ele>
        <time>2021-06-02T12:57:59.756Z</time>
      </trkpt>
      <trkpt lat="44.12118" lon="6.7902">
        <ele>1052.6</ele>
        <time>2021-06-02T12:58:03.348Z</time>
      </trkpt>
      <trkpt lat="44.12115" lon="6.79012">
        <ele>1026.7</ele>
        <time>2021-06-02T12:58:07.215Z</time>
      </trkpt>
      <trkpt lat="44.12112" lon="6.79004">
        <ele>1012.2</ele>
        <time>2021-06-02T12:58:10.280Z</time>
      </trkpt>
      <trkpt lat="44.12114" lon="6.78992">
        <ele>1009.3</ele>
        <time>2021-06-02T12:58:14.224Z</time>
      </trkpt>
      <trkpt lat="44.12118" lon="6.78985">
        <ele>997.8</ele>
        <time>2021-06-02T12:58:17.276Z</time>
      </trkpt>
      <trkpt lat="44.12124" lon="6.78975">
        <ele>997.4</ele>
        <time>2021-06-02T12:58:21.060Z</time>
      </trkpt>
      <trkpt lat="44.1213" lon="6.78972">
        <ele>990.5</ele>
        <time>2021-06-02T12:58:24.213Z</time>
      </trkpt>
      <trkpt lat="44.12148" lon="6.78975">
        <ele>982</ele>
        <time>2021-06-02T12:58:28.000Z</time>
      </trkpt>
      <trkpt lat="44.12152" lon="6.78979">
        <ele>979.6</ele>
        <time>2021-06-02T12:58:35.225Z</time>
      </trkpt>
      <trkpt lat="44.12162" lon="6.78974">
        <ele>977.2</ele>
        <time>2021-06-02T12:58:39.231Z</time>
      </trkpt>
      <trkpt lat="44.12171" lon="6.78967">
        <ele>978.8</ele>
        <time>2021-06-02T12:58:43.222Z</time>
      </trkpt>
      <trkpt lat="44.1218" lon="6.78964">
        <ele>980</ele>
        <time>2021-06-02T12:58:47.117Z</time>
      </trkpt>
      <trkpt lat="44.12189" lon="6.78959">
        <ele>983.4</ele>
        <time>2021-06-02T12:58:51.223Z</time>
      </trkpt>
      <trkpt lat="44.12193" lon="6.78955">
        <ele>982.4</ele>
        <time>2021-06-02T12:58:54.291Z</time>
      </trkpt>
      <trkpt lat="44.12197" lon="6.78948">
        <ele>981.4</ele>
        <time>2021-06-02T12:58:57.878Z</time>
      </trkpt>
      <trkpt lat="44.12201" lon="6.78943">
        <ele>984.4</ele>
        <time>2021-06-02T12:59:01.000Z</time>
      </trkpt>
      <trkpt lat="44.12205" lon="6.78938">
        <ele>981.9</ele>
        <time>2021-06-02T12:59:21.243Z</time>
      </trkpt>
      <trkpt lat="44.12203" lon="6.7895">
        <ele>984.4</ele>
        <time>2021-06-02T12:59:35.410Z</time>
      </trkpt>
      <trkpt lat="44.12196" lon="6.78959">
        <ele>981.1</ele>
        <time>2021-06-02T12:59:42.816Z</time>
      </trkpt>
      <trkpt lat="44.12189" lon="6.78962">
        <ele>983.6</ele>
        <time>2021-06-02T12:59:46.220Z</time>
      </trkpt>
      <trkpt lat="44.12183" lon="6.78976">
        <ele>980.1</ele>
        <time>2021-06-02T12:59:52.000Z</time>
      </trkpt>
      <trkpt lat="44.12184" lon="6.78987">
        <ele>980.1</ele>
        <time>2021-06-02T12:59:55.223Z</time>
      </trkpt>
      <trkpt lat="44.1219" lon="6.79017">
        <ele>974.8</ele>
        <time>2021-06-02T13:00:01.223Z</time>
      </trkpt>
      <trkpt lat="44.12205" lon="6.79041">
        <ele>970.2</ele>
        <time>2021-06-02T13:00:07.000Z</time>
      </trkpt>
      <trkpt lat="44.12214" lon="6.79063">
        <ele>971.1</ele>
        <time>2021-06-02T13:00:11.216Z</time>
      </trkpt>
      <trkpt lat="44.12221" lon="6.7908">
        <ele>972.3</ele>
        <time>2021-06-02T13:00:14.827Z</time>
      </trkpt>
      <trkpt lat="44.12225" lon="6.79096">
        <ele>971.6</ele>
        <time>2021-06-02T13:00:18.227Z</time>
      </trkpt>
      <trkpt lat="44.12221" lon="6.79113">
        <ele>973.1</ele>
        <time>2021-06-02T13:00:22.235Z</time>
      </trkpt>
      <trkpt lat="44.1221" lon="6.79125">
        <ele>972.6</ele>
        <time>2021-06-02T13:00:26.214Z</time>
      </trkpt>
      <trkpt lat="44.12202" lon="6.79133">
        <ele>971.3</ele>
        <time>2021-06-02T13:00:29.413Z</time>
      </trkpt>
      <trkpt lat="44.12195" lon="6.79147">
        <ele>973.6</ele>
        <time>2021-06-02T13:00:33.133Z</time>
      </trkpt>
      <trkpt lat="44.12188" lon="6.79166">
        <ele>972.9</ele>
        <time>2021-06-02T13:00:37.000Z</time>
      </trkpt>
      <trkpt lat="44.12183" lon="6.7919">
        <ele>973.8</ele>
        <time>2021-06-02T13:00:42.213Z</time>
      </trkpt>
      <trkpt lat="44.12183" lon="6.79206">
        <ele>972.4</ele>
        <time>2021-06-02T13:00:46.000Z</time>
      </trkpt>
      <trkpt lat="44.12185" lon="6.79227">
        <ele>971.2</ele>
        <time>2021-06-02T13:00:52.000Z</time>
      </trkpt>
      <trkpt lat="44.12188" lon="6.79243">
        <ele>974.5</ele>
        <time>2021-06-02T13:00:55.000Z</time>
      </trkpt>
      <trkpt lat="44.12191" lon="6.79256">
        <ele>975.7</ele>
        <time>2021-06-02T13:00:58.000Z</time>
      </trkpt>
      <trkpt lat="44.12192" lon="6.79267">
        <ele>976.2</ele>
        <time>2021-06-02T13:01:01.257Z</time>
      </trkpt>
      <trkpt lat="44.12187" lon="6.79294">
        <ele>976.2</ele>
        <time>2021-06-02T13:01:07.000Z</time>
      </trkpt>
      <trkpt lat="44.12178" lon="6.79303">
        <ele>978.4</ele>
        <time>2021-06-02T13:01:10.000Z</time>
      </trkpt>
      <trkpt lat="44.12165" lon="6.79317">
        <ele>980.7</ele>
        <time>2021-06-02T13:01:16.000Z</time>
      </trkpt>
      <trkpt lat="44.1216" lon="6.79325">
        <ele>1254.6</ele>
        <time>2021-06-02T13:01:19.000Z</time>
      </trkpt>
      <trkpt lat="44.12155" lon="6.79333">
        <ele>1089.6</ele>
        <time>2021-06-02T13:01:22.000Z</time>
      </trkpt>
      <trkpt lat="44.12151" lon="6.79344">
        <ele>1042.4</ele>
        <time>2021-06-02T13:01:27.299Z</time>
      </trkpt>
      <trkpt lat="44.12146" lon="6.79355">
        <ele>1017.4</ele>
        <time>2021-06-02T13:01:31.000Z</time>
      </trkpt>
      <trkpt lat="44.12142" lon="6.79363">
        <ele>1007.5</ele>
        <time>2021-06-02T13:01:34.000Z</time>
      </trkpt>
      <trkpt lat="44.12138" lon="6.7937">
        <ele>1003.2</ele>
        <time>2021-06-02T13:01:37.000Z</time>
      </trkpt>
      <trkpt lat="44.12131" lon="6.7938">
        <ele>1000.6</ele>
        <time>2021-06-02T13:01:40.000Z</time>
      </trkpt>
      <trkpt lat="44.1212" lon="6.79399">
        <ele>998.6</ele>
        <time>2021-06-02T13:01:46.000Z</time>
      </trkpt>
      <trkpt lat="44.1211" lon="6.79417">
        <ele>995.9</ele>
        <time>2021-06-02T13:01:52.000Z</time>
      </trkpt>
      <trkpt lat="44.12102" lon="6.79427">
        <ele>995.8</ele>
        <time>2021-06-02T13:01:55.000Z</time>
      </trkpt>
      <trkpt lat="44.12094" lon="6.79437">
        <ele>997</ele>
        <time>2021-06-02T13:01:58.000Z</time>
      </trkpt>
      <trkpt lat="44.12088" lon="6.79448">
        <ele>999.4</ele>
        <time>2021-06-02T13:02:01.276Z</time>
      </trkpt>
      <trkpt lat="44.12078" lon="6.79471">
        <ele>997.4</ele>
        <time>2021-06-02T13:02:07.000Z</time>
      </trkpt>
      <trkpt lat="44.12069" lon="6.79485">
        <ele>995.6</ele>
        <time>2021-06-02T13:02:11.231Z</time>
      </trkpt>
      <trkpt lat="44.12061" lon="6.795">
        <ele>993.9</ele>
        <time>2021-06-02T13:02:15.280Z</time>
      </trkpt>
      <trkpt lat="44.1206" lon="6.79519">
        <ele>996.1</ele>
        <time>2021-06-02T13:02:19.221Z</time>
      </trkpt>
      <trkpt lat="44.12062" lon="6.79532">
        <ele>994.2</ele>
        <time>2021-06-02T13:02:22.283Z</time>
      </trkpt>
      <trkpt lat="44.12065" lon="6.79543">
        <ele>997</ele>
        <time>2021-06-02T13:02:26.209Z</time>
      </trkpt>
      <trkpt lat="44.12069" lon="6.79552">
        <ele>997.4</ele>
        <time>2021-06-02T13:02:29.219Z</time>
      </trkpt>
      <trkpt lat="44.12075" lon="6.79556">
        <ele>1002.1</ele>
        <time>2021-06-02T13:02:32.224Z</time>
      </trkpt>
      <trkpt lat="44.12083" lon="6.79565">
        <ele>1003.1</ele>
        <time>2021-06-02T13:02:35.749Z</time>
      </trkpt>
      <trkpt lat="44.12083" lon="6.79572">
        <ele>1165.3</ele>
        <time>2021-06-02T13:02:45.310Z</time>
      </trkpt>
      <trkpt lat="44.12074" lon="6.79572">
        <ele>1023.4</ele>
        <time>2021-06-02T13:02:55.000Z</time>
      </trkpt>
      <trkpt lat="44.12068" lon="6.7958">
        <ele>1014.5</ele>
        <time>2021-06-02T13:02:59.221Z</time>
      </trkpt>
      <trkpt lat="44.12061" lon="6.79593">
        <ele>1013.8</ele>
        <time>2021-06-02T13:03:03.210Z</time>
      </trkpt>
      <trkpt lat="44.12057" lon="6.79605">
        <ele>1012.9</ele>
        <time>2021-06-02T13:03:06.289Z</time>
      </trkpt>
      <trkpt lat="44.12046" lon="6.79616">
        <ele>1010.9</ele>
        <time>2021-06-02T13:03:10.243Z</time>
      </trkpt>
      <trkpt lat="44.1204" lon="6.79637">
        <ele>1004.7</ele>
        <time>2021-06-02T13:03:14.250Z</time>
      </trkpt>
      <trkpt lat="44.12038" lon="6.79663">
        <ele>1001</ele>
        <time>2021-06-02T13:03:19.000Z</time>
      </trkpt>
      <trkpt lat="44.12034" lon="6.79678">
        <ele>1001</ele>
        <time>2021-06-02T13:03:22.216Z</time>
      </trkpt>
      <trkpt lat="44.1203" lon="6.79695">
        <ele>999.2</ele>
        <time>2021-06-02T13:03:25.224Z</time>
      </trkpt>
      <trkpt lat="44.12028" lon="6.79711">
        <ele>1001</ele>
        <time>2021-06-02T13:03:28.226Z</time>
      </trkpt>
      <trkpt lat="44.12037" lon="6.79729">
        <ele>1003.1</ele>
        <time>2021-06-02T13:03:32.215Z</time>
      </trkpt>
      <trkpt lat="44.12046" lon="6.79747">
        <ele>1005.6</ele>
        <time>2021-06-02T13:03:35.978Z</time>
      </trkpt>
      <trkpt lat="44.12054" lon="6.79761">
        <ele>1004.5</ele>
        <time>2021-06-02T13:03:39.219Z</time>
      </trkpt>
      <trkpt lat="44.12062" lon="6.79775">
        <ele>1156.1</ele>
        <time>2021-06-02T13:03:43.000Z</time>
      </trkpt>
      <trkpt lat="44.1207" lon="6.79785">
        <ele>1084.3</ele>
        <time>2021-06-02T13:03:47.223Z</time>
      </trkpt>
      <trkpt lat="44.12076" lon="6.79784">
        <ele>1004.4</ele>
        <time>2021-06-02T13:04:13.000Z</time>
      </trkpt>
      <trkpt lat="44.12072" lon="6.79787">
        <ele>1002.2</ele>
        <time>2021-06-02T13:04:30.315Z</time>
      </trkpt>
      <trkpt lat="44.12069" lon="6.79791">
        <ele>1005.4</ele>
        <time>2021-06-02T13:04:44.359Z</time>
      </trkpt>
      <trkpt lat="44.12063" lon="6.79797">
        <ele>1002.1</ele>
        <time>2021-06-02T13:04:55.461Z</time>
      </trkpt>
      <trkpt lat="44.12056" lon="6.7981">
        <ele>1001.6</ele>
        <time>2021-06-02T13:05:01.000Z</time>
      </trkpt>
      <trkpt lat="44.12054" lon="6.79821">
        <ele>1004.4</ele>
        <time>2021-06-02T13:05:04.000Z</time>
      </trkpt>
      <trkpt lat="44.12057" lon="6.79827">
        <ele>1004.3</ele>
        <time>2021-06-02T13:05:10.000Z</time>
      </trkpt>
      <trkpt lat="44.12059" lon="6.79833">
        <ele>1006.5</ele>
        <time>2021-06-02T13:05:23.806Z</time>
      </trkpt>
      <trkpt lat="44.12066" lon="6.79838">
        <ele>1006</ele>
        <time>2021-06-02T13:05:26.940Z</time>
      </trkpt>
      <trkpt lat="44.12083" lon="6.79845">
        <ele>1006.8</ele>
        <time>2021-06-02T13:05:31.262Z</time>
      </trkpt>
      <trkpt lat="44.12091" lon="6.79856">
        <ele>1008.4</ele>
        <time>2021-06-02T13:05:35.219Z</time>
      </trkpt>
      <trkpt lat="44.12096" lon="6.79857">
        <ele>1008.8</ele>
        <time>2021-06-02T13:05:38.435Z</time>
      </trkpt>
      <trkpt lat="44.12105" lon="6.79862">
        <ele>1008.9</ele>
        <time>2021-06-02T13:05:42.223Z</time>
      </trkpt>
      <trkpt lat="44.1211" lon="6.79865">
        <ele>1008.9</ele>
        <time>2021-06-02T13:05:45.270Z</time>
      </trkpt>
      <trkpt lat="44.12118" lon="6.79868">
        <ele>1009.9</ele>
        <time>2021-06-02T13:05:49.212Z</time>
      </trkpt>
      <trkpt lat="44.12123" lon="6.79868">
        <ele>1010.5</ele>
        <time>2021-06-02T13:05:52.000Z</time>
      </trkpt>
      <trkpt lat="44.12128" lon="6.79869">
        <ele>1012.1</ele>
        <time>2021-06-02T13:05:55.263Z</time>
      </trkpt>
      <trkpt lat="44.12137" lon="6.79875">
        <ele>1012.8</ele>
        <time>2021-06-02T13:05:59.210Z</time>
      </trkpt>
      <trkpt lat="44.12143" lon="6.7988">
        <ele>1012.3</ele>
        <time>2021-06-02T13:06:02.232Z</time>
      </trkpt>
      <trkpt lat="44.1215" lon="6.79881">
        <ele>1013</ele>
        <time>2021-06-02T13:06:05.634Z</time>
      </trkpt>
      <trkpt lat="44.12156" lon="6.79882">
        <ele>1013.6</ele>
        <time>2021-06-02T13:06:09.216Z</time>
      </trkpt>
      <trkpt lat="44.12162" lon="6.79888">
        <ele>1013.3</ele>
        <time>2021-06-02T13:06:12.223Z</time>
      </trkpt>
      <trkpt lat="44.12167" lon="6.79896">
        <ele>1013.1</ele>
        <time>2021-06-02T13:06:16.227Z</time>
      </trkpt>
      <trkpt lat="44.12172" lon="6.79895">
        <ele>1013.4</ele>
        <time>2021-06-02T13:06:19.347Z</time>
      </trkpt>
      <trkpt lat="44.12178" lon="6.79898">
        <ele>1015.8</ele>
        <time>2021-06-02T13:06:22.492Z</time>
      </trkpt>
      <trkpt lat="44.12185" lon="6.799">
        <ele>1016.9</ele>
        <time>2021-06-02T13:06:26.128Z</time>
      </trkpt>
      <trkpt lat="44.12195" lon="6.79898">
        <ele>1016.1</ele>
        <time>2021-06-02T13:06:29.745Z</time>
      </trkpt>
      <trkpt lat="44.12199" lon="6.79897">
        <ele>1017.2</ele>
        <time>2021-06-02T13:06:32.750Z</time>
      </trkpt>
      <trkpt lat="44.12199" lon="6.79907">
        <ele>1013.6</ele>
        <time>2021-06-02T13:06:38.828Z</time>
      </trkpt>
      <trkpt lat="44.12203" lon="6.79915">
        <ele>1016.1</ele>
        <time>2021-06-02T13:06:42.244Z</time>
      </trkpt>
      <trkpt lat="44.12209" lon="6.7992">
        <ele>1015.9</ele>
        <time>2021-06-02T13:06:46.205Z</time>
      </trkpt>
      <trkpt lat="44.12213" lon="6.79924">
        <ele>1018.6</ele>
        <time>2021-06-02T13:06:49.215Z</time>
      </trkpt>
      <trkpt lat="44.12215" lon="6.79933">
        <ele>1021</ele>
        <time>2021-06-02T13:06:53.213Z</time>
      </trkpt>
      <trkpt lat="44.1222" lon="6.79931">
        <ele>1020.8</ele>
        <time>2021-06-02T13:06:56.214Z</time>
      </trkpt>
      <trkpt lat="44.12225" lon="6.79935">
        <ele>1023.3</ele>
        <time>2021-06-02T13:07:02.259Z</time>
      </trkpt>
      <trkpt lat="44.12228" lon="6.79944">
        <ele>1024.8</ele>
        <time>2021-06-02T13:07:06.210Z</time>
      </trkpt>
      <trkpt lat="44.12234" lon="6.79944">
        <ele>1025.3</ele>
        <time>2021-06-02T13:07:09.211Z</time>
      </trkpt>
      <trkpt lat="44.12242" lon="6.79943">
        <ele>1024.3</ele>
        <time>2021-06-02T13:07:13.241Z</time>
      </trkpt>
      <trkpt lat="44.1225" lon="6.79941">
        <ele>1026</ele>
        <time>2021-06-02T13:07:17.182Z</time>
      </trkpt>
      <trkpt lat="44.12259" lon="6.79941">
        <ele>1029.4</ele>
        <time>2021-06-02T13:07:20.272Z</time>
      </trkpt>
      <trkpt lat="44.12262" lon="6.79951">
        <ele>1036.5</ele>
        <time>2021-06-02T13:07:27.068Z</time>
      </trkpt>
      <trkpt lat="44.12265" lon="6.79959">
        <ele>1037.2</ele>
        <time>2021-06-02T13:07:30.649Z</time>
      </trkpt>
      <trkpt lat="44.12266" lon="6.79974">
        <ele>1036.8</ele>
        <time>2021-06-02T13:07:37.214Z</time>
      </trkpt>
      <trkpt lat="44.12267" lon="6.79984">
        <ele>1035.1</ele>
        <time>2021-06-02T13:07:41.213Z</time>
      </trkpt>
      <trkpt lat="44.12271" lon="6.79987">
        <ele>1036.4</ele>
        <time>2021-06-02T13:07:49.224Z</time>
      </trkpt>
      <trkpt lat="44.12275" lon="6.7999">
        <ele>1037.3</ele>
        <time>2021-06-02T13:07:58.000Z</time>
      </trkpt>
      <trkpt lat="44.12288" lon="6.79982">
        <ele>1025.2</ele>
        <time>2021-06-02T13:08:57.637Z</time>
      </trkpt>
      <trkpt lat="44.12296" lon="6.79973">
        <ele>1024.7</ele>
        <time>2021-06-02T13:09:01.000Z</time>
      </trkpt>
      <trkpt lat="44.12305" lon="6.79962">
        <ele>1026.6</ele>
        <time>2021-06-02T13:09:04.739Z</time>
      </trkpt>
      <trkpt lat="44.12314" lon="6.79958">
        <ele>1029.3</ele>
        <time>2021-06-02T13:09:08.175Z</time>
      </trkpt>
      <trkpt lat="44.12321" lon="6.79952">
        <ele>1028.9</ele>
        <time>2021-06-02T13:09:12.220Z</time>
      </trkpt>
      <trkpt lat="44.12326" lon="6.7995">
        <ele>1028.5</ele>
        <time>2021-06-02T13:09:15.291Z</time>
      </trkpt>
      <trkpt lat="44.12331" lon="6.79949">
        <ele>1029.6</ele>
        <time>2021-06-02T13:09:18.524Z</time>
      </trkpt>
      <trkpt lat="44.12335" lon="6.79946">
        <ele>1030.6</ele>
        <time>2021-06-02T13:09:22.223Z</time>
      </trkpt>
      <trkpt lat="44.1234" lon="6.79942">
        <ele>1031</ele>
        <time>2021-06-02T13:09:25.226Z</time>
      </trkpt>
      <trkpt lat="44.12348" lon="6.79936">
        <ele>1033</ele>
        <time>2021-06-02T13:09:28.573Z</time>
      </trkpt>
      <trkpt lat="44.12353" lon="6.79934">
        <ele>1037</ele>
        <time>2021-06-02T13:09:31.588Z</time>
      </trkpt>
      <trkpt lat="44.1236" lon="6.79932">
        <ele>1038.5</ele>
        <time>2021-06-02T13:09:35.244Z</time>
      </trkpt>
      <trkpt lat="44.12366" lon="6.79932">
        <ele>1038.6</ele>
        <time>2021-06-02T13:09:38.304Z</time>
      </trkpt>
      <trkpt lat="44.12373" lon="6.79936">
        <ele>1041.9</ele>
        <time>2021-06-02T13:09:42.213Z</time>
      </trkpt>
      <trkpt lat="44.12378" lon="6.79934">
        <ele>1044.4</ele>
        <time>2021-06-02T13:09:45.276Z</time>
      </trkpt>
      <trkpt lat="44.12381" lon="6.79926">
        <ele>1042.3</ele>
        <time>2021-06-02T13:09:49.214Z</time>
      </trkpt>
      <trkpt lat="44.12384" lon="6.79917">
        <ele>1042.1</ele>
        <time>2021-06-02T13:09:52.233Z</time>
      </trkpt>
      <trkpt lat="44.12387" lon="6.79912">
        <ele>1045</ele>
        <time>2021-06-02T13:09:55.292Z</time>
      </trkpt>
      <trkpt lat="44.12387" lon="6.79904">
        <ele>1045.3</ele>
        <time>2021-06-02T13:10:02.214Z</time>
      </trkpt>
      <trkpt lat="44.1239" lon="6.79894">
        <ele>1045.3</ele>
        <time>2021-06-02T13:10:06.225Z</time>
      </trkpt>
      <trkpt lat="44.12397" lon="6.79893">
        <ele>1047.3</ele>
        <time>2021-06-02T13:10:10.208Z</time>
      </trkpt>
      <trkpt lat="44.12404" lon="6.79896">
        <ele>1046.8</ele>
        <time>2021-06-02T13:10:13.222Z</time>
      </trkpt>
      <trkpt lat="44.1241" lon="6.79893">
        <ele>1050</ele>
        <time>2021-06-02T13:10:17.221Z</time>
      </trkpt>
      <trkpt lat="44.12417" lon="6.79885">
        <ele>1051</ele>
        <time>2021-06-02T13:10:20.672Z</time>
      </trkpt>
      <trkpt lat="44.12422" lon="6.7988">
        <ele>1050.7</ele>
        <time>2021-06-02T13:10:24.212Z</time>
      </trkpt>
      <trkpt lat="44.12426" lon="6.79871">
        <ele>1050.9</ele>
        <time>2021-06-02T13:10:27.451Z</time>
      </trkpt>
      <trkpt lat="44.12432" lon="6.79863">
        <ele>1049.5</ele>
        <time>2021-06-02T13:10:30.826Z</time>
      </trkpt>
      <trkpt lat="44.12442" lon="6.79861">
        <ele>1048.6</ele>
        <time>2021-06-02T13:10:34.217Z</time>
      </trkpt>
      <trkpt lat="44.12452" lon="6.79853">
        <ele>1043.5</ele>
        <time>2021-06-02T13:10:38.482Z</time>
      </trkpt>
      <trkpt lat="44.12461" lon="6.79845">
        <ele>1044</ele>
        <time>2021-06-02T13:10:46.832Z</time>
      </trkpt>
      <trkpt lat="44.12468" lon="6.7985">
        <ele>1049.5</ele>
        <time>2021-06-02T13:10:56.490Z</time>
      </trkpt>
      <trkpt lat="44.12475" lon="6.79849">
        <ele>1049.8</ele>
        <time>2021-06-02T13:10:59.604Z</time>
      </trkpt>
      <trkpt lat="44.12481" lon="6.79847">
        <ele>1050.3</ele>
        <time>2021-06-02T13:11:03.231Z</time>
      </trkpt>
      <trkpt lat="44.12487" lon="6.79844">
        <ele>1053</ele>
        <time>2021-06-02T13:11:06.278Z</time>
      </trkpt>
      <trkpt lat="44.12494" lon="6.79845">
        <ele>1049.2</ele>
        <time>2021-06-02T13:11:09.933Z</time>
      </trkpt>
      <trkpt lat="44.12499" lon="6.79849">
        <ele>1046.4</ele>
        <time>2021-06-02T13:11:13.000Z</time>
      </trkpt>
      <trkpt lat="44.12504" lon="6.79851">
        <ele>1046.4</ele>
        <time>2021-06-02T13:11:16.227Z</time>
      </trkpt>
      <trkpt lat="44.1251" lon="6.79854">
        <ele>1045.7</ele>
        <time>2021-06-02T13:11:19.227Z</time>
      </trkpt>
      <trkpt lat="44.12516" lon="6.7986">
        <ele>1051.1</ele>
        <time>2021-06-02T13:11:23.254Z</time>
      </trkpt>
      <trkpt lat="44.12522" lon="6.79856">
        <ele>1049.4</ele>
        <time>2021-06-02T13:11:27.141Z</time>
      </trkpt>
      <trkpt lat="44.12527" lon="6.79856">
        <ele>1049.4</ele>
        <time>2021-06-02T13:11:30.429Z</time>
      </trkpt>
      <trkpt lat="44.12536" lon="6.79852">
        <ele>1050.8</ele>
        <time>2021-06-02T13:11:34.216Z</time>
      </trkpt>
      <trkpt lat="44.12543" lon="6.79846">
        <ele>1051.8</ele>
        <time>2021-06-02T13:11:37.496Z</time>
      </trkpt>
      <trkpt lat="44.12549" lon="6.79842">
        <ele>1052.2</ele>
        <time>2021-06-02T13:11:41.130Z</time>
      </trkpt>
      <trkpt lat="44.12555" lon="6.79841">
        <ele>1051</ele>
        <time>2021-06-02T13:11:44.220Z</time>
      </trkpt>
      <trkpt lat="44.1256" lon="6.79838">
        <ele>1051.2</ele>
        <time>2021-06-02T13:11:47.691Z</time>
      </trkpt>
      <trkpt lat="44.12566" lon="6.79836">
        <ele>1050.6</ele>
        <time>2021-06-02T13:11:51.168Z</time>
      </trkpt>
      <trkpt lat="44.12572" lon="6.79834">
        <ele>1049.8</ele>
        <time>2021-06-02T13:11:54.483Z</time>
      </trkpt>
      <trkpt lat="44.12578" lon="6.7983">
        <ele>1050.2</ele>
        <time>2021-06-02T13:11:58.260Z</time>
      </trkpt>
      <trkpt lat="44.12582" lon="6.79819">
        <ele>1057.5</ele>
        <time>2021-06-02T13:12:04.236Z</time>
      </trkpt>
      <trkpt lat="44.12585" lon="6.79811">
        <ele>1058.9</ele>
        <time>2021-06-02T13:12:08.231Z</time>
      </trkpt>
      <trkpt lat="44.12587" lon="6.79803">
        <ele>1059.6</ele>
        <time>2021-06-02T13:12:12.029Z</time>
      </trkpt>
      <trkpt lat="44.12588" lon="6.79794">
        <ele>1062.7</ele>
        <time>2021-06-02T13:12:15.217Z</time>
      </trkpt>
      <trkpt lat="44.1259" lon="6.79784">
        <ele>1059.3</ele>
        <time>2021-06-02T13:12:18.221Z</time>
      </trkpt>
      <trkpt lat="44.12595" lon="6.79779">
        <ele>1061.5</ele>
        <time>2021-06-02T13:12:22.230Z</time>
      </trkpt>
      <trkpt lat="44.12604" lon="6.79782">
        <ele>1062.3</ele>
        <time>2021-06-02T13:12:25.392Z</time>
      </trkpt>
      <trkpt lat="44.12611" lon="6.79785">
        <ele>1062.6</ele>
        <time>2021-06-02T13:12:28.904Z</time>
      </trkpt>
      <trkpt lat="44.12617" lon="6.7979">
        <ele>1061.1</ele>
        <time>2021-06-02T13:12:32.245Z</time>
      </trkpt>
      <trkpt lat="44.12624" lon="6.79794">
        <ele>1060.7</ele>
        <time>2021-06-02T13:12:37.000Z</time>
      </trkpt>
      <trkpt lat="44.12629" lon="6.79798">
        <ele>1066</ele>
        <time>2021-06-02T13:12:44.329Z</time>
      </trkpt>
      <trkpt lat="44.12634" lon="6.79802">
        <ele>1065.7</ele>
        <time>2021-06-02T13:12:58.867Z</time>
      </trkpt>
      <trkpt lat="44.12641" lon="6.79814">
        <ele>1066.2</ele>
        <time>2021-06-02T13:13:06.976Z</time>
      </trkpt>
      <trkpt lat="44.12642" lon="6.7982">
        <ele>1060.2</ele>
        <time>2021-06-02T13:13:10.090Z</time>
      </trkpt>
      <trkpt lat="44.12646" lon="6.79827">
        <ele>1060.6</ele>
        <time>2021-06-02T13:13:16.224Z</time>
      </trkpt>
      <trkpt lat="44.12654" lon="6.79829">
        <ele>1069.8</ele>
        <time>2021-06-02T13:13:19.927Z</time>
      </trkpt>
      <trkpt lat="44.12665" lon="6.79838">
        <ele>1076.1</ele>
        <time>2021-06-02T13:13:27.234Z</time>
      </trkpt>
      <trkpt lat="44.12671" lon="6.79844">
        <ele>1073.4</ele>
        <time>2021-06-02T13:13:30.289Z</time>
      </trkpt>
      <trkpt lat="44.12677" lon="6.79845">
        <ele>1077.1</ele>
        <time>2021-06-02T13:13:33.780Z</time>
      </trkpt>
      <trkpt lat="44.12682" lon="6.79847">
        <ele>1076.6</ele>
        <time>2021-06-02T13:13:37.000Z</time>
      </trkpt>
      <trkpt lat="44.12687" lon="6.79856">
        <ele>1081.5</ele>
        <time>2021-06-02T13:13:43.811Z</time>
      </trkpt>
      <trkpt lat="44.12694" lon="6.7986">
        <ele>1085.7</ele>
        <time>2021-06-02T13:13:50.326Z</time>
      </trkpt>
      <trkpt lat="44.127" lon="6.79862">
        <ele>1085.6</ele>
        <time>2021-06-02T13:13:53.851Z</time>
      </trkpt>
      <trkpt lat="44.12706" lon="6.79864">
        <ele>1087.9</ele>
        <time>2021-06-02T13:13:57.254Z</time>
      </trkpt>
      <trkpt lat="44.12712" lon="6.79865">
        <ele>1089.2</ele>
        <time>2021-06-02T13:14:00.430Z</time>
      </trkpt>
      <trkpt lat="44.12716" lon="6.7987">
        <ele>1087.7</ele>
        <time>2021-06-02T13:14:03.758Z</time>
      </trkpt>
      <trkpt lat="44.12722" lon="6.79871">
        <ele>1090</ele>
        <time>2021-06-02T13:14:06.955Z</time>
      </trkpt>
      <trkpt lat="44.12726" lon="6.79882">
        <ele>1091.5</ele>
        <time>2021-06-02T13:14:13.671Z</time>
      </trkpt>
      <trkpt lat="44.12726" lon="6.7989">
        <ele>1091.6</ele>
        <time>2021-06-02T13:14:16.750Z</time>
      </trkpt>
      <trkpt lat="44.12728" lon="6.79896">
        <ele>1090.9</ele>
        <time>2021-06-02T13:14:19.899Z</time>
      </trkpt>
      <trkpt lat="44.12733" lon="6.79902">
        <ele>1091.4</ele>
        <time>2021-06-02T13:14:23.225Z</time>
      </trkpt>
      <trkpt lat="44.12738" lon="6.79903">
        <ele>1090.9</ele>
        <time>2021-06-02T13:14:26.573Z</time>
      </trkpt>
      <trkpt lat="44.12745" lon="6.79904">
        <ele>1093</ele>
        <time>2021-06-02T13:14:30.379Z</time>
      </trkpt>
      <trkpt lat="44.1275" lon="6.79901">
        <ele>1091.4</ele>
        <time>2021-06-02T13:14:34.213Z</time>
      </trkpt>
      <trkpt lat="44.12752" lon="6.79893">
        <ele>1091.2</ele>
        <time>2021-06-02T13:14:38.211Z</time>
      </trkpt>
      <trkpt lat="44.12757" lon="6.79883">
        <ele>1088.3</ele>
        <time>2021-06-02T13:14:44.935Z</time>
      </trkpt>
      <trkpt lat="44.12762" lon="6.79889">
        <ele>1088</ele>
        <time>2021-06-02T13:14:49.213Z</time>
      </trkpt>
      <trkpt lat="44.12761" lon="6.79897">
        <ele>1092.5</ele>
        <time>2021-06-02T13:14:52.535Z</time>
      </trkpt>
      <trkpt lat="44.12764" lon="6.79902">
        <ele>1092.4</ele>
        <time>2021-06-02T13:14:55.952Z</time>
      </trkpt>
      <trkpt lat="44.12768" lon="6.79906">
        <ele>1095.4</ele>
        <time>2021-06-02T13:14:59.211Z</time>
      </trkpt>
      <trkpt lat="44.12772" lon="6.79912">
        <ele>1094.6</ele>
        <time>2021-06-02T13:15:02.397Z</time>
      </trkpt>
      <trkpt lat="44.12773" lon="6.79919">
        <ele>1096.1</ele>
        <time>2021-06-02T13:15:05.850Z</time>
      </trkpt>
      <trkpt lat="44.12779" lon="6.79918">
        <ele>1099.1</ele>
        <time>2021-06-02T13:15:13.228Z</time>
      </trkpt>
      <trkpt lat="44.12775" lon="6.79924">
        <ele>1103.9</ele>
        <time>2021-06-02T13:15:25.000Z</time>
      </trkpt>
      <trkpt lat="44.12766" lon="6.79924">
        <ele>1104.4</ele>
        <time>2021-06-02T13:15:31.852Z</time>
      </trkpt>
      <trkpt lat="44.12759" lon="6.79921">
        <ele>1101.6</ele>
        <time>2021-06-02T13:15:38.353Z</time>
      </trkpt>
      <trkpt lat="44.12757" lon="6.79908">
        <ele>1101.8</ele>
        <time>2021-06-02T13:15:45.137Z</time>
      </trkpt>
      <trkpt lat="44.12755" lon="6.79902">
        <ele>1103.1</ele>
        <time>2021-06-02T13:15:48.233Z</time>
      </trkpt>
      <trkpt lat="44.12757" lon="6.79892">
        <ele>1097.8</ele>
        <time>2021-06-02T13:15:55.000Z</time>
      </trkpt>
      <trkpt lat="44.12759" lon="6.79901">
        <ele>1097.8</ele>
        <time>2021-06-02T13:15:58.218Z</time>
      </trkpt>
      <trkpt lat="44.12769" lon="6.79939">
        <ele>1102.5</ele>
        <time>2021-06-02T13:16:01.856Z</time>
      </trkpt>
      <trkpt lat="44.12772" lon="6.79952">
        <ele>1107.9</ele>
        <time>2021-06-02T13:16:05.642Z</time>
      </trkpt>
      <trkpt lat="44.12772" lon="6.79958">
        <ele>1109.4</ele>
        <time>2021-06-02T13:16:09.113Z</time>
      </trkpt>
      <trkpt lat="44.12773" lon="6.7997">
        <ele>1109.7</ele>
        <time>2021-06-02T13:16:13.224Z</time>
      </trkpt>
      <trkpt lat="44.12772" lon="6.79978">
        <ele>1113.2</ele>
        <time>2021-06-02T13:16:16.936Z</time>
      </trkpt>
      <trkpt lat="44.12777" lon="6.79988">
        <ele>1112.7</ele>
        <time>2021-06-02T13:16:20.452Z</time>
      </trkpt>
      <trkpt lat="44.12778" lon="6.79981">
        <ele>1115.5</ele>
        <time>2021-06-02T13:16:35.051Z</time>
      </trkpt>
      <trkpt lat="44.12783" lon="6.79977">
        <ele>1117.1</ele>
        <time>2021-06-02T13:16:41.832Z</time>
      </trkpt>
      <trkpt lat="44.12785" lon="6.79986">
        <ele>1118.7</ele>
        <time>2021-06-02T13:16:45.216Z</time>
      </trkpt>
      <trkpt lat="44.1278" lon="6.79987">
        <ele>1122.4</ele>
        <time>2021-06-02T13:16:58.732Z</time>
      </trkpt>
      <trkpt lat="44.12784" lon="6.79983">
        <ele>1121.4</ele>
        <time>2021-06-02T13:17:12.222Z</time>
      </trkpt>
      <trkpt lat="44.1279" lon="6.79989">
        <ele>1126.2</ele>
        <time>2021-06-02T13:17:19.213Z</time>
      </trkpt>
      <trkpt lat="44.12787" lon="6.79997">
        <ele>1132</ele>
        <time>2021-06-02T13:17:22.230Z</time>
      </trkpt>
      <trkpt lat="44.12785" lon="6.80012">
        <ele>1135.4</ele>
        <time>2021-06-02T13:17:26.143Z</time>
      </trkpt>
      <trkpt lat="44.12786" lon="6.8002">
        <ele>1132.2</ele>
        <time>2021-06-02T13:17:29.219Z</time>
      </trkpt>
      <trkpt lat="44.1279" lon="6.80017">
        <ele>1134.4</ele>
        <time>2021-06-02T13:18:01.671Z</time>
      </trkpt>
      <trkpt lat="44.12789" lon="6.80024">
        <ele>1132.9</ele>
        <time>2021-06-02T13:18:15.114Z</time>
      </trkpt>
      <trkpt lat="44.12791" lon="6.80032">
        <ele>1133</ele>
        <time>2021-06-02T13:18:22.931Z</time>
      </trkpt>
      <trkpt lat="44.12786" lon="6.80031">
        <ele>1133.3</ele>
        <time>2021-06-02T13:18:29.556Z</time>
      </trkpt>
      <trkpt lat="44.12786" lon="6.80039">
        <ele>1135.6</ele>
        <time>2021-06-02T13:18:36.409Z</time>
      </trkpt>
      <trkpt lat="44.1279" lon="6.80039">
        <ele>1141.6</ele>
        <time>2021-06-02T13:18:40.093Z</time>
      </trkpt>
      <trkpt lat="44.12795" lon="6.80037">
        <ele>1143.2</ele>
        <time>2021-06-02T13:18:43.000Z</time>
      </trkpt>
      <trkpt lat="44.12801" lon="6.80035">
        <ele>1145.1</ele>
        <time>2021-06-02T13:18:46.373Z</time>
      </trkpt>
      <trkpt lat="44.12808" lon="6.80034">
        <ele>1145</ele>
        <time>2021-06-02T13:18:49.934Z</time>
      </trkpt>
      <trkpt lat="44.12816" lon="6.80033">
        <ele>1146</ele>
        <time>2021-06-02T13:18:55.000Z</time>
      </trkpt>
      <trkpt lat="44.12821" lon="6.80033">
        <ele>1148.9</ele>
        <time>2021-06-02T13:18:58.430Z</time>
      </trkpt>
      <trkpt lat="44.12829" lon="6.80036">
        <ele>1143.6</ele>
        <time>2021-06-02T13:19:04.815Z</time>
      </trkpt>
      <trkpt lat="44.12826" lon="6.80046">
        <ele>1144.4</ele>
        <time>2021-06-02T13:19:11.192Z</time>
      </trkpt>
      <trkpt lat="44.12831" lon="6.8005">
        <ele>1144.8</ele>
        <time>2021-06-02T13:19:14.777Z</time>
      </trkpt>
      <trkpt lat="44.12833" lon="6.80056">
        <ele>1143.4</ele>
        <time>2021-06-02T13:19:18.254Z</time>
      </trkpt>
      <trkpt lat="44.12825" lon="6.80061">
        <ele>1147.5</ele>
        <time>2021-06-02T13:19:24.596Z</time>
      </trkpt>
      <trkpt lat="44.12821" lon="6.80072">
        <ele>1147.3</ele>
        <time>2021-06-02T13:19:30.892Z</time>
      </trkpt>
      <trkpt lat="44.12816" lon="6.80074">
        <ele>1147.2</ele>
        <time>2021-06-02T13:19:38.474Z</time>
      </trkpt>
      <trkpt lat="44.12821" lon="6.80074">
        <ele>1154.7</ele>
        <time>2021-06-02T13:19:54.235Z</time>
      </trkpt>
      <trkpt lat="44.12826" lon="6.80078">
        <ele>1155.9</ele>
        <time>2021-06-02T13:20:00.686Z</time>
      </trkpt>
      <trkpt lat="44.12835" lon="6.80081">
        <ele>1159.1</ele>
        <time>2021-06-02T13:20:07.850Z</time>
      </trkpt>
      <trkpt lat="44.12829" lon="6.80086">
        <ele>1154.9</ele>
        <time>2021-06-02T13:20:21.092Z</time>
      </trkpt>
      <trkpt lat="44.12824" lon="6.80088">
        <ele>1155.3</ele>
        <time>2021-06-02T13:20:24.428Z</time>
      </trkpt>
      <trkpt lat="44.12825" lon="6.80095">
        <ele>1155.3</ele>
        <time>2021-06-02T13:20:31.713Z</time>
      </trkpt>
      <trkpt lat="44.12829" lon="6.80099">
        <ele>1154.6</ele>
        <time>2021-06-02T13:20:34.994Z</time>
      </trkpt>
      <trkpt lat="44.12834" lon="6.80105">
        <ele>1154.7</ele>
        <time>2021-06-02T13:20:38.456Z</time>
      </trkpt>
      <trkpt lat="44.12835" lon="6.80113">
        <ele>1153.6</ele>
        <time>2021-06-02T13:20:41.972Z</time>
      </trkpt>
      <trkpt lat="44.12832" lon="6.80118">
        <ele>1153</ele>
        <time>2021-06-02T13:20:45.287Z</time>
      </trkpt>
      <trkpt lat="44.12825" lon="6.80123">
        <ele>1154.3</ele>
        <time>2021-06-02T13:20:48.996Z</time>
      </trkpt>
      <trkpt lat="44.12819" lon="6.80127">
        <ele>1155.2</ele>
        <time>2021-06-02T13:20:52.000Z</time>
      </trkpt>
      <trkpt lat="44.12812" lon="6.80132">
        <ele>1158.4</ele>
        <time>2021-06-02T13:20:59.212Z</time>
      </trkpt>
      <trkpt lat="44.12822" lon="6.80137">
        <ele>1168</ele>
        <time>2021-06-02T13:21:05.855Z</time>
      </trkpt>
      <trkpt lat="44.12826" lon="6.80139">
        <ele>1167.5</ele>
        <time>2021-06-02T13:21:09.218Z</time>
      </trkpt>
      <trkpt lat="44.1283" lon="6.80145">
        <ele>1170.7</ele>
        <time>2021-06-02T13:21:12.828Z</time>
      </trkpt>
      <trkpt lat="44.12823" lon="6.80153">
        <ele>1169.8</ele>
        <time>2021-06-02T13:21:19.213Z</time>
      </trkpt>
      <trkpt lat="44.12821" lon="6.80159">
        <ele>1167.7</ele>
        <time>2021-06-02T13:21:22.714Z</time>
      </trkpt>
      <trkpt lat="44.12824" lon="6.80165">
        <ele>1169.2</ele>
        <time>2021-06-02T13:21:30.225Z</time>
      </trkpt>
      <trkpt lat="44.1283" lon="6.80161">
        <ele>1172.9</ele>
        <time>2021-06-02T13:21:36.494Z</time>
      </trkpt>
      <trkpt lat="44.12834" lon="6.80165">
        <ele>1174.5</ele>
        <time>2021-06-02T13:21:39.498Z</time>
      </trkpt>
      <trkpt lat="44.12837" lon="6.80171">
        <ele>1175.5</ele>
        <time>2021-06-02T13:21:42.617Z</time>
      </trkpt>
      <trkpt lat="44.12841" lon="6.80175">
        <ele>1176.9</ele>
        <time>2021-06-02T13:21:46.000Z</time>
      </trkpt>
      <trkpt lat="44.12844" lon="6.8017">
        <ele>1206.1</ele>
        <time>2021-06-02T13:22:01.000Z</time>
      </trkpt>
      <trkpt lat="44.12849" lon="6.80169">
        <ele>1187.2</ele>
        <time>2021-06-02T13:22:18.384Z</time>
      </trkpt>
      <trkpt lat="44.12849" lon="6.8018">
        <ele>1188.4</ele>
        <time>2021-06-02T13:22:32.168Z</time>
      </trkpt>
      <trkpt lat="44.12847" lon="6.80189">
        <ele>1189.7</ele>
        <time>2021-06-02T13:22:35.227Z</time>
      </trkpt>
      <trkpt lat="44.12845" lon="6.80196">
        <ele>1189.4</ele>
        <time>2021-06-02T13:22:42.082Z</time>
      </trkpt>
      <trkpt lat="44.12833" lon="6.80199">
        <ele>1193.7</ele>
        <time>2021-06-02T13:22:49.000Z</time>
      </trkpt>
      <trkpt lat="44.1283" lon="6.80194">
        <ele>1194.3</ele>
        <time>2021-06-02T13:22:52.772Z</time>
      </trkpt>
      <trkpt lat="44.12829" lon="6.80201">
        <ele>1198</ele>
        <time>2021-06-02T13:23:20.254Z</time>
      </trkpt>
      <trkpt lat="44.12827" lon="6.8021">
        <ele>1197</ele>
        <time>2021-06-02T13:23:26.725Z</time>
      </trkpt>
      <trkpt lat="44.12826" lon="6.8022">
        <ele>1203.1</ele>
        <time>2021-06-02T13:23:30.213Z</time>
      </trkpt>
      <trkpt lat="44.12823" lon="6.80227">
        <ele>1202.3</ele>
        <time>2021-06-02T13:23:33.235Z</time>
      </trkpt>
      <trkpt lat="44.12821" lon="6.80239">
        <ele>1200.8</ele>
        <time>2021-06-02T13:23:37.220Z</time>
      </trkpt>
      <trkpt lat="44.12818" lon="6.80244">
        <ele>1199.6</ele>
        <time>2021-06-02T13:23:40.226Z</time>
      </trkpt>
      <trkpt lat="44.12814" lon="6.80247">
        <ele>1202.1</ele>
        <time>2021-06-02T13:23:43.247Z</time>
      </trkpt>
      <trkpt lat="44.12805" lon="6.80255">
        <ele>1201.4</ele>
        <time>2021-06-02T13:23:46.590Z</time>
      </trkpt>
      <trkpt lat="44.128" lon="6.80265">
        <ele>1195.5</ele>
        <time>2021-06-02T13:23:49.946Z</time>
      </trkpt>
      <trkpt lat="44.12796" lon="6.80272">
        <ele>1199.2</ele>
        <time>2021-06-02T13:23:53.213Z</time>
      </trkpt>
      <trkpt lat="44.12791" lon="6.80279">
        <ele>1256.9</ele>
        <time>2021-06-02T13:23:56.468Z</time>
      </trkpt>
      <trkpt lat="44.1279" lon="6.80288">
        <ele>1227.1</ele>
        <time>2021-06-02T13:23:59.772Z</time>
      </trkpt>
      <trkpt lat="44.12792" lon="6.80296">
        <ele>1213.7</ele>
        <time>2021-06-02T13:24:03.213Z</time>
      </trkpt>
      <trkpt lat="44.12799" lon="6.80298">
        <ele>1204.8</ele>
        <time>2021-06-02T13:24:09.229Z</time>
      </trkpt>
      <trkpt lat="44.12806" lon="6.80297">
        <ele>1206.3</ele>
        <time>2021-06-02T13:24:12.973Z</time>
      </trkpt>
      <trkpt lat="44.12812" lon="6.80297">
        <ele>1208.7</ele>
        <time>2021-06-02T13:24:16.292Z</time>
      </trkpt>
      <trkpt lat="44.12819" lon="6.80291">
        <ele>1211.5</ele>
        <time>2021-06-02T13:24:23.225Z</time>
      </trkpt>
      <trkpt lat="44.12826" lon="6.8029">
        <ele>1214.6</ele>
        <time>2021-06-02T13:24:26.429Z</time>
      </trkpt>
      <trkpt lat="44.12833" lon="6.80289">
        <ele>1217</ele>
        <time>2021-06-02T13:24:30.690Z</time>
      </trkpt>
      <trkpt lat="44.12824" lon="6.80302">
        <ele>1220.8</ele>
        <time>2021-06-02T13:24:37.216Z</time>
      </trkpt>
      <trkpt lat="44.1282" lon="6.80307">
        <ele>1223.2</ele>
        <time>2021-06-02T13:24:40.323Z</time>
      </trkpt>
      <trkpt lat="44.12815" lon="6.80309">
        <ele>1232.8</ele>
        <time>2021-06-02T13:24:56.214Z</time>
      </trkpt>
      <trkpt lat="44.12825" lon="6.80318">
        <ele>1233.7</ele>
        <time>2021-06-02T13:25:07.222Z</time>
      </trkpt>
      <trkpt lat="44.12828" lon="6.80324">
        <ele>1237.1</ele>
        <time>2021-06-02T13:25:20.139Z</time>
      </trkpt>
      <trkpt lat="44.12836" lon="6.80322">
        <ele>1241.5</ele>
        <time>2021-06-02T13:25:30.237Z</time>
      </trkpt>
      <trkpt lat="44.12841" lon="6.80322">
        <ele>1244.7</ele>
        <time>2021-06-02T13:25:37.000Z</time>
      </trkpt>
      <trkpt lat="44.1284" lon="6.80328">
        <ele>1247.6</ele>
        <time>2021-06-02T13:26:09.971Z</time>
      </trkpt>
      <trkpt lat="44.12847" lon="6.80328">
        <ele>1247.8</ele>
        <time>2021-06-02T13:26:26.467Z</time>
      </trkpt>
      <trkpt lat="44.12853" lon="6.80331">
        <ele>1250.1</ele>
        <time>2021-06-02T13:26:30.289Z</time>
      </trkpt>
      <trkpt lat="44.12859" lon="6.80334">
        <ele>1251</ele>
        <time>2021-06-02T13:26:33.319Z</time>
      </trkpt>
      <trkpt lat="44.12864" lon="6.80341">
        <ele>1253.3</ele>
        <time>2021-06-02T13:26:36.928Z</time>
      </trkpt>
      <trkpt lat="44.12868" lon="6.80346">
        <ele>1253.8</ele>
        <time>2021-06-02T13:26:40.218Z</time>
      </trkpt>
      <trkpt lat="44.12875" lon="6.80353">
        <ele>1305.6</ele>
        <time>2021-06-02T13:26:47.220Z</time>
      </trkpt>
      <trkpt lat="44.12887" lon="6.80361">
        <ele>1280.7</ele>
        <time>2021-06-02T13:26:55.232Z</time>
      </trkpt>
      <trkpt lat="44.12896" lon="6.80364">
        <ele>1273.2</ele>
        <time>2021-06-02T13:26:58.680Z</time>
      </trkpt>
      <trkpt lat="44.12902" lon="6.80366">
        <ele>1273.7</ele>
        <time>2021-06-02T13:27:01.806Z</time>
      </trkpt>
      <trkpt lat="44.12908" lon="6.80368">
        <ele>1272.7</ele>
        <time>2021-06-02T13:27:05.230Z</time>
      </trkpt>
      <trkpt lat="44.12914" lon="6.80371">
        <ele>1271.4</ele>
        <time>2021-06-02T13:27:09.050Z</time>
      </trkpt>
      <trkpt lat="44.12918" lon="6.80375">
        <ele>1268.7</ele>
        <time>2021-06-02T13:27:12.466Z</time>
      </trkpt>
      <trkpt lat="44.12922" lon="6.8038">
        <ele>1269.9</ele>
        <time>2021-06-02T13:27:15.995Z</time>
      </trkpt>
      <trkpt lat="44.12933" lon="6.80387">
        <ele>1269.3</ele>
        <time>2021-06-02T13:27:23.274Z</time>
      </trkpt>
      <trkpt lat="44.12937" lon="6.8039">
        <ele>1270.9</ele>
        <time>2021-06-02T13:27:27.219Z</time>
      </trkpt>
      <trkpt lat="44.12942" lon="6.80394">
        <ele>1271.2</ele>
        <time>2021-06-02T13:27:33.277Z</time>
      </trkpt>
      <trkpt lat="44.12949" lon="6.804">
        <ele>1271.4</ele>
        <time>2021-06-02T13:27:37.000Z</time>
      </trkpt>
      <trkpt lat="44.12954" lon="6.80403">
        <ele>1271.3</ele>
        <time>2021-06-02T13:27:40.670Z</time>
      </trkpt>
      <trkpt lat="44.12959" lon="6.80407">
        <ele>1272.2</ele>
        <time>2021-06-02T13:27:44.216Z</time>
      </trkpt>
      <trkpt lat="44.12962" lon="6.80411">
        <ele>1273.1</ele>
        <time>2021-06-02T13:27:47.229Z</time>
      </trkpt>
      <trkpt lat="44.12965" lon="6.80416">
        <ele>1274.7</ele>
        <time>2021-06-02T13:27:51.250Z</time>
      </trkpt>
      <trkpt lat="44.12971" lon="6.80416">
        <ele>1279.8</ele>
        <time>2021-06-02T13:27:55.217Z</time>
      </trkpt>
      <trkpt lat="44.12978" lon="6.80415">
        <ele>1279.3</ele>
        <time>2021-06-02T13:27:58.374Z</time>
      </trkpt>
      <trkpt lat="44.12983" lon="6.80419">
        <ele>1281</ele>
        <time>2021-06-02T13:28:01.516Z</time>
      </trkpt>
      <trkpt lat="44.1299" lon="6.8042">
        <ele>1279.4</ele>
        <time>2021-06-02T13:28:05.220Z</time>
      </trkpt>
      <trkpt lat="44.13" lon="6.80419">
        <ele>1281.9</ele>
        <time>2021-06-02T13:28:12.049Z</time>
      </trkpt>
      <trkpt lat="44.13004" lon="6.80419">
        <ele>1286</ele>
        <time>2021-06-02T13:28:15.228Z</time>
      </trkpt>
      <trkpt lat="44.13016" lon="6.80413">
        <ele>1281.4</ele>
        <time>2021-06-02T13:28:21.894Z</time>
      </trkpt>
      <trkpt lat="44.13025" lon="6.80414">
        <ele>1279.5</ele>
        <time>2021-06-02T13:28:25.223Z</time>
      </trkpt>
      <trkpt lat="44.13034" lon="6.80416">
        <ele>1520.1</ele>
        <time>2021-06-02T13:28:29.071Z</time>
      </trkpt>
      <trkpt lat="44.13042" lon="6.80413">
        <ele>1411.5</ele>
        <time>2021-06-02T13:28:32.239Z</time>
      </trkpt>
      <trkpt lat="44.13047" lon="6.80411">
        <ele>1355.5</ele>
        <time>2021-06-02T13:28:36.228Z</time>
      </trkpt>
      <trkpt lat="44.13052" lon="6.80411">
        <ele>1332.1</ele>
        <time>2021-06-02T13:28:39.230Z</time>
      </trkpt>
      <trkpt lat="44.13047" lon="6.80417">
        <ele>1300.8</ele>
        <time>2021-06-02T13:28:46.000Z</time>
      </trkpt>
      <trkpt lat="44.13054" lon="6.80415">
        <ele>1295</ele>
        <time>2021-06-02T13:28:49.000Z</time>
      </trkpt>
      <trkpt lat="44.1306" lon="6.80411">
        <ele>1288.7</ele>
        <time>2021-06-02T13:28:55.000Z</time>
      </trkpt>
      <trkpt lat="44.1306" lon="6.80402">
        <ele>1512.9</ele>
        <time>2021-06-02T13:30:18.771Z</time>
      </trkpt>
      <trkpt lat="44.13056" lon="6.8041">
        <ele>1368.2</ele>
        <time>2021-06-02T13:30:22.388Z</time>
      </trkpt>
      <trkpt lat="44.13058" lon="6.80423">
        <ele>1341.3</ele>
        <time>2021-06-02T13:30:26.230Z</time>
      </trkpt>
      <trkpt lat="44.13061" lon="6.80434">
        <ele>1316.4</ele>
        <time>2021-06-02T13:30:29.712Z</time>
      </trkpt>
      <trkpt lat="44.13061" lon="6.80447">
        <ele>1308.4</ele>
        <time>2021-06-02T13:30:33.314Z</time>
      </trkpt>
      <trkpt lat="44.13061" lon="6.80462">
        <ele>1303.6</ele>
        <time>2021-06-02T13:30:37.219Z</time>
      </trkpt>
      <trkpt lat="44.13062" lon="6.80476">
        <ele>1301.9</ele>
        <time>2021-06-02T13:30:40.000Z</time>
      </trkpt>
      <trkpt lat="44.13065" lon="6.80494">
        <ele>1303</ele>
        <time>2021-06-02T13:30:44.228Z</time>
      </trkpt>
      <trkpt lat="44.13065" lon="6.8051">
        <ele>1303.5</ele>
        <time>2021-06-02T13:30:47.575Z</time>
      </trkpt>
      <trkpt lat="44.13062" lon="6.80527">
        <ele>1304.5</ele>
        <time>2021-06-02T13:30:51.177Z</time>
      </trkpt>
      <trkpt lat="44.13059" lon="6.80547">
        <ele>1303</ele>
        <time>2021-06-02T13:30:55.220Z</time>
      </trkpt>
      <trkpt lat="44.13054" lon="6.80562">
        <ele>1307.4</ele>
        <time>2021-06-02T13:30:59.230Z</time>
      </trkpt>
      <trkpt lat="44.13051" lon="6.80575">
        <ele>1307.7</ele>
        <time>2021-06-02T13:31:02.690Z</time>
      </trkpt>
      <trkpt lat="44.13045" lon="6.80588">
        <ele>1306.6</ele>
        <time>2021-06-02T13:31:07.216Z</time>
      </trkpt>
      <trkpt lat="44.13042" lon="6.806">
        <ele>1305.5</ele>
        <time>2021-06-02T13:31:10.267Z</time>
      </trkpt>
      <trkpt lat="44.13036" lon="6.80612">
        <ele>1303.4</ele>
        <time>2021-06-02T13:31:13.279Z</time>
      </trkpt>
      <trkpt lat="44.13029" lon="6.80629">
        <ele>1302.1</ele>
        <time>2021-06-02T13:31:17.227Z</time>
      </trkpt>
      <trkpt lat="44.13017" lon="6.80666">
        <ele>1300.4</ele>
        <time>2021-06-02T13:31:22.000Z</time>
      </trkpt>
      <trkpt lat="44.13007" lon="6.8068">
        <ele>1298</ele>
        <time>2021-06-02T13:31:25.745Z</time>
      </trkpt>
      <trkpt lat="44.13001" lon="6.80691">
        <ele>1298.2</ele>
        <time>2021-06-02T13:31:29.223Z</time>
      </trkpt>
      <trkpt lat="44.12997" lon="6.80705">
        <ele>1296.7</ele>
        <time>2021-06-02T13:31:32.789Z</time>
      </trkpt>
      <trkpt lat="44.12978" lon="6.80749">
        <ele>1291.9</ele>
        <time>2021-06-02T13:31:37.000Z</time>
      </trkpt>
      <trkpt lat="44.12971" lon="6.80776">
        <ele>1289.9</ele>
        <time>2021-06-02T13:31:41.215Z</time>
      </trkpt>
      <trkpt lat="44.12971" lon="6.808">
        <ele>1281.8</ele>
        <time>2021-06-02T13:31:46.000Z</time>
      </trkpt>
      <trkpt lat="44.12976" lon="6.80822">
        <ele>1280.8</ele>
        <time>2021-06-02T13:31:50.214Z</time>
      </trkpt>
      <trkpt lat="44.12974" lon="6.80841">
        <ele>1282.4</ele>
        <time>2021-06-02T13:31:53.464Z</time>
      </trkpt>
      <trkpt lat="44.12972" lon="6.80828">
        <ele>1277.5</ele>
        <time>2021-06-02T13:32:00.000Z</time>
      </trkpt>
      <trkpt lat="44.12969" lon="6.80814">
        <ele>1275.1</ele>
        <time>2021-06-02T13:32:04.000Z</time>
      </trkpt>
      <trkpt lat="44.12967" lon="6.80806">
        <ele>1276.2</ele>
        <time>2021-06-02T13:32:07.000Z</time>
      </trkpt>
      <trkpt lat="44.12963" lon="6.80794">
        <ele>1270.3</ele>
        <time>2021-06-02T13:32:10.574Z</time>
      </trkpt>
      <trkpt lat="44.12948" lon="6.80762">
        <ele>1270.1</ele>
        <time>2021-06-02T13:32:14.000Z</time>
      </trkpt>
      <trkpt lat="44.1294" lon="6.80736">
        <ele>1271.6</ele>
        <time>2021-06-02T13:32:17.000Z</time>
      </trkpt>
      <trkpt lat="44.12936" lon="6.80707">
        <ele>1269.3</ele>
        <time>2021-06-02T13:32:20.000Z</time>
      </trkpt>
      <trkpt lat="44.12933" lon="6.80692">
        <ele>1267.7</ele>
        <time>2021-06-02T13:32:23.000Z</time>
      </trkpt>
      <trkpt lat="44.1292" lon="6.80697">
        <ele>1266.9</ele>
        <time>2021-06-02T13:32:26.000Z</time>
      </trkpt>
      <trkpt lat="44.12909" lon="6.8072">
        <ele>1262.8</ele>
        <time>2021-06-02T13:32:30.000Z</time>
      </trkpt>
      <trkpt lat="44.12907" lon="6.80741">
        <ele>1262.3</ele>
        <time>2021-06-02T13:32:34.000Z</time>
      </trkpt>
      <trkpt lat="44.12908" lon="6.80758">
        <ele>1260.7</ele>
        <time>2021-06-02T13:32:37.000Z</time>
      </trkpt>
      <trkpt lat="44.12909" lon="6.80773">
        <ele>1261.6</ele>
        <time>2021-06-02T13:32:40.000Z</time>
      </trkpt>
      <trkpt lat="44.12912" lon="6.80788">
        <ele>1260.5</ele>
        <time>2021-06-02T13:32:43.000Z</time>
      </trkpt>
      <trkpt lat="44.12916" lon="6.80805">
        <ele>1261.8</ele>
        <time>2021-06-02T13:32:46.000Z</time>
      </trkpt>
      <trkpt lat="44.12921" lon="6.80834">
        <ele>1260.4</ele>
        <time>2021-06-02T13:32:50.000Z</time>
      </trkpt>
      <trkpt lat="44.12924" lon="6.80865">
        <ele>1258</ele>
        <time>2021-06-02T13:32:54.000Z</time>
      </trkpt>
      <trkpt lat="44.12926" lon="6.80889">
        <ele>1250.8</ele>
        <time>2021-06-02T13:32:57.000Z</time>
      </trkpt>
      <trkpt lat="44.12931" lon="6.80922">
        <ele>1246.3</ele>
        <time>2021-06-02T13:33:01.000Z</time>
      </trkpt>
      <trkpt lat="44.12935" lon="6.80953">
        <ele>1245.5</ele>
        <time>2021-06-02T13:33:05.000Z</time>
      </trkpt>
      <trkpt lat="44.12942" lon="6.80983">
        <ele>1242.2</ele>
        <time>2021-06-02T13:33:09.000Z</time>
      </trkpt>
      <trkpt lat="44.12953" lon="6.8102">
        <ele>1242.2</ele>
        <time>2021-06-02T13:33:13.000Z</time>
      </trkpt>
      <trkpt lat="44.12962" lon="6.81045">
        <ele>1239.5</ele>
        <time>2021-06-02T13:33:16.000Z</time>
      </trkpt>
      <trkpt lat="44.12969" lon="6.8107">
        <ele>1238</ele>
        <time>2021-06-02T13:33:20.000Z</time>
      </trkpt>
      <trkpt lat="44.12987" lon="6.81095">
        <ele>1497.2</ele>
        <time>2021-06-02T13:33:24.000Z</time>
      </trkpt>
      <trkpt lat="44.13003" lon="6.81106">
        <ele>1405.3</ele>
        <time>2021-06-02T13:33:27.000Z</time>
      </trkpt>
      <trkpt lat="44.13024" lon="6.81126">
        <ele>1322.1</ele>
        <time>2021-06-02T13:33:31.000Z</time>
      </trkpt>
      <trkpt lat="44.13041" lon="6.81149">
        <ele>1292.6</ele>
        <time>2021-06-02T13:33:34.000Z</time>
      </trkpt>
      <trkpt lat="44.13062" lon="6.81181">
        <ele>1261.8</ele>
        <time>2021-06-02T13:33:38.000Z</time>
      </trkpt>
      <trkpt lat="44.13077" lon="6.81192">
        <ele>1251.4</ele>
        <time>2021-06-02T13:33:42.000Z</time>
      </trkpt>
      <trkpt lat="44.13078" lon="6.81199">
        <ele>1247.3</ele>
        <time>2021-06-02T13:33:46.000Z</time>
      </trkpt>
      <trkpt lat="44.13082" lon="6.81201">
        <ele>1240.4</ele>
        <time>2021-06-02T13:33:53.000Z</time>
      </trkpt>
      <trkpt lat="44.13081" lon="6.81219">
        <ele>1237.9</ele>
        <time>2021-06-02T13:34:09.000Z</time>
      </trkpt>
      <trkpt lat="44.13086" lon="6.81237">
        <ele>1236.5</ele>
        <time>2021-06-02T13:34:12.260Z</time>
      </trkpt>
      <trkpt lat="44.13115" lon="6.8129">
        <ele>1232.9</ele>
        <time>2021-06-02T13:34:18.000Z</time>
      </trkpt>
      <trkpt lat="44.13127" lon="6.81327">
        <ele>1234.6</ele>
        <time>2021-06-02T13:34:21.000Z</time>
      </trkpt>
      <trkpt lat="44.13138" lon="6.81358">
        <ele>1226.1</ele>
        <time>2021-06-02T13:34:27.000Z</time>
      </trkpt>
      <trkpt lat="44.13158" lon="6.81384">
        <ele>1223.2</ele>
        <time>2021-06-02T13:34:33.000Z</time>
      </trkpt>
      <trkpt lat="44.13169" lon="6.81409">
        <ele>1223.7</ele>
        <time>2021-06-02T13:34:39.000Z</time>
      </trkpt>
      <trkpt lat="44.13169" lon="6.81417">
        <ele>1219.5</ele>
        <time>2021-06-02T13:34:42.000Z</time>
      </trkpt>
      <trkpt lat="44.13163" lon="6.81409">
        <ele>1219.2</ele>
        <time>2021-06-02T13:34:48.000Z</time>
      </trkpt>
      <trkpt lat="44.13158" lon="6.81398">
        <ele>1218.4</ele>
        <time>2021-06-02T13:34:51.000Z</time>
      </trkpt>
      <trkpt lat="44.13146" lon="6.81395">
        <ele>1216.7</ele>
        <time>2021-06-02T13:34:54.000Z</time>
      </trkpt>
      <trkpt lat="44.13131" lon="6.81403">
        <ele>1217.8</ele>
        <time>2021-06-02T13:34:57.000Z</time>
      </trkpt>
      <trkpt lat="44.13122" lon="6.81406">
        <ele>1216.9</ele>
        <time>2021-06-02T13:35:00.000Z</time>
      </trkpt>
      <trkpt lat="44.13101" lon="6.81417">
        <ele>1214.2</ele>
        <time>2021-06-02T13:35:06.000Z</time>
      </trkpt>
      <trkpt lat="44.13093" lon="6.81428">
        <ele>1210.4</ele>
        <time>2021-06-02T13:35:09.000Z</time>
      </trkpt>
      <trkpt lat="44.1309" lon="6.81433">
        <ele>1210</ele>
        <time>2021-06-02T13:35:15.000Z</time>
      </trkpt>
      <trkpt lat="44.13083" lon="6.81429">
        <ele>1210</ele>
        <time>2021-06-02T13:35:24.000Z</time>
      </trkpt>
      <trkpt lat="44.13081" lon="6.81435">
        <ele>1211</ele>
        <time>2021-06-02T13:35:27.241Z</time>
      </trkpt>
      <trkpt lat="44.1308" lon="6.81442">
        <ele>1211.2</ele>
        <time>2021-06-02T13:35:33.000Z</time>
      </trkpt>
      <trkpt lat="44.13072" lon="6.81449">
        <ele>1207.7</ele>
        <time>2021-06-02T13:35:42.000Z</time>
      </trkpt>
      <trkpt lat="44.1306" lon="6.81461">
        <ele>1203.1</ele>
        <time>2021-06-02T13:35:48.000Z</time>
      </trkpt>
      <trkpt lat="44.13052" lon="6.81466">
        <ele>1203.6</ele>
        <time>2021-06-02T13:35:51.237Z</time>
      </trkpt>
      <trkpt lat="44.13039" lon="6.8148">
        <ele>1200</ele>
        <time>2021-06-02T13:35:57.000Z</time>
      </trkpt>
      <trkpt lat="44.13039" lon="6.81491">
        <ele>1199.4</ele>
        <time>2021-06-02T13:36:00.000Z</time>
      </trkpt>
      <trkpt lat="44.13046" lon="6.81498">
        <ele>1201.2</ele>
        <time>2021-06-02T13:36:03.291Z</time>
      </trkpt>
      <trkpt lat="44.13061" lon="6.81502">
        <ele>1194.3</ele>
        <time>2021-06-02T13:36:09.000Z</time>
      </trkpt>
      <trkpt lat="44.13067" lon="6.81509">
        <ele>1192.9</ele>
        <time>2021-06-02T13:36:12.000Z</time>
      </trkpt>
      <trkpt lat="44.13073" lon="6.8152">
        <ele>1193.9</ele>
        <time>2021-06-02T13:36:15.260Z</time>
      </trkpt>
      <trkpt lat="44.13082" lon="6.81531">
        <ele>1193</ele>
        <time>2021-06-02T13:36:21.000Z</time>
      </trkpt>
      <trkpt lat="44.13091" lon="6.81531">
        <ele>1193.9</ele>
        <time>2021-06-02T13:36:24.000Z</time>
      </trkpt>
      <trkpt lat="44.13104" lon="6.81527">
        <ele>1265.3</ele>
        <time>2021-06-02T13:36:30.000Z</time>
      </trkpt>
      <trkpt lat="44.13108" lon="6.81523">
        <ele>1215.6</ele>
        <time>2021-06-02T13:36:36.283Z</time>
      </trkpt>
      <trkpt lat="44.13103" lon="6.81528">
        <ele>1194.1</ele>
        <time>2021-06-02T13:37:30.222Z</time>
      </trkpt>
      <trkpt lat="44.13089" lon="6.81523">
        <ele>1187.2</ele>
        <time>2021-06-02T13:37:37.212Z</time>
      </trkpt>
      <trkpt lat="44.13088" lon="6.81513">
        <ele>1189.6</ele>
        <time>2021-06-02T13:37:40.228Z</time>
      </trkpt>
      <trkpt lat="44.13081" lon="6.81507">
        <ele>1186.8</ele>
        <time>2021-06-02T13:37:43.645Z</time>
      </trkpt>
      <trkpt lat="44.13071" lon="6.81504">
        <ele>1184.8</ele>
        <time>2021-06-02T13:37:48.000Z</time>
      </trkpt>
      <trkpt lat="44.13059" lon="6.81506">
        <ele>1186</ele>
        <time>2021-06-02T13:37:52.221Z</time>
      </trkpt>
      <trkpt lat="44.13051" lon="6.81506">
        <ele>1188.7</ele>
        <time>2021-06-02T13:37:55.236Z</time>
      </trkpt>
      <trkpt lat="44.13044" lon="6.815">
        <ele>1192</ele>
        <time>2021-06-02T13:37:58.288Z</time>
      </trkpt>
      <trkpt lat="44.13034" lon="6.81497">
        <ele>1193.4</ele>
        <time>2021-06-02T13:38:01.596Z</time>
      </trkpt>
      <trkpt lat="44.13025" lon="6.81503">
        <ele>1194.5</ele>
        <time>2021-06-02T13:38:06.000Z</time>
      </trkpt>
      <trkpt lat="44.13009" lon="6.81519">
        <ele>1196.7</ele>
        <time>2021-06-02T13:38:12.000Z</time>
      </trkpt>
      <trkpt lat="44.13003" lon="6.81528">
        <ele>1199.4</ele>
        <time>2021-06-02T13:38:16.219Z</time>
      </trkpt>
      <trkpt lat="44.12996" lon="6.81537">
        <ele>1199.6</ele>
        <time>2021-06-02T13:38:21.000Z</time>
      </trkpt>
      <trkpt lat="44.1299" lon="6.81528">
        <ele>1196.4</ele>
        <time>2021-06-02T13:38:55.244Z</time>
      </trkpt>
      <trkpt lat="44.12998" lon="6.81523">
        <ele>1195.3</ele>
        <time>2021-06-02T13:38:59.220Z</time>
      </trkpt>
      <trkpt lat="44.13009" lon="6.81514">
        <ele>1195.8</ele>
        <time>2021-06-02T13:39:03.000Z</time>
      </trkpt>
      <trkpt lat="44.13016" lon="6.81511">
        <ele>1194.7</ele>
        <time>2021-06-02T13:39:06.000Z</time>
      </trkpt>
      <trkpt lat="44.13023" lon="6.8151">
        <ele>1193</ele>
        <time>2021-06-02T13:39:10.236Z</time>
      </trkpt>
      <trkpt lat="44.13032" lon="6.81515">
        <ele>1192.4</ele>
        <time>2021-06-02T13:39:15.000Z</time>
      </trkpt>
      <trkpt lat="44.13038" lon="6.8152">
        <ele>1191.6</ele>
        <time>2021-06-02T13:39:21.000Z</time>
      </trkpt>
      <trkpt lat="44.13043" lon="6.8152">
        <ele>1189.9</ele>
        <time>2021-06-02T13:39:28.457Z</time>
      </trkpt>
      <trkpt lat="44.13046" lon="6.81531">
        <ele>1190.8</ele>
        <time>2021-06-02T13:39:35.224Z</time>
      </trkpt>
      <trkpt lat="44.1306" lon="6.81538">
        <ele>1188.5</ele>
        <time>2021-06-02T13:39:39.000Z</time>
      </trkpt>
      <trkpt lat="44.13068" lon="6.81541">
        <ele>1187.6</ele>
        <time>2021-06-02T13:39:42.000Z</time>
      </trkpt>
      <trkpt lat="44.13074" lon="6.81546">
        <ele>1188.1</ele>
        <time>2021-06-02T13:39:45.000Z</time>
      </trkpt>
      <trkpt lat="44.13084" lon="6.81546">
        <ele>1189.8</ele>
        <time>2021-06-02T13:39:51.000Z</time>
      </trkpt>
      <trkpt lat="44.1309" lon="6.81552">
        <ele>1191.6</ele>
        <time>2021-06-02T13:40:00.000Z</time>
      </trkpt>
      <trkpt lat="44.13095" lon="6.81553">
        <ele>1280.7</ele>
        <time>2021-06-02T13:40:03.000Z</time>
      </trkpt>
      <trkpt lat="44.131" lon="6.81551">
        <ele>1195.4</ele>
        <time>2021-06-02T13:40:18.000Z</time>
      </trkpt>
      <trkpt lat="44.13105" lon="6.81553">
        <ele>1190.7</ele>
        <time>2021-06-02T13:41:24.000Z</time>
      </trkpt>
      <trkpt lat="44.13109" lon="6.81556">
        <ele>1191.5</ele>
        <time>2021-06-02T13:42:05.220Z</time>
      </trkpt>
      <trkpt lat="44.13113" lon="6.81554">
        <ele>1190.5</ele>
        <time>2021-06-02T13:43:15.000Z</time>
      </trkpt>
      <trkpt lat="44.13112" lon="6.81561">
        <ele>1187.2</ele>
        <time>2021-06-02T13:44:54.000Z</time>
      </trkpt>
      <trkpt lat="44.13108" lon="6.8157">
        <ele>1190.5</ele>
        <time>2021-06-02T13:45:27.612Z</time>
      </trkpt>
      <trkpt lat="44.13103" lon="6.81574">
        <ele>1187.7</ele>
        <time>2021-06-02T13:45:38.820Z</time>
      </trkpt>
      <trkpt lat="44.13098" lon="6.8158">
        <ele>1189.8</ele>
        <time>2021-06-02T13:45:45.682Z</time>
      </trkpt>
      <trkpt lat="44.13092" lon="6.81583">
        <ele>1190.1</ele>
        <time>2021-06-02T13:45:48.699Z</time>
      </trkpt>
      <trkpt lat="44.13086" lon="6.8159">
        <ele>1190.1</ele>
        <time>2021-06-02T13:45:52.056Z</time>
      </trkpt>
      <trkpt lat="44.13083" lon="6.81598">
        <ele>1190.1</ele>
        <time>2021-06-02T13:45:55.445Z</time>
      </trkpt>
      <trkpt lat="44.13082" lon="6.81609">
        <ele>1189.2</ele>
        <time>2021-06-02T13:45:58.940Z</time>
      </trkpt>
      <trkpt lat="44.13082" lon="6.81621">
        <ele>1189.7</ele>
        <time>2021-06-02T13:46:02.646Z</time>
      </trkpt>
      <trkpt lat="44.13082" lon="6.81628">
        <ele>1189.2</ele>
        <time>2021-06-02T13:46:06.046Z</time>
      </trkpt>
      <trkpt lat="44.13081" lon="6.81636">
        <ele>1193.7</ele>
        <time>2021-06-02T13:46:18.000Z</time>
      </trkpt>
      <trkpt lat="44.1308" lon="6.81646">
        <ele>1191.6</ele>
        <time>2021-06-02T13:46:28.124Z</time>
      </trkpt>
      <trkpt lat="44.13078" lon="6.81657">
        <ele>1193.3</ele>
        <time>2021-06-02T13:46:32.224Z</time>
      </trkpt>
      <trkpt lat="44.13075" lon="6.81663">
        <ele>1193.5</ele>
        <time>2021-06-02T13:46:35.229Z</time>
      </trkpt>
      <trkpt lat="44.13071" lon="6.81669">
        <ele>1193.6</ele>
        <time>2021-06-02T13:46:38.240Z</time>
      </trkpt>
      <trkpt lat="44.13068" lon="6.81677">
        <ele>1196</ele>
        <time>2021-06-02T13:46:41.277Z</time>
      </trkpt>
      <trkpt lat="44.13067" lon="6.81685">
        <ele>1197.4</ele>
        <time>2021-06-02T13:46:44.412Z</time>
      </trkpt>
      <trkpt lat="44.13068" lon="6.81692">
        <ele>1197.2</ele>
        <time>2021-06-02T13:46:48.220Z</time>
      </trkpt>
      <trkpt lat="44.13068" lon="6.817">
        <ele>1198.3</ele>
        <time>2021-06-02T13:46:51.229Z</time>
      </trkpt>
      <trkpt lat="44.13067" lon="6.81713">
        <ele>1200.4</ele>
        <time>2021-06-02T13:46:55.209Z</time>
      </trkpt>
      <trkpt lat="44.13066" lon="6.81722">
        <ele>1200.5</ele>
        <time>2021-06-02T13:46:58.328Z</time>
      </trkpt>
      <trkpt lat="44.13065" lon="6.81734">
        <ele>1199.7</ele>
        <time>2021-06-02T13:47:02.077Z</time>
      </trkpt>
      <trkpt lat="44.13064" lon="6.81741">
        <ele>1200.2</ele>
        <time>2021-06-02T13:47:05.226Z</time>
      </trkpt>
      <trkpt lat="44.13063" lon="6.81748">
        <ele>1200</ele>
        <time>2021-06-02T13:47:08.583Z</time>
      </trkpt>
      <trkpt lat="44.13061" lon="6.81755">
        <ele>1198.6</ele>
        <time>2021-06-02T13:47:11.644Z</time>
      </trkpt>
      <trkpt lat="44.13058" lon="6.81763">
        <ele>1197.5</ele>
        <time>2021-06-02T13:47:15.211Z</time>
      </trkpt>
      <trkpt lat="44.13059" lon="6.81773">
        <ele>1197.1</ele>
        <time>2021-06-02T13:47:18.284Z</time>
      </trkpt>
      <trkpt lat="44.13065" lon="6.81784">
        <ele>1196.4</ele>
        <time>2021-06-02T13:47:22.241Z</time>
      </trkpt>
      <trkpt lat="44.13065" lon="6.81792">
        <ele>1199.8</ele>
        <time>2021-06-02T13:47:25.902Z</time>
      </trkpt>
      <trkpt lat="44.13062" lon="6.81801">
        <ele>1202.5</ele>
        <time>2021-06-02T13:47:28.962Z</time>
      </trkpt>
      <trkpt lat="44.13058" lon="6.8181">
        <ele>1206.2</ele>
        <time>2021-06-02T13:47:32.048Z</time>
      </trkpt>
      <trkpt lat="44.13055" lon="6.81819">
        <ele>1206.4</ele>
        <time>2021-06-02T13:47:35.222Z</time>
      </trkpt>
      <trkpt lat="44.13052" lon="6.81827">
        <ele>1207.8</ele>
        <time>2021-06-02T13:47:38.232Z</time>
      </trkpt>
      <trkpt lat="44.1305" lon="6.81837">
        <ele>1209.2</ele>
        <time>2021-06-02T13:47:42.216Z</time>
      </trkpt>
      <trkpt lat="44.13051" lon="6.81846">
        <ele>1209.5</ele>
        <time>2021-06-02T13:47:45.233Z</time>
      </trkpt>
      <trkpt lat="44.1305" lon="6.81855">
        <ele>1210.8</ele>
        <time>2021-06-02T13:47:48.281Z</time>
      </trkpt>
      <trkpt lat="44.13051" lon="6.81868">
        <ele>1209.5</ele>
        <time>2021-06-02T13:47:52.226Z</time>
      </trkpt>
      <trkpt lat="44.13051" lon="6.81878">
        <ele>1211.9</ele>
        <time>2021-06-02T13:47:56.238Z</time>
      </trkpt>
      <trkpt lat="44.1305" lon="6.81886">
        <ele>1211.3</ele>
        <time>2021-06-02T13:47:59.269Z</time>
      </trkpt>
      <trkpt lat="44.13049" lon="6.81896">
        <ele>1211.4</ele>
        <time>2021-06-02T13:48:02.336Z</time>
      </trkpt>
      <trkpt lat="44.13048" lon="6.81904">
        <ele>1210.8</ele>
        <time>2021-06-02T13:48:05.559Z</time>
      </trkpt>
      <trkpt lat="44.13049" lon="6.81912">
        <ele>1210.7</ele>
        <time>2021-06-02T13:48:08.667Z</time>
      </trkpt>
      <trkpt lat="44.13052" lon="6.81921">
        <ele>1213.1</ele>
        <time>2021-06-02T13:48:12.226Z</time>
      </trkpt>
      <trkpt lat="44.13054" lon="6.81932">
        <ele>1209.1</ele>
        <time>2021-06-02T13:48:16.029Z</time>
      </trkpt>
      <trkpt lat="44.13054" lon="6.81944">
        <ele>1208.4</ele>
        <time>2021-06-02T13:48:19.222Z</time>
      </trkpt>
      <trkpt lat="44.13055" lon="6.81954">
        <ele>1209.1</ele>
        <time>2021-06-02T13:48:22.638Z</time>
      </trkpt>
      <trkpt lat="44.13056" lon="6.81964">
        <ele>1211.6</ele>
        <time>2021-06-02T13:48:26.139Z</time>
      </trkpt>
      <trkpt lat="44.13058" lon="6.81975">
        <ele>1213.5</ele>
        <time>2021-06-02T13:48:29.461Z</time>
      </trkpt>
      <trkpt lat="44.13061" lon="6.81986">
        <ele>1217.2</ele>
        <time>2021-06-02T13:48:33.218Z</time>
      </trkpt>
      <trkpt lat="44.13063" lon="6.81996">
        <ele>1218.7</ele>
        <time>2021-06-02T13:48:36.225Z</time>
      </trkpt>
      <trkpt lat="44.13065" lon="6.82009">
        <ele>1215</ele>
        <time>2021-06-02T13:48:43.227Z</time>
      </trkpt>
      <trkpt lat="44.13066" lon="6.8202">
        <ele>1214.9</ele>
        <time>2021-06-02T13:48:46.715Z</time>
      </trkpt>
      <trkpt lat="44.13067" lon="6.82031">
        <ele>1220.7</ele>
        <time>2021-06-02T13:48:50.182Z</time>
      </trkpt>
      <trkpt lat="44.13068" lon="6.82044">
        <ele>1220.6</ele>
        <time>2021-06-02T13:48:54.225Z</time>
      </trkpt>
      <trkpt lat="44.13068" lon="6.82053">
        <ele>1216.9</ele>
        <time>2021-06-02T13:48:57.235Z</time>
      </trkpt>
      <trkpt lat="44.13071" lon="6.82066">
        <ele>1215.7</ele>
        <time>2021-06-02T13:49:01.228Z</time>
      </trkpt>
      <trkpt lat="44.13074" lon="6.82075">
        <ele>1215.7</ele>
        <time>2021-06-02T13:49:04.230Z</time>
      </trkpt>
      <trkpt lat="44.13077" lon="6.82087">
        <ele>1218.8</ele>
        <time>2021-06-02T13:49:08.271Z</time>
      </trkpt>
      <trkpt lat="44.13082" lon="6.82099">
        <ele>1218.9</ele>
        <time>2021-06-02T13:49:12.279Z</time>
      </trkpt>
      <trkpt lat="44.13086" lon="6.82107">
        <ele>1222.5</ele>
        <time>2021-06-02T13:49:15.313Z</time>
      </trkpt>
      <trkpt lat="44.13088" lon="6.82114">
        <ele>1225</ele>
        <time>2021-06-02T13:49:18.920Z</time>
      </trkpt>
      <trkpt lat="44.13089" lon="6.82126">
        <ele>1224.3</ele>
        <time>2021-06-02T13:49:22.240Z</time>
      </trkpt>
      <trkpt lat="44.13091" lon="6.82139">
        <ele>1225.8</ele>
        <time>2021-06-02T13:49:25.538Z</time>
      </trkpt>
      <trkpt lat="44.13094" lon="6.82145">
        <ele>1225.5</ele>
        <time>2021-06-02T13:49:29.233Z</time>
      </trkpt>
      <trkpt lat="44.13097" lon="6.82153">
        <ele>1223.9</ele>
        <time>2021-06-02T13:49:32.484Z</time>
      </trkpt>
      <trkpt lat="44.13098" lon="6.82165">
        <ele>1225.5</ele>
        <time>2021-06-02T13:49:36.000Z</time>
      </trkpt>
      <trkpt lat="44.13099" lon="6.82175">
        <ele>1226.6</ele>
        <time>2021-06-02T13:49:39.000Z</time>
      </trkpt>
      <trkpt lat="44.131" lon="6.82186">
        <ele>1227</ele>
        <time>2021-06-02T13:49:45.224Z</time>
      </trkpt>
      <trkpt lat="44.13096" lon="6.82191">
        <ele>1230.9</ele>
        <time>2021-06-02T13:49:49.225Z</time>
      </trkpt>
      <trkpt lat="44.13092" lon="6.82198">
        <ele>1233</ele>
        <time>2021-06-02T13:49:52.256Z</time>
      </trkpt>
      <trkpt lat="44.1309" lon="6.82213">
        <ele>1232.3</ele>
        <time>2021-06-02T13:49:55.695Z</time>
      </trkpt>
      <trkpt lat="44.13088" lon="6.82226">
        <ele>1232.9</ele>
        <time>2021-06-02T13:49:59.140Z</time>
      </trkpt>
      <trkpt lat="44.13089" lon="6.82238">
        <ele>1233.3</ele>
        <time>2021-06-02T13:50:02.522Z</time>
      </trkpt>
      <trkpt lat="44.13088" lon="6.82252">
        <ele>1235.3</ele>
        <time>2021-06-02T13:50:06.276Z</time>
      </trkpt>
      <trkpt lat="44.13082" lon="6.82261">
        <ele>1234.2</ele>
        <time>2021-06-02T13:50:10.250Z</time>
      </trkpt>
      <trkpt lat="44.13078" lon="6.82273">
        <ele>1237</ele>
        <time>2021-06-02T13:50:13.958Z</time>
      </trkpt>
      <trkpt lat="44.13076" lon="6.82284">
        <ele>1236.2</ele>
        <time>2021-06-02T13:50:17.230Z</time>
      </trkpt>
      <trkpt lat="44.13075" lon="6.82295">
        <ele>1239.1</ele>
        <time>2021-06-02T13:50:20.362Z</time>
      </trkpt>
      <trkpt lat="44.13076" lon="6.82307">
        <ele>1240.8</ele>
        <time>2021-06-02T13:50:23.937Z</time>
      </trkpt>
      <trkpt lat="44.13077" lon="6.82318">
        <ele>1241.5</ele>
        <time>2021-06-02T13:50:27.226Z</time>
      </trkpt>
      <trkpt lat="44.13077" lon="6.82329">
        <ele>1240.6</ele>
        <time>2021-06-02T13:50:30.232Z</time>
      </trkpt>
      <trkpt lat="44.13079" lon="6.82344">
        <ele>1246.1</ele>
        <time>2021-06-02T13:50:34.230Z</time>
      </trkpt>
      <trkpt lat="44.13082" lon="6.82357">
        <ele>1248.1</ele>
        <time>2021-06-02T13:50:37.881Z</time>
      </trkpt>
      <trkpt lat="44.13084" lon="6.82371">
        <ele>1247.1</ele>
        <time>2021-06-02T13:50:41.660Z</time>
      </trkpt>
      <trkpt lat="44.13083" lon="6.82386">
        <ele>1247.6</ele>
        <time>2021-06-02T13:50:45.224Z</time>
      </trkpt>
      <trkpt lat="44.13081" lon="6.82394">
        <ele>1247.5</ele>
        <time>2021-06-02T13:50:48.224Z</time>
      </trkpt>
      <trkpt lat="44.13079" lon="6.824">
        <ele>1248.2</ele>
        <time>2021-06-02T13:50:51.224Z</time>
      </trkpt>
      <trkpt lat="44.1307" lon="6.82407">
        <ele>1248.3</ele>
        <time>2021-06-02T13:50:59.232Z</time>
      </trkpt>
      <trkpt lat="44.13062" lon="6.82416">
        <ele>1248.7</ele>
        <time>2021-06-02T13:51:03.231Z</time>
      </trkpt>
      <trkpt lat="44.13058" lon="6.82423">
        <ele>1252.5</ele>
        <time>2021-06-02T13:51:06.356Z</time>
      </trkpt>
      <trkpt lat="44.13053" lon="6.82434">
        <ele>1251.2</ele>
        <time>2021-06-02T13:51:10.224Z</time>
      </trkpt>
      <trkpt lat="44.13051" lon="6.82444">
        <ele>1252.5</ele>
        <time>2021-06-02T13:51:13.225Z</time>
      </trkpt>
      <trkpt lat="44.13053" lon="6.82453">
        <ele>1254.3</ele>
        <time>2021-06-02T13:51:17.228Z</time>
      </trkpt>
      <trkpt lat="44.13058" lon="6.8245">
        <ele>1255.6</ele>
        <time>2021-06-02T13:51:27.000Z</time>
      </trkpt>
      <trkpt lat="44.13065" lon="6.82451">
        <ele>1258.8</ele>
        <time>2021-06-02T13:58:28.456Z</time>
      </trkpt>
      <trkpt lat="44.13071" lon="6.82456">
        <ele>1259.3</ele>
        <time>2021-06-02T13:58:32.226Z</time>
      </trkpt>
      <trkpt lat="44.13075" lon="6.82466">
        <ele>1258.5</ele>
        <time>2021-06-02T13:58:35.328Z</time>
      </trkpt>
      <trkpt lat="44.13079" lon="6.82475">
        <ele>1259.6</ele>
        <time>2021-06-02T13:58:39.257Z</time>
      </trkpt>
      <trkpt lat="44.13083" lon="6.82483">
        <ele>1260.6</ele>
        <time>2021-06-02T13:58:43.210Z</time>
      </trkpt>
      <trkpt lat="44.13088" lon="6.82487">
        <ele>1258.9</ele>
        <time>2021-06-02T13:58:46.501Z</time>
      </trkpt>
      <trkpt lat="44.13091" lon="6.82497">
        <ele>1258.6</ele>
        <time>2021-06-02T13:58:51.000Z</time>
      </trkpt>
      <trkpt lat="44.13086" lon="6.825">
        <ele>1259.8</ele>
        <time>2021-06-02T13:59:04.468Z</time>
      </trkpt>
      <trkpt lat="44.13088" lon="6.82506">
        <ele>1258.1</ele>
        <time>2021-06-02T13:59:15.000Z</time>
      </trkpt>
      <trkpt lat="44.13092" lon="6.82509">
        <ele>1258.3</ele>
        <time>2021-06-02T13:59:21.341Z</time>
      </trkpt>
      <trkpt lat="44.13096" lon="6.82519">
        <ele>1261.6</ele>
        <time>2021-06-02T13:59:28.462Z</time>
      </trkpt>
      <trkpt lat="44.13096" lon="6.82529">
        <ele>1259.2</ele>
        <time>2021-06-02T13:59:32.338Z</time>
      </trkpt>
      <trkpt lat="44.13098" lon="6.82537">
        <ele>1257.9</ele>
        <time>2021-06-02T13:59:36.000Z</time>
      </trkpt>
      <trkpt lat="44.13102" lon="6.82544">
        <ele>1257.5</ele>
        <time>2021-06-02T13:59:40.224Z</time>
      </trkpt>
      <trkpt lat="44.13107" lon="6.82551">
        <ele>1253.9</ele>
        <time>2021-06-02T13:59:51.000Z</time>
      </trkpt>
      <trkpt lat="44.13111" lon="6.82558">
        <ele>1256.4</ele>
        <time>2021-06-02T13:59:56.373Z</time>
      </trkpt>
      <trkpt lat="44.13116" lon="6.82562">
        <ele>1261.6</ele>
        <time>2021-06-02T14:00:03.000Z</time>
      </trkpt>
      <trkpt lat="44.1312" lon="6.82563">
        <ele>1263.4</ele>
        <time>2021-06-02T14:00:14.225Z</time>
      </trkpt>
      <trkpt lat="44.13126" lon="6.82563">
        <ele>1264.1</ele>
        <time>2021-06-02T14:00:24.220Z</time>
      </trkpt>
      <trkpt lat="44.13131" lon="6.82563">
        <ele>1264.3</ele>
        <time>2021-06-02T14:00:31.457Z</time>
      </trkpt>
      <trkpt lat="44.13136" lon="6.82565">
        <ele>1270.7</ele>
        <time>2021-06-02T14:00:38.594Z</time>
      </trkpt>
      <trkpt lat="44.13137" lon="6.82575">
        <ele>1268</ele>
        <time>2021-06-02T14:00:45.000Z</time>
      </trkpt>
      <trkpt lat="44.13134" lon="6.82582">
        <ele>1270</ele>
        <time>2021-06-02T14:00:48.602Z</time>
      </trkpt>
      <trkpt lat="44.13131" lon="6.82587">
        <ele>1273.1</ele>
        <time>2021-06-02T14:00:56.357Z</time>
      </trkpt>
      <trkpt lat="44.13135" lon="6.82594">
        <ele>1275</ele>
        <time>2021-06-02T14:01:14.215Z</time>
      </trkpt>
      <trkpt lat="44.1314" lon="6.82596">
        <ele>1275.6</ele>
        <time>2021-06-02T14:01:21.000Z</time>
      </trkpt>
      <trkpt lat="44.13135" lon="6.82599">
        <ele>1274.6</ele>
        <time>2021-06-02T14:01:42.220Z</time>
      </trkpt>
      <trkpt lat="44.13135" lon="6.82592">
        <ele>1273.4</ele>
        <time>2021-06-02T14:01:59.063Z</time>
      </trkpt>
      <trkpt lat="44.13138" lon="6.82587">
        <ele>1275.3</ele>
        <time>2021-06-02T14:02:10.282Z</time>
      </trkpt>
      <trkpt lat="44.13139" lon="6.82599">
        <ele>1274.8</ele>
        <time>2021-06-02T14:02:17.220Z</time>
      </trkpt>
      <trkpt lat="44.13144" lon="6.82606">
        <ele>1277.6</ele>
        <time>2021-06-02T14:02:21.237Z</time>
      </trkpt>
      <trkpt lat="44.13151" lon="6.82607">
        <ele>1279.5</ele>
        <time>2021-06-02T14:02:25.250Z</time>
      </trkpt>
      <trkpt lat="44.13158" lon="6.82611">
        <ele>1280</ele>
        <time>2021-06-02T14:02:28.359Z</time>
      </trkpt>
      <trkpt lat="44.13163" lon="6.82624">
        <ele>1281.2</ele>
        <time>2021-06-02T14:02:32.223Z</time>
      </trkpt>
      <trkpt lat="44.13171" lon="6.82635">
        <ele>1281</ele>
        <time>2021-06-02T14:02:36.231Z</time>
      </trkpt>
      <trkpt lat="44.13177" lon="6.82648">
        <ele>1281.3</ele>
        <time>2021-06-02T14:02:39.232Z</time>
      </trkpt>
      <trkpt lat="44.13183" lon="6.82663">
        <ele>1269.7</ele>
        <time>2021-06-02T14:02:42.802Z</time>
      </trkpt>
      <trkpt lat="44.13188" lon="6.82674">
        <ele>1276.1</ele>
        <time>2021-06-02T14:02:46.228Z</time>
      </trkpt>
      <trkpt lat="44.13194" lon="6.82687">
        <ele>1274.9</ele>
        <time>2021-06-02T14:02:49.747Z</time>
      </trkpt>
      <trkpt lat="44.132" lon="6.82698">
        <ele>1273.6</ele>
        <time>2021-06-02T14:02:53.264Z</time>
      </trkpt>
      <trkpt lat="44.1321" lon="6.82708">
        <ele>1273.4</ele>
        <time>2021-06-02T14:02:57.219Z</time>
      </trkpt>
      <trkpt lat="44.13218" lon="6.82711">
        <ele>1274.8</ele>
        <time>2021-06-02T14:03:00.227Z</time>
      </trkpt>
      <trkpt lat="44.13228" lon="6.82713">
        <ele>1277.4</ele>
        <time>2021-06-02T14:03:04.377Z</time>
      </trkpt>
      <trkpt lat="44.13238" lon="6.82716">
        <ele>1278.9</ele>
        <time>2021-06-02T14:03:07.832Z</time>
      </trkpt>
      <trkpt lat="44.13251" lon="6.82724">
        <ele>1279.7</ele>
        <time>2021-06-02T14:03:11.320Z</time>
      </trkpt>
      <trkpt lat="44.13261" lon="6.82735">
        <ele>1282.3</ele>
        <time>2021-06-02T14:03:15.200Z</time>
      </trkpt>
      <trkpt lat="44.1327" lon="6.82741">
        <ele>1282.4</ele>
        <time>2021-06-02T14:03:18.217Z</time>
      </trkpt>
      <trkpt lat="44.13281" lon="6.82747">
        <ele>1282.8</ele>
        <time>2021-06-02T14:03:21.224Z</time>
      </trkpt>
      <trkpt lat="44.13295" lon="6.82755">
        <ele>1284.1</ele>
        <time>2021-06-02T14:03:25.233Z</time>
      </trkpt>
      <trkpt lat="44.13306" lon="6.82764">
        <ele>1286.5</ele>
        <time>2021-06-02T14:03:28.420Z</time>
      </trkpt>
      <trkpt lat="44.13318" lon="6.82773">
        <ele>1287.8</ele>
        <time>2021-06-02T14:03:32.236Z</time>
      </trkpt>
      <trkpt lat="44.13326" lon="6.82785">
        <ele>1287.9</ele>
        <time>2021-06-02T14:03:35.259Z</time>
      </trkpt>
      <trkpt lat="44.13339" lon="6.82797">
        <ele>1286.2</ele>
        <time>2021-06-02T14:03:39.228Z</time>
      </trkpt>
      <trkpt lat="44.13346" lon="6.82809">
        <ele>1286.2</ele>
        <time>2021-06-02T14:03:43.292Z</time>
      </trkpt>
      <trkpt lat="44.1334" lon="6.82821">
        <ele>1289.2</ele>
        <time>2021-06-02T14:03:46.443Z</time>
      </trkpt>
      <trkpt lat="44.13331" lon="6.82826">
        <ele>1285.5</ele>
        <time>2021-06-02T14:03:49.794Z</time>
      </trkpt>
      <trkpt lat="44.13322" lon="6.82828">
        <ele>1282.8</ele>
        <time>2021-06-02T14:03:53.098Z</time>
      </trkpt>
      <trkpt lat="44.13311" lon="6.82828">
        <ele>1287</ele>
        <time>2021-06-02T14:03:56.229Z</time>
      </trkpt>
      <trkpt lat="44.13298" lon="6.82825">
        <ele>1290</ele>
        <time>2021-06-02T14:04:00.219Z</time>
      </trkpt>
      <trkpt lat="44.1329" lon="6.82824">
        <ele>1294.7</ele>
        <time>2021-06-02T14:04:03.258Z</time>
      </trkpt>
      <trkpt lat="44.13284" lon="6.82826">
        <ele>1296.6</ele>
        <time>2021-06-02T14:04:06.289Z</time>
      </trkpt>
      <trkpt lat="44.13282" lon="6.82841">
        <ele>1297.6</ele>
        <time>2021-06-02T14:04:10.229Z</time>
      </trkpt>
      <trkpt lat="44.13279" lon="6.82847">
        <ele>1297.8</ele>
        <time>2021-06-02T14:04:13.295Z</time>
      </trkpt>
      <trkpt lat="44.13276" lon="6.82855">
        <ele>1297.9</ele>
        <time>2021-06-02T14:04:16.419Z</time>
      </trkpt>
      <trkpt lat="44.13273" lon="6.82868">
        <ele>1299.9</ele>
        <time>2021-06-02T14:04:20.234Z</time>
      </trkpt>
      <trkpt lat="44.1327" lon="6.82877">
        <ele>1300.8</ele>
        <time>2021-06-02T14:04:24.232Z</time>
      </trkpt>
      <trkpt lat="44.13268" lon="6.82887">
        <ele>1303.6</ele>
        <time>2021-06-02T14:04:28.256Z</time>
      </trkpt>
      <trkpt lat="44.13266" lon="6.82898">
        <ele>1303.2</ele>
        <time>2021-06-02T14:04:31.442Z</time>
      </trkpt>
      <trkpt lat="44.13263" lon="6.8291">
        <ele>1304.1</ele>
        <time>2021-06-02T14:04:35.288Z</time>
      </trkpt>
      <trkpt lat="44.13259" lon="6.82919">
        <ele>1303.2</ele>
        <time>2021-06-02T14:04:39.233Z</time>
      </trkpt>
      <trkpt lat="44.13255" lon="6.82924">
        <ele>1302.6</ele>
        <time>2021-06-02T14:04:42.234Z</time>
      </trkpt>
      <trkpt lat="44.13246" lon="6.82928">
        <ele>1304.2</ele>
        <time>2021-06-02T14:04:46.440Z</time>
      </trkpt>
      <trkpt lat="44.13236" lon="6.82929">
        <ele>1309.1</ele>
        <time>2021-06-02T14:04:50.532Z</time>
      </trkpt>
      <trkpt lat="44.13225" lon="6.82926">
        <ele>1308.2</ele>
        <time>2021-06-02T14:04:54.234Z</time>
      </trkpt>
      <trkpt lat="44.13214" lon="6.82924">
        <ele>1311.4</ele>
        <time>2021-06-02T14:04:58.240Z</time>
      </trkpt>
      <trkpt lat="44.13208" lon="6.82938">
        <ele>1311.3</ele>
        <time>2021-06-02T14:05:03.221Z</time>
      </trkpt>
      <trkpt lat="44.13207" lon="6.8295">
        <ele>1313.2</ele>
        <time>2021-06-02T14:05:07.301Z</time>
      </trkpt>
      <trkpt lat="44.13204" lon="6.82964">
        <ele>1312.9</ele>
        <time>2021-06-02T14:05:10.948Z</time>
      </trkpt>
      <trkpt lat="44.13196" lon="6.82976">
        <ele>1312.2</ele>
        <time>2021-06-02T14:05:15.202Z</time>
      </trkpt>
      <trkpt lat="44.1319" lon="6.82985">
        <ele>1312.3</ele>
        <time>2021-06-02T14:05:18.260Z</time>
      </trkpt>
      <trkpt lat="44.13182" lon="6.82996">
        <ele>1311.1</ele>
        <time>2021-06-02T14:05:22.277Z</time>
      </trkpt>
      <trkpt lat="44.13175" lon="6.83005">
        <ele>1312.8</ele>
        <time>2021-06-02T14:05:25.436Z</time>
      </trkpt>
      <trkpt lat="44.13167" lon="6.83008">
        <ele>1313.9</ele>
        <time>2021-06-02T14:05:29.236Z</time>
      </trkpt>
      <trkpt lat="44.13155" lon="6.83009">
        <ele>1314.8</ele>
        <time>2021-06-02T14:05:33.218Z</time>
      </trkpt>
      <trkpt lat="44.13146" lon="6.83008">
        <ele>1311.5</ele>
        <time>2021-06-02T14:05:36.222Z</time>
      </trkpt>
      <trkpt lat="44.13139" lon="6.8301">
        <ele>1312.7</ele>
        <time>2021-06-02T14:05:39.239Z</time>
      </trkpt>
      <trkpt lat="44.13133" lon="6.83016">
        <ele>1313.9</ele>
        <time>2021-06-02T14:05:42.245Z</time>
      </trkpt>
      <trkpt lat="44.13125" lon="6.83024">
        <ele>1313.7</ele>
        <time>2021-06-02T14:05:45.823Z</time>
      </trkpt>
      <trkpt lat="44.13122" lon="6.83032">
        <ele>1314.2</ele>
        <time>2021-06-02T14:05:49.224Z</time>
      </trkpt>
      <trkpt lat="44.13118" lon="6.83043">
        <ele>1285</ele>
        <time>2021-06-02T14:05:52.688Z</time>
      </trkpt>
      <trkpt lat="44.13117" lon="6.8306">
        <ele>1302.5</ele>
        <time>2021-06-02T14:05:56.244Z</time>
      </trkpt>
      <trkpt lat="44.13117" lon="6.8307">
        <ele>1309.7</ele>
        <time>2021-06-02T14:05:59.319Z</time>
      </trkpt>
      <trkpt lat="44.13111" lon="6.83083">
        <ele>1318.1</ele>
        <time>2021-06-02T14:06:03.226Z</time>
      </trkpt>
      <trkpt lat="44.13104" lon="6.83089">
        <ele>1321.5</ele>
        <time>2021-06-02T14:06:06.263Z</time>
      </trkpt>
      <trkpt lat="44.13097" lon="6.83089">
        <ele>1322.1</ele>
        <time>2021-06-02T14:06:10.261Z</time>
      </trkpt>
      <trkpt lat="44.13088" lon="6.83094">
        <ele>1320.5</ele>
        <time>2021-06-02T14:06:15.209Z</time>
      </trkpt>
      <trkpt lat="44.13082" lon="6.83097">
        <ele>1321.2</ele>
        <time>2021-06-02T14:06:18.000Z</time>
      </trkpt>
      <trkpt lat="44.13077" lon="6.83104">
        <ele>1321</ele>
        <time>2021-06-02T14:06:22.227Z</time>
      </trkpt>
      <trkpt lat="44.13071" lon="6.83103">
        <ele>1319.9</ele>
        <time>2021-06-02T14:06:25.228Z</time>
      </trkpt>
      <trkpt lat="44.13066" lon="6.83104">
        <ele>1321.4</ele>
        <time>2021-06-02T14:06:28.722Z</time>
      </trkpt>
      <trkpt lat="44.13061" lon="6.83106">
        <ele>1324.9</ele>
        <time>2021-06-02T14:06:31.996Z</time>
      </trkpt>
      <trkpt lat="44.13056" lon="6.83112">
        <ele>1326</ele>
        <time>2021-06-02T14:06:35.382Z</time>
      </trkpt>
      <trkpt lat="44.1305" lon="6.83118">
        <ele>1326.9</ele>
        <time>2021-06-02T14:06:39.231Z</time>
      </trkpt>
      <trkpt lat="44.13043" lon="6.8312">
        <ele>1328.3</ele>
        <time>2021-06-02T14:06:43.559Z</time>
      </trkpt>
      <trkpt lat="44.13036" lon="6.83122">
        <ele>1331.3</ele>
        <time>2021-06-02T14:06:47.222Z</time>
      </trkpt>
      <trkpt lat="44.13031" lon="6.83122">
        <ele>1331.8</ele>
        <time>2021-06-02T14:06:50.304Z</time>
      </trkpt>
      <trkpt lat="44.13026" lon="6.83124">
        <ele>1332.6</ele>
        <time>2021-06-02T14:06:53.526Z</time>
      </trkpt>
      <trkpt lat="44.13021" lon="6.83128">
        <ele>1334.5</ele>
        <time>2021-06-02T14:06:56.947Z</time>
      </trkpt>
      <trkpt lat="44.13015" lon="6.83133">
        <ele>1332.5</ele>
        <time>2021-06-02T14:07:00.223Z</time>
      </trkpt>
      <trkpt lat="44.13009" lon="6.83135">
        <ele>1335.6</ele>
        <time>2021-06-02T14:07:03.264Z</time>
      </trkpt>
      <trkpt lat="44.13002" lon="6.83138">
        <ele>1336.3</ele>
        <time>2021-06-02T14:07:07.221Z</time>
      </trkpt>
      <trkpt lat="44.12996" lon="6.83142">
        <ele>1338.2</ele>
        <time>2021-06-02T14:07:11.227Z</time>
      </trkpt>
      <trkpt lat="44.12992" lon="6.83145">
        <ele>1337.3</ele>
        <time>2021-06-02T14:07:14.229Z</time>
      </trkpt>
      <trkpt lat="44.12987" lon="6.83147">
        <ele>1338.8</ele>
        <time>2021-06-02T14:07:17.233Z</time>
      </trkpt>
      <trkpt lat="44.12981" lon="6.83147">
        <ele>1342.1</ele>
        <time>2021-06-02T14:07:21.231Z</time>
      </trkpt>
      <trkpt lat="44.12972" lon="6.8315">
        <ele>1340.6</ele>
        <time>2021-06-02T14:07:27.637Z</time>
      </trkpt>
      <trkpt lat="44.12965" lon="6.83154">
        <ele>1341.3</ele>
        <time>2021-06-02T14:07:31.208Z</time>
      </trkpt>
      <trkpt lat="44.12953" lon="6.83158">
        <ele>1338.2</ele>
        <time>2021-06-02T14:07:36.224Z</time>
      </trkpt>
      <trkpt lat="44.12947" lon="6.83153">
        <ele>1340.7</ele>
        <time>2021-06-02T14:07:40.233Z</time>
      </trkpt>
      <trkpt lat="44.12939" lon="6.83151">
        <ele>1342.5</ele>
        <time>2021-06-02T14:07:43.538Z</time>
      </trkpt>
      <trkpt lat="44.12931" lon="6.83153">
        <ele>1338.8</ele>
        <time>2021-06-02T14:07:47.239Z</time>
      </trkpt>
      <trkpt lat="44.12925" lon="6.83157">
        <ele>1341.4</ele>
        <time>2021-06-02T14:07:51.239Z</time>
      </trkpt>
      <trkpt lat="44.12917" lon="6.83161">
        <ele>1380</ele>
        <time>2021-06-02T14:07:56.228Z</time>
      </trkpt>
      <trkpt lat="44.12913" lon="6.83163">
        <ele>1352.9</ele>
        <time>2021-06-02T14:08:00.000Z</time>
      </trkpt>
      <trkpt lat="44.12905" lon="6.83167">
        <ele>1346.4</ele>
        <time>2021-06-02T14:08:03.320Z</time>
      </trkpt>
      <trkpt lat="44.12893" lon="6.83179">
        <ele>1345</ele>
        <time>2021-06-02T14:08:09.000Z</time>
      </trkpt>
      <trkpt lat="44.12889" lon="6.83184">
        <ele>1342.9</ele>
        <time>2021-06-02T14:08:12.000Z</time>
      </trkpt>
      <trkpt lat="44.12883" lon="6.83188">
        <ele>1342.3</ele>
        <time>2021-06-02T14:08:16.229Z</time>
      </trkpt>
      <trkpt lat="44.1288" lon="6.83198">
        <ele>1342.5</ele>
        <time>2021-06-02T14:08:20.227Z</time>
      </trkpt>
      <trkpt lat="44.12875" lon="6.83206">
        <ele>1342.5</ele>
        <time>2021-06-02T14:08:24.234Z</time>
      </trkpt>
      <trkpt lat="44.12868" lon="6.83209">
        <ele>1340.8</ele>
        <time>2021-06-02T14:08:28.806Z</time>
      </trkpt>
      <trkpt lat="44.12862" lon="6.83212">
        <ele>1345.4</ele>
        <time>2021-06-02T14:08:33.000Z</time>
      </trkpt>
      <trkpt lat="44.12865" lon="6.83219">
        <ele>1345.4</ele>
        <time>2021-06-02T14:08:42.000Z</time>
      </trkpt>
      <trkpt lat="44.12862" lon="6.83224">
        <ele>1346.8</ele>
        <time>2021-06-02T14:08:57.000Z</time>
      </trkpt>
      <trkpt lat="44.12868" lon="6.8322">
        <ele>1346</ele>
        <time>2021-06-02T14:09:21.000Z</time>
      </trkpt>
      <trkpt lat="44.12862" lon="6.83225">
        <ele>1347.1</ele>
        <time>2021-06-02T14:09:42.000Z</time>
      </trkpt>
      <trkpt lat="44.12857" lon="6.83227">
        <ele>1342.7</ele>
        <time>2021-06-02T14:10:57.000Z</time>
      </trkpt>
      <trkpt lat="44.12865" lon="6.83243">
        <ele>1336.8</ele>
        <time>2021-06-02T14:11:04.240Z</time>
      </trkpt>
      <trkpt lat="44.12873" lon="6.83249">
        <ele>1334.6</ele>
        <time>2021-06-02T14:11:09.283Z</time>
      </trkpt>
      <trkpt lat="44.12881" lon="6.8326">
        <ele>1329.6</ele>
        <time>2021-06-02T14:11:15.000Z</time>
      </trkpt>
      <trkpt lat="44.12885" lon="6.83263">
        <ele>1335.8</ele>
        <time>2021-06-02T14:11:21.000Z</time>
      </trkpt>
      <trkpt lat="44.12884" lon="6.83257">
        <ele>1341.4</ele>
        <time>2021-06-02T14:11:33.000Z</time>
      </trkpt>
      <trkpt lat="44.12884" lon="6.83264">
        <ele>1340.2</ele>
        <time>2021-06-02T14:11:40.641Z</time>
      </trkpt>
      <trkpt lat="44.12881" lon="6.83269">
        <ele>1337.7</ele>
        <time>2021-06-02T14:11:49.259Z</time>
      </trkpt>
      <trkpt lat="44.12876" lon="6.83269">
        <ele>1337.7</ele>
        <time>2021-06-02T14:11:52.643Z</time>
      </trkpt>
      <trkpt lat="44.12871" lon="6.83277">
        <ele>1334.5</ele>
        <time>2021-06-02T14:12:00.000Z</time>
      </trkpt>
      <trkpt lat="44.12869" lon="6.83283">
        <ele>1336.6</ele>
        <time>2021-06-02T14:12:15.000Z</time>
      </trkpt>
      <trkpt lat="44.12865" lon="6.83286">
        <ele>1334.2</ele>
        <time>2021-06-02T14:12:30.000Z</time>
      </trkpt>
      <trkpt lat="44.1287" lon="6.83287">
        <ele>1346.5</ele>
        <time>2021-06-02T14:12:57.157Z</time>
      </trkpt>
      <trkpt lat="44.12874" lon="6.83274">
        <ele>1341.8</ele>
        <time>2021-06-02T14:13:07.517Z</time>
      </trkpt>
      <trkpt lat="44.1287" lon="6.83269">
        <ele>1337.2</ele>
        <time>2021-06-02T14:13:11.512Z</time>
      </trkpt>
      <trkpt lat="44.12867" lon="6.83264">
        <ele>1335.7</ele>
        <time>2021-06-02T14:13:15.000Z</time>
      </trkpt>
      <trkpt lat="44.12862" lon="6.83256">
        <ele>1337</ele>
        <time>2021-06-02T14:13:29.248Z</time>
      </trkpt>
      <trkpt lat="44.1286" lon="6.83248">
        <ele>1337.2</ele>
        <time>2021-06-02T14:13:42.754Z</time>
      </trkpt>
      <trkpt lat="44.1286" lon="6.83241">
        <ele>1335.3</ele>
        <time>2021-06-02T14:13:50.701Z</time>
      </trkpt>
      <trkpt lat="44.12859" lon="6.83234">
        <ele>1335</ele>
        <time>2021-06-02T14:13:54.000Z</time>
      </trkpt>
      <trkpt lat="44.12854" lon="6.8322">
        <ele>1335.7</ele>
        <time>2021-06-02T14:14:00.860Z</time>
      </trkpt>
      <trkpt lat="44.12851" lon="6.83213">
        <ele>1337.9</ele>
        <time>2021-06-02T14:14:05.225Z</time>
      </trkpt>
      <trkpt lat="44.1285" lon="6.83207">
        <ele>1338.8</ele>
        <time>2021-06-02T14:14:11.675Z</time>
      </trkpt>
      <trkpt lat="44.1285" lon="6.83196">
        <ele>1414.2</ele>
        <time>2021-06-02T14:14:20.241Z</time>
      </trkpt>
      <trkpt lat="44.12851" lon="6.83189">
        <ele>1367</ele>
        <time>2021-06-02T14:14:24.000Z</time>
      </trkpt>
      <trkpt lat="44.1286" lon="6.83183">
        <ele>1359.2</ele>
        <time>2021-06-02T14:14:27.663Z</time>
      </trkpt>
      <trkpt lat="44.12875" lon="6.83179">
        <ele>1348.9</ele>
        <time>2021-06-02T14:14:33.000Z</time>
      </trkpt>
      <trkpt lat="44.1288" lon="6.83178">
        <ele>1345.8</ele>
        <time>2021-06-02T14:14:36.000Z</time>
      </trkpt>
      <trkpt lat="44.1289" lon="6.83167">
        <ele>1344.7</ele>
        <time>2021-06-02T14:14:39.274Z</time>
      </trkpt>
      <trkpt lat="44.12894" lon="6.8316">
        <ele>1340.7</ele>
        <time>2021-06-02T14:14:44.292Z</time>
      </trkpt>
      <trkpt lat="44.12893" lon="6.8315">
        <ele>1338.8</ele>
        <time>2021-06-02T14:14:48.000Z</time>
      </trkpt>
      <trkpt lat="44.12892" lon="6.83144">
        <ele>1338.6</ele>
        <time>2021-06-02T14:15:15.000Z</time>
      </trkpt>
      <trkpt lat="44.12897" lon="6.83139">
        <ele>1336</ele>
        <time>2021-06-02T14:15:18.146Z</time>
      </trkpt>
      <trkpt lat="44.129" lon="6.83132">
        <ele>1335.3</ele>
        <time>2021-06-02T14:15:21.000Z</time>
      </trkpt>
      <trkpt lat="44.129" lon="6.83125">
        <ele>1336.4</ele>
        <time>2021-06-02T14:15:24.000Z</time>
      </trkpt>
      <trkpt lat="44.12897" lon="6.83117">
        <ele>1332.8</ele>
        <time>2021-06-02T14:15:27.277Z</time>
      </trkpt>
      <trkpt lat="44.12889" lon="6.83104">
        <ele>1332.6</ele>
        <time>2021-06-02T14:15:33.000Z</time>
      </trkpt>
      <trkpt lat="44.12886" lon="6.83096">
        <ele>1333.4</ele>
        <time>2021-06-02T14:15:36.000Z</time>
      </trkpt>
      <trkpt lat="44.12882" lon="6.83086">
        <ele>1334.8</ele>
        <time>2021-06-02T14:15:39.270Z</time>
      </trkpt>
      <trkpt lat="44.12876" lon="6.8307">
        <ele>1330.4</ele>
        <time>2021-06-02T14:15:45.000Z</time>
      </trkpt>
      <trkpt lat="44.12868" lon="6.83048">
        <ele>1319.4</ele>
        <time>2021-06-02T14:15:51.000Z</time>
      </trkpt>
      <trkpt lat="44.12863" lon="6.83037">
        <ele>1318.1</ele>
        <time>2021-06-02T14:15:54.000Z</time>
      </trkpt>
      <trkpt lat="44.12858" lon="6.8303">
        <ele>1289.1</ele>
        <time>2021-06-02T14:15:57.000Z</time>
      </trkpt>
      <trkpt lat="44.12852" lon="6.83019">
        <ele>1304.1</ele>
        <time>2021-06-02T14:16:03.000Z</time>
      </trkpt>
      <trkpt lat="44.12848" lon="6.83009">
        <ele>1305.3</ele>
        <time>2021-06-02T14:16:06.000Z</time>
      </trkpt>
      <trkpt lat="44.12843" lon="6.83004">
        <ele>1303.9</ele>
        <time>2021-06-02T14:16:09.000Z</time>
      </trkpt>
      <trkpt lat="44.12839" lon="6.82998">
        <ele>1304.9</ele>
        <time>2021-06-02T14:16:12.000Z</time>
      </trkpt>
      <trkpt lat="44.12834" lon="6.82989">
        <ele>1300.6</ele>
        <time>2021-06-02T14:16:15.289Z</time>
      </trkpt>
      <trkpt lat="44.12828" lon="6.82975">
        <ele>1292.7</ele>
        <time>2021-06-02T14:16:21.000Z</time>
      </trkpt>
      <trkpt lat="44.12817" lon="6.82964">
        <ele>1289.5</ele>
        <time>2021-06-02T14:16:30.000Z</time>
      </trkpt>
      <trkpt lat="44.12789" lon="6.82951">
        <ele>1286</ele>
        <time>2021-06-02T14:16:36.000Z</time>
      </trkpt>
      <trkpt lat="44.12743" lon="6.82946">
        <ele>1280.8</ele>
        <time>2021-06-02T14:16:42.000Z</time>
      </trkpt>
      <trkpt lat="44.12727" lon="6.82941">
        <ele>1282.3</ele>
        <time>2021-06-02T14:16:45.000Z</time>
      </trkpt>
      <trkpt lat="44.12716" lon="6.82939">
        <ele>1283.3</ele>
        <time>2021-06-02T14:16:50.299Z</time>
      </trkpt>
      <trkpt lat="44.12711" lon="6.82946">
        <ele>1282.3</ele>
        <time>2021-06-02T14:16:54.000Z</time>
      </trkpt>
      <trkpt lat="44.12706" lon="6.82948">
        <ele>1279.9</ele>
        <time>2021-06-02T14:17:08.292Z</time>
      </trkpt>
      <trkpt lat="44.12701" lon="6.82947">
        <ele>1283.2</ele>
        <time>2021-06-02T14:17:18.771Z</time>
      </trkpt>
      <trkpt lat="44.12695" lon="6.82946">
        <ele>1283.2</ele>
        <time>2021-06-02T14:17:22.228Z</time>
      </trkpt>
      <trkpt lat="44.12686" lon="6.82945">
        <ele>1281.8</ele>
        <time>2021-06-02T14:17:25.303Z</time>
      </trkpt>
      <trkpt lat="44.12673" lon="6.82942">
        <ele>1283.4</ele>
        <time>2021-06-02T14:17:29.221Z</time>
      </trkpt>
      <trkpt lat="44.12666" lon="6.82945">
        <ele>1280.9</ele>
        <time>2021-06-02T14:17:33.236Z</time>
      </trkpt>
      <trkpt lat="44.12655" lon="6.82949">
        <ele>1283.4</ele>
        <time>2021-06-02T14:17:36.406Z</time>
      </trkpt>
      <trkpt lat="44.12646" lon="6.82952">
        <ele>1280.6</ele>
        <time>2021-06-02T14:17:40.222Z</time>
      </trkpt>
      <trkpt lat="44.1264" lon="6.8295">
        <ele>1278.5</ele>
        <time>2021-06-02T14:17:45.000Z</time>
      </trkpt>
      <trkpt lat="44.12632" lon="6.82951">
        <ele>1280.3</ele>
        <time>2021-06-02T14:17:59.269Z</time>
      </trkpt>
      <trkpt lat="44.1262" lon="6.82951">
        <ele>1284.1</ele>
        <time>2021-06-02T14:18:02.883Z</time>
      </trkpt>
      <trkpt lat="44.12599" lon="6.82967">
        <ele>1285.1</ele>
        <time>2021-06-02T14:18:06.000Z</time>
      </trkpt>
      <trkpt lat="44.12584" lon="6.82963">
        <ele>1286.1</ele>
        <time>2021-06-02T14:18:10.222Z</time>
      </trkpt>
      <trkpt lat="44.12551" lon="6.82986">
        <ele>1282</ele>
        <time>2021-06-02T14:18:15.000Z</time>
      </trkpt>
      <trkpt lat="44.12508" lon="6.82997">
        <ele>1278.3</ele>
        <time>2021-06-02T14:18:21.000Z</time>
      </trkpt>
      <trkpt lat="44.1249" lon="6.82997">
        <ele>1278.6</ele>
        <time>2021-06-02T14:18:24.000Z</time>
      </trkpt>
      <trkpt lat="44.12476" lon="6.82996">
        <ele>1277.5</ele>
        <time>2021-06-02T14:18:27.000Z</time>
      </trkpt>
      <trkpt lat="44.12456" lon="6.83003">
        <ele>1272.8</ele>
        <time>2021-06-02T14:18:31.383Z</time>
      </trkpt>
      <trkpt lat="44.1243" lon="6.82992">
        <ele>1270.7</ele>
        <time>2021-06-02T14:18:36.000Z</time>
      </trkpt>
      <trkpt lat="44.12425" lon="6.8299">
        <ele>1266.9</ele>
        <time>2021-06-02T14:18:39.000Z</time>
      </trkpt>
      <trkpt lat="44.12397" lon="6.83002">
        <ele>1375.7</ele>
        <time>2021-06-02T14:18:45.000Z</time>
      </trkpt>
      <trkpt lat="44.12381" lon="6.83009">
        <ele>1290.5</ele>
        <time>2021-06-02T14:18:48.000Z</time>
      </trkpt>
      <trkpt lat="44.12368" lon="6.83013">
        <ele>1270.6</ele>
        <time>2021-06-02T14:18:51.000Z</time>
      </trkpt>
      <trkpt lat="44.12359" lon="6.83017">
        <ele>1264.6</ele>
        <time>2021-06-02T14:18:55.230Z</time>
      </trkpt>
      <trkpt lat="44.12339" lon="6.83014">
        <ele>1262</ele>
        <time>2021-06-02T14:19:00.000Z</time>
      </trkpt>
      <trkpt lat="44.12331" lon="6.83014">
        <ele>1258.6</ele>
        <time>2021-06-02T14:19:03.000Z</time>
      </trkpt>
      <trkpt lat="44.12317" lon="6.83018">
        <ele>1252.4</ele>
        <time>2021-06-02T14:19:09.000Z</time>
      </trkpt>
      <trkpt lat="44.12308" lon="6.83029">
        <ele>1251</ele>
        <time>2021-06-02T14:19:15.000Z</time>
      </trkpt>
      <trkpt lat="44.12308" lon="6.83044">
        <ele>1250.8</ele>
        <time>2021-06-02T14:19:21.000Z</time>
      </trkpt>
      <trkpt lat="44.12296" lon="6.83035">
        <ele>1247.3</ele>
        <time>2021-06-02T14:19:24.000Z</time>
      </trkpt>
      <trkpt lat="44.12279" lon="6.83022">
        <ele>1247.1</ele>
        <time>2021-06-02T14:19:27.299Z</time>
      </trkpt>
      <trkpt lat="44.12269" lon="6.83014">
        <ele>1242.7</ele>
        <time>2021-06-02T14:19:33.000Z</time>
      </trkpt>
      <trkpt lat="44.12262" lon="6.83013">
        <ele>1239</ele>
        <time>2021-06-02T14:19:41.308Z</time>
      </trkpt>
      <trkpt lat="44.1225" lon="6.83005">
        <ele>1235.3</ele>
        <time>2021-06-02T14:19:45.000Z</time>
      </trkpt>
      <trkpt lat="44.12243" lon="6.82977">
        <ele>1234.3</ele>
        <time>2021-06-02T14:19:51.000Z</time>
      </trkpt>
      <trkpt lat="44.12236" lon="6.82951">
        <ele>1230.2</ele>
        <time>2021-06-02T14:19:57.000Z</time>
      </trkpt>
      <trkpt lat="44.12229" lon="6.82937">
        <ele>1227.9</ele>
        <time>2021-06-02T14:20:00.000Z</time>
      </trkpt>
      <trkpt lat="44.12221" lon="6.82922">
        <ele>1225.7</ele>
        <time>2021-06-02T14:20:03.254Z</time>
      </trkpt>
      <trkpt lat="44.12205" lon="6.82905">
        <ele>1224.1</ele>
        <time>2021-06-02T14:20:09.000Z</time>
      </trkpt>
      <trkpt lat="44.12184" lon="6.82883">
        <ele>1216.5</ele>
        <time>2021-06-02T14:20:15.000Z</time>
      </trkpt>
      <trkpt lat="44.12168" lon="6.82876">
        <ele>1213.4</ele>
        <time>2021-06-02T14:20:18.000Z</time>
      </trkpt>
      <trkpt lat="44.12146" lon="6.82871">
        <ele>1208.8</ele>
        <time>2021-06-02T14:20:21.000Z</time>
      </trkpt>
      <trkpt lat="44.12098" lon="6.82849">
        <ele>1168.7</ele>
        <time>2021-06-02T14:20:27.000Z</time>
      </trkpt>
      <trkpt lat="44.12079" lon="6.82837">
        <ele>1181.1</ele>
        <time>2021-06-02T14:20:30.000Z</time>
      </trkpt>
      <trkpt lat="44.12068" lon="6.8283">
        <ele>1184.8</ele>
        <time>2021-06-02T14:20:33.000Z</time>
      </trkpt>
      <trkpt lat="44.12047" lon="6.82822">
        <ele>1183.1</ele>
        <time>2021-06-02T14:20:42.000Z</time>
      </trkpt>
      <trkpt lat="44.12031" lon="6.82818">
        <ele>1180.9</ele>
        <time>2021-06-02T14:20:45.000Z</time>
      </trkpt>
      <trkpt lat="44.12016" lon="6.82811">
        <ele>1182.8</ele>
        <time>2021-06-02T14:20:48.000Z</time>
      </trkpt>
      <trkpt lat="44.11994" lon="6.82808">
        <ele>1181.4</ele>
        <time>2021-06-02T14:20:51.000Z</time>
      </trkpt>
      <trkpt lat="44.1197" lon="6.82799">
        <ele>1183.3</ele>
        <time>2021-06-02T14:20:57.000Z</time>
      </trkpt>
      <trkpt lat="44.11963" lon="6.82797">
        <ele>1183.8</ele>
        <time>2021-06-02T14:21:00.000Z</time>
      </trkpt>
      <trkpt lat="44.11957" lon="6.828">
        <ele>1182</ele>
        <time>2021-06-02T14:21:11.284Z</time>
      </trkpt>
      <trkpt lat="44.11939" lon="6.82796">
        <ele>1178.1</ele>
        <time>2021-06-02T14:21:15.000Z</time>
      </trkpt>
      <trkpt lat="44.1192" lon="6.82789">
        <ele>1178.1</ele>
        <time>2021-06-02T14:21:18.000Z</time>
      </trkpt>
      <trkpt lat="44.11897" lon="6.82788">
        <ele>1178.2</ele>
        <time>2021-06-02T14:21:24.000Z</time>
      </trkpt>
      <trkpt lat="44.11871" lon="6.8277">
        <ele>1168.1</ele>
        <time>2021-06-02T14:21:30.000Z</time>
      </trkpt>
      <trkpt lat="44.11861" lon="6.82764">
        <ele>1165.3</ele>
        <time>2021-06-02T14:21:33.309Z</time>
      </trkpt>
      <trkpt lat="44.11859" lon="6.82781">
        <ele>1164.7</ele>
        <time>2021-06-02T14:21:39.000Z</time>
      </trkpt>
      <trkpt lat="44.11856" lon="6.8279">
        <ele>1162.1</ele>
        <time>2021-06-02T14:21:42.000Z</time>
      </trkpt>
      <trkpt lat="44.11834" lon="6.82784">
        <ele>1151</ele>
        <time>2021-06-02T14:21:48.000Z</time>
      </trkpt>
      <trkpt lat="44.11787" lon="6.82772">
        <ele>1150.1</ele>
        <time>2021-06-02T14:21:54.000Z</time>
      </trkpt>
      <trkpt lat="44.11763" lon="6.82778">
        <ele>1147.3</ele>
        <time>2021-06-02T14:21:57.000Z</time>
      </trkpt>
      <trkpt lat="44.11748" lon="6.82783">
        <ele>1145.9</ele>
        <time>2021-06-02T14:22:00.000Z</time>
      </trkpt>
      <trkpt lat="44.11743" lon="6.82789">
        <ele>1143.2</ele>
        <time>2021-06-02T14:22:03.000Z</time>
      </trkpt>
      <trkpt lat="44.11712" lon="6.82777">
        <ele>1136.9</ele>
        <time>2021-06-02T14:22:09.000Z</time>
      </trkpt>
      <trkpt lat="44.11672" lon="6.82745">
        <ele>1131.6</ele>
        <time>2021-06-02T14:22:15.000Z</time>
      </trkpt>
      <trkpt lat="44.11622" lon="6.82738">
        <ele>1126.1</ele>
        <time>2021-06-02T14:22:21.000Z</time>
      </trkpt>
      <trkpt lat="44.11599" lon="6.82732">
        <ele>1123.4</ele>
        <time>2021-06-02T14:22:24.000Z</time>
      </trkpt>
      <trkpt lat="44.11577" lon="6.82697">
        <ele>1116.5</ele>
        <time>2021-06-02T14:22:30.000Z</time>
      </trkpt>
      <trkpt lat="44.11541" lon="6.82666">
        <ele>1109.9</ele>
        <time>2021-06-02T14:22:36.000Z</time>
      </trkpt>
      <trkpt lat="44.11524" lon="6.82657">
        <ele>1106.6</ele>
        <time>2021-06-02T14:22:39.000Z</time>
      </trkpt>
      <trkpt lat="44.11482" lon="6.82664">
        <ele>1100.5</ele>
        <time>2021-06-02T14:22:45.000Z</time>
      </trkpt>
      <trkpt lat="44.11457" lon="6.82658">
        <ele>1097.2</ele>
        <time>2021-06-02T14:22:48.000Z</time>
      </trkpt>
      <trkpt lat="44.1144" lon="6.82637">
        <ele>1094.1</ele>
        <time>2021-06-02T14:22:51.000Z</time>
      </trkpt>
      <trkpt lat="44.11396" lon="6.82598">
        <ele>1087.8</ele>
        <time>2021-06-02T14:22:57.000Z</time>
      </trkpt>
      <trkpt lat="44.11348" lon="6.82548">
        <ele>1086.8</ele>
        <time>2021-06-02T14:23:03.000Z</time>
      </trkpt>
      <trkpt lat="44.11325" lon="6.82524">
        <ele>1087.1</ele>
        <time>2021-06-02T14:23:06.000Z</time>
      </trkpt>
      <trkpt lat="44.11307" lon="6.82507">
        <ele>1084.4</ele>
        <time>2021-06-02T14:23:09.000Z</time>
      </trkpt>
      <trkpt lat="44.11297" lon="6.82499">
        <ele>1083.8</ele>
        <time>2021-06-02T14:23:15.000Z</time>
      </trkpt>
      <trkpt lat="44.11287" lon="6.82493">
        <ele>1083</ele>
        <time>2021-06-02T14:23:21.000Z</time>
      </trkpt>
      <trkpt lat="44.11281" lon="6.82491">
        <ele>1165.3</ele>
        <time>2021-06-02T14:23:24.000Z</time>
      </trkpt>
      <trkpt lat="44.11274" lon="6.82488">
        <ele>1109</ele>
        <time>2021-06-02T14:23:28.238Z</time>
      </trkpt>
      <trkpt lat="44.11263" lon="6.82486">
        <ele>1087.4</ele>
        <time>2021-06-02T14:23:33.000Z</time>
      </trkpt>
      <trkpt lat="44.11256" lon="6.82484">
        <ele>1081.8</ele>
        <time>2021-06-02T14:23:36.000Z</time>
      </trkpt>
      <trkpt lat="44.11241" lon="6.8248">
        <ele>1077.9</ele>
        <time>2021-06-02T14:23:42.000Z</time>
      </trkpt>
      <trkpt lat="44.11231" lon="6.8247">
        <ele>1070.2</ele>
        <time>2021-06-02T14:23:48.000Z</time>
      </trkpt>
      <trkpt lat="44.11221" lon="6.82466">
        <ele>1068</ele>
        <time>2021-06-02T14:23:51.000Z</time>
      </trkpt>
      <trkpt lat="44.11203" lon="6.82457">
        <ele>1064.5</ele>
        <time>2021-06-02T14:23:57.000Z</time>
      </trkpt>
      <trkpt lat="44.11195" lon="6.8245">
        <ele>1062.6</ele>
        <time>2021-06-02T14:24:00.000Z</time>
      </trkpt>
      <trkpt lat="44.11175" lon="6.82437">
        <ele>1164.6</ele>
        <time>2021-06-02T14:24:06.000Z</time>
      </trkpt>
      <trkpt lat="44.1117" lon="6.82429">
        <ele>1107.9</ele>
        <time>2021-06-02T14:24:09.000Z</time>
      </trkpt>
      <trkpt lat="44.11156" lon="6.82402">
        <ele>1074.8</ele>
        <time>2021-06-02T14:24:15.000Z</time>
      </trkpt>
      <trkpt lat="44.11156" lon="6.82385">
        <ele>1063.1</ele>
        <time>2021-06-02T14:24:21.000Z</time>
      </trkpt>
      <trkpt lat="44.11162" lon="6.82377">
        <ele>1055.8</ele>
        <time>2021-06-02T14:24:24.000Z</time>
      </trkpt>
      <trkpt lat="44.11168" lon="6.82373">
        <ele>1052.7</ele>
        <time>2021-06-02T14:24:27.000Z</time>
      </trkpt>
      <trkpt lat="44.11163" lon="6.82361">
        <ele>1045.7</ele>
        <time>2021-06-02T14:24:36.000Z</time>
      </trkpt>
      <trkpt lat="44.11158" lon="6.82357">
        <ele>1042.1</ele>
        <time>2021-06-02T14:24:39.000Z</time>
      </trkpt>
      <trkpt lat="44.11153" lon="6.82354">
        <ele>1038.5</ele>
        <time>2021-06-02T14:24:42.000Z</time>
      </trkpt>
      <trkpt lat="44.1116" lon="6.82341">
        <ele>1029.9</ele>
        <time>2021-06-02T14:24:51.000Z</time>
      </trkpt>
      <trkpt lat="44.11169" lon="6.82339">
        <ele>1026.9</ele>
        <time>2021-06-02T14:24:57.000Z</time>
      </trkpt>
      <trkpt lat="44.11164" lon="6.82329">
        <ele>1026</ele>
        <time>2021-06-02T14:25:03.000Z</time>
      </trkpt>
      <trkpt lat="44.11156" lon="6.82327">
        <ele>1025.9</ele>
        <time>2021-06-02T14:25:09.000Z</time>
      </trkpt>
      <trkpt lat="44.11154" lon="6.82315">
        <ele>1019.5</ele>
        <time>2021-06-02T14:25:15.000Z</time>
      </trkpt>
      <trkpt lat="44.11161" lon="6.82311">
        <ele>1016.2</ele>
        <time>2021-06-02T14:25:18.000Z</time>
      </trkpt>
      <trkpt lat="44.11186" lon="6.82303">
        <ele>1002.9</ele>
        <time>2021-06-02T14:25:24.000Z</time>
      </trkpt>
      <trkpt lat="44.11198" lon="6.823">
        <ele>1003</ele>
        <time>2021-06-02T14:25:27.273Z</time>
      </trkpt>
      <trkpt lat="44.11217" lon="6.8229">
        <ele>1002.2</ele>
        <time>2021-06-02T14:25:33.000Z</time>
      </trkpt>
      <trkpt lat="44.11221" lon="6.82277">
        <ele>999.4</ele>
        <time>2021-06-02T14:25:39.000Z</time>
      </trkpt>
      <trkpt lat="44.11212" lon="6.82274">
        <ele>997.7</ele>
        <time>2021-06-02T14:25:42.000Z</time>
      </trkpt>
      <trkpt lat="44.11199" lon="6.82269">
        <ele>996.8</ele>
        <time>2021-06-02T14:25:45.000Z</time>
      </trkpt>
      <trkpt lat="44.11179" lon="6.82261">
        <ele>995.3</ele>
        <time>2021-06-02T14:25:51.000Z</time>
      </trkpt>
      <trkpt lat="44.11159" lon="6.82254">
        <ele>989.8</ele>
        <time>2021-06-02T14:25:57.000Z</time>
      </trkpt>
      <trkpt lat="44.11151" lon="6.82251">
        <ele>988.6</ele>
        <time>2021-06-02T14:26:00.000Z</time>
      </trkpt>
      <trkpt lat="44.11158" lon="6.82244">
        <ele>984.7</ele>
        <time>2021-06-02T14:26:06.000Z</time>
      </trkpt>
      <trkpt lat="44.11162" lon="6.82242">
        <ele>981.3</ele>
        <time>2021-06-02T14:26:09.000Z</time>
      </trkpt>
      <trkpt lat="44.11159" lon="6.82233">
        <ele>984</ele>
        <time>2021-06-02T14:26:15.000Z</time>
      </trkpt>
      <trkpt lat="44.11149" lon="6.82229">
        <ele>983.9</ele>
        <time>2021-06-02T14:26:18.230Z</time>
      </trkpt>
      <trkpt lat="44.11136" lon="6.82226">
        <ele>981.1</ele>
        <time>2021-06-02T14:26:22.239Z</time>
      </trkpt>
      <trkpt lat="44.11144" lon="6.82216">
        <ele>976.1</ele>
        <time>2021-06-02T14:26:29.237Z</time>
      </trkpt>
      <trkpt lat="44.11144" lon="6.82208">
        <ele>974.1</ele>
        <time>2021-06-02T14:26:35.411Z</time>
      </trkpt>
      <trkpt lat="44.11138" lon="6.82205">
        <ele>973.5</ele>
        <time>2021-06-02T14:26:39.236Z</time>
      </trkpt>
      <trkpt lat="44.11139" lon="6.82197">
        <ele>970.4</ele>
        <time>2021-06-02T14:26:43.218Z</time>
      </trkpt>
      <trkpt lat="44.11134" lon="6.82194">
        <ele>966.1</ele>
        <time>2021-06-02T14:26:46.609Z</time>
      </trkpt>
      <trkpt lat="44.11134" lon="6.82187">
        <ele>965.6</ele>
        <time>2021-06-02T14:26:50.238Z</time>
      </trkpt>
      <trkpt lat="44.11145" lon="6.8218">
        <ele>959.9</ele>
        <time>2021-06-02T14:26:56.604Z</time>
      </trkpt>
      <trkpt lat="44.11155" lon="6.8217">
        <ele>956.3</ele>
        <time>2021-06-02T14:27:00.230Z</time>
      </trkpt>
      <trkpt lat="44.11161" lon="6.82162">
        <ele>957.6</ele>
        <time>2021-06-02T14:27:03.238Z</time>
      </trkpt>
      <trkpt lat="44.11163" lon="6.82148">
        <ele>954.1</ele>
        <time>2021-06-02T14:27:07.231Z</time>
      </trkpt>
      <trkpt lat="44.11161" lon="6.82138">
        <ele>951.2</ele>
        <time>2021-06-02T14:27:10.407Z</time>
      </trkpt>
      <trkpt lat="44.11154" lon="6.82132">
        <ele>951.9</ele>
        <time>2021-06-02T14:27:13.864Z</time>
      </trkpt>
      <trkpt lat="44.11141" lon="6.82128">
        <ele>950.2</ele>
        <time>2021-06-02T14:27:18.235Z</time>
      </trkpt>
      <trkpt lat="44.11133" lon="6.82122">
        <ele>950.1</ele>
        <time>2021-06-02T14:27:21.236Z</time>
      </trkpt>
      <trkpt lat="44.11141" lon="6.8211">
        <ele>946.5</ele>
        <time>2021-06-02T14:27:25.049Z</time>
      </trkpt>
      <trkpt lat="44.11148" lon="6.82099">
        <ele>945.9</ele>
        <time>2021-06-02T14:27:29.229Z</time>
      </trkpt>
      <trkpt lat="44.11153" lon="6.82096">
        <ele>941.4</ele>
        <time>2021-06-02T14:27:33.240Z</time>
      </trkpt>
      <trkpt lat="44.11161" lon="6.82092">
        <ele>929.5</ele>
        <time>2021-06-02T14:27:42.000Z</time>
      </trkpt>
      <trkpt lat="44.11158" lon="6.82082">
        <ele>927.6</ele>
        <time>2021-06-02T14:28:18.000Z</time>
      </trkpt>
      <trkpt lat="44.11154" lon="6.82078">
        <ele>926</ele>
        <time>2021-06-02T14:28:24.000Z</time>
      </trkpt>
      <trkpt lat="44.11159" lon="6.82068">
        <ele>1032.5</ele>
        <time>2021-06-02T14:28:33.000Z</time>
      </trkpt>
      <trkpt lat="44.11165" lon="6.8207">
        <ele>963.3</ele>
        <time>2021-06-02T14:28:39.000Z</time>
      </trkpt>
      <trkpt lat="44.11163" lon="6.8206">
        <ele>947.7</ele>
        <time>2021-06-02T14:28:42.000Z</time>
      </trkpt>
      <trkpt lat="44.11164" lon="6.82053">
        <ele>926.3</ele>
        <time>2021-06-02T14:29:18.000Z</time>
      </trkpt>
      <trkpt lat="44.11165" lon="6.82059">
        <ele>918.9</ele>
        <time>2021-06-02T14:29:51.000Z</time>
      </trkpt>
      <trkpt lat="44.11167" lon="6.82051">
        <ele>911.5</ele>
        <time>2021-06-02T14:31:03.000Z</time>
      </trkpt>
      <trkpt lat="44.11172" lon="6.82044">
        <ele>909.8</ele>
        <time>2021-06-02T14:31:06.000Z</time>
      </trkpt>
      <trkpt lat="44.11178" lon="6.82049">
        <ele>909.6</ele>
        <time>2021-06-02T14:31:10.081Z</time>
      </trkpt>
      <trkpt lat="44.11177" lon="6.82056">
        <ele>911.2</ele>
        <time>2021-06-02T14:31:13.223Z</time>
      </trkpt>
      <trkpt lat="44.11171" lon="6.82055">
        <ele>911.8</ele>
        <time>2021-06-02T14:31:18.000Z</time>
      </trkpt>
      <trkpt lat="44.11174" lon="6.82049">
        <ele>911.2</ele>
        <time>2021-06-02T14:31:36.000Z</time>
      </trkpt>
      <trkpt lat="44.11176" lon="6.82043">
        <ele>916</ele>
        <time>2021-06-02T14:32:35.237Z</time>
      </trkpt>
      <trkpt lat="44.11164" lon="6.82045">
        <ele>916</ele>
        <time>2021-06-02T14:32:39.237Z</time>
      </trkpt>
      <trkpt lat="44.11152" lon="6.82049">
        <ele>916.7</ele>
        <time>2021-06-02T14:32:43.233Z</time>
      </trkpt>
      <trkpt lat="44.1114" lon="6.82052">
        <ele>1153.5</ele>
        <time>2021-06-02T14:32:47.234Z</time>
      </trkpt>
      <trkpt lat="44.11127" lon="6.82057">
        <ele>1005.7</ele>
        <time>2021-06-02T14:32:51.229Z</time>
      </trkpt>
      <trkpt lat="44.11118" lon="6.82062">
        <ele>946.8</ele>
        <time>2021-06-02T14:32:54.293Z</time>
      </trkpt>
      <trkpt lat="44.11106" lon="6.82072">
        <ele>940.2</ele>
        <time>2021-06-02T14:32:59.238Z</time>
      </trkpt>
      <trkpt lat="44.11097" lon="6.82083">
        <ele>931.6</ele>
        <time>2021-06-02T14:33:03.235Z</time>
      </trkpt>
      <trkpt lat="44.11093" lon="6.82092">
        <ele>930</ele>
        <time>2021-06-02T14:33:06.259Z</time>
      </trkpt>
      <trkpt lat="44.11084" lon="6.82101">
        <ele>929.9</ele>
        <time>2021-06-02T14:33:10.230Z</time>
      </trkpt>
      <trkpt lat="44.11076" lon="6.82112">
        <ele>930.5</ele>
        <time>2021-06-02T14:33:13.419Z</time>
      </trkpt>
      <trkpt lat="44.11067" lon="6.82126">
        <ele>932.9</ele>
        <time>2021-06-02T14:33:17.237Z</time>
      </trkpt>
      <trkpt lat="44.1106" lon="6.82141">
        <ele>932.8</ele>
        <time>2021-06-02T14:33:20.303Z</time>
      </trkpt>
      <trkpt lat="44.11056" lon="6.82156">
        <ele>933</ele>
        <time>2021-06-02T14:33:23.396Z</time>
      </trkpt>
      <trkpt lat="44.11053" lon="6.82174">
        <ele>928.7</ele>
        <time>2021-06-02T14:33:27.228Z</time>
      </trkpt>
      <trkpt lat="44.11048" lon="6.82188">
        <ele>925.7</ele>
        <time>2021-06-02T14:33:30.237Z</time>
      </trkpt>
      <trkpt lat="44.11043" lon="6.82204">
        <ele>926.4</ele>
        <time>2021-06-02T14:33:33.294Z</time>
      </trkpt>
      <trkpt lat="44.11037" lon="6.82225">
        <ele>929.6</ele>
        <time>2021-06-02T14:33:37.231Z</time>
      </trkpt>
      <trkpt lat="44.11032" lon="6.82238">
        <ele>927.7</ele>
        <time>2021-06-02T14:33:40.239Z</time>
      </trkpt>
      <trkpt lat="44.11024" lon="6.82254">
        <ele>929.4</ele>
        <time>2021-06-02T14:33:43.887Z</time>
      </trkpt>
      <trkpt lat="44.11016" lon="6.82265">
        <ele>930.2</ele>
        <time>2021-06-02T14:33:47.223Z</time>
      </trkpt>
      <trkpt lat="44.11003" lon="6.82268">
        <ele>930.3</ele>
        <time>2021-06-02T14:33:50.229Z</time>
      </trkpt>
      <trkpt lat="44.10988" lon="6.8228">
        <ele>929.4</ele>
        <time>2021-06-02T14:33:54.226Z</time>
      </trkpt>
      <trkpt lat="44.1097" lon="6.82308">
        <ele>926.9</ele>
        <time>2021-06-02T14:33:58.227Z</time>
      </trkpt>
      <trkpt lat="44.10969" lon="6.82324">
        <ele>927.3</ele>
        <time>2021-06-02T14:34:01.227Z</time>
      </trkpt>
      <trkpt lat="44.10961" lon="6.82336">
        <ele>923.4</ele>
        <time>2021-06-02T14:34:04.285Z</time>
      </trkpt>
      <trkpt lat="44.10948" lon="6.82349">
        <ele>923.8</ele>
        <time>2021-06-02T14:34:07.550Z</time>
      </trkpt>
      <trkpt lat="44.10931" lon="6.8238">
        <ele>919.6</ele>
        <time>2021-06-02T14:34:12.000Z</time>
      </trkpt>
      <trkpt lat="44.10925" lon="6.82429">
        <ele>919</ele>
        <time>2021-06-02T14:34:21.000Z</time>
      </trkpt>
      <trkpt lat="44.10922" lon="6.82453">
        <ele>1082.3</ele>
        <time>2021-06-02T14:34:28.230Z</time>
      </trkpt>
      <trkpt lat="44.10923" lon="6.82481">
        <ele>995.2</ele>
        <time>2021-06-02T14:34:32.242Z</time>
      </trkpt>
      <trkpt lat="44.10925" lon="6.8252">
        <ele>947</ele>
        <time>2021-06-02T14:34:36.000Z</time>
      </trkpt>
      <trkpt lat="44.10924" lon="6.82527">
        <ele>947</ele>
        <time>2021-06-02T14:34:39.233Z</time>
      </trkpt>
      <trkpt lat="44.10918" lon="6.82555">
        <ele>935.3</ele>
        <time>2021-06-02T14:34:42.000Z</time>
      </trkpt>
      <trkpt lat="44.10925" lon="6.82573">
        <ele>929.5</ele>
        <time>2021-06-02T14:34:45.457Z</time>
      </trkpt>
      <trkpt lat="44.10935" lon="6.8262">
        <ele>921</ele>
        <time>2021-06-02T14:34:51.000Z</time>
      </trkpt>
      <trkpt lat="44.10934" lon="6.82669">
        <ele>923.2</ele>
        <time>2021-06-02T14:34:57.000Z</time>
      </trkpt>
      <trkpt lat="44.10926" lon="6.82693">
        <ele>924.1</ele>
        <time>2021-06-02T14:35:00.000Z</time>
      </trkpt>
      <trkpt lat="44.10906" lon="6.82737">
        <ele>927</ele>
        <time>2021-06-02T14:35:06.000Z</time>
      </trkpt>
      <trkpt lat="44.10899" lon="6.82759">
        <ele>928.2</ele>
        <time>2021-06-02T14:35:09.000Z</time>
      </trkpt>
      <trkpt lat="44.10894" lon="6.828">
        <ele>923.5</ele>
        <time>2021-06-02T14:35:15.000Z</time>
      </trkpt>
      <trkpt lat="44.10893" lon="6.82822">
        <ele>923.6</ele>
        <time>2021-06-02T14:35:18.000Z</time>
      </trkpt>
      <trkpt lat="44.10887" lon="6.8287">
        <ele>926.2</ele>
        <time>2021-06-02T14:35:24.000Z</time>
      </trkpt>
      <trkpt lat="44.10886" lon="6.82896">
        <ele>926.4</ele>
        <time>2021-06-02T14:35:27.000Z</time>
      </trkpt>
      <trkpt lat="44.1089" lon="6.8295">
        <ele>925.6</ele>
        <time>2021-06-02T14:35:33.000Z</time>
      </trkpt>
      <trkpt lat="44.10897" lon="6.83005">
        <ele>924.2</ele>
        <time>2021-06-02T14:35:39.000Z</time>
      </trkpt>
      <trkpt lat="44.10894" lon="6.83053">
        <ele>923</ele>
        <time>2021-06-02T14:35:45.000Z</time>
      </trkpt>
      <trkpt lat="44.1089" lon="6.83075">
        <ele>924.3</ele>
        <time>2021-06-02T14:35:48.000Z</time>
      </trkpt>
      <trkpt lat="44.10887" lon="6.83098">
        <ele>923.8</ele>
        <time>2021-06-02T14:35:51.000Z</time>
      </trkpt>
      <trkpt lat="44.10885" lon="6.83141">
        <ele>926.5</ele>
        <time>2021-06-02T14:35:57.000Z</time>
      </trkpt>
      <trkpt lat="44.10888" lon="6.83168">
        <ele>927.8</ele>
        <time>2021-06-02T14:36:02.365Z</time>
      </trkpt>
      <trkpt lat="44.10891" lon="6.83198">
        <ele>926.4</ele>
        <time>2021-06-02T14:36:06.000Z</time>
      </trkpt>
      <trkpt lat="44.10894" lon="6.8322">
        <ele>926.6</ele>
        <time>2021-06-02T14:36:10.067Z</time>
      </trkpt>
      <trkpt lat="44.10905" lon="6.83253">
        <ele>924.4</ele>
        <time>2021-06-02T14:36:15.000Z</time>
      </trkpt>
      <trkpt lat="44.10909" lon="6.83293">
        <ele>921.9</ele>
        <time>2021-06-02T14:36:21.000Z</time>
      </trkpt>
      <trkpt lat="44.10914" lon="6.83309">
        <ele>918.3</ele>
        <time>2021-06-02T14:36:24.000Z</time>
      </trkpt>
      <trkpt lat="44.1092" lon="6.83329">
        <ele>1036.1</ele>
        <time>2021-06-02T14:36:27.000Z</time>
      </trkpt>
      <trkpt lat="44.10945" lon="6.83366">
        <ele>945.8</ele>
        <time>2021-06-02T14:36:33.000Z</time>
      </trkpt>
      <trkpt lat="44.1097" lon="6.83383">
        <ele>937.1</ele>
        <time>2021-06-02T14:36:38.459Z</time>
      </trkpt>
      <trkpt lat="44.1099" lon="6.83397">
        <ele>935.6</ele>
        <time>2021-06-02T14:36:42.000Z</time>
      </trkpt>
      <trkpt lat="44.1101" lon="6.83404">
        <ele>932.1</ele>
        <time>2021-06-02T14:36:45.000Z</time>
      </trkpt>
      <trkpt lat="44.11051" lon="6.8341">
        <ele>920.7</ele>
        <time>2021-06-02T14:36:51.000Z</time>
      </trkpt>
      <trkpt lat="44.11071" lon="6.83416">
        <ele>922.7</ele>
        <time>2021-06-02T14:36:54.000Z</time>
      </trkpt>
      <trkpt lat="44.11107" lon="6.83432">
        <ele>921.3</ele>
        <time>2021-06-02T14:37:00.000Z</time>
      </trkpt>
      <trkpt lat="44.11138" lon="6.83466">
        <ele>913</ele>
        <time>2021-06-02T14:37:06.000Z</time>
      </trkpt>
      <trkpt lat="44.11172" lon="6.83502">
        <ele>912.9</ele>
        <time>2021-06-02T14:37:12.000Z</time>
      </trkpt>
      <trkpt lat="44.1119" lon="6.83522">
        <ele>914.8</ele>
        <time>2021-06-02T14:37:15.000Z</time>
      </trkpt>
      <trkpt lat="44.1121" lon="6.83544">
        <ele>922.4</ele>
        <time>2021-06-02T14:37:18.000Z</time>
      </trkpt>
      <trkpt lat="44.11229" lon="6.83584">
        <ele>918.4</ele>
        <time>2021-06-02T14:37:24.000Z</time>
      </trkpt>
      <trkpt lat="44.11224" lon="6.83608">
        <ele>916.4</ele>
        <time>2021-06-02T14:37:27.000Z</time>
      </trkpt>
      <trkpt lat="44.1122" lon="6.83652">
        <ele>917.2</ele>
        <time>2021-06-02T14:37:33.000Z</time>
      </trkpt>
      <trkpt lat="44.11212" lon="6.83674">
        <ele>917.6</ele>
        <time>2021-06-02T14:37:36.000Z</time>
      </trkpt>
      <trkpt lat="44.11181" lon="6.83695">
        <ele>919.6</ele>
        <time>2021-06-02T14:37:42.000Z</time>
      </trkpt>
      <trkpt lat="44.11162" lon="6.83696">
        <ele>916.5</ele>
        <time>2021-06-02T14:37:45.000Z</time>
      </trkpt>
      <trkpt lat="44.11145" lon="6.83699">
        <ele>917.5</ele>
        <time>2021-06-02T14:37:48.000Z</time>
      </trkpt>
      <trkpt lat="44.1113" lon="6.83702">
        <ele>916.5</ele>
        <time>2021-06-02T14:37:51.000Z</time>
      </trkpt>
      <trkpt lat="44.11099" lon="6.83699">
        <ele>911.2</ele>
        <time>2021-06-02T14:37:57.000Z</time>
      </trkpt>
      <trkpt lat="44.11068" lon="6.83702">
        <ele>913.8</ele>
        <time>2021-06-02T14:38:03.000Z</time>
      </trkpt>
      <trkpt lat="44.1104" lon="6.83711">
        <ele>912.3</ele>
        <time>2021-06-02T14:38:09.000Z</time>
      </trkpt>
      <trkpt lat="44.11026" lon="6.8372">
        <ele>911.9</ele>
        <time>2021-06-02T14:38:12.000Z</time>
      </trkpt>
      <trkpt lat="44.10999" lon="6.8374">
        <ele>909.1</ele>
        <time>2021-06-02T14:38:18.000Z</time>
      </trkpt>
      <trkpt lat="44.10971" lon="6.8376">
        <ele>907.9</ele>
        <time>2021-06-02T14:38:24.000Z</time>
      </trkpt>
      <trkpt lat="44.10958" lon="6.83768">
        <ele>905.6</ele>
        <time>2021-06-02T14:38:27.000Z</time>
      </trkpt>
      <trkpt lat="44.10945" lon="6.83775">
        <ele>909</ele>
        <time>2021-06-02T14:38:30.000Z</time>
      </trkpt>
      <trkpt lat="44.1093" lon="6.83777">
        <ele>909.9</ele>
        <time>2021-06-02T14:38:33.317Z</time>
      </trkpt>
      <trkpt lat="44.10899" lon="6.83785">
        <ele>911.2</ele>
        <time>2021-06-02T14:38:39.000Z</time>
      </trkpt>
      <trkpt lat="44.10883" lon="6.83794">
        <ele>908.8</ele>
        <time>2021-06-02T14:38:42.000Z</time>
      </trkpt>
      <trkpt lat="44.10858" lon="6.83817">
        <ele>905</ele>
        <time>2021-06-02T14:38:48.000Z</time>
      </trkpt>
      <trkpt lat="44.10847" lon="6.8383">
        <ele>907.9</ele>
        <time>2021-06-02T14:38:51.000Z</time>
      </trkpt>
      <trkpt lat="44.10824" lon="6.83856">
        <ele>905.8</ele>
        <time>2021-06-02T14:38:57.000Z</time>
      </trkpt>
      <trkpt lat="44.10815" lon="6.83894">
        <ele>903.8</ele>
        <time>2021-06-02T14:39:03.000Z</time>
      </trkpt>
      <trkpt lat="44.1081" lon="6.83914">
        <ele>904.9</ele>
        <time>2021-06-02T14:39:06.000Z</time>
      </trkpt>
      <trkpt lat="44.10796" lon="6.83953">
        <ele>901.7</ele>
        <time>2021-06-02T14:39:12.000Z</time>
      </trkpt>
      <trkpt lat="44.10797" lon="6.83977">
        <ele>901</ele>
        <time>2021-06-02T14:39:15.000Z</time>
      </trkpt>
      <trkpt lat="44.10795" lon="6.84002">
        <ele>1032.3</ele>
        <time>2021-06-02T14:39:18.000Z</time>
      </trkpt>
      <trkpt lat="44.10773" lon="6.84046">
        <ele>936.5</ele>
        <time>2021-06-02T14:39:24.000Z</time>
      </trkpt>
      <trkpt lat="44.10762" lon="6.84069">
        <ele>921.7</ele>
        <time>2021-06-02T14:39:27.000Z</time>
      </trkpt>
      <trkpt lat="44.10743" lon="6.84107">
        <ele>904.6</ele>
        <time>2021-06-02T14:39:33.000Z</time>
      </trkpt>
      <trkpt lat="44.10737" lon="6.84116">
        <ele>904.5</ele>
        <time>2021-06-02T14:39:36.000Z</time>
      </trkpt>
      <trkpt lat="44.10734" lon="6.8412">
        <ele>903.7</ele>
        <time>2021-06-02T14:39:51.283Z</time>
      </trkpt>
      <trkpt lat="44.10733" lon="6.84128">
        <ele>901.9</ele>
        <time>2021-06-02T14:39:55.515Z</time>
      </trkpt>
      <trkpt lat="44.1073" lon="6.84144">
        <ele>902.9</ele>
        <time>2021-06-02T14:39:59.153Z</time>
      </trkpt>
      <trkpt lat="44.10724" lon="6.84188">
        <ele>905.1</ele>
        <time>2021-06-02T14:40:03.000Z</time>
      </trkpt>
      <trkpt lat="44.10715" lon="6.84223">
        <ele>903</ele>
        <time>2021-06-02T14:40:06.000Z</time>
      </trkpt>
      <trkpt lat="44.10705" lon="6.84252">
        <ele>901.3</ele>
        <time>2021-06-02T14:40:09.000Z</time>
      </trkpt>
      <trkpt lat="44.10684" lon="6.84309">
        <ele>899</ele>
        <time>2021-06-02T14:40:15.000Z</time>
      </trkpt>
      <trkpt lat="44.1067" lon="6.84341">
        <ele>899.7</ele>
        <time>2021-06-02T14:40:21.000Z</time>
      </trkpt>
      <trkpt lat="44.10668" lon="6.84357">
        <ele>900.1</ele>
        <time>2021-06-02T14:40:24.360Z</time>
      </trkpt>
      <trkpt lat="44.10671" lon="6.84378">
        <ele>900.4</ele>
        <time>2021-06-02T14:40:32.235Z</time>
      </trkpt>
      <trkpt lat="44.10674" lon="6.84405">
        <ele>900.6</ele>
        <time>2021-06-02T14:40:36.232Z</time>
      </trkpt>
      <trkpt lat="44.10654" lon="6.84438">
        <ele>901.3</ele>
        <time>2021-06-02T14:40:41.230Z</time>
      </trkpt>
      <trkpt lat="44.10653" lon="6.84453">
        <ele>902</ele>
        <time>2021-06-02T14:40:45.265Z</time>
      </trkpt>
      <trkpt lat="44.10651" lon="6.84467">
        <ele>899.4</ele>
        <time>2021-06-02T14:40:48.312Z</time>
      </trkpt>
      <trkpt lat="44.10646" lon="6.84492">
        <ele>897.1</ele>
        <time>2021-06-02T14:40:53.229Z</time>
      </trkpt>
      <trkpt lat="44.10641" lon="6.84508">
        <ele>896.9</ele>
        <time>2021-06-02T14:40:56.234Z</time>
      </trkpt>
      <trkpt lat="44.10632" lon="6.84527">
        <ele>896</ele>
        <time>2021-06-02T14:41:00.232Z</time>
      </trkpt>
      <trkpt lat="44.10626" lon="6.84546">
        <ele>896.6</ele>
        <time>2021-06-02T14:41:03.258Z</time>
      </trkpt>
      <trkpt lat="44.10618" lon="6.84571">
        <ele>902.7</ele>
        <time>2021-06-02T14:41:07.238Z</time>
      </trkpt>
      <trkpt lat="44.10608" lon="6.84593">
        <ele>906.1</ele>
        <time>2021-06-02T14:41:12.000Z</time>
      </trkpt>
      <trkpt lat="44.10596" lon="6.846">
        <ele>905.4</ele>
        <time>2021-06-02T14:41:18.000Z</time>
      </trkpt>
      <trkpt lat="44.10599" lon="6.84605">
        <ele>904.2</ele>
        <time>2021-06-02T14:41:26.340Z</time>
      </trkpt>
      <trkpt lat="44.10604" lon="6.84608">
        <ele>899.4</ele>
        <time>2021-06-02T14:41:58.021Z</time>
      </trkpt>
      <trkpt lat="44.10571" lon="6.84652">
        <ele>894.6</ele>
        <time>2021-06-02T14:42:03.000Z</time>
      </trkpt>
      <trkpt lat="44.10551" lon="6.84672">
        <ele>893.7</ele>
        <time>2021-06-02T14:42:06.000Z</time>
      </trkpt>
      <trkpt lat="44.10536" lon="6.84694">
        <ele>892.8</ele>
        <time>2021-06-02T14:42:09.000Z</time>
      </trkpt>
      <trkpt lat="44.10517" lon="6.84718">
        <ele>895.4</ele>
        <time>2021-06-02T14:42:15.000Z</time>
      </trkpt>
      <trkpt lat="44.10499" lon="6.84736">
        <ele>893</ele>
        <time>2021-06-02T14:42:18.000Z</time>
      </trkpt>
      <trkpt lat="44.10475" lon="6.84766">
        <ele>892.3</ele>
        <time>2021-06-02T14:42:21.000Z</time>
      </trkpt>
      <trkpt lat="44.1043" lon="6.84831">
        <ele>889.3</ele>
        <time>2021-06-02T14:42:27.000Z</time>
      </trkpt>
      <trkpt lat="44.10409" lon="6.84857">
        <ele>889.1</ele>
        <time>2021-06-02T14:42:30.000Z</time>
      </trkpt>
      <trkpt lat="44.10381" lon="6.8493">
        <ele>885.7</ele>
        <time>2021-06-02T14:42:36.000Z</time>
      </trkpt>
      <trkpt lat="44.10348" lon="6.84951">
        <ele>885.9</ele>
        <time>2021-06-02T14:42:39.000Z</time>
      </trkpt>
      <trkpt lat="44.10297" lon="6.84938">
        <ele>881.3</ele>
        <time>2021-06-02T14:42:45.000Z</time>
      </trkpt>
      <trkpt lat="44.10268" lon="6.8493">
        <ele>876.9</ele>
        <time>2021-06-02T14:42:48.000Z</time>
      </trkpt>
      <trkpt lat="44.10213" lon="6.84917">
        <ele>872.8</ele>
        <time>2021-06-02T14:42:54.000Z</time>
      </trkpt>
      <trkpt lat="44.1016" lon="6.84891">
        <ele>868</ele>
        <time>2021-06-02T14:43:00.000Z</time>
      </trkpt>
      <trkpt lat="44.10132" lon="6.84876">
        <ele>868.5</ele>
        <time>2021-06-02T14:43:03.000Z</time>
      </trkpt>
      <trkpt lat="44.10082" lon="6.84841">
        <ele>864.6</ele>
        <time>2021-06-02T14:43:09.000Z</time>
      </trkpt>
      <trkpt lat="44.10053" lon="6.84843">
        <ele>863.5</ele>
        <time>2021-06-02T14:43:12.000Z</time>
      </trkpt>
      <trkpt lat="44.10001" lon="6.84883">
        <ele>864.2</ele>
        <time>2021-06-02T14:43:18.000Z</time>
      </trkpt>
      <trkpt lat="44.0995" lon="6.84895">
        <ele>863.2</ele>
        <time>2021-06-02T14:43:23.000Z</time>
      </trkpt>
      <trkpt lat="44.09913" lon="6.84908">
        <ele>857.8</ele>
        <time>2021-06-02T14:43:27.000Z</time>
      </trkpt>
      <trkpt lat="44.09886" lon="6.84919">
        <ele>858.6</ele>
        <time>2021-06-02T14:43:30.000Z</time>
      </trkpt>
      <trkpt lat="44.09858" lon="6.84929">
        <ele>858.5</ele>
        <time>2021-06-02T14:43:33.000Z</time>
      </trkpt>
      <trkpt lat="44.09809" lon="6.84941">
        <ele>855.2</ele>
        <time>2021-06-02T14:43:39.000Z</time>
      </trkpt>
      <trkpt lat="44.09785" lon="6.84953">
        <ele>858.5</ele>
        <time>2021-06-02T14:43:42.000Z</time>
      </trkpt>
      <trkpt lat="44.09739" lon="6.84977">
        <ele>856.9</ele>
        <time>2021-06-02T14:43:48.000Z</time>
      </trkpt>
      <trkpt lat="44.09714" lon="6.84992">
        <ele>855.9</ele>
        <time>2021-06-02T14:43:51.000Z</time>
      </trkpt>
      <trkpt lat="44.09672" lon="6.85032">
        <ele>851</ele>
        <time>2021-06-02T14:43:57.000Z</time>
      </trkpt>
      <trkpt lat="44.09654" lon="6.85059">
        <ele>850.6</ele>
        <time>2021-06-02T14:44:00.000Z</time>
      </trkpt>
      <trkpt lat="44.09637" lon="6.85087">
        <ele>848.1</ele>
        <time>2021-06-02T14:44:03.000Z</time>
      </trkpt>
      <trkpt lat="44.09511" lon="6.85205">
        <ele>849.7</ele>
        <time>2021-06-02T14:44:18.000Z</time>
      </trkpt>
      <trkpt lat="44.09472" lon="6.8522">
        <ele>849.9</ele>
        <time>2021-06-02T14:44:22.000Z</time>
      </trkpt>
      <trkpt lat="44.09413" lon="6.85238">
        <ele>848.6</ele>
        <time>2021-06-02T14:44:28.000Z</time>
      </trkpt>
      <trkpt lat="44.09391" lon="6.85238">
        <ele>847.7</ele>
        <time>2021-06-02T14:44:31.000Z</time>
      </trkpt>
      <trkpt lat="44.0935" lon="6.85247">
        <ele>840.7</ele>
        <time>2021-06-02T14:44:37.000Z</time>
      </trkpt>
      <trkpt lat="44.09322" lon="6.85254">
        <ele>843.1</ele>
        <time>2021-06-02T14:44:40.000Z</time>
      </trkpt>
      <trkpt lat="44.09295" lon="6.85247">
        <ele>841.4</ele>
        <time>2021-06-02T14:44:43.000Z</time>
      </trkpt>
      <trkpt lat="44.09239" lon="6.85224">
        <ele>838.8</ele>
        <time>2021-06-02T14:44:49.000Z</time>
      </trkpt>
      <trkpt lat="44.09177" lon="6.85254">
        <ele>833.1</ele>
        <time>2021-06-02T14:44:55.000Z</time>
      </trkpt>
      <trkpt lat="44.09149" lon="6.8527">
        <ele>834.1</ele>
        <time>2021-06-02T14:44:58.000Z</time>
      </trkpt>
      <trkpt lat="44.09094" lon="6.85297">
        <ele>831.9</ele>
        <time>2021-06-02T14:45:04.000Z</time>
      </trkpt>
      <trkpt lat="44.09069" lon="6.85312">
        <ele>831.5</ele>
        <time>2021-06-02T14:45:07.000Z</time>
      </trkpt>
      <trkpt lat="44.09024" lon="6.85334">
        <ele>832</ele>
        <time>2021-06-02T14:45:13.000Z</time>
      </trkpt>
      <trkpt lat="44.09003" lon="6.85337">
        <ele>839.6</ele>
        <time>2021-06-02T14:45:19.000Z</time>
      </trkpt>
      <trkpt lat="44.08997" lon="6.85342">
        <ele>838.1</ele>
        <time>2021-06-02T14:45:25.000Z</time>
      </trkpt>
      <trkpt lat="44.09003" lon="6.85347">
        <ele>834.3</ele>
        <time>2021-06-02T14:45:31.000Z</time>
      </trkpt>
    </trkseg>
  </trk>
</gpx>